<?xml version="1.0" encoding="UTF-8" standalone="no" ?>
<gpx xmlns="http://www.topografix.com/GPX/1/1" xmlns:xsi="http://www.w3.org/2001/XMLSchema-instance" xsi:schemaLocation="http://www.topografix.com/GPX/1/1 http://www.topografix.com/GPX/1/1/gpx.xsd" version="1.1" creator="VisuGPX - https://www.visugpx.com">
  <metadata>
    <name>2018-08-06 Bike ride-Amberieux-Savigneux O 33k</name>
    <desc><![CDATA[2018-08-06 Bike ride-Amberieux-Savigneux O 33k]]></desc>
  </metadata>
  <wpt lat="45.92448" lon="4.73734">
    <ele>174</ele>
    <name><![CDATA[2018-08-06 10:49 (Start)]]></name>
  </wpt>
  <wpt lat="45.92459" lon="4.7371">
    <ele>174</ele>
    <name><![CDATA[2018-08-06 10:49 (End)]]></name>
  </wpt>
  <trk>
    <name><![CDATA[2018-08-06 10:49]]></name>
    <trkseg>
      <trkpt lat="45.92448" lon="4.73734">
        <ele>174</ele>
        <time>2018-08-06T08:49:10.995Z</time>
      </trkpt>
      <trkpt lat="45.92445" lon="4.73722">
        <ele>174</ele>
        <time>2018-08-06T08:49:15.301Z</time>
      </trkpt>
      <trkpt lat="45.92445" lon="4.73719">
        <ele>174</ele>
        <time>2018-08-06T08:49:16.3Z</time>
      </trkpt>
      <trkpt lat="45.92453" lon="4.73719">
        <ele>174</ele>
        <time>2018-08-06T08:49:22Z</time>
      </trkpt>
      <trkpt lat="45.92455" lon="4.73714">
        <ele>174</ele>
        <time>2018-08-06T08:49:23Z</time>
      </trkpt>
      <trkpt lat="45.9246" lon="4.73704">
        <ele>174</ele>
        <time>2018-08-06T08:49:31Z</time>
      </trkpt>
      <trkpt lat="45.92461" lon="4.73702">
        <ele>174</ele>
        <time>2018-08-06T08:49:32Z</time>
      </trkpt>
      <trkpt lat="45.92462" lon="4.73691">
        <ele>174</ele>
        <time>2018-08-06T08:49:35Z</time>
      </trkpt>
      <trkpt lat="45.92463" lon="4.73687">
        <ele>174</ele>
        <time>2018-08-06T08:49:36Z</time>
      </trkpt>
      <trkpt lat="45.92463" lon="4.73676">
        <ele>174</ele>
        <time>2018-08-06T08:49:39Z</time>
      </trkpt>
      <trkpt lat="45.92463" lon="4.73672">
        <ele>174</ele>
        <time>2018-08-06T08:49:40Z</time>
      </trkpt>
      <trkpt lat="45.92463" lon="4.73663">
        <ele>174</ele>
        <time>2018-08-06T08:49:42Z</time>
      </trkpt>
      <trkpt lat="45.92463" lon="4.73659">
        <ele>174</ele>
        <time>2018-08-06T08:49:43Z</time>
      </trkpt>
      <trkpt lat="45.92464" lon="4.73648">
        <ele>174</ele>
        <time>2018-08-06T08:49:45Z</time>
      </trkpt>
      <trkpt lat="45.92464" lon="4.73643">
        <ele>174</ele>
        <time>2018-08-06T08:49:46Z</time>
      </trkpt>
      <trkpt lat="45.92465" lon="4.73628">
        <ele>174</ele>
        <time>2018-08-06T08:49:47Z</time>
      </trkpt>
      <trkpt lat="45.92464" lon="4.73616">
        <ele>174</ele>
        <time>2018-08-06T08:49:49Z</time>
      </trkpt>
      <trkpt lat="45.92463" lon="4.7361">
        <ele>174</ele>
        <time>2018-08-06T08:49:50Z</time>
      </trkpt>
      <trkpt lat="45.92461" lon="4.73598">
        <ele>174</ele>
        <time>2018-08-06T08:49:52Z</time>
      </trkpt>
      <trkpt lat="45.92461" lon="4.73592">
        <ele>174</ele>
        <time>2018-08-06T08:49:53Z</time>
      </trkpt>
      <trkpt lat="45.9246" lon="4.73581">
        <ele>173</ele>
        <time>2018-08-06T08:49:56Z</time>
      </trkpt>
      <trkpt lat="45.9246" lon="4.73578">
        <ele>173</ele>
        <time>2018-08-06T08:49:57Z</time>
      </trkpt>
      <trkpt lat="45.92461" lon="4.73568">
        <ele>173</ele>
        <time>2018-08-06T08:50:00Z</time>
      </trkpt>
      <trkpt lat="45.92461" lon="4.73564">
        <ele>173</ele>
        <time>2018-08-06T08:50:01Z</time>
      </trkpt>
      <trkpt lat="45.92462" lon="4.73552">
        <ele>173</ele>
        <time>2018-08-06T08:50:04Z</time>
      </trkpt>
      <trkpt lat="45.92462" lon="4.73549">
        <ele>173</ele>
        <time>2018-08-06T08:50:05Z</time>
      </trkpt>
      <trkpt lat="45.92462" lon="4.73539">
        <ele>174</ele>
        <time>2018-08-06T08:50:08Z</time>
      </trkpt>
      <trkpt lat="45.92462" lon="4.73535">
        <ele>174</ele>
        <time>2018-08-06T08:50:09Z</time>
      </trkpt>
      <trkpt lat="45.92462" lon="4.73531">
        <ele>174</ele>
        <time>2018-08-06T08:50:10Z</time>
      </trkpt>
      <trkpt lat="45.92463" lon="4.73521">
        <ele>174</ele>
        <time>2018-08-06T08:50:11Z</time>
      </trkpt>
      <trkpt lat="45.92463" lon="4.7351">
        <ele>174</ele>
        <time>2018-08-06T08:50:13Z</time>
      </trkpt>
      <trkpt lat="45.92465" lon="4.73505">
        <ele>174</ele>
        <time>2018-08-06T08:50:14Z</time>
      </trkpt>
      <trkpt lat="45.92464" lon="4.73499">
        <ele>173</ele>
        <time>2018-08-06T08:50:15Z</time>
      </trkpt>
      <trkpt lat="45.92465" lon="4.73492">
        <ele>173</ele>
        <time>2018-08-06T08:50:16Z</time>
      </trkpt>
      <trkpt lat="45.92464" lon="4.73485">
        <ele>173</ele>
        <time>2018-08-06T08:50:17Z</time>
      </trkpt>
      <trkpt lat="45.92464" lon="4.73478">
        <ele>173</ele>
        <time>2018-08-06T08:50:18Z</time>
      </trkpt>
      <trkpt lat="45.92464" lon="4.7347">
        <ele>173</ele>
        <time>2018-08-06T08:50:19Z</time>
      </trkpt>
      <trkpt lat="45.92464" lon="4.73462">
        <ele>173</ele>
        <time>2018-08-06T08:50:20Z</time>
      </trkpt>
      <trkpt lat="45.92465" lon="4.73456">
        <ele>173</ele>
        <time>2018-08-06T08:50:21Z</time>
      </trkpt>
      <trkpt lat="45.92464" lon="4.73448">
        <ele>173</ele>
        <time>2018-08-06T08:50:22Z</time>
      </trkpt>
      <trkpt lat="45.92459" lon="4.73437">
        <ele>173</ele>
        <time>2018-08-06T08:50:24Z</time>
      </trkpt>
      <trkpt lat="45.92457" lon="4.7343">
        <ele>173</ele>
        <time>2018-08-06T08:50:25Z</time>
      </trkpt>
      <trkpt lat="45.9245" lon="4.73422">
        <ele>173</ele>
        <time>2018-08-06T08:50:27Z</time>
      </trkpt>
      <trkpt lat="45.92446" lon="4.73418">
        <ele>173</ele>
        <time>2018-08-06T08:50:28Z</time>
      </trkpt>
      <trkpt lat="45.92439" lon="4.73413">
        <ele>172</ele>
        <time>2018-08-06T08:50:30Z</time>
      </trkpt>
      <trkpt lat="45.92435" lon="4.73411">
        <ele>172</ele>
        <time>2018-08-06T08:50:31Z</time>
      </trkpt>
      <trkpt lat="45.92431" lon="4.73406">
        <ele>172</ele>
        <time>2018-08-06T08:50:32Z</time>
      </trkpt>
      <trkpt lat="45.92427" lon="4.73402">
        <ele>172</ele>
        <time>2018-08-06T08:50:33Z</time>
      </trkpt>
      <trkpt lat="45.92425" lon="4.73396">
        <ele>172</ele>
        <time>2018-08-06T08:50:34Z</time>
      </trkpt>
      <trkpt lat="45.92422" lon="4.73389">
        <ele>172</ele>
        <time>2018-08-06T08:50:35Z</time>
      </trkpt>
      <trkpt lat="45.92421" lon="4.73382">
        <ele>172</ele>
        <time>2018-08-06T08:50:36Z</time>
      </trkpt>
      <trkpt lat="45.9242" lon="4.73375">
        <ele>172</ele>
        <time>2018-08-06T08:50:37Z</time>
      </trkpt>
      <trkpt lat="45.9242" lon="4.73366">
        <ele>172</ele>
        <time>2018-08-06T08:50:38Z</time>
      </trkpt>
      <trkpt lat="45.92419" lon="4.73359">
        <ele>171</ele>
        <time>2018-08-06T08:50:39Z</time>
      </trkpt>
      <trkpt lat="45.92418" lon="4.73351">
        <ele>171</ele>
        <time>2018-08-06T08:50:40Z</time>
      </trkpt>
      <trkpt lat="45.92418" lon="4.73343">
        <ele>171</ele>
        <time>2018-08-06T08:50:41Z</time>
      </trkpt>
      <trkpt lat="45.92417" lon="4.73336">
        <ele>171</ele>
        <time>2018-08-06T08:50:42Z</time>
      </trkpt>
      <trkpt lat="45.92416" lon="4.73328">
        <ele>171</ele>
        <time>2018-08-06T08:50:43Z</time>
      </trkpt>
      <trkpt lat="45.92415" lon="4.7332">
        <ele>171</ele>
        <time>2018-08-06T08:50:44Z</time>
      </trkpt>
      <trkpt lat="45.92415" lon="4.73313">
        <ele>171</ele>
        <time>2018-08-06T08:50:45Z</time>
      </trkpt>
      <trkpt lat="45.92415" lon="4.73305">
        <ele>171</ele>
        <time>2018-08-06T08:50:46Z</time>
      </trkpt>
      <trkpt lat="45.92414" lon="4.73297">
        <ele>171</ele>
        <time>2018-08-06T08:50:47Z</time>
      </trkpt>
      <trkpt lat="45.92413" lon="4.73288">
        <ele>171</ele>
        <time>2018-08-06T08:50:48Z</time>
      </trkpt>
      <trkpt lat="45.92411" lon="4.73279">
        <ele>171</ele>
        <time>2018-08-06T08:50:49Z</time>
      </trkpt>
      <trkpt lat="45.92411" lon="4.73271">
        <ele>171</ele>
        <time>2018-08-06T08:50:50Z</time>
      </trkpt>
      <trkpt lat="45.9241" lon="4.73264">
        <ele>171</ele>
        <time>2018-08-06T08:50:51Z</time>
      </trkpt>
      <trkpt lat="45.92409" lon="4.73256">
        <ele>171</ele>
        <time>2018-08-06T08:50:52Z</time>
      </trkpt>
      <trkpt lat="45.92409" lon="4.73248">
        <ele>171</ele>
        <time>2018-08-06T08:50:53Z</time>
      </trkpt>
      <trkpt lat="45.92408" lon="4.73239">
        <ele>171</ele>
        <time>2018-08-06T08:50:54Z</time>
      </trkpt>
      <trkpt lat="45.92407" lon="4.73231">
        <ele>171</ele>
        <time>2018-08-06T08:50:55Z</time>
      </trkpt>
      <trkpt lat="45.92406" lon="4.73223">
        <ele>171</ele>
        <time>2018-08-06T08:50:56Z</time>
      </trkpt>
      <trkpt lat="45.92405" lon="4.73214">
        <ele>171</ele>
        <time>2018-08-06T08:50:57Z</time>
      </trkpt>
      <trkpt lat="45.92405" lon="4.73208">
        <ele>171</ele>
        <time>2018-08-06T08:50:58Z</time>
      </trkpt>
      <trkpt lat="45.92405" lon="4.732">
        <ele>171</ele>
        <time>2018-08-06T08:50:59Z</time>
      </trkpt>
      <trkpt lat="45.92404" lon="4.73193">
        <ele>171</ele>
        <time>2018-08-06T08:51:00Z</time>
      </trkpt>
      <trkpt lat="45.92403" lon="4.73186">
        <ele>171</ele>
        <time>2018-08-06T08:51:01Z</time>
      </trkpt>
      <trkpt lat="45.92404" lon="4.73179">
        <ele>171</ele>
        <time>2018-08-06T08:51:02Z</time>
      </trkpt>
      <trkpt lat="45.92403" lon="4.73172">
        <ele>171</ele>
        <time>2018-08-06T08:51:03Z</time>
      </trkpt>
      <trkpt lat="45.92402" lon="4.73166">
        <ele>170</ele>
        <time>2018-08-06T08:51:04Z</time>
      </trkpt>
      <trkpt lat="45.92402" lon="4.73159">
        <ele>171</ele>
        <time>2018-08-06T08:51:05Z</time>
      </trkpt>
      <trkpt lat="45.92404" lon="4.73146">
        <ele>171</ele>
        <time>2018-08-06T08:51:07Z</time>
      </trkpt>
      <trkpt lat="45.92404" lon="4.7314">
        <ele>171</ele>
        <time>2018-08-06T08:51:08Z</time>
      </trkpt>
      <trkpt lat="45.92404" lon="4.73133">
        <ele>171</ele>
        <time>2018-08-06T08:51:09Z</time>
      </trkpt>
      <trkpt lat="45.92406" lon="4.73126">
        <ele>171</ele>
        <time>2018-08-06T08:51:10Z</time>
      </trkpt>
      <trkpt lat="45.92408" lon="4.73115">
        <ele>171</ele>
        <time>2018-08-06T08:51:12Z</time>
      </trkpt>
      <trkpt lat="45.92411" lon="4.73111">
        <ele>171</ele>
        <time>2018-08-06T08:51:13Z</time>
      </trkpt>
      <trkpt lat="45.92415" lon="4.73106">
        <ele>171</ele>
        <time>2018-08-06T08:51:14Z</time>
      </trkpt>
      <trkpt lat="45.92419" lon="4.731">
        <ele>171</ele>
        <time>2018-08-06T08:51:15Z</time>
      </trkpt>
      <trkpt lat="45.92423" lon="4.73097">
        <ele>171</ele>
        <time>2018-08-06T08:51:16Z</time>
      </trkpt>
      <trkpt lat="45.92428" lon="4.73093">
        <ele>171</ele>
        <time>2018-08-06T08:51:17Z</time>
      </trkpt>
      <trkpt lat="45.92431" lon="4.73089">
        <ele>171</ele>
        <time>2018-08-06T08:51:18Z</time>
      </trkpt>
      <trkpt lat="45.92437" lon="4.73085">
        <ele>171</ele>
        <time>2018-08-06T08:51:19Z</time>
      </trkpt>
      <trkpt lat="45.92441" lon="4.73082">
        <ele>171</ele>
        <time>2018-08-06T08:51:20Z</time>
      </trkpt>
      <trkpt lat="45.92445" lon="4.73079">
        <ele>170</ele>
        <time>2018-08-06T08:51:21Z</time>
      </trkpt>
      <trkpt lat="45.9245" lon="4.73074">
        <ele>170</ele>
        <time>2018-08-06T08:51:22Z</time>
      </trkpt>
      <trkpt lat="45.92455" lon="4.73071">
        <ele>170</ele>
        <time>2018-08-06T08:51:23Z</time>
      </trkpt>
      <trkpt lat="45.92461" lon="4.73066">
        <ele>170</ele>
        <time>2018-08-06T08:51:24Z</time>
      </trkpt>
      <trkpt lat="45.92466" lon="4.73062">
        <ele>170</ele>
        <time>2018-08-06T08:51:25Z</time>
      </trkpt>
      <trkpt lat="45.92471" lon="4.73059">
        <ele>170</ele>
        <time>2018-08-06T08:51:26Z</time>
      </trkpt>
      <trkpt lat="45.92476" lon="4.73055">
        <ele>170</ele>
        <time>2018-08-06T08:51:27Z</time>
      </trkpt>
      <trkpt lat="45.9248" lon="4.73051">
        <ele>170</ele>
        <time>2018-08-06T08:51:28Z</time>
      </trkpt>
      <trkpt lat="45.92485" lon="4.73048">
        <ele>170</ele>
        <time>2018-08-06T08:51:29Z</time>
      </trkpt>
      <trkpt lat="45.9249" lon="4.73043">
        <ele>170</ele>
        <time>2018-08-06T08:51:30Z</time>
      </trkpt>
      <trkpt lat="45.92495" lon="4.73037">
        <ele>170</ele>
        <time>2018-08-06T08:51:31Z</time>
      </trkpt>
      <trkpt lat="45.925" lon="4.73034">
        <ele>170</ele>
        <time>2018-08-06T08:51:32Z</time>
      </trkpt>
      <trkpt lat="45.92505" lon="4.73029">
        <ele>169</ele>
        <time>2018-08-06T08:51:33Z</time>
      </trkpt>
      <trkpt lat="45.9251" lon="4.73025">
        <ele>169</ele>
        <time>2018-08-06T08:51:34Z</time>
      </trkpt>
      <trkpt lat="45.92515" lon="4.73021">
        <ele>169</ele>
        <time>2018-08-06T08:51:35Z</time>
      </trkpt>
      <trkpt lat="45.9252" lon="4.73018">
        <ele>169</ele>
        <time>2018-08-06T08:51:36Z</time>
      </trkpt>
      <trkpt lat="45.92525" lon="4.73012">
        <ele>169</ele>
        <time>2018-08-06T08:51:37Z</time>
      </trkpt>
      <trkpt lat="45.9253" lon="4.73007">
        <ele>169</ele>
        <time>2018-08-06T08:51:38Z</time>
      </trkpt>
      <trkpt lat="45.92535" lon="4.73002">
        <ele>169</ele>
        <time>2018-08-06T08:51:39Z</time>
      </trkpt>
      <trkpt lat="45.92541" lon="4.72995">
        <ele>169</ele>
        <time>2018-08-06T08:51:40Z</time>
      </trkpt>
      <trkpt lat="45.92546" lon="4.72991">
        <ele>169</ele>
        <time>2018-08-06T08:51:41Z</time>
      </trkpt>
      <trkpt lat="45.9255" lon="4.72986">
        <ele>169</ele>
        <time>2018-08-06T08:51:42Z</time>
      </trkpt>
      <trkpt lat="45.92556" lon="4.72981">
        <ele>169</ele>
        <time>2018-08-06T08:51:43Z</time>
      </trkpt>
      <trkpt lat="45.9256" lon="4.72976">
        <ele>169</ele>
        <time>2018-08-06T08:51:44Z</time>
      </trkpt>
      <trkpt lat="45.92567" lon="4.7297">
        <ele>169</ele>
        <time>2018-08-06T08:51:45Z</time>
      </trkpt>
      <trkpt lat="45.92571" lon="4.72967">
        <ele>169</ele>
        <time>2018-08-06T08:51:46Z</time>
      </trkpt>
      <trkpt lat="45.92575" lon="4.72961">
        <ele>169</ele>
        <time>2018-08-06T08:51:47Z</time>
      </trkpt>
      <trkpt lat="45.9258" lon="4.72956">
        <ele>169</ele>
        <time>2018-08-06T08:51:48Z</time>
      </trkpt>
      <trkpt lat="45.92587" lon="4.72951">
        <ele>169</ele>
        <time>2018-08-06T08:51:49Z</time>
      </trkpt>
      <trkpt lat="45.92591" lon="4.72946">
        <ele>169</ele>
        <time>2018-08-06T08:51:50Z</time>
      </trkpt>
      <trkpt lat="45.92593" lon="4.72942">
        <ele>169</ele>
        <time>2018-08-06T08:51:51Z</time>
      </trkpt>
      <trkpt lat="45.92598" lon="4.72936">
        <ele>169</ele>
        <time>2018-08-06T08:51:52Z</time>
      </trkpt>
      <trkpt lat="45.92602" lon="4.72932">
        <ele>169</ele>
        <time>2018-08-06T08:51:53Z</time>
      </trkpt>
      <trkpt lat="45.92606" lon="4.72927">
        <ele>169</ele>
        <time>2018-08-06T08:51:54Z</time>
      </trkpt>
      <trkpt lat="45.92612" lon="4.72922">
        <ele>169</ele>
        <time>2018-08-06T08:51:55Z</time>
      </trkpt>
      <trkpt lat="45.92617" lon="4.72916">
        <ele>169</ele>
        <time>2018-08-06T08:51:56Z</time>
      </trkpt>
      <trkpt lat="45.92621" lon="4.72913">
        <ele>169</ele>
        <time>2018-08-06T08:51:57Z</time>
      </trkpt>
      <trkpt lat="45.92627" lon="4.72909">
        <ele>169</ele>
        <time>2018-08-06T08:51:58Z</time>
      </trkpt>
      <trkpt lat="45.92633" lon="4.72905">
        <ele>169</ele>
        <time>2018-08-06T08:51:59Z</time>
      </trkpt>
      <trkpt lat="45.92639" lon="4.72901">
        <ele>169</ele>
        <time>2018-08-06T08:52:00Z</time>
      </trkpt>
      <trkpt lat="45.92643" lon="4.72898">
        <ele>169</ele>
        <time>2018-08-06T08:52:01Z</time>
      </trkpt>
      <trkpt lat="45.92649" lon="4.72894">
        <ele>169</ele>
        <time>2018-08-06T08:52:02Z</time>
      </trkpt>
      <trkpt lat="45.92655" lon="4.7289">
        <ele>169</ele>
        <time>2018-08-06T08:52:03Z</time>
      </trkpt>
      <trkpt lat="45.92661" lon="4.72885">
        <ele>169</ele>
        <time>2018-08-06T08:52:04Z</time>
      </trkpt>
      <trkpt lat="45.92666" lon="4.72882">
        <ele>169</ele>
        <time>2018-08-06T08:52:05Z</time>
      </trkpt>
      <trkpt lat="45.92674" lon="4.72876">
        <ele>170</ele>
        <time>2018-08-06T08:52:07Z</time>
      </trkpt>
      <trkpt lat="45.92679" lon="4.72872">
        <ele>169</ele>
        <time>2018-08-06T08:52:08Z</time>
      </trkpt>
      <trkpt lat="45.92683" lon="4.7287">
        <ele>169</ele>
        <time>2018-08-06T08:52:09Z</time>
      </trkpt>
      <trkpt lat="45.92688" lon="4.72863">
        <ele>169</ele>
        <time>2018-08-06T08:52:10Z</time>
      </trkpt>
      <trkpt lat="45.92692" lon="4.7286">
        <ele>169</ele>
        <time>2018-08-06T08:52:11Z</time>
      </trkpt>
      <trkpt lat="45.92696" lon="4.72857">
        <ele>169</ele>
        <time>2018-08-06T08:52:12Z</time>
      </trkpt>
      <trkpt lat="45.92701" lon="4.72855">
        <ele>169</ele>
        <time>2018-08-06T08:52:13Z</time>
      </trkpt>
      <trkpt lat="45.92705" lon="4.72851">
        <ele>169</ele>
        <time>2018-08-06T08:52:14Z</time>
      </trkpt>
      <trkpt lat="45.9271" lon="4.72846">
        <ele>169</ele>
        <time>2018-08-06T08:52:15Z</time>
      </trkpt>
      <trkpt lat="45.92715" lon="4.72841">
        <ele>169</ele>
        <time>2018-08-06T08:52:16Z</time>
      </trkpt>
      <trkpt lat="45.9272" lon="4.72837">
        <ele>169</ele>
        <time>2018-08-06T08:52:17Z</time>
      </trkpt>
      <trkpt lat="45.92725" lon="4.72834">
        <ele>169</ele>
        <time>2018-08-06T08:52:18Z</time>
      </trkpt>
      <trkpt lat="45.9273" lon="4.7283">
        <ele>170</ele>
        <time>2018-08-06T08:52:19Z</time>
      </trkpt>
      <trkpt lat="45.92735" lon="4.72826">
        <ele>169</ele>
        <time>2018-08-06T08:52:20Z</time>
      </trkpt>
      <trkpt lat="45.9274" lon="4.72822">
        <ele>169</ele>
        <time>2018-08-06T08:52:21Z</time>
      </trkpt>
      <trkpt lat="45.92746" lon="4.7282">
        <ele>169</ele>
        <time>2018-08-06T08:52:22Z</time>
      </trkpt>
      <trkpt lat="45.9275" lon="4.72817">
        <ele>170</ele>
        <time>2018-08-06T08:52:23Z</time>
      </trkpt>
      <trkpt lat="45.92755" lon="4.72815">
        <ele>170</ele>
        <time>2018-08-06T08:52:24Z</time>
      </trkpt>
      <trkpt lat="45.92761" lon="4.72812">
        <ele>170</ele>
        <time>2018-08-06T08:52:25Z</time>
      </trkpt>
      <trkpt lat="45.92764" lon="4.72808">
        <ele>170</ele>
        <time>2018-08-06T08:52:26Z</time>
      </trkpt>
      <trkpt lat="45.92769" lon="4.72805">
        <ele>170</ele>
        <time>2018-08-06T08:52:27Z</time>
      </trkpt>
      <trkpt lat="45.92773" lon="4.72802">
        <ele>170</ele>
        <time>2018-08-06T08:52:28Z</time>
      </trkpt>
      <trkpt lat="45.92777" lon="4.72794">
        <ele>170</ele>
        <time>2018-08-06T08:52:29Z</time>
      </trkpt>
      <trkpt lat="45.92782" lon="4.72792">
        <ele>170</ele>
        <time>2018-08-06T08:52:30Z</time>
      </trkpt>
      <trkpt lat="45.92789" lon="4.72786">
        <ele>171</ele>
        <time>2018-08-06T08:52:32Z</time>
      </trkpt>
      <trkpt lat="45.92793" lon="4.72784">
        <ele>171</ele>
        <time>2018-08-06T08:52:33Z</time>
      </trkpt>
      <trkpt lat="45.92801" lon="4.72788">
        <ele>171</ele>
        <time>2018-08-06T08:52:35Z</time>
      </trkpt>
      <trkpt lat="45.928" lon="4.72795">
        <ele>171</ele>
        <time>2018-08-06T08:52:36Z</time>
      </trkpt>
      <trkpt lat="45.92804" lon="4.72807">
        <ele>171</ele>
        <time>2018-08-06T08:52:38Z</time>
      </trkpt>
      <trkpt lat="45.92806" lon="4.72812">
        <ele>171</ele>
        <time>2018-08-06T08:52:39Z</time>
      </trkpt>
      <trkpt lat="45.92805" lon="4.72817">
        <ele>171</ele>
        <time>2018-08-06T08:52:40Z</time>
      </trkpt>
      <trkpt lat="45.92807" lon="4.72827">
        <ele>171</ele>
        <time>2018-08-06T08:52:41Z</time>
      </trkpt>
      <trkpt lat="45.92808" lon="4.72835">
        <ele>170</ele>
        <time>2018-08-06T08:52:42Z</time>
      </trkpt>
      <trkpt lat="45.92809" lon="4.72841">
        <ele>170</ele>
        <time>2018-08-06T08:52:43Z</time>
      </trkpt>
      <trkpt lat="45.9281" lon="4.72848">
        <ele>170</ele>
        <time>2018-08-06T08:52:44Z</time>
      </trkpt>
      <trkpt lat="45.92811" lon="4.72857">
        <ele>170</ele>
        <time>2018-08-06T08:52:45Z</time>
      </trkpt>
      <trkpt lat="45.92812" lon="4.72865">
        <ele>170</ele>
        <time>2018-08-06T08:52:46Z</time>
      </trkpt>
      <trkpt lat="45.92815" lon="4.72873">
        <ele>170</ele>
        <time>2018-08-06T08:52:47Z</time>
      </trkpt>
      <trkpt lat="45.92816" lon="4.7288">
        <ele>170</ele>
        <time>2018-08-06T08:52:48Z</time>
      </trkpt>
      <trkpt lat="45.92817" lon="4.72888">
        <ele>170</ele>
        <time>2018-08-06T08:52:49Z</time>
      </trkpt>
      <trkpt lat="45.92818" lon="4.72895">
        <ele>170</ele>
        <time>2018-08-06T08:52:50Z</time>
      </trkpt>
      <trkpt lat="45.92819" lon="4.72902">
        <ele>170</ele>
        <time>2018-08-06T08:52:51Z</time>
      </trkpt>
      <trkpt lat="45.9282" lon="4.72909">
        <ele>170</ele>
        <time>2018-08-06T08:52:52Z</time>
      </trkpt>
      <trkpt lat="45.92822" lon="4.72916">
        <ele>170</ele>
        <time>2018-08-06T08:52:53Z</time>
      </trkpt>
      <trkpt lat="45.92822" lon="4.72925">
        <ele>170</ele>
        <time>2018-08-06T08:52:54Z</time>
      </trkpt>
      <trkpt lat="45.92822" lon="4.72933">
        <ele>170</ele>
        <time>2018-08-06T08:52:55Z</time>
      </trkpt>
      <trkpt lat="45.92824" lon="4.72943">
        <ele>170</ele>
        <time>2018-08-06T08:52:56Z</time>
      </trkpt>
      <trkpt lat="45.92825" lon="4.72951">
        <ele>170</ele>
        <time>2018-08-06T08:52:57Z</time>
      </trkpt>
      <trkpt lat="45.92826" lon="4.7296">
        <ele>170</ele>
        <time>2018-08-06T08:52:58Z</time>
      </trkpt>
      <trkpt lat="45.92827" lon="4.7297">
        <ele>170</ele>
        <time>2018-08-06T08:52:59Z</time>
      </trkpt>
      <trkpt lat="45.92829" lon="4.72979">
        <ele>170</ele>
        <time>2018-08-06T08:53:00Z</time>
      </trkpt>
      <trkpt lat="45.9283" lon="4.72987">
        <ele>170</ele>
        <time>2018-08-06T08:53:01Z</time>
      </trkpt>
      <trkpt lat="45.92831" lon="4.72996">
        <ele>170</ele>
        <time>2018-08-06T08:53:02Z</time>
      </trkpt>
      <trkpt lat="45.92831" lon="4.73004">
        <ele>170</ele>
        <time>2018-08-06T08:53:03Z</time>
      </trkpt>
      <trkpt lat="45.92832" lon="4.73014">
        <ele>170</ele>
        <time>2018-08-06T08:53:04Z</time>
      </trkpt>
      <trkpt lat="45.92832" lon="4.73022">
        <ele>170</ele>
        <time>2018-08-06T08:53:05Z</time>
      </trkpt>
      <trkpt lat="45.92834" lon="4.7303">
        <ele>171</ele>
        <time>2018-08-06T08:53:06Z</time>
      </trkpt>
      <trkpt lat="45.92836" lon="4.73037">
        <ele>171</ele>
        <time>2018-08-06T08:53:07Z</time>
      </trkpt>
      <trkpt lat="45.92837" lon="4.73043">
        <ele>171</ele>
        <time>2018-08-06T08:53:08Z</time>
      </trkpt>
      <trkpt lat="45.92839" lon="4.7305">
        <ele>171</ele>
        <time>2018-08-06T08:53:09Z</time>
      </trkpt>
      <trkpt lat="45.9284" lon="4.73058">
        <ele>171</ele>
        <time>2018-08-06T08:53:10Z</time>
      </trkpt>
      <trkpt lat="45.9284" lon="4.73065">
        <ele>171</ele>
        <time>2018-08-06T08:53:11Z</time>
      </trkpt>
      <trkpt lat="45.92842" lon="4.73072">
        <ele>171</ele>
        <time>2018-08-06T08:53:12Z</time>
      </trkpt>
      <trkpt lat="45.92845" lon="4.7308">
        <ele>171</ele>
        <time>2018-08-06T08:53:13Z</time>
      </trkpt>
      <trkpt lat="45.92846" lon="4.73088">
        <ele>171</ele>
        <time>2018-08-06T08:53:14Z</time>
      </trkpt>
      <trkpt lat="45.92849" lon="4.73094">
        <ele>171</ele>
        <time>2018-08-06T08:53:15Z</time>
      </trkpt>
      <trkpt lat="45.92855" lon="4.73102">
        <ele>171</ele>
        <time>2018-08-06T08:53:17Z</time>
      </trkpt>
      <trkpt lat="45.92859" lon="4.73104">
        <ele>171</ele>
        <time>2018-08-06T08:53:18Z</time>
      </trkpt>
      <trkpt lat="45.92862" lon="4.73096">
        <ele>171</ele>
        <time>2018-08-06T08:53:20Z</time>
      </trkpt>
      <trkpt lat="45.92866" lon="4.73091">
        <ele>172</ele>
        <time>2018-08-06T08:53:21Z</time>
      </trkpt>
      <trkpt lat="45.92872" lon="4.73084">
        <ele>172</ele>
        <time>2018-08-06T08:53:25Z</time>
      </trkpt>
      <trkpt lat="45.92873" lon="4.73082">
        <ele>172</ele>
        <time>2018-08-06T08:53:26Z</time>
      </trkpt>
      <trkpt lat="45.92877" lon="4.73079">
        <ele>172</ele>
        <time>2018-08-06T08:53:28Z</time>
      </trkpt>
      <trkpt lat="45.92885" lon="4.73072">
        <ele>172</ele>
        <time>2018-08-06T08:53:29Z</time>
      </trkpt>
      <trkpt lat="45.9289" lon="4.73069">
        <ele>172</ele>
        <time>2018-08-06T08:53:30Z</time>
      </trkpt>
      <trkpt lat="45.92894" lon="4.73066">
        <ele>172</ele>
        <time>2018-08-06T08:53:31Z</time>
      </trkpt>
      <trkpt lat="45.92896" lon="4.7306">
        <ele>172</ele>
        <time>2018-08-06T08:53:32Z</time>
      </trkpt>
      <trkpt lat="45.929" lon="4.73054">
        <ele>172</ele>
        <time>2018-08-06T08:53:33Z</time>
      </trkpt>
      <trkpt lat="45.92903" lon="4.73048">
        <ele>172</ele>
        <time>2018-08-06T08:53:34Z</time>
      </trkpt>
      <trkpt lat="45.92906" lon="4.73042">
        <ele>172</ele>
        <time>2018-08-06T08:53:35Z</time>
      </trkpt>
      <trkpt lat="45.9291" lon="4.73036">
        <ele>172</ele>
        <time>2018-08-06T08:53:36Z</time>
      </trkpt>
      <trkpt lat="45.92913" lon="4.73032">
        <ele>172</ele>
        <time>2018-08-06T08:53:37Z</time>
      </trkpt>
      <trkpt lat="45.92917" lon="4.73026">
        <ele>172</ele>
        <time>2018-08-06T08:53:38Z</time>
      </trkpt>
      <trkpt lat="45.92921" lon="4.7302">
        <ele>172</ele>
        <time>2018-08-06T08:53:39Z</time>
      </trkpt>
      <trkpt lat="45.92926" lon="4.73014">
        <ele>172</ele>
        <time>2018-08-06T08:53:40Z</time>
      </trkpt>
      <trkpt lat="45.92931" lon="4.73009">
        <ele>171</ele>
        <time>2018-08-06T08:53:41Z</time>
      </trkpt>
      <trkpt lat="45.92936" lon="4.73003">
        <ele>171</ele>
        <time>2018-08-06T08:53:42Z</time>
      </trkpt>
      <trkpt lat="45.92942" lon="4.72995">
        <ele>171</ele>
        <time>2018-08-06T08:53:43Z</time>
      </trkpt>
      <trkpt lat="45.92947" lon="4.7299">
        <ele>171</ele>
        <time>2018-08-06T08:53:44Z</time>
      </trkpt>
      <trkpt lat="45.92951" lon="4.72985">
        <ele>171</ele>
        <time>2018-08-06T08:53:45Z</time>
      </trkpt>
      <trkpt lat="45.92955" lon="4.7298">
        <ele>171</ele>
        <time>2018-08-06T08:53:46Z</time>
      </trkpt>
      <trkpt lat="45.92959" lon="4.72975">
        <ele>171</ele>
        <time>2018-08-06T08:53:47Z</time>
      </trkpt>
      <trkpt lat="45.92963" lon="4.72971">
        <ele>171</ele>
        <time>2018-08-06T08:53:48Z</time>
      </trkpt>
      <trkpt lat="45.92966" lon="4.72966">
        <ele>171</ele>
        <time>2018-08-06T08:53:49Z</time>
      </trkpt>
      <trkpt lat="45.92971" lon="4.72962">
        <ele>171</ele>
        <time>2018-08-06T08:53:50Z</time>
      </trkpt>
      <trkpt lat="45.92973" lon="4.72958">
        <ele>171</ele>
        <time>2018-08-06T08:53:51Z</time>
      </trkpt>
      <trkpt lat="45.92978" lon="4.72955">
        <ele>171</ele>
        <time>2018-08-06T08:53:52Z</time>
      </trkpt>
      <trkpt lat="45.92981" lon="4.72949">
        <ele>171</ele>
        <time>2018-08-06T08:53:53Z</time>
      </trkpt>
      <trkpt lat="45.92986" lon="4.72944">
        <ele>171</ele>
        <time>2018-08-06T08:53:54Z</time>
      </trkpt>
      <trkpt lat="45.92989" lon="4.72939">
        <ele>171</ele>
        <time>2018-08-06T08:53:55Z</time>
      </trkpt>
      <trkpt lat="45.92993" lon="4.72935">
        <ele>171</ele>
        <time>2018-08-06T08:53:56Z</time>
      </trkpt>
      <trkpt lat="45.92998" lon="4.72929">
        <ele>171</ele>
        <time>2018-08-06T08:53:57Z</time>
      </trkpt>
      <trkpt lat="45.93004" lon="4.72923">
        <ele>171</ele>
        <time>2018-08-06T08:53:58Z</time>
      </trkpt>
      <trkpt lat="45.93008" lon="4.72918">
        <ele>170</ele>
        <time>2018-08-06T08:53:59Z</time>
      </trkpt>
      <trkpt lat="45.93012" lon="4.72913">
        <ele>171</ele>
        <time>2018-08-06T08:54:00Z</time>
      </trkpt>
      <trkpt lat="45.93017" lon="4.72907">
        <ele>171</ele>
        <time>2018-08-06T08:54:01Z</time>
      </trkpt>
      <trkpt lat="45.93022" lon="4.72901">
        <ele>172</ele>
        <time>2018-08-06T08:54:02Z</time>
      </trkpt>
      <trkpt lat="45.93026" lon="4.72896">
        <ele>172</ele>
        <time>2018-08-06T08:54:03Z</time>
      </trkpt>
      <trkpt lat="45.9303" lon="4.72892">
        <ele>172</ele>
        <time>2018-08-06T08:54:04Z</time>
      </trkpt>
      <trkpt lat="45.93036" lon="4.72886">
        <ele>172</ele>
        <time>2018-08-06T08:54:05Z</time>
      </trkpt>
      <trkpt lat="45.93041" lon="4.72881">
        <ele>172</ele>
        <time>2018-08-06T08:54:06Z</time>
      </trkpt>
      <trkpt lat="45.93046" lon="4.72874">
        <ele>172</ele>
        <time>2018-08-06T08:54:07Z</time>
      </trkpt>
      <trkpt lat="45.93051" lon="4.72868">
        <ele>172</ele>
        <time>2018-08-06T08:54:08Z</time>
      </trkpt>
      <trkpt lat="45.93055" lon="4.72861">
        <ele>172</ele>
        <time>2018-08-06T08:54:09Z</time>
      </trkpt>
      <trkpt lat="45.93059" lon="4.72855">
        <ele>172</ele>
        <time>2018-08-06T08:54:10Z</time>
      </trkpt>
      <trkpt lat="45.93064" lon="4.72849">
        <ele>172</ele>
        <time>2018-08-06T08:54:11Z</time>
      </trkpt>
      <trkpt lat="45.93069" lon="4.72844">
        <ele>173</ele>
        <time>2018-08-06T08:54:12Z</time>
      </trkpt>
      <trkpt lat="45.93074" lon="4.72839">
        <ele>173</ele>
        <time>2018-08-06T08:54:13Z</time>
      </trkpt>
      <trkpt lat="45.93077" lon="4.72833">
        <ele>173</ele>
        <time>2018-08-06T08:54:14Z</time>
      </trkpt>
      <trkpt lat="45.93081" lon="4.72828">
        <ele>173</ele>
        <time>2018-08-06T08:54:15Z</time>
      </trkpt>
      <trkpt lat="45.93086" lon="4.72823">
        <ele>172</ele>
        <time>2018-08-06T08:54:16Z</time>
      </trkpt>
      <trkpt lat="45.93091" lon="4.72817">
        <ele>172</ele>
        <time>2018-08-06T08:54:17Z</time>
      </trkpt>
      <trkpt lat="45.93094" lon="4.72813">
        <ele>172</ele>
        <time>2018-08-06T08:54:18Z</time>
      </trkpt>
      <trkpt lat="45.93097" lon="4.728">
        <ele>171</ele>
        <time>2018-08-06T08:54:19Z</time>
      </trkpt>
      <trkpt lat="45.93107" lon="4.72798">
        <ele>171</ele>
        <time>2018-08-06T08:54:20Z</time>
      </trkpt>
      <trkpt lat="45.93115" lon="4.72796">
        <ele>171</ele>
        <time>2018-08-06T08:54:21Z</time>
      </trkpt>
      <trkpt lat="45.93118" lon="4.72793">
        <ele>171</ele>
        <time>2018-08-06T08:54:22Z</time>
      </trkpt>
      <trkpt lat="45.93123" lon="4.72788">
        <ele>171</ele>
        <time>2018-08-06T08:54:24Z</time>
      </trkpt>
      <trkpt lat="45.93126" lon="4.72782">
        <ele>171</ele>
        <time>2018-08-06T08:54:25Z</time>
      </trkpt>
      <trkpt lat="45.93131" lon="4.72775">
        <ele>171</ele>
        <time>2018-08-06T08:54:26Z</time>
      </trkpt>
      <trkpt lat="45.93137" lon="4.7277">
        <ele>171</ele>
        <time>2018-08-06T08:54:27Z</time>
      </trkpt>
      <trkpt lat="45.93142" lon="4.72763">
        <ele>171</ele>
        <time>2018-08-06T08:54:28Z</time>
      </trkpt>
      <trkpt lat="45.93145" lon="4.72758">
        <ele>171</ele>
        <time>2018-08-06T08:54:29Z</time>
      </trkpt>
      <trkpt lat="45.93152" lon="4.7275">
        <ele>170</ele>
        <time>2018-08-06T08:54:31Z</time>
      </trkpt>
      <trkpt lat="45.93156" lon="4.72746">
        <ele>170</ele>
        <time>2018-08-06T08:54:32Z</time>
      </trkpt>
      <trkpt lat="45.9316" lon="4.7274">
        <ele>170</ele>
        <time>2018-08-06T08:54:33Z</time>
      </trkpt>
      <trkpt lat="45.93165" lon="4.72735">
        <ele>170</ele>
        <time>2018-08-06T08:54:34Z</time>
      </trkpt>
      <trkpt lat="45.93169" lon="4.72729">
        <ele>170</ele>
        <time>2018-08-06T08:54:35Z</time>
      </trkpt>
      <trkpt lat="45.93173" lon="4.72725">
        <ele>170</ele>
        <time>2018-08-06T08:54:36Z</time>
      </trkpt>
      <trkpt lat="45.93176" lon="4.7272">
        <ele>170</ele>
        <time>2018-08-06T08:54:37Z</time>
      </trkpt>
      <trkpt lat="45.93179" lon="4.72713">
        <ele>169</ele>
        <time>2018-08-06T08:54:38Z</time>
      </trkpt>
      <trkpt lat="45.93185" lon="4.72706">
        <ele>169</ele>
        <time>2018-08-06T08:54:39Z</time>
      </trkpt>
      <trkpt lat="45.9319" lon="4.72701">
        <ele>169</ele>
        <time>2018-08-06T08:54:40Z</time>
      </trkpt>
      <trkpt lat="45.93194" lon="4.72696">
        <ele>169</ele>
        <time>2018-08-06T08:54:41Z</time>
      </trkpt>
      <trkpt lat="45.932" lon="4.72688">
        <ele>169</ele>
        <time>2018-08-06T08:54:42Z</time>
      </trkpt>
      <trkpt lat="45.93204" lon="4.72682">
        <ele>169</ele>
        <time>2018-08-06T08:54:43Z</time>
      </trkpt>
      <trkpt lat="45.93208" lon="4.72676">
        <ele>169</ele>
        <time>2018-08-06T08:54:44Z</time>
      </trkpt>
      <trkpt lat="45.93213" lon="4.7267">
        <ele>169</ele>
        <time>2018-08-06T08:54:45Z</time>
      </trkpt>
      <trkpt lat="45.93217" lon="4.72666">
        <ele>170</ele>
        <time>2018-08-06T08:54:46Z</time>
      </trkpt>
      <trkpt lat="45.93221" lon="4.72661">
        <ele>170</ele>
        <time>2018-08-06T08:54:47Z</time>
      </trkpt>
      <trkpt lat="45.93225" lon="4.72656">
        <ele>170</ele>
        <time>2018-08-06T08:54:48Z</time>
      </trkpt>
      <trkpt lat="45.93229" lon="4.72651">
        <ele>170</ele>
        <time>2018-08-06T08:54:49Z</time>
      </trkpt>
      <trkpt lat="45.93233" lon="4.72646">
        <ele>170</ele>
        <time>2018-08-06T08:54:50Z</time>
      </trkpt>
      <trkpt lat="45.93238" lon="4.72641">
        <ele>170</ele>
        <time>2018-08-06T08:54:51Z</time>
      </trkpt>
      <trkpt lat="45.93242" lon="4.72636">
        <ele>170</ele>
        <time>2018-08-06T08:54:52Z</time>
      </trkpt>
      <trkpt lat="45.93248" lon="4.72631">
        <ele>170</ele>
        <time>2018-08-06T08:54:53Z</time>
      </trkpt>
      <trkpt lat="45.93252" lon="4.72625">
        <ele>170</ele>
        <time>2018-08-06T08:54:54Z</time>
      </trkpt>
      <trkpt lat="45.93256" lon="4.72622">
        <ele>170</ele>
        <time>2018-08-06T08:54:55Z</time>
      </trkpt>
      <trkpt lat="45.9326" lon="4.72618">
        <ele>170</ele>
        <time>2018-08-06T08:54:56Z</time>
      </trkpt>
      <trkpt lat="45.93265" lon="4.72613">
        <ele>170</ele>
        <time>2018-08-06T08:54:57Z</time>
      </trkpt>
      <trkpt lat="45.93269" lon="4.72608">
        <ele>170</ele>
        <time>2018-08-06T08:54:58Z</time>
      </trkpt>
      <trkpt lat="45.93273" lon="4.72604">
        <ele>170</ele>
        <time>2018-08-06T08:54:59Z</time>
      </trkpt>
      <trkpt lat="45.93276" lon="4.726">
        <ele>170</ele>
        <time>2018-08-06T08:55:00Z</time>
      </trkpt>
      <trkpt lat="45.93283" lon="4.72592">
        <ele>170</ele>
        <time>2018-08-06T08:55:02Z</time>
      </trkpt>
      <trkpt lat="45.93288" lon="4.72588">
        <ele>170</ele>
        <time>2018-08-06T08:55:03Z</time>
      </trkpt>
      <trkpt lat="45.93292" lon="4.72583">
        <ele>171</ele>
        <time>2018-08-06T08:55:04Z</time>
      </trkpt>
      <trkpt lat="45.93297" lon="4.72578">
        <ele>171</ele>
        <time>2018-08-06T08:55:05Z</time>
      </trkpt>
      <trkpt lat="45.933" lon="4.72573">
        <ele>171</ele>
        <time>2018-08-06T08:55:06Z</time>
      </trkpt>
      <trkpt lat="45.93304" lon="4.72568">
        <ele>171</ele>
        <time>2018-08-06T08:55:07Z</time>
      </trkpt>
      <trkpt lat="45.93309" lon="4.72564">
        <ele>171</ele>
        <time>2018-08-06T08:55:08Z</time>
      </trkpt>
      <trkpt lat="45.93313" lon="4.72558">
        <ele>171</ele>
        <time>2018-08-06T08:55:09Z</time>
      </trkpt>
      <trkpt lat="45.93317" lon="4.72552">
        <ele>172</ele>
        <time>2018-08-06T08:55:10Z</time>
      </trkpt>
      <trkpt lat="45.93323" lon="4.72546">
        <ele>172</ele>
        <time>2018-08-06T08:55:11Z</time>
      </trkpt>
      <trkpt lat="45.93327" lon="4.72541">
        <ele>172</ele>
        <time>2018-08-06T08:55:12Z</time>
      </trkpt>
      <trkpt lat="45.93332" lon="4.72535">
        <ele>172</ele>
        <time>2018-08-06T08:55:13Z</time>
      </trkpt>
      <trkpt lat="45.93336" lon="4.7253">
        <ele>172</ele>
        <time>2018-08-06T08:55:14Z</time>
      </trkpt>
      <trkpt lat="45.9334" lon="4.72524">
        <ele>172</ele>
        <time>2018-08-06T08:55:15Z</time>
      </trkpt>
      <trkpt lat="45.93346" lon="4.72519">
        <ele>172</ele>
        <time>2018-08-06T08:55:16Z</time>
      </trkpt>
      <trkpt lat="45.93351" lon="4.72512">
        <ele>172</ele>
        <time>2018-08-06T08:55:17Z</time>
      </trkpt>
      <trkpt lat="45.93355" lon="4.72508">
        <ele>172</ele>
        <time>2018-08-06T08:55:18Z</time>
      </trkpt>
      <trkpt lat="45.9336" lon="4.725">
        <ele>172</ele>
        <time>2018-08-06T08:55:19Z</time>
      </trkpt>
      <trkpt lat="45.93365" lon="4.72495">
        <ele>173</ele>
        <time>2018-08-06T08:55:20Z</time>
      </trkpt>
      <trkpt lat="45.93369" lon="4.7249">
        <ele>173</ele>
        <time>2018-08-06T08:55:21Z</time>
      </trkpt>
      <trkpt lat="45.93374" lon="4.72486">
        <ele>173</ele>
        <time>2018-08-06T08:55:22Z</time>
      </trkpt>
      <trkpt lat="45.93378" lon="4.7248">
        <ele>173</ele>
        <time>2018-08-06T08:55:23Z</time>
      </trkpt>
      <trkpt lat="45.93382" lon="4.72476">
        <ele>173</ele>
        <time>2018-08-06T08:55:24Z</time>
      </trkpt>
      <trkpt lat="45.93386" lon="4.7247">
        <ele>173</ele>
        <time>2018-08-06T08:55:25Z</time>
      </trkpt>
      <trkpt lat="45.93391" lon="4.72464">
        <ele>173</ele>
        <time>2018-08-06T08:55:26Z</time>
      </trkpt>
      <trkpt lat="45.93394" lon="4.72457">
        <ele>173</ele>
        <time>2018-08-06T08:55:27Z</time>
      </trkpt>
      <trkpt lat="45.93396" lon="4.72452">
        <ele>173</ele>
        <time>2018-08-06T08:55:28Z</time>
      </trkpt>
      <trkpt lat="45.93398" lon="4.72445">
        <ele>173</ele>
        <time>2018-08-06T08:55:29Z</time>
      </trkpt>
      <trkpt lat="45.93401" lon="4.72434">
        <ele>173</ele>
        <time>2018-08-06T08:55:31Z</time>
      </trkpt>
      <trkpt lat="45.93404" lon="4.72428">
        <ele>173</ele>
        <time>2018-08-06T08:55:32Z</time>
      </trkpt>
      <trkpt lat="45.93407" lon="4.72422">
        <ele>174</ele>
        <time>2018-08-06T08:55:33Z</time>
      </trkpt>
      <trkpt lat="45.93411" lon="4.72419">
        <ele>174</ele>
        <time>2018-08-06T08:55:34Z</time>
      </trkpt>
      <trkpt lat="45.93416" lon="4.72413">
        <ele>174</ele>
        <time>2018-08-06T08:55:35Z</time>
      </trkpt>
      <trkpt lat="45.9342" lon="4.72411">
        <ele>174</ele>
        <time>2018-08-06T08:55:36Z</time>
      </trkpt>
      <trkpt lat="45.93425" lon="4.72407">
        <ele>174</ele>
        <time>2018-08-06T08:55:37Z</time>
      </trkpt>
      <trkpt lat="45.93429" lon="4.72404">
        <ele>174</ele>
        <time>2018-08-06T08:55:38Z</time>
      </trkpt>
      <trkpt lat="45.93434" lon="4.72402">
        <ele>174</ele>
        <time>2018-08-06T08:55:39Z</time>
      </trkpt>
      <trkpt lat="45.9344" lon="4.72399">
        <ele>173</ele>
        <time>2018-08-06T08:55:40Z</time>
      </trkpt>
      <trkpt lat="45.93445" lon="4.72395">
        <ele>173</ele>
        <time>2018-08-06T08:55:41Z</time>
      </trkpt>
      <trkpt lat="45.93451" lon="4.72391">
        <ele>173</ele>
        <time>2018-08-06T08:55:42Z</time>
      </trkpt>
      <trkpt lat="45.93455" lon="4.72387">
        <ele>173</ele>
        <time>2018-08-06T08:55:43Z</time>
      </trkpt>
      <trkpt lat="45.9346" lon="4.72383">
        <ele>173</ele>
        <time>2018-08-06T08:55:44Z</time>
      </trkpt>
      <trkpt lat="45.93465" lon="4.72376">
        <ele>173</ele>
        <time>2018-08-06T08:55:45Z</time>
      </trkpt>
      <trkpt lat="45.93469" lon="4.72369">
        <ele>173</ele>
        <time>2018-08-06T08:55:46Z</time>
      </trkpt>
      <trkpt lat="45.93473" lon="4.72366">
        <ele>173</ele>
        <time>2018-08-06T08:55:47Z</time>
      </trkpt>
      <trkpt lat="45.93477" lon="4.72362">
        <ele>173</ele>
        <time>2018-08-06T08:55:48Z</time>
      </trkpt>
      <trkpt lat="45.93481" lon="4.72355">
        <ele>173</ele>
        <time>2018-08-06T08:55:49Z</time>
      </trkpt>
      <trkpt lat="45.93485" lon="4.72349">
        <ele>173</ele>
        <time>2018-08-06T08:55:50Z</time>
      </trkpt>
      <trkpt lat="45.9349" lon="4.72345">
        <ele>173</ele>
        <time>2018-08-06T08:55:51Z</time>
      </trkpt>
      <trkpt lat="45.93493" lon="4.72338">
        <ele>173</ele>
        <time>2018-08-06T08:55:52Z</time>
      </trkpt>
      <trkpt lat="45.93498" lon="4.72333">
        <ele>173</ele>
        <time>2018-08-06T08:55:53Z</time>
      </trkpt>
      <trkpt lat="45.93504" lon="4.72328">
        <ele>173</ele>
        <time>2018-08-06T08:55:54Z</time>
      </trkpt>
      <trkpt lat="45.93507" lon="4.72322">
        <ele>173</ele>
        <time>2018-08-06T08:55:55Z</time>
      </trkpt>
      <trkpt lat="45.93512" lon="4.72316">
        <ele>173</ele>
        <time>2018-08-06T08:55:56Z</time>
      </trkpt>
      <trkpt lat="45.93515" lon="4.72311">
        <ele>173</ele>
        <time>2018-08-06T08:55:57Z</time>
      </trkpt>
      <trkpt lat="45.93517" lon="4.72305">
        <ele>173</ele>
        <time>2018-08-06T08:55:58Z</time>
      </trkpt>
      <trkpt lat="45.93521" lon="4.723">
        <ele>172</ele>
        <time>2018-08-06T08:55:59Z</time>
      </trkpt>
      <trkpt lat="45.93523" lon="4.72293">
        <ele>172</ele>
        <time>2018-08-06T08:56:00Z</time>
      </trkpt>
      <trkpt lat="45.93526" lon="4.72286">
        <ele>172</ele>
        <time>2018-08-06T08:56:01Z</time>
      </trkpt>
      <trkpt lat="45.93529" lon="4.7228">
        <ele>172</ele>
        <time>2018-08-06T08:56:02Z</time>
      </trkpt>
      <trkpt lat="45.93531" lon="4.72274">
        <ele>172</ele>
        <time>2018-08-06T08:56:03Z</time>
      </trkpt>
      <trkpt lat="45.93534" lon="4.72267">
        <ele>172</ele>
        <time>2018-08-06T08:56:04Z</time>
      </trkpt>
      <trkpt lat="45.93537" lon="4.72261">
        <ele>172</ele>
        <time>2018-08-06T08:56:05Z</time>
      </trkpt>
      <trkpt lat="45.93539" lon="4.72254">
        <ele>172</ele>
        <time>2018-08-06T08:56:06Z</time>
      </trkpt>
      <trkpt lat="45.93541" lon="4.72248">
        <ele>172</ele>
        <time>2018-08-06T08:56:07Z</time>
      </trkpt>
      <trkpt lat="45.93544" lon="4.72242">
        <ele>172</ele>
        <time>2018-08-06T08:56:08Z</time>
      </trkpt>
      <trkpt lat="45.93547" lon="4.72236">
        <ele>172</ele>
        <time>2018-08-06T08:56:09Z</time>
      </trkpt>
      <trkpt lat="45.9355" lon="4.72229">
        <ele>172</ele>
        <time>2018-08-06T08:56:10Z</time>
      </trkpt>
      <trkpt lat="45.93555" lon="4.72226">
        <ele>173</ele>
        <time>2018-08-06T08:56:11Z</time>
      </trkpt>
      <trkpt lat="45.93559" lon="4.72226">
        <ele>173</ele>
        <time>2018-08-06T08:56:12Z</time>
      </trkpt>
      <trkpt lat="45.93565" lon="4.72228">
        <ele>173</ele>
        <time>2018-08-06T08:56:13Z</time>
      </trkpt>
      <trkpt lat="45.9357" lon="4.72229">
        <ele>173</ele>
        <time>2018-08-06T08:56:14Z</time>
      </trkpt>
      <trkpt lat="45.93574" lon="4.72235">
        <ele>173</ele>
        <time>2018-08-06T08:56:15Z</time>
      </trkpt>
      <trkpt lat="45.9358" lon="4.7224">
        <ele>173</ele>
        <time>2018-08-06T08:56:16Z</time>
      </trkpt>
      <trkpt lat="45.93585" lon="4.72245">
        <ele>173</ele>
        <time>2018-08-06T08:56:17Z</time>
      </trkpt>
      <trkpt lat="45.9359" lon="4.7225">
        <ele>173</ele>
        <time>2018-08-06T08:56:18Z</time>
      </trkpt>
      <trkpt lat="45.93595" lon="4.72255">
        <ele>173</ele>
        <time>2018-08-06T08:56:20Z</time>
      </trkpt>
      <trkpt lat="45.93597" lon="4.72258">
        <ele>173</ele>
        <time>2018-08-06T08:56:21Z</time>
      </trkpt>
      <trkpt lat="45.93601" lon="4.72264">
        <ele>173</ele>
        <time>2018-08-06T08:56:22Z</time>
      </trkpt>
      <trkpt lat="45.93606" lon="4.72273">
        <ele>172</ele>
        <time>2018-08-06T08:56:23Z</time>
      </trkpt>
      <trkpt lat="45.93611" lon="4.72278">
        <ele>172</ele>
        <time>2018-08-06T08:56:24Z</time>
      </trkpt>
      <trkpt lat="45.93617" lon="4.72281">
        <ele>172</ele>
        <time>2018-08-06T08:56:25Z</time>
      </trkpt>
      <trkpt lat="45.93622" lon="4.72286">
        <ele>172</ele>
        <time>2018-08-06T08:56:26Z</time>
      </trkpt>
      <trkpt lat="45.93626" lon="4.72288">
        <ele>172</ele>
        <time>2018-08-06T08:56:27Z</time>
      </trkpt>
      <trkpt lat="45.93629" lon="4.72292">
        <ele>172</ele>
        <time>2018-08-06T08:56:28Z</time>
      </trkpt>
      <trkpt lat="45.93635" lon="4.72296">
        <ele>172</ele>
        <time>2018-08-06T08:56:29Z</time>
      </trkpt>
      <trkpt lat="45.93643" lon="4.72302">
        <ele>172</ele>
        <time>2018-08-06T08:56:30Z</time>
      </trkpt>
      <trkpt lat="45.93645" lon="4.72306">
        <ele>172</ele>
        <time>2018-08-06T08:56:31Z</time>
      </trkpt>
      <trkpt lat="45.93651" lon="4.72313">
        <ele>172</ele>
        <time>2018-08-06T08:56:32Z</time>
      </trkpt>
      <trkpt lat="45.93655" lon="4.72319">
        <ele>172</ele>
        <time>2018-08-06T08:56:33Z</time>
      </trkpt>
      <trkpt lat="45.93661" lon="4.72323">
        <ele>171</ele>
        <time>2018-08-06T08:56:34Z</time>
      </trkpt>
      <trkpt lat="45.93665" lon="4.72329">
        <ele>171</ele>
        <time>2018-08-06T08:56:35Z</time>
      </trkpt>
      <trkpt lat="45.93671" lon="4.72332">
        <ele>171</ele>
        <time>2018-08-06T08:56:36Z</time>
      </trkpt>
      <trkpt lat="45.93676" lon="4.72337">
        <ele>171</ele>
        <time>2018-08-06T08:56:37Z</time>
      </trkpt>
      <trkpt lat="45.93683" lon="4.7234">
        <ele>171</ele>
        <time>2018-08-06T08:56:38Z</time>
      </trkpt>
      <trkpt lat="45.93688" lon="4.72344">
        <ele>171</ele>
        <time>2018-08-06T08:56:39Z</time>
      </trkpt>
      <trkpt lat="45.93694" lon="4.72347">
        <ele>171</ele>
        <time>2018-08-06T08:56:40Z</time>
      </trkpt>
      <trkpt lat="45.93698" lon="4.7235">
        <ele>171</ele>
        <time>2018-08-06T08:56:41Z</time>
      </trkpt>
      <trkpt lat="45.93701" lon="4.72357">
        <ele>171</ele>
        <time>2018-08-06T08:56:42Z</time>
      </trkpt>
      <trkpt lat="45.93707" lon="4.72364">
        <ele>171</ele>
        <time>2018-08-06T08:56:44Z</time>
      </trkpt>
      <trkpt lat="45.93712" lon="4.72366">
        <ele>172</ele>
        <time>2018-08-06T08:56:45Z</time>
      </trkpt>
      <trkpt lat="45.93718" lon="4.72372">
        <ele>172</ele>
        <time>2018-08-06T08:56:46Z</time>
      </trkpt>
      <trkpt lat="45.9372" lon="4.72377">
        <ele>171</ele>
        <time>2018-08-06T08:56:47Z</time>
      </trkpt>
      <trkpt lat="45.93724" lon="4.72382">
        <ele>171</ele>
        <time>2018-08-06T08:56:48Z</time>
      </trkpt>
      <trkpt lat="45.93727" lon="4.72387">
        <ele>171</ele>
        <time>2018-08-06T08:56:49Z</time>
      </trkpt>
      <trkpt lat="45.93732" lon="4.7239">
        <ele>171</ele>
        <time>2018-08-06T08:56:50Z</time>
      </trkpt>
      <trkpt lat="45.93739" lon="4.72393">
        <ele>171</ele>
        <time>2018-08-06T08:56:51Z</time>
      </trkpt>
      <trkpt lat="45.93745" lon="4.72402">
        <ele>171</ele>
        <time>2018-08-06T08:56:54Z</time>
      </trkpt>
      <trkpt lat="45.93748" lon="4.72407">
        <ele>171</ele>
        <time>2018-08-06T08:56:55Z</time>
      </trkpt>
      <trkpt lat="45.93753" lon="4.72413">
        <ele>171</ele>
        <time>2018-08-06T08:56:58Z</time>
      </trkpt>
      <trkpt lat="45.9376" lon="4.72419">
        <ele>171</ele>
        <time>2018-08-06T08:56:59Z</time>
      </trkpt>
      <trkpt lat="45.93764" lon="4.72421">
        <ele>171</ele>
        <time>2018-08-06T08:57:00Z</time>
      </trkpt>
      <trkpt lat="45.93768" lon="4.72425">
        <ele>171</ele>
        <time>2018-08-06T08:57:01Z</time>
      </trkpt>
      <trkpt lat="45.93772" lon="4.7243">
        <ele>171</ele>
        <time>2018-08-06T08:57:02Z</time>
      </trkpt>
      <trkpt lat="45.93775" lon="4.72435">
        <ele>171</ele>
        <time>2018-08-06T08:57:03Z</time>
      </trkpt>
      <trkpt lat="45.9378" lon="4.7244">
        <ele>172</ele>
        <time>2018-08-06T08:57:04Z</time>
      </trkpt>
      <trkpt lat="45.93784" lon="4.72443">
        <ele>172</ele>
        <time>2018-08-06T08:57:05Z</time>
      </trkpt>
      <trkpt lat="45.9379" lon="4.72449">
        <ele>172</ele>
        <time>2018-08-06T08:57:06Z</time>
      </trkpt>
      <trkpt lat="45.93795" lon="4.72453">
        <ele>172</ele>
        <time>2018-08-06T08:57:07Z</time>
      </trkpt>
      <trkpt lat="45.93802" lon="4.72461">
        <ele>172</ele>
        <time>2018-08-06T08:57:09Z</time>
      </trkpt>
      <trkpt lat="45.93806" lon="4.72464">
        <ele>172</ele>
        <time>2018-08-06T08:57:10Z</time>
      </trkpt>
      <trkpt lat="45.93812" lon="4.72468">
        <ele>172</ele>
        <time>2018-08-06T08:57:11Z</time>
      </trkpt>
      <trkpt lat="45.93816" lon="4.72472">
        <ele>172</ele>
        <time>2018-08-06T08:57:12Z</time>
      </trkpt>
      <trkpt lat="45.93823" lon="4.72475">
        <ele>172</ele>
        <time>2018-08-06T08:57:13Z</time>
      </trkpt>
      <trkpt lat="45.93827" lon="4.72479">
        <ele>173</ele>
        <time>2018-08-06T08:57:14Z</time>
      </trkpt>
      <trkpt lat="45.93832" lon="4.72483">
        <ele>173</ele>
        <time>2018-08-06T08:57:15Z</time>
      </trkpt>
      <trkpt lat="45.93836" lon="4.72488">
        <ele>173</ele>
        <time>2018-08-06T08:57:16Z</time>
      </trkpt>
      <trkpt lat="45.93874" lon="4.72521">
        <ele>173</ele>
        <time>2018-08-06T08:57:23Z</time>
      </trkpt>
      <trkpt lat="45.9388" lon="4.72516">
        <ele>173</ele>
        <time>2018-08-06T08:57:24Z</time>
      </trkpt>
      <trkpt lat="45.93883" lon="4.72515">
        <ele>173</ele>
        <time>2018-08-06T08:57:25Z</time>
      </trkpt>
      <trkpt lat="45.93884" lon="4.72509">
        <ele>173</ele>
        <time>2018-08-06T08:57:26Z</time>
      </trkpt>
      <trkpt lat="45.93888" lon="4.72498">
        <ele>172</ele>
        <time>2018-08-06T08:57:27Z</time>
      </trkpt>
      <trkpt lat="45.93892" lon="4.72492">
        <ele>172</ele>
        <time>2018-08-06T08:57:28Z</time>
      </trkpt>
      <trkpt lat="45.93896" lon="4.72486">
        <ele>172</ele>
        <time>2018-08-06T08:57:29Z</time>
      </trkpt>
      <trkpt lat="45.939" lon="4.7248">
        <ele>172</ele>
        <time>2018-08-06T08:57:30Z</time>
      </trkpt>
      <trkpt lat="45.93904" lon="4.72474">
        <ele>172</ele>
        <time>2018-08-06T08:57:31Z</time>
      </trkpt>
      <trkpt lat="45.9391" lon="4.72469">
        <ele>172</ele>
        <time>2018-08-06T08:57:32Z</time>
      </trkpt>
      <trkpt lat="45.93915" lon="4.72463">
        <ele>172</ele>
        <time>2018-08-06T08:57:33Z</time>
      </trkpt>
      <trkpt lat="45.9392" lon="4.7246">
        <ele>171</ele>
        <time>2018-08-06T08:57:34Z</time>
      </trkpt>
      <trkpt lat="45.93925" lon="4.72452">
        <ele>171</ele>
        <time>2018-08-06T08:57:35Z</time>
      </trkpt>
      <trkpt lat="45.9393" lon="4.72447">
        <ele>171</ele>
        <time>2018-08-06T08:57:36Z</time>
      </trkpt>
      <trkpt lat="45.93934" lon="4.72441">
        <ele>171</ele>
        <time>2018-08-06T08:57:37Z</time>
      </trkpt>
      <trkpt lat="45.93939" lon="4.72435">
        <ele>171</ele>
        <time>2018-08-06T08:57:38Z</time>
      </trkpt>
      <trkpt lat="45.93944" lon="4.72431">
        <ele>171</ele>
        <time>2018-08-06T08:57:39Z</time>
      </trkpt>
      <trkpt lat="45.9395" lon="4.72421">
        <ele>171</ele>
        <time>2018-08-06T08:57:40Z</time>
      </trkpt>
      <trkpt lat="45.93955" lon="4.72415">
        <ele>171</ele>
        <time>2018-08-06T08:57:41Z</time>
      </trkpt>
      <trkpt lat="45.9396" lon="4.72408">
        <ele>171</ele>
        <time>2018-08-06T08:57:42Z</time>
      </trkpt>
      <trkpt lat="45.93965" lon="4.72402">
        <ele>171</ele>
        <time>2018-08-06T08:57:43Z</time>
      </trkpt>
      <trkpt lat="45.9397" lon="4.72396">
        <ele>171</ele>
        <time>2018-08-06T08:57:44Z</time>
      </trkpt>
      <trkpt lat="45.93975" lon="4.72391">
        <ele>171</ele>
        <time>2018-08-06T08:57:45Z</time>
      </trkpt>
      <trkpt lat="45.93981" lon="4.72385">
        <ele>171</ele>
        <time>2018-08-06T08:57:46Z</time>
      </trkpt>
      <trkpt lat="45.93986" lon="4.72378">
        <ele>171</ele>
        <time>2018-08-06T08:57:47Z</time>
      </trkpt>
      <trkpt lat="45.93991" lon="4.72373">
        <ele>171</ele>
        <time>2018-08-06T08:57:48Z</time>
      </trkpt>
      <trkpt lat="45.93996" lon="4.72368">
        <ele>171</ele>
        <time>2018-08-06T08:57:49Z</time>
      </trkpt>
      <trkpt lat="45.94001" lon="4.72363">
        <ele>171</ele>
        <time>2018-08-06T08:57:50Z</time>
      </trkpt>
      <trkpt lat="45.94006" lon="4.72357">
        <ele>171</ele>
        <time>2018-08-06T08:57:51Z</time>
      </trkpt>
      <trkpt lat="45.94011" lon="4.72351">
        <ele>171</ele>
        <time>2018-08-06T08:57:52Z</time>
      </trkpt>
      <trkpt lat="45.94017" lon="4.72346">
        <ele>171</ele>
        <time>2018-08-06T08:57:53Z</time>
      </trkpt>
      <trkpt lat="45.94021" lon="4.7234">
        <ele>171</ele>
        <time>2018-08-06T08:57:54Z</time>
      </trkpt>
      <trkpt lat="45.94024" lon="4.72335">
        <ele>171</ele>
        <time>2018-08-06T08:57:55Z</time>
      </trkpt>
      <trkpt lat="45.9403" lon="4.72326">
        <ele>171</ele>
        <time>2018-08-06T08:57:56Z</time>
      </trkpt>
      <trkpt lat="45.94033" lon="4.72323">
        <ele>171</ele>
        <time>2018-08-06T08:57:57Z</time>
      </trkpt>
      <trkpt lat="45.94036" lon="4.72319">
        <ele>171</ele>
        <time>2018-08-06T08:57:58Z</time>
      </trkpt>
      <trkpt lat="45.94041" lon="4.72314">
        <ele>171</ele>
        <time>2018-08-06T08:57:59Z</time>
      </trkpt>
      <trkpt lat="45.94044" lon="4.72309">
        <ele>171</ele>
        <time>2018-08-06T08:58:00Z</time>
      </trkpt>
      <trkpt lat="45.94047" lon="4.72303">
        <ele>171</ele>
        <time>2018-08-06T08:58:01Z</time>
      </trkpt>
      <trkpt lat="45.94051" lon="4.72298">
        <ele>171</ele>
        <time>2018-08-06T08:58:02Z</time>
      </trkpt>
      <trkpt lat="45.94054" lon="4.72294">
        <ele>171</ele>
        <time>2018-08-06T08:58:03Z</time>
      </trkpt>
      <trkpt lat="45.94059" lon="4.72289">
        <ele>171</ele>
        <time>2018-08-06T08:58:04Z</time>
      </trkpt>
      <trkpt lat="45.94062" lon="4.72284">
        <ele>171</ele>
        <time>2018-08-06T08:58:05Z</time>
      </trkpt>
      <trkpt lat="45.94065" lon="4.7228">
        <ele>171</ele>
        <time>2018-08-06T08:58:06Z</time>
      </trkpt>
      <trkpt lat="45.94071" lon="4.72274">
        <ele>171</ele>
        <time>2018-08-06T08:58:07Z</time>
      </trkpt>
      <trkpt lat="45.94075" lon="4.7227">
        <ele>171</ele>
        <time>2018-08-06T08:58:08Z</time>
      </trkpt>
      <trkpt lat="45.94081" lon="4.72266">
        <ele>171</ele>
        <time>2018-08-06T08:58:09Z</time>
      </trkpt>
      <trkpt lat="45.94085" lon="4.72265">
        <ele>171</ele>
        <time>2018-08-06T08:58:10Z</time>
      </trkpt>
      <trkpt lat="45.94092" lon="4.72263">
        <ele>171</ele>
        <time>2018-08-06T08:58:11Z</time>
      </trkpt>
      <trkpt lat="45.94095" lon="4.72263">
        <ele>171</ele>
        <time>2018-08-06T08:58:12Z</time>
      </trkpt>
      <trkpt lat="45.94102" lon="4.72264">
        <ele>171</ele>
        <time>2018-08-06T08:58:13Z</time>
      </trkpt>
      <trkpt lat="45.94109" lon="4.72267">
        <ele>171</ele>
        <time>2018-08-06T08:58:14Z</time>
      </trkpt>
      <trkpt lat="45.94116" lon="4.72269">
        <ele>171</ele>
        <time>2018-08-06T08:58:15Z</time>
      </trkpt>
      <trkpt lat="45.94121" lon="4.72272">
        <ele>171</ele>
        <time>2018-08-06T08:58:16Z</time>
      </trkpt>
      <trkpt lat="45.94126" lon="4.72275">
        <ele>171</ele>
        <time>2018-08-06T08:58:17Z</time>
      </trkpt>
      <trkpt lat="45.94134" lon="4.72276">
        <ele>171</ele>
        <time>2018-08-06T08:58:18Z</time>
      </trkpt>
      <trkpt lat="45.94139" lon="4.72279">
        <ele>171</ele>
        <time>2018-08-06T08:58:19Z</time>
      </trkpt>
      <trkpt lat="45.94144" lon="4.72282">
        <ele>171</ele>
        <time>2018-08-06T08:58:20Z</time>
      </trkpt>
      <trkpt lat="45.9415" lon="4.72283">
        <ele>171</ele>
        <time>2018-08-06T08:58:21Z</time>
      </trkpt>
      <trkpt lat="45.94157" lon="4.72285">
        <ele>171</ele>
        <time>2018-08-06T08:58:22Z</time>
      </trkpt>
      <trkpt lat="45.94161" lon="4.72287">
        <ele>171</ele>
        <time>2018-08-06T08:58:23Z</time>
      </trkpt>
      <trkpt lat="45.94167" lon="4.72289">
        <ele>171</ele>
        <time>2018-08-06T08:58:24Z</time>
      </trkpt>
      <trkpt lat="45.94173" lon="4.7229">
        <ele>171</ele>
        <time>2018-08-06T08:58:25Z</time>
      </trkpt>
      <trkpt lat="45.94178" lon="4.72292">
        <ele>171</ele>
        <time>2018-08-06T08:58:26Z</time>
      </trkpt>
      <trkpt lat="45.94183" lon="4.72293">
        <ele>171</ele>
        <time>2018-08-06T08:58:27Z</time>
      </trkpt>
      <trkpt lat="45.9419" lon="4.72291">
        <ele>171</ele>
        <time>2018-08-06T08:58:28Z</time>
      </trkpt>
      <trkpt lat="45.94197" lon="4.7229">
        <ele>171</ele>
        <time>2018-08-06T08:58:29Z</time>
      </trkpt>
      <trkpt lat="45.94203" lon="4.7229">
        <ele>171</ele>
        <time>2018-08-06T08:58:30Z</time>
      </trkpt>
      <trkpt lat="45.94208" lon="4.72288">
        <ele>171</ele>
        <time>2018-08-06T08:58:31Z</time>
      </trkpt>
      <trkpt lat="45.94212" lon="4.72291">
        <ele>171</ele>
        <time>2018-08-06T08:58:33Z</time>
      </trkpt>
      <trkpt lat="45.94217" lon="4.72288">
        <ele>171</ele>
        <time>2018-08-06T08:58:34Z</time>
      </trkpt>
      <trkpt lat="45.94222" lon="4.72288">
        <ele>171</ele>
        <time>2018-08-06T08:58:35Z</time>
      </trkpt>
      <trkpt lat="45.94228" lon="4.72289">
        <ele>171</ele>
        <time>2018-08-06T08:58:36Z</time>
      </trkpt>
      <trkpt lat="45.94235" lon="4.72284">
        <ele>171</ele>
        <time>2018-08-06T08:58:37Z</time>
      </trkpt>
      <trkpt lat="45.94242" lon="4.72283">
        <ele>171</ele>
        <time>2018-08-06T08:58:38Z</time>
      </trkpt>
      <trkpt lat="45.94247" lon="4.72278">
        <ele>171</ele>
        <time>2018-08-06T08:58:39Z</time>
      </trkpt>
      <trkpt lat="45.94252" lon="4.72276">
        <ele>171</ele>
        <time>2018-08-06T08:58:40Z</time>
      </trkpt>
      <trkpt lat="45.94259" lon="4.72278">
        <ele>171</ele>
        <time>2018-08-06T08:58:42Z</time>
      </trkpt>
      <trkpt lat="45.94262" lon="4.72277">
        <ele>171</ele>
        <time>2018-08-06T08:58:43Z</time>
      </trkpt>
      <trkpt lat="45.94269" lon="4.72274">
        <ele>171</ele>
        <time>2018-08-06T08:58:44Z</time>
      </trkpt>
      <trkpt lat="45.94274" lon="4.72273">
        <ele>171</ele>
        <time>2018-08-06T08:58:45Z</time>
      </trkpt>
      <trkpt lat="45.94279" lon="4.72282">
        <ele>171</ele>
        <time>2018-08-06T08:58:47Z</time>
      </trkpt>
      <trkpt lat="45.94282" lon="4.72287">
        <ele>171</ele>
        <time>2018-08-06T08:58:48Z</time>
      </trkpt>
      <trkpt lat="45.94284" lon="4.72294">
        <ele>171</ele>
        <time>2018-08-06T08:58:49Z</time>
      </trkpt>
      <trkpt lat="45.94287" lon="4.723">
        <ele>171</ele>
        <time>2018-08-06T08:58:50Z</time>
      </trkpt>
      <trkpt lat="45.94289" lon="4.72305">
        <ele>171</ele>
        <time>2018-08-06T08:58:51Z</time>
      </trkpt>
      <trkpt lat="45.94292" lon="4.72311">
        <ele>171</ele>
        <time>2018-08-06T08:58:52Z</time>
      </trkpt>
      <trkpt lat="45.94295" lon="4.72319">
        <ele>171</ele>
        <time>2018-08-06T08:58:53Z</time>
      </trkpt>
      <trkpt lat="45.94298" lon="4.72326">
        <ele>171</ele>
        <time>2018-08-06T08:58:54Z</time>
      </trkpt>
      <trkpt lat="45.94303" lon="4.72332">
        <ele>171</ele>
        <time>2018-08-06T08:58:55Z</time>
      </trkpt>
      <trkpt lat="45.94305" lon="4.72338">
        <ele>172</ele>
        <time>2018-08-06T08:58:56Z</time>
      </trkpt>
      <trkpt lat="45.94309" lon="4.72345">
        <ele>172</ele>
        <time>2018-08-06T08:58:57Z</time>
      </trkpt>
      <trkpt lat="45.94311" lon="4.72352">
        <ele>172</ele>
        <time>2018-08-06T08:58:58Z</time>
      </trkpt>
      <trkpt lat="45.94313" lon="4.7236">
        <ele>172</ele>
        <time>2018-08-06T08:58:59Z</time>
      </trkpt>
      <trkpt lat="45.94316" lon="4.72366">
        <ele>172</ele>
        <time>2018-08-06T08:59:00Z</time>
      </trkpt>
      <trkpt lat="45.94319" lon="4.72372">
        <ele>172</ele>
        <time>2018-08-06T08:59:01Z</time>
      </trkpt>
      <trkpt lat="45.94322" lon="4.72379">
        <ele>172</ele>
        <time>2018-08-06T08:59:02Z</time>
      </trkpt>
      <trkpt lat="45.94325" lon="4.72386">
        <ele>172</ele>
        <time>2018-08-06T08:59:03Z</time>
      </trkpt>
      <trkpt lat="45.94329" lon="4.72392">
        <ele>172</ele>
        <time>2018-08-06T08:59:04Z</time>
      </trkpt>
      <trkpt lat="45.94331" lon="4.724">
        <ele>173</ele>
        <time>2018-08-06T08:59:05Z</time>
      </trkpt>
      <trkpt lat="45.94335" lon="4.72407">
        <ele>173</ele>
        <time>2018-08-06T08:59:06Z</time>
      </trkpt>
      <trkpt lat="45.94337" lon="4.72414">
        <ele>173</ele>
        <time>2018-08-06T08:59:07Z</time>
      </trkpt>
      <trkpt lat="45.9434" lon="4.72421">
        <ele>173</ele>
        <time>2018-08-06T08:59:08Z</time>
      </trkpt>
      <trkpt lat="45.94343" lon="4.72428">
        <ele>173</ele>
        <time>2018-08-06T08:59:09Z</time>
      </trkpt>
      <trkpt lat="45.94346" lon="4.72435">
        <ele>173</ele>
        <time>2018-08-06T08:59:10Z</time>
      </trkpt>
      <trkpt lat="45.94349" lon="4.72441">
        <ele>173</ele>
        <time>2018-08-06T08:59:11Z</time>
      </trkpt>
      <trkpt lat="45.94351" lon="4.72447">
        <ele>173</ele>
        <time>2018-08-06T08:59:12Z</time>
      </trkpt>
      <trkpt lat="45.94352" lon="4.72453">
        <ele>173</ele>
        <time>2018-08-06T08:59:13Z</time>
      </trkpt>
      <trkpt lat="45.94354" lon="4.72458">
        <ele>173</ele>
        <time>2018-08-06T08:59:14Z</time>
      </trkpt>
      <trkpt lat="45.94357" lon="4.72465">
        <ele>173</ele>
        <time>2018-08-06T08:59:15Z</time>
      </trkpt>
      <trkpt lat="45.9436" lon="4.7247">
        <ele>173</ele>
        <time>2018-08-06T08:59:16Z</time>
      </trkpt>
      <trkpt lat="45.94361" lon="4.72476">
        <ele>173</ele>
        <time>2018-08-06T08:59:17Z</time>
      </trkpt>
      <trkpt lat="45.94365" lon="4.72482">
        <ele>173</ele>
        <time>2018-08-06T08:59:18Z</time>
      </trkpt>
      <trkpt lat="45.94368" lon="4.72491">
        <ele>173</ele>
        <time>2018-08-06T08:59:19Z</time>
      </trkpt>
      <trkpt lat="45.94371" lon="4.72497">
        <ele>173</ele>
        <time>2018-08-06T08:59:20Z</time>
      </trkpt>
      <trkpt lat="45.94374" lon="4.72504">
        <ele>173</ele>
        <time>2018-08-06T08:59:21Z</time>
      </trkpt>
      <trkpt lat="45.94376" lon="4.72514">
        <ele>174</ele>
        <time>2018-08-06T08:59:22Z</time>
      </trkpt>
      <trkpt lat="45.94377" lon="4.7252">
        <ele>174</ele>
        <time>2018-08-06T08:59:23Z</time>
      </trkpt>
      <trkpt lat="45.9438" lon="4.72529">
        <ele>174</ele>
        <time>2018-08-06T08:59:24Z</time>
      </trkpt>
      <trkpt lat="45.94383" lon="4.72536">
        <ele>174</ele>
        <time>2018-08-06T08:59:25Z</time>
      </trkpt>
      <trkpt lat="45.94384" lon="4.72544">
        <ele>173</ele>
        <time>2018-08-06T08:59:26Z</time>
      </trkpt>
      <trkpt lat="45.94384" lon="4.72554">
        <ele>173</ele>
        <time>2018-08-06T08:59:27Z</time>
      </trkpt>
      <trkpt lat="45.94386" lon="4.72564">
        <ele>173</ele>
        <time>2018-08-06T08:59:28Z</time>
      </trkpt>
      <trkpt lat="45.94388" lon="4.72572">
        <ele>173</ele>
        <time>2018-08-06T08:59:29Z</time>
      </trkpt>
      <trkpt lat="45.9439" lon="4.7258">
        <ele>173</ele>
        <time>2018-08-06T08:59:30Z</time>
      </trkpt>
      <trkpt lat="45.94391" lon="4.72589">
        <ele>173</ele>
        <time>2018-08-06T08:59:31Z</time>
      </trkpt>
      <trkpt lat="45.94392" lon="4.72598">
        <ele>173</ele>
        <time>2018-08-06T08:59:32Z</time>
      </trkpt>
      <trkpt lat="45.94393" lon="4.72607">
        <ele>173</ele>
        <time>2018-08-06T08:59:33Z</time>
      </trkpt>
      <trkpt lat="45.94395" lon="4.72616">
        <ele>173</ele>
        <time>2018-08-06T08:59:34Z</time>
      </trkpt>
      <trkpt lat="45.94395" lon="4.72623">
        <ele>173</ele>
        <time>2018-08-06T08:59:35Z</time>
      </trkpt>
      <trkpt lat="45.94397" lon="4.72633">
        <ele>174</ele>
        <time>2018-08-06T08:59:36Z</time>
      </trkpt>
      <trkpt lat="45.94398" lon="4.72641">
        <ele>174</ele>
        <time>2018-08-06T08:59:37Z</time>
      </trkpt>
      <trkpt lat="45.94399" lon="4.72649">
        <ele>174</ele>
        <time>2018-08-06T08:59:38Z</time>
      </trkpt>
      <trkpt lat="45.944" lon="4.72658">
        <ele>174</ele>
        <time>2018-08-06T08:59:39Z</time>
      </trkpt>
      <trkpt lat="45.94401" lon="4.72665">
        <ele>174</ele>
        <time>2018-08-06T08:59:40Z</time>
      </trkpt>
      <trkpt lat="45.94402" lon="4.72673">
        <ele>173</ele>
        <time>2018-08-06T08:59:41Z</time>
      </trkpt>
      <trkpt lat="45.94404" lon="4.72681">
        <ele>173</ele>
        <time>2018-08-06T08:59:42Z</time>
      </trkpt>
      <trkpt lat="45.94404" lon="4.72688">
        <ele>173</ele>
        <time>2018-08-06T08:59:43Z</time>
      </trkpt>
      <trkpt lat="45.94405" lon="4.72696">
        <ele>172</ele>
        <time>2018-08-06T08:59:44Z</time>
      </trkpt>
      <trkpt lat="45.94406" lon="4.72704">
        <ele>172</ele>
        <time>2018-08-06T08:59:45Z</time>
      </trkpt>
      <trkpt lat="45.94407" lon="4.72712">
        <ele>172</ele>
        <time>2018-08-06T08:59:46Z</time>
      </trkpt>
      <trkpt lat="45.94407" lon="4.7272">
        <ele>172</ele>
        <time>2018-08-06T08:59:47Z</time>
      </trkpt>
      <trkpt lat="45.94409" lon="4.72728">
        <ele>172</ele>
        <time>2018-08-06T08:59:48Z</time>
      </trkpt>
      <trkpt lat="45.94409" lon="4.72736">
        <ele>171</ele>
        <time>2018-08-06T08:59:49Z</time>
      </trkpt>
      <trkpt lat="45.94412" lon="4.72744">
        <ele>171</ele>
        <time>2018-08-06T08:59:50Z</time>
      </trkpt>
      <trkpt lat="45.94412" lon="4.72752">
        <ele>171</ele>
        <time>2018-08-06T08:59:51Z</time>
      </trkpt>
      <trkpt lat="45.94415" lon="4.72761">
        <ele>170</ele>
        <time>2018-08-06T08:59:52Z</time>
      </trkpt>
      <trkpt lat="45.94415" lon="4.72769">
        <ele>169</ele>
        <time>2018-08-06T08:59:53Z</time>
      </trkpt>
      <trkpt lat="45.94416" lon="4.72776">
        <ele>169</ele>
        <time>2018-08-06T08:59:54Z</time>
      </trkpt>
      <trkpt lat="45.94417" lon="4.72783">
        <ele>168</ele>
        <time>2018-08-06T08:59:55Z</time>
      </trkpt>
      <trkpt lat="45.94418" lon="4.7279">
        <ele>168</ele>
        <time>2018-08-06T08:59:56Z</time>
      </trkpt>
      <trkpt lat="45.94419" lon="4.72796">
        <ele>168</ele>
        <time>2018-08-06T08:59:57Z</time>
      </trkpt>
      <trkpt lat="45.9442" lon="4.72803">
        <ele>167</ele>
        <time>2018-08-06T08:59:58Z</time>
      </trkpt>
      <trkpt lat="45.94421" lon="4.72809">
        <ele>167</ele>
        <time>2018-08-06T08:59:59Z</time>
      </trkpt>
      <trkpt lat="45.94422" lon="4.72816">
        <ele>167</ele>
        <time>2018-08-06T09:00:00Z</time>
      </trkpt>
      <trkpt lat="45.94423" lon="4.72823">
        <ele>167</ele>
        <time>2018-08-06T09:00:01Z</time>
      </trkpt>
      <trkpt lat="45.94425" lon="4.72835">
        <ele>166</ele>
        <time>2018-08-06T09:00:03Z</time>
      </trkpt>
      <trkpt lat="45.94426" lon="4.72847">
        <ele>166</ele>
        <time>2018-08-06T09:00:05Z</time>
      </trkpt>
      <trkpt lat="45.94427" lon="4.72853">
        <ele>166</ele>
        <time>2018-08-06T09:00:06Z</time>
      </trkpt>
      <trkpt lat="45.94429" lon="4.72863">
        <ele>166</ele>
        <time>2018-08-06T09:00:08Z</time>
      </trkpt>
      <trkpt lat="45.9443" lon="4.72871">
        <ele>166</ele>
        <time>2018-08-06T09:00:09Z</time>
      </trkpt>
      <trkpt lat="45.94432" lon="4.72881">
        <ele>166</ele>
        <time>2018-08-06T09:00:11Z</time>
      </trkpt>
      <trkpt lat="45.94433" lon="4.72887">
        <ele>166</ele>
        <time>2018-08-06T09:00:12Z</time>
      </trkpt>
      <trkpt lat="45.94435" lon="4.72899">
        <ele>166</ele>
        <time>2018-08-06T09:00:14Z</time>
      </trkpt>
      <trkpt lat="45.94435" lon="4.72904">
        <ele>166</ele>
        <time>2018-08-06T09:00:15Z</time>
      </trkpt>
      <trkpt lat="45.94436" lon="4.7291">
        <ele>166</ele>
        <time>2018-08-06T09:00:16Z</time>
      </trkpt>
      <trkpt lat="45.94436" lon="4.72917">
        <ele>167</ele>
        <time>2018-08-06T09:00:17Z</time>
      </trkpt>
      <trkpt lat="45.94437" lon="4.72924">
        <ele>167</ele>
        <time>2018-08-06T09:00:18Z</time>
      </trkpt>
      <trkpt lat="45.94438" lon="4.72932">
        <ele>167</ele>
        <time>2018-08-06T09:00:19Z</time>
      </trkpt>
      <trkpt lat="45.9444" lon="4.7294">
        <ele>167</ele>
        <time>2018-08-06T09:00:20Z</time>
      </trkpt>
      <trkpt lat="45.94441" lon="4.7295">
        <ele>167</ele>
        <time>2018-08-06T09:00:21Z</time>
      </trkpt>
      <trkpt lat="45.94442" lon="4.72958">
        <ele>167</ele>
        <time>2018-08-06T09:00:22Z</time>
      </trkpt>
      <trkpt lat="45.94443" lon="4.72967">
        <ele>167</ele>
        <time>2018-08-06T09:00:23Z</time>
      </trkpt>
      <trkpt lat="45.94445" lon="4.72976">
        <ele>167</ele>
        <time>2018-08-06T09:00:24Z</time>
      </trkpt>
      <trkpt lat="45.94446" lon="4.72986">
        <ele>167</ele>
        <time>2018-08-06T09:00:25Z</time>
      </trkpt>
      <trkpt lat="45.94448" lon="4.72996">
        <ele>167</ele>
        <time>2018-08-06T09:00:26Z</time>
      </trkpt>
      <trkpt lat="45.94449" lon="4.73006">
        <ele>169</ele>
        <time>2018-08-06T09:00:27Z</time>
      </trkpt>
      <trkpt lat="45.94449" lon="4.73016">
        <ele>169</ele>
        <time>2018-08-06T09:00:28Z</time>
      </trkpt>
      <trkpt lat="45.94451" lon="4.73026">
        <ele>169</ele>
        <time>2018-08-06T09:00:29Z</time>
      </trkpt>
      <trkpt lat="45.94453" lon="4.73037">
        <ele>169</ele>
        <time>2018-08-06T09:00:30Z</time>
      </trkpt>
      <trkpt lat="45.94454" lon="4.73049">
        <ele>169</ele>
        <time>2018-08-06T09:00:31Z</time>
      </trkpt>
      <trkpt lat="45.94456" lon="4.7306">
        <ele>170</ele>
        <time>2018-08-06T09:00:32Z</time>
      </trkpt>
      <trkpt lat="45.94457" lon="4.73071">
        <ele>170</ele>
        <time>2018-08-06T09:00:33Z</time>
      </trkpt>
      <trkpt lat="45.94458" lon="4.73082">
        <ele>170</ele>
        <time>2018-08-06T09:00:34Z</time>
      </trkpt>
      <trkpt lat="45.94459" lon="4.73092">
        <ele>171</ele>
        <time>2018-08-06T09:00:35Z</time>
      </trkpt>
      <trkpt lat="45.94461" lon="4.73106">
        <ele>172</ele>
        <time>2018-08-06T09:00:36Z</time>
      </trkpt>
      <trkpt lat="45.94463" lon="4.73115">
        <ele>172</ele>
        <time>2018-08-06T09:00:37Z</time>
      </trkpt>
      <trkpt lat="45.94464" lon="4.73126">
        <ele>172</ele>
        <time>2018-08-06T09:00:38Z</time>
      </trkpt>
      <trkpt lat="45.94464" lon="4.73136">
        <ele>172</ele>
        <time>2018-08-06T09:00:39Z</time>
      </trkpt>
      <trkpt lat="45.94464" lon="4.73143">
        <ele>172</ele>
        <time>2018-08-06T09:00:40Z</time>
      </trkpt>
      <trkpt lat="45.94467" lon="4.73153">
        <ele>172</ele>
        <time>2018-08-06T09:00:41Z</time>
      </trkpt>
      <trkpt lat="45.94469" lon="4.73161">
        <ele>172</ele>
        <time>2018-08-06T09:00:42Z</time>
      </trkpt>
      <trkpt lat="45.94471" lon="4.7317">
        <ele>174</ele>
        <time>2018-08-06T09:00:43Z</time>
      </trkpt>
      <trkpt lat="45.94472" lon="4.73177">
        <ele>174</ele>
        <time>2018-08-06T09:00:44Z</time>
      </trkpt>
      <trkpt lat="45.94473" lon="4.73187">
        <ele>174</ele>
        <time>2018-08-06T09:00:45Z</time>
      </trkpt>
      <trkpt lat="45.94474" lon="4.73195">
        <ele>174</ele>
        <time>2018-08-06T09:00:46Z</time>
      </trkpt>
      <trkpt lat="45.94475" lon="4.73203">
        <ele>175</ele>
        <time>2018-08-06T09:00:47Z</time>
      </trkpt>
      <trkpt lat="45.94477" lon="4.73212">
        <ele>175</ele>
        <time>2018-08-06T09:00:48Z</time>
      </trkpt>
      <trkpt lat="45.94477" lon="4.73218">
        <ele>175</ele>
        <time>2018-08-06T09:00:49Z</time>
      </trkpt>
      <trkpt lat="45.94478" lon="4.73225">
        <ele>175</ele>
        <time>2018-08-06T09:00:50Z</time>
      </trkpt>
      <trkpt lat="45.9448" lon="4.73233">
        <ele>175</ele>
        <time>2018-08-06T09:00:51Z</time>
      </trkpt>
      <trkpt lat="45.9448" lon="4.7324">
        <ele>175</ele>
        <time>2018-08-06T09:00:52Z</time>
      </trkpt>
      <trkpt lat="45.94482" lon="4.73248">
        <ele>175</ele>
        <time>2018-08-06T09:00:53Z</time>
      </trkpt>
      <trkpt lat="45.94482" lon="4.73254">
        <ele>176</ele>
        <time>2018-08-06T09:00:54Z</time>
      </trkpt>
      <trkpt lat="45.94483" lon="4.73261">
        <ele>177</ele>
        <time>2018-08-06T09:00:55Z</time>
      </trkpt>
      <trkpt lat="45.94484" lon="4.73268">
        <ele>177</ele>
        <time>2018-08-06T09:00:56Z</time>
      </trkpt>
      <trkpt lat="45.94485" lon="4.73275">
        <ele>177</ele>
        <time>2018-08-06T09:00:57Z</time>
      </trkpt>
      <trkpt lat="45.94486" lon="4.73283">
        <ele>177</ele>
        <time>2018-08-06T09:00:58Z</time>
      </trkpt>
      <trkpt lat="45.94488" lon="4.7329">
        <ele>177</ele>
        <time>2018-08-06T09:00:59Z</time>
      </trkpt>
      <trkpt lat="45.94489" lon="4.73297">
        <ele>177</ele>
        <time>2018-08-06T09:01:00Z</time>
      </trkpt>
      <trkpt lat="45.9449" lon="4.73308">
        <ele>177</ele>
        <time>2018-08-06T09:01:02Z</time>
      </trkpt>
      <trkpt lat="45.94489" lon="4.73313">
        <ele>177</ele>
        <time>2018-08-06T09:01:03Z</time>
      </trkpt>
      <trkpt lat="45.9449" lon="4.73325">
        <ele>177</ele>
        <time>2018-08-06T09:01:05Z</time>
      </trkpt>
      <trkpt lat="45.9449" lon="4.7333">
        <ele>177</ele>
        <time>2018-08-06T09:01:06Z</time>
      </trkpt>
      <trkpt lat="45.94492" lon="4.73342">
        <ele>178</ele>
        <time>2018-08-06T09:01:08Z</time>
      </trkpt>
      <trkpt lat="45.94493" lon="4.73348">
        <ele>178</ele>
        <time>2018-08-06T09:01:09Z</time>
      </trkpt>
      <trkpt lat="45.94493" lon="4.73359">
        <ele>179</ele>
        <time>2018-08-06T09:01:11Z</time>
      </trkpt>
      <trkpt lat="45.94493" lon="4.73365">
        <ele>179</ele>
        <time>2018-08-06T09:01:12Z</time>
      </trkpt>
      <trkpt lat="45.94494" lon="4.73376">
        <ele>179</ele>
        <time>2018-08-06T09:01:14Z</time>
      </trkpt>
      <trkpt lat="45.94495" lon="4.73382">
        <ele>179</ele>
        <time>2018-08-06T09:01:15Z</time>
      </trkpt>
      <trkpt lat="45.94496" lon="4.73391">
        <ele>179</ele>
        <time>2018-08-06T09:01:17Z</time>
      </trkpt>
      <trkpt lat="45.94496" lon="4.73398">
        <ele>180</ele>
        <time>2018-08-06T09:01:18Z</time>
      </trkpt>
      <trkpt lat="45.94496" lon="4.73409">
        <ele>180</ele>
        <time>2018-08-06T09:01:20Z</time>
      </trkpt>
      <trkpt lat="45.94496" lon="4.73411">
        <ele>180</ele>
        <time>2018-08-06T09:01:21Z</time>
      </trkpt>
      <trkpt lat="45.94496" lon="4.73414">
        <ele>180</ele>
        <time>2018-08-06T09:01:22Z</time>
      </trkpt>
      <trkpt lat="45.94498" lon="4.73425">
        <ele>181</ele>
        <time>2018-08-06T09:01:23Z</time>
      </trkpt>
      <trkpt lat="45.94497" lon="4.73434">
        <ele>181</ele>
        <time>2018-08-06T09:01:26Z</time>
      </trkpt>
      <trkpt lat="45.94498" lon="4.73445">
        <ele>181</ele>
        <time>2018-08-06T09:01:27Z</time>
      </trkpt>
      <trkpt lat="45.94498" lon="4.73456">
        <ele>182</ele>
        <time>2018-08-06T09:01:29Z</time>
      </trkpt>
      <trkpt lat="45.94498" lon="4.73462">
        <ele>182</ele>
        <time>2018-08-06T09:01:30Z</time>
      </trkpt>
      <trkpt lat="45.94497" lon="4.73473">
        <ele>182</ele>
        <time>2018-08-06T09:01:32Z</time>
      </trkpt>
      <trkpt lat="45.94497" lon="4.73476">
        <ele>182</ele>
        <time>2018-08-06T09:01:33Z</time>
      </trkpt>
      <trkpt lat="45.94497" lon="4.7348">
        <ele>182</ele>
        <time>2018-08-06T09:01:34Z</time>
      </trkpt>
      <trkpt lat="45.94498" lon="4.7349">
        <ele>183</ele>
        <time>2018-08-06T09:01:35Z</time>
      </trkpt>
      <trkpt lat="45.94498" lon="4.73501">
        <ele>183</ele>
        <time>2018-08-06T09:01:37Z</time>
      </trkpt>
      <trkpt lat="45.94498" lon="4.73504">
        <ele>183</ele>
        <time>2018-08-06T09:01:38Z</time>
      </trkpt>
      <trkpt lat="45.94498" lon="4.73515">
        <ele>184</ele>
        <time>2018-08-06T09:01:40Z</time>
      </trkpt>
      <trkpt lat="45.94497" lon="4.73522">
        <ele>184</ele>
        <time>2018-08-06T09:01:41Z</time>
      </trkpt>
      <trkpt lat="45.94496" lon="4.73533">
        <ele>184</ele>
        <time>2018-08-06T09:01:44Z</time>
      </trkpt>
      <trkpt lat="45.94495" lon="4.73543">
        <ele>185</ele>
        <time>2018-08-06T09:01:45Z</time>
      </trkpt>
      <trkpt lat="45.94494" lon="4.73555">
        <ele>185</ele>
        <time>2018-08-06T09:01:47Z</time>
      </trkpt>
      <trkpt lat="45.94494" lon="4.73561">
        <ele>185</ele>
        <time>2018-08-06T09:01:48Z</time>
      </trkpt>
      <trkpt lat="45.94494" lon="4.73573">
        <ele>185</ele>
        <time>2018-08-06T09:01:50Z</time>
      </trkpt>
      <trkpt lat="45.94493" lon="4.73578">
        <ele>185</ele>
        <time>2018-08-06T09:01:51Z</time>
      </trkpt>
      <trkpt lat="45.94493" lon="4.73581">
        <ele>185</ele>
        <time>2018-08-06T09:01:52Z</time>
      </trkpt>
      <trkpt lat="45.94492" lon="4.73591">
        <ele>185</ele>
        <time>2018-08-06T09:01:53Z</time>
      </trkpt>
      <trkpt lat="45.94492" lon="4.73598">
        <ele>185</ele>
        <time>2018-08-06T09:01:54Z</time>
      </trkpt>
      <trkpt lat="45.94494" lon="4.73607">
        <ele>186</ele>
        <time>2018-08-06T09:01:55Z</time>
      </trkpt>
      <trkpt lat="45.94492" lon="4.73618">
        <ele>186</ele>
        <time>2018-08-06T09:01:57Z</time>
      </trkpt>
      <trkpt lat="45.94492" lon="4.73625">
        <ele>186</ele>
        <time>2018-08-06T09:01:58Z</time>
      </trkpt>
      <trkpt lat="45.94491" lon="4.73637">
        <ele>186</ele>
        <time>2018-08-06T09:02:00Z</time>
      </trkpt>
      <trkpt lat="45.9449" lon="4.73645">
        <ele>186</ele>
        <time>2018-08-06T09:02:01Z</time>
      </trkpt>
      <trkpt lat="45.94488" lon="4.73657">
        <ele>185</ele>
        <time>2018-08-06T09:02:03Z</time>
      </trkpt>
      <trkpt lat="45.94487" lon="4.73663">
        <ele>185</ele>
        <time>2018-08-06T09:02:04Z</time>
      </trkpt>
      <trkpt lat="45.94486" lon="4.7367">
        <ele>185</ele>
        <time>2018-08-06T09:02:05Z</time>
      </trkpt>
      <trkpt lat="45.94486" lon="4.73678">
        <ele>186</ele>
        <time>2018-08-06T09:02:06Z</time>
      </trkpt>
      <trkpt lat="45.94486" lon="4.73685">
        <ele>186</ele>
        <time>2018-08-06T09:02:07Z</time>
      </trkpt>
      <trkpt lat="45.94485" lon="4.73693">
        <ele>186</ele>
        <time>2018-08-06T09:02:08Z</time>
      </trkpt>
      <trkpt lat="45.94484" lon="4.737">
        <ele>186</ele>
        <time>2018-08-06T09:02:09Z</time>
      </trkpt>
      <trkpt lat="45.94482" lon="4.73706">
        <ele>186</ele>
        <time>2018-08-06T09:02:10Z</time>
      </trkpt>
      <trkpt lat="45.94482" lon="4.73714">
        <ele>186</ele>
        <time>2018-08-06T09:02:11Z</time>
      </trkpt>
      <trkpt lat="45.94481" lon="4.73721">
        <ele>186</ele>
        <time>2018-08-06T09:02:12Z</time>
      </trkpt>
      <trkpt lat="45.94479" lon="4.73727">
        <ele>186</ele>
        <time>2018-08-06T09:02:13Z</time>
      </trkpt>
      <trkpt lat="45.94478" lon="4.73735">
        <ele>186</ele>
        <time>2018-08-06T09:02:14Z</time>
      </trkpt>
      <trkpt lat="45.94477" lon="4.73742">
        <ele>186</ele>
        <time>2018-08-06T09:02:15Z</time>
      </trkpt>
      <trkpt lat="45.94477" lon="4.73749">
        <ele>186</ele>
        <time>2018-08-06T09:02:16Z</time>
      </trkpt>
      <trkpt lat="45.94475" lon="4.73761">
        <ele>186</ele>
        <time>2018-08-06T09:02:18Z</time>
      </trkpt>
      <trkpt lat="45.94475" lon="4.73767">
        <ele>186</ele>
        <time>2018-08-06T09:02:19Z</time>
      </trkpt>
      <trkpt lat="45.94482" lon="4.73775">
        <ele>186</ele>
        <time>2018-08-06T09:02:21Z</time>
      </trkpt>
      <trkpt lat="45.94485" lon="4.73778">
        <ele>186</ele>
        <time>2018-08-06T09:02:22Z</time>
      </trkpt>
      <trkpt lat="45.94489" lon="4.73781">
        <ele>186</ele>
        <time>2018-08-06T09:02:23Z</time>
      </trkpt>
      <trkpt lat="45.94493" lon="4.73784">
        <ele>186</ele>
        <time>2018-08-06T09:02:24Z</time>
      </trkpt>
      <trkpt lat="45.94497" lon="4.73788">
        <ele>186</ele>
        <time>2018-08-06T09:02:25Z</time>
      </trkpt>
      <trkpt lat="45.94502" lon="4.73793">
        <ele>186</ele>
        <time>2018-08-06T09:02:26Z</time>
      </trkpt>
      <trkpt lat="45.94507" lon="4.73798">
        <ele>186</ele>
        <time>2018-08-06T09:02:27Z</time>
      </trkpt>
      <trkpt lat="45.9451" lon="4.73801">
        <ele>186</ele>
        <time>2018-08-06T09:02:28Z</time>
      </trkpt>
      <trkpt lat="45.94514" lon="4.73804">
        <ele>186</ele>
        <time>2018-08-06T09:02:29Z</time>
      </trkpt>
      <trkpt lat="45.94518" lon="4.73809">
        <ele>186</ele>
        <time>2018-08-06T09:02:30Z</time>
      </trkpt>
      <trkpt lat="45.94523" lon="4.73813">
        <ele>186</ele>
        <time>2018-08-06T09:02:31Z</time>
      </trkpt>
      <trkpt lat="45.94527" lon="4.73818">
        <ele>186</ele>
        <time>2018-08-06T09:02:32Z</time>
      </trkpt>
      <trkpt lat="45.94533" lon="4.73822">
        <ele>186</ele>
        <time>2018-08-06T09:02:33Z</time>
      </trkpt>
      <trkpt lat="45.94537" lon="4.73826">
        <ele>186</ele>
        <time>2018-08-06T09:02:34Z</time>
      </trkpt>
      <trkpt lat="45.94541" lon="4.7383">
        <ele>186</ele>
        <time>2018-08-06T09:02:35Z</time>
      </trkpt>
      <trkpt lat="45.94545" lon="4.73833">
        <ele>186</ele>
        <time>2018-08-06T09:02:36Z</time>
      </trkpt>
      <trkpt lat="45.94552" lon="4.73841">
        <ele>186</ele>
        <time>2018-08-06T09:02:38Z</time>
      </trkpt>
      <trkpt lat="45.94556" lon="4.73844">
        <ele>186</ele>
        <time>2018-08-06T09:02:39Z</time>
      </trkpt>
      <trkpt lat="45.9456" lon="4.73848">
        <ele>186</ele>
        <time>2018-08-06T09:02:40Z</time>
      </trkpt>
      <trkpt lat="45.94564" lon="4.73851">
        <ele>186</ele>
        <time>2018-08-06T09:02:41Z</time>
      </trkpt>
      <trkpt lat="45.94568" lon="4.73856">
        <ele>186</ele>
        <time>2018-08-06T09:02:42Z</time>
      </trkpt>
      <trkpt lat="45.94572" lon="4.7386">
        <ele>186</ele>
        <time>2018-08-06T09:02:43Z</time>
      </trkpt>
      <trkpt lat="45.94576" lon="4.73865">
        <ele>186</ele>
        <time>2018-08-06T09:02:44Z</time>
      </trkpt>
      <trkpt lat="45.9458" lon="4.73869">
        <ele>186</ele>
        <time>2018-08-06T09:02:45Z</time>
      </trkpt>
      <trkpt lat="45.94584" lon="4.73873">
        <ele>187</ele>
        <time>2018-08-06T09:02:46Z</time>
      </trkpt>
      <trkpt lat="45.94588" lon="4.73877">
        <ele>187</ele>
        <time>2018-08-06T09:02:47Z</time>
      </trkpt>
      <trkpt lat="45.94592" lon="4.73881">
        <ele>187</ele>
        <time>2018-08-06T09:02:48Z</time>
      </trkpt>
      <trkpt lat="45.94596" lon="4.73885">
        <ele>187</ele>
        <time>2018-08-06T09:02:49Z</time>
      </trkpt>
      <trkpt lat="45.94602" lon="4.73894">
        <ele>187</ele>
        <time>2018-08-06T09:02:51Z</time>
      </trkpt>
      <trkpt lat="45.94605" lon="4.73899">
        <ele>187</ele>
        <time>2018-08-06T09:02:52Z</time>
      </trkpt>
      <trkpt lat="45.94609" lon="4.73904">
        <ele>187</ele>
        <time>2018-08-06T09:02:53Z</time>
      </trkpt>
      <trkpt lat="45.94613" lon="4.73909">
        <ele>187</ele>
        <time>2018-08-06T09:02:54Z</time>
      </trkpt>
      <trkpt lat="45.94617" lon="4.73913">
        <ele>187</ele>
        <time>2018-08-06T09:02:55Z</time>
      </trkpt>
      <trkpt lat="45.94621" lon="4.73918">
        <ele>187</ele>
        <time>2018-08-06T09:02:56Z</time>
      </trkpt>
      <trkpt lat="45.94624" lon="4.73922">
        <ele>187</ele>
        <time>2018-08-06T09:02:57Z</time>
      </trkpt>
      <trkpt lat="45.94627" lon="4.73927">
        <ele>187</ele>
        <time>2018-08-06T09:02:58Z</time>
      </trkpt>
      <trkpt lat="45.94631" lon="4.73932">
        <ele>187</ele>
        <time>2018-08-06T09:02:59Z</time>
      </trkpt>
      <trkpt lat="45.94635" lon="4.73937">
        <ele>187</ele>
        <time>2018-08-06T09:03:00Z</time>
      </trkpt>
      <trkpt lat="45.9464" lon="4.73941">
        <ele>187</ele>
        <time>2018-08-06T09:03:01Z</time>
      </trkpt>
      <trkpt lat="45.94643" lon="4.73947">
        <ele>187</ele>
        <time>2018-08-06T09:03:02Z</time>
      </trkpt>
      <trkpt lat="45.94649" lon="4.73956">
        <ele>187</ele>
        <time>2018-08-06T09:03:04Z</time>
      </trkpt>
      <trkpt lat="45.94653" lon="4.73959">
        <ele>187</ele>
        <time>2018-08-06T09:03:05Z</time>
      </trkpt>
      <trkpt lat="45.94659" lon="4.73968">
        <ele>187</ele>
        <time>2018-08-06T09:03:07Z</time>
      </trkpt>
      <trkpt lat="45.94662" lon="4.73972">
        <ele>187</ele>
        <time>2018-08-06T09:03:08Z</time>
      </trkpt>
      <trkpt lat="45.94666" lon="4.73976">
        <ele>187</ele>
        <time>2018-08-06T09:03:09Z</time>
      </trkpt>
      <trkpt lat="45.94669" lon="4.73981">
        <ele>187</ele>
        <time>2018-08-06T09:03:10Z</time>
      </trkpt>
      <trkpt lat="45.94672" lon="4.73987">
        <ele>187</ele>
        <time>2018-08-06T09:03:11Z</time>
      </trkpt>
      <trkpt lat="45.94676" lon="4.73991">
        <ele>187</ele>
        <time>2018-08-06T09:03:12Z</time>
      </trkpt>
      <trkpt lat="45.94679" lon="4.73996">
        <ele>187</ele>
        <time>2018-08-06T09:03:13Z</time>
      </trkpt>
      <trkpt lat="45.94683" lon="4.74002">
        <ele>187</ele>
        <time>2018-08-06T09:03:14Z</time>
      </trkpt>
      <trkpt lat="45.94686" lon="4.74007">
        <ele>187</ele>
        <time>2018-08-06T09:03:15Z</time>
      </trkpt>
      <trkpt lat="45.94689" lon="4.74011">
        <ele>187</ele>
        <time>2018-08-06T09:03:16Z</time>
      </trkpt>
      <trkpt lat="45.94693" lon="4.74016">
        <ele>187</ele>
        <time>2018-08-06T09:03:17Z</time>
      </trkpt>
      <trkpt lat="45.94696" lon="4.74021">
        <ele>187</ele>
        <time>2018-08-06T09:03:18Z</time>
      </trkpt>
      <trkpt lat="45.947" lon="4.74026">
        <ele>187</ele>
        <time>2018-08-06T09:03:19Z</time>
      </trkpt>
      <trkpt lat="45.94704" lon="4.7403">
        <ele>187</ele>
        <time>2018-08-06T09:03:20Z</time>
      </trkpt>
      <trkpt lat="45.94707" lon="4.74034">
        <ele>187</ele>
        <time>2018-08-06T09:03:21Z</time>
      </trkpt>
      <trkpt lat="45.94711" lon="4.74039">
        <ele>187</ele>
        <time>2018-08-06T09:03:22Z</time>
      </trkpt>
      <trkpt lat="45.94715" lon="4.74044">
        <ele>187</ele>
        <time>2018-08-06T09:03:23Z</time>
      </trkpt>
      <trkpt lat="45.94719" lon="4.74049">
        <ele>187</ele>
        <time>2018-08-06T09:03:24Z</time>
      </trkpt>
      <trkpt lat="45.94722" lon="4.74053">
        <ele>187</ele>
        <time>2018-08-06T09:03:25Z</time>
      </trkpt>
      <trkpt lat="45.94726" lon="4.74057">
        <ele>188</ele>
        <time>2018-08-06T09:03:26Z</time>
      </trkpt>
      <trkpt lat="45.94729" lon="4.74063">
        <ele>188</ele>
        <time>2018-08-06T09:03:27Z</time>
      </trkpt>
      <trkpt lat="45.94732" lon="4.74069">
        <ele>188</ele>
        <time>2018-08-06T09:03:28Z</time>
      </trkpt>
      <trkpt lat="45.94737" lon="4.74073">
        <ele>188</ele>
        <time>2018-08-06T09:03:29Z</time>
      </trkpt>
      <trkpt lat="45.94741" lon="4.74079">
        <ele>188</ele>
        <time>2018-08-06T09:03:30Z</time>
      </trkpt>
      <trkpt lat="45.94744" lon="4.74084">
        <ele>188</ele>
        <time>2018-08-06T09:03:31Z</time>
      </trkpt>
      <trkpt lat="45.94748" lon="4.74088">
        <ele>188</ele>
        <time>2018-08-06T09:03:32Z</time>
      </trkpt>
      <trkpt lat="45.94751" lon="4.74094">
        <ele>189</ele>
        <time>2018-08-06T09:03:33Z</time>
      </trkpt>
      <trkpt lat="45.94755" lon="4.74099">
        <ele>189</ele>
        <time>2018-08-06T09:03:34Z</time>
      </trkpt>
      <trkpt lat="45.9476" lon="4.74104">
        <ele>189</ele>
        <time>2018-08-06T09:03:35Z</time>
      </trkpt>
      <trkpt lat="45.94763" lon="4.7411">
        <ele>189</ele>
        <time>2018-08-06T09:03:36Z</time>
      </trkpt>
      <trkpt lat="45.94767" lon="4.74114">
        <ele>189</ele>
        <time>2018-08-06T09:03:37Z</time>
      </trkpt>
      <trkpt lat="45.9477" lon="4.74119">
        <ele>189</ele>
        <time>2018-08-06T09:03:38Z</time>
      </trkpt>
      <trkpt lat="45.94777" lon="4.74128">
        <ele>189</ele>
        <time>2018-08-06T09:03:40Z</time>
      </trkpt>
      <trkpt lat="45.94779" lon="4.74132">
        <ele>189</ele>
        <time>2018-08-06T09:03:41Z</time>
      </trkpt>
      <trkpt lat="45.94785" lon="4.74142">
        <ele>189</ele>
        <time>2018-08-06T09:03:43Z</time>
      </trkpt>
      <trkpt lat="45.94786" lon="4.74148">
        <ele>189</ele>
        <time>2018-08-06T09:03:44Z</time>
      </trkpt>
      <trkpt lat="45.94789" lon="4.74152">
        <ele>189</ele>
        <time>2018-08-06T09:03:45Z</time>
      </trkpt>
      <trkpt lat="45.94794" lon="4.74158">
        <ele>189</ele>
        <time>2018-08-06T09:03:46Z</time>
      </trkpt>
      <trkpt lat="45.94797" lon="4.74162">
        <ele>189</ele>
        <time>2018-08-06T09:03:47Z</time>
      </trkpt>
      <trkpt lat="45.94801" lon="4.74167">
        <ele>189</ele>
        <time>2018-08-06T09:03:48Z</time>
      </trkpt>
      <trkpt lat="45.94804" lon="4.74172">
        <ele>189</ele>
        <time>2018-08-06T09:03:49Z</time>
      </trkpt>
      <trkpt lat="45.94808" lon="4.74176">
        <ele>189</ele>
        <time>2018-08-06T09:03:50Z</time>
      </trkpt>
      <trkpt lat="45.9481" lon="4.74181">
        <ele>189</ele>
        <time>2018-08-06T09:03:51Z</time>
      </trkpt>
      <trkpt lat="45.94814" lon="4.74186">
        <ele>189</ele>
        <time>2018-08-06T09:03:52Z</time>
      </trkpt>
      <trkpt lat="45.94816" lon="4.74191">
        <ele>189</ele>
        <time>2018-08-06T09:03:53Z</time>
      </trkpt>
      <trkpt lat="45.9482" lon="4.74197">
        <ele>189</ele>
        <time>2018-08-06T09:03:54Z</time>
      </trkpt>
      <trkpt lat="45.94823" lon="4.74204">
        <ele>189</ele>
        <time>2018-08-06T09:03:55Z</time>
      </trkpt>
      <trkpt lat="45.94827" lon="4.7421">
        <ele>189</ele>
        <time>2018-08-06T09:03:56Z</time>
      </trkpt>
      <trkpt lat="45.94829" lon="4.74217">
        <ele>188</ele>
        <time>2018-08-06T09:03:57Z</time>
      </trkpt>
      <trkpt lat="45.94832" lon="4.74223">
        <ele>188</ele>
        <time>2018-08-06T09:03:58Z</time>
      </trkpt>
      <trkpt lat="45.94835" lon="4.74229">
        <ele>190</ele>
        <time>2018-08-06T09:03:59Z</time>
      </trkpt>
      <trkpt lat="45.94838" lon="4.74235">
        <ele>190</ele>
        <time>2018-08-06T09:04:00Z</time>
      </trkpt>
      <trkpt lat="45.94842" lon="4.74242">
        <ele>190</ele>
        <time>2018-08-06T09:04:01Z</time>
      </trkpt>
      <trkpt lat="45.94845" lon="4.74248">
        <ele>190</ele>
        <time>2018-08-06T09:04:02Z</time>
      </trkpt>
      <trkpt lat="45.94848" lon="4.74254">
        <ele>190</ele>
        <time>2018-08-06T09:04:03Z</time>
      </trkpt>
      <trkpt lat="45.94851" lon="4.74259">
        <ele>190</ele>
        <time>2018-08-06T09:04:04Z</time>
      </trkpt>
      <trkpt lat="45.94857" lon="4.74268">
        <ele>190</ele>
        <time>2018-08-06T09:04:06Z</time>
      </trkpt>
      <trkpt lat="45.9486" lon="4.74274">
        <ele>190</ele>
        <time>2018-08-06T09:04:07Z</time>
      </trkpt>
      <trkpt lat="45.94863" lon="4.74279">
        <ele>190</ele>
        <time>2018-08-06T09:04:08Z</time>
      </trkpt>
      <trkpt lat="45.94866" lon="4.74284">
        <ele>191</ele>
        <time>2018-08-06T09:04:09Z</time>
      </trkpt>
      <trkpt lat="45.94869" lon="4.7429">
        <ele>191</ele>
        <time>2018-08-06T09:04:10Z</time>
      </trkpt>
      <trkpt lat="45.94872" lon="4.74296">
        <ele>191</ele>
        <time>2018-08-06T09:04:11Z</time>
      </trkpt>
      <trkpt lat="45.94874" lon="4.74302">
        <ele>191</ele>
        <time>2018-08-06T09:04:12Z</time>
      </trkpt>
      <trkpt lat="45.94877" lon="4.74308">
        <ele>191</ele>
        <time>2018-08-06T09:04:13Z</time>
      </trkpt>
      <trkpt lat="45.9488" lon="4.74314">
        <ele>191</ele>
        <time>2018-08-06T09:04:14Z</time>
      </trkpt>
      <trkpt lat="45.94883" lon="4.74318">
        <ele>191</ele>
        <time>2018-08-06T09:04:15Z</time>
      </trkpt>
      <trkpt lat="45.94886" lon="4.74328">
        <ele>191</ele>
        <time>2018-08-06T09:04:17Z</time>
      </trkpt>
      <trkpt lat="45.9489" lon="4.74333">
        <ele>191</ele>
        <time>2018-08-06T09:04:18Z</time>
      </trkpt>
      <trkpt lat="45.94895" lon="4.74344">
        <ele>191</ele>
        <time>2018-08-06T09:04:20Z</time>
      </trkpt>
      <trkpt lat="45.94897" lon="4.7435">
        <ele>191</ele>
        <time>2018-08-06T09:04:21Z</time>
      </trkpt>
      <trkpt lat="45.949" lon="4.74356">
        <ele>191</ele>
        <time>2018-08-06T09:04:22Z</time>
      </trkpt>
      <trkpt lat="45.94903" lon="4.7436">
        <ele>191</ele>
        <time>2018-08-06T09:04:23Z</time>
      </trkpt>
      <trkpt lat="45.94906" lon="4.74367">
        <ele>191</ele>
        <time>2018-08-06T09:04:24Z</time>
      </trkpt>
      <trkpt lat="45.94909" lon="4.74373">
        <ele>191</ele>
        <time>2018-08-06T09:04:25Z</time>
      </trkpt>
      <trkpt lat="45.94913" lon="4.7438">
        <ele>191</ele>
        <time>2018-08-06T09:04:26Z</time>
      </trkpt>
      <trkpt lat="45.94916" lon="4.74385">
        <ele>191</ele>
        <time>2018-08-06T09:04:27Z</time>
      </trkpt>
      <trkpt lat="45.9492" lon="4.74391">
        <ele>192</ele>
        <time>2018-08-06T09:04:28Z</time>
      </trkpt>
      <trkpt lat="45.94924" lon="4.74397">
        <ele>192</ele>
        <time>2018-08-06T09:04:29Z</time>
      </trkpt>
      <trkpt lat="45.94927" lon="4.74402">
        <ele>192</ele>
        <time>2018-08-06T09:04:30Z</time>
      </trkpt>
      <trkpt lat="45.9493" lon="4.74408">
        <ele>192</ele>
        <time>2018-08-06T09:04:31Z</time>
      </trkpt>
      <trkpt lat="45.94933" lon="4.74414">
        <ele>192</ele>
        <time>2018-08-06T09:04:32Z</time>
      </trkpt>
      <trkpt lat="45.94937" lon="4.74422">
        <ele>192</ele>
        <time>2018-08-06T09:04:33Z</time>
      </trkpt>
      <trkpt lat="45.9494" lon="4.74429">
        <ele>192</ele>
        <time>2018-08-06T09:04:34Z</time>
      </trkpt>
      <trkpt lat="45.94944" lon="4.74435">
        <ele>192</ele>
        <time>2018-08-06T09:04:35Z</time>
      </trkpt>
      <trkpt lat="45.94948" lon="4.74442">
        <ele>192</ele>
        <time>2018-08-06T09:04:36Z</time>
      </trkpt>
      <trkpt lat="45.94951" lon="4.74448">
        <ele>192</ele>
        <time>2018-08-06T09:04:37Z</time>
      </trkpt>
      <trkpt lat="45.94956" lon="4.74458">
        <ele>192</ele>
        <time>2018-08-06T09:04:39Z</time>
      </trkpt>
      <trkpt lat="45.94958" lon="4.74462">
        <ele>193</ele>
        <time>2018-08-06T09:04:40Z</time>
      </trkpt>
      <trkpt lat="45.94961" lon="4.74467">
        <ele>193</ele>
        <time>2018-08-06T09:04:41Z</time>
      </trkpt>
      <trkpt lat="45.94964" lon="4.74474">
        <ele>193</ele>
        <time>2018-08-06T09:04:42Z</time>
      </trkpt>
      <trkpt lat="45.94966" lon="4.74478">
        <ele>193</ele>
        <time>2018-08-06T09:04:43Z</time>
      </trkpt>
      <trkpt lat="45.94969" lon="4.74485">
        <ele>193</ele>
        <time>2018-08-06T09:04:44Z</time>
      </trkpt>
      <trkpt lat="45.94971" lon="4.7449">
        <ele>193</ele>
        <time>2018-08-06T09:04:45Z</time>
      </trkpt>
      <trkpt lat="45.94974" lon="4.74495">
        <ele>193</ele>
        <time>2018-08-06T09:04:46Z</time>
      </trkpt>
      <trkpt lat="45.94977" lon="4.745">
        <ele>193</ele>
        <time>2018-08-06T09:04:47Z</time>
      </trkpt>
      <trkpt lat="45.94981" lon="4.74507">
        <ele>193</ele>
        <time>2018-08-06T09:04:48Z</time>
      </trkpt>
      <trkpt lat="45.94985" lon="4.74514">
        <ele>193</ele>
        <time>2018-08-06T09:04:49Z</time>
      </trkpt>
      <trkpt lat="45.94988" lon="4.7452">
        <ele>193</ele>
        <time>2018-08-06T09:04:50Z</time>
      </trkpt>
      <trkpt lat="45.94991" lon="4.74526">
        <ele>193</ele>
        <time>2018-08-06T09:04:51Z</time>
      </trkpt>
      <trkpt lat="45.94994" lon="4.74532">
        <ele>193</ele>
        <time>2018-08-06T09:04:52Z</time>
      </trkpt>
      <trkpt lat="45.94996" lon="4.74538">
        <ele>193</ele>
        <time>2018-08-06T09:04:53Z</time>
      </trkpt>
      <trkpt lat="45.94999" lon="4.74544">
        <ele>193</ele>
        <time>2018-08-06T09:04:54Z</time>
      </trkpt>
      <trkpt lat="45.95002" lon="4.7455">
        <ele>194</ele>
        <time>2018-08-06T09:04:55Z</time>
      </trkpt>
      <trkpt lat="45.95004" lon="4.74556">
        <ele>194</ele>
        <time>2018-08-06T09:04:56Z</time>
      </trkpt>
      <trkpt lat="45.95006" lon="4.74562">
        <ele>194</ele>
        <time>2018-08-06T09:04:57Z</time>
      </trkpt>
      <trkpt lat="45.9501" lon="4.74568">
        <ele>194</ele>
        <time>2018-08-06T09:04:58Z</time>
      </trkpt>
      <trkpt lat="45.95012" lon="4.74573">
        <ele>194</ele>
        <time>2018-08-06T09:04:59Z</time>
      </trkpt>
      <trkpt lat="45.95015" lon="4.74578">
        <ele>194</ele>
        <time>2018-08-06T09:05:00Z</time>
      </trkpt>
      <trkpt lat="45.95019" lon="4.74584">
        <ele>194</ele>
        <time>2018-08-06T09:05:01Z</time>
      </trkpt>
      <trkpt lat="45.95022" lon="4.74591">
        <ele>194</ele>
        <time>2018-08-06T09:05:02Z</time>
      </trkpt>
      <trkpt lat="45.95025" lon="4.74597">
        <ele>194</ele>
        <time>2018-08-06T09:05:03Z</time>
      </trkpt>
      <trkpt lat="45.95027" lon="4.74601">
        <ele>194</ele>
        <time>2018-08-06T09:05:04Z</time>
      </trkpt>
      <trkpt lat="45.95031" lon="4.74608">
        <ele>194</ele>
        <time>2018-08-06T09:05:05Z</time>
      </trkpt>
      <trkpt lat="45.95035" lon="4.74614">
        <ele>194</ele>
        <time>2018-08-06T09:05:06Z</time>
      </trkpt>
      <trkpt lat="45.95039" lon="4.74619">
        <ele>194</ele>
        <time>2018-08-06T09:05:07Z</time>
      </trkpt>
      <trkpt lat="45.9504" lon="4.74625">
        <ele>194</ele>
        <time>2018-08-06T09:05:08Z</time>
      </trkpt>
      <trkpt lat="45.95043" lon="4.74631">
        <ele>194</ele>
        <time>2018-08-06T09:05:09Z</time>
      </trkpt>
      <trkpt lat="45.95047" lon="4.74634">
        <ele>194</ele>
        <time>2018-08-06T09:05:10Z</time>
      </trkpt>
      <trkpt lat="45.9505" lon="4.74639">
        <ele>194</ele>
        <time>2018-08-06T09:05:11Z</time>
      </trkpt>
      <trkpt lat="45.95053" lon="4.74646">
        <ele>194</ele>
        <time>2018-08-06T09:05:12Z</time>
      </trkpt>
      <trkpt lat="45.95057" lon="4.74651">
        <ele>194</ele>
        <time>2018-08-06T09:05:13Z</time>
      </trkpt>
      <trkpt lat="45.95061" lon="4.74656">
        <ele>194</ele>
        <time>2018-08-06T09:05:14Z</time>
      </trkpt>
      <trkpt lat="45.95064" lon="4.74663">
        <ele>195</ele>
        <time>2018-08-06T09:05:15Z</time>
      </trkpt>
      <trkpt lat="45.95068" lon="4.74669">
        <ele>194</ele>
        <time>2018-08-06T09:05:16Z</time>
      </trkpt>
      <trkpt lat="45.95071" lon="4.74674">
        <ele>194</ele>
        <time>2018-08-06T09:05:17Z</time>
      </trkpt>
      <trkpt lat="45.95075" lon="4.7468">
        <ele>194</ele>
        <time>2018-08-06T09:05:18Z</time>
      </trkpt>
      <trkpt lat="45.95077" lon="4.74686">
        <ele>194</ele>
        <time>2018-08-06T09:05:19Z</time>
      </trkpt>
      <trkpt lat="45.95079" lon="4.74692">
        <ele>194</ele>
        <time>2018-08-06T09:05:20Z</time>
      </trkpt>
      <trkpt lat="45.95085" lon="4.747">
        <ele>194</ele>
        <time>2018-08-06T09:05:22Z</time>
      </trkpt>
      <trkpt lat="45.95088" lon="4.74706">
        <ele>194</ele>
        <time>2018-08-06T09:05:23Z</time>
      </trkpt>
      <trkpt lat="45.95091" lon="4.74712">
        <ele>194</ele>
        <time>2018-08-06T09:05:24Z</time>
      </trkpt>
      <trkpt lat="45.95094" lon="4.74719">
        <ele>194</ele>
        <time>2018-08-06T09:05:25Z</time>
      </trkpt>
      <trkpt lat="45.95097" lon="4.74725">
        <ele>194</ele>
        <time>2018-08-06T09:05:26Z</time>
      </trkpt>
      <trkpt lat="45.95101" lon="4.7473">
        <ele>194</ele>
        <time>2018-08-06T09:05:27Z</time>
      </trkpt>
      <trkpt lat="45.95104" lon="4.74736">
        <ele>194</ele>
        <time>2018-08-06T09:05:28Z</time>
      </trkpt>
      <trkpt lat="45.95108" lon="4.74742">
        <ele>194</ele>
        <time>2018-08-06T09:05:29Z</time>
      </trkpt>
      <trkpt lat="45.95111" lon="4.74748">
        <ele>194</ele>
        <time>2018-08-06T09:05:30Z</time>
      </trkpt>
      <trkpt lat="45.95114" lon="4.74753">
        <ele>194</ele>
        <time>2018-08-06T09:05:31Z</time>
      </trkpt>
      <trkpt lat="45.95118" lon="4.74759">
        <ele>194</ele>
        <time>2018-08-06T09:05:32Z</time>
      </trkpt>
      <trkpt lat="45.95121" lon="4.74766">
        <ele>194</ele>
        <time>2018-08-06T09:05:33Z</time>
      </trkpt>
      <trkpt lat="45.95125" lon="4.74771">
        <ele>194</ele>
        <time>2018-08-06T09:05:34Z</time>
      </trkpt>
      <trkpt lat="45.95128" lon="4.74777">
        <ele>194</ele>
        <time>2018-08-06T09:05:35Z</time>
      </trkpt>
      <trkpt lat="45.95131" lon="4.74783">
        <ele>194</ele>
        <time>2018-08-06T09:05:36Z</time>
      </trkpt>
      <trkpt lat="45.95134" lon="4.74788">
        <ele>194</ele>
        <time>2018-08-06T09:05:37Z</time>
      </trkpt>
      <trkpt lat="45.95138" lon="4.74793">
        <ele>194</ele>
        <time>2018-08-06T09:05:38Z</time>
      </trkpt>
      <trkpt lat="45.95141" lon="4.74797">
        <ele>194</ele>
        <time>2018-08-06T09:05:39Z</time>
      </trkpt>
      <trkpt lat="45.95144" lon="4.74801">
        <ele>194</ele>
        <time>2018-08-06T09:05:40Z</time>
      </trkpt>
      <trkpt lat="45.95148" lon="4.74807">
        <ele>194</ele>
        <time>2018-08-06T09:05:41Z</time>
      </trkpt>
      <trkpt lat="45.95152" lon="4.74812">
        <ele>194</ele>
        <time>2018-08-06T09:05:42Z</time>
      </trkpt>
      <trkpt lat="45.95156" lon="4.74818">
        <ele>194</ele>
        <time>2018-08-06T09:05:43Z</time>
      </trkpt>
      <trkpt lat="45.95159" lon="4.74824">
        <ele>194</ele>
        <time>2018-08-06T09:05:44Z</time>
      </trkpt>
      <trkpt lat="45.95162" lon="4.74829">
        <ele>194</ele>
        <time>2018-08-06T09:05:45Z</time>
      </trkpt>
      <trkpt lat="45.95166" lon="4.74837">
        <ele>194</ele>
        <time>2018-08-06T09:05:46Z</time>
      </trkpt>
      <trkpt lat="45.9517" lon="4.74844">
        <ele>194</ele>
        <time>2018-08-06T09:05:47Z</time>
      </trkpt>
      <trkpt lat="45.95174" lon="4.74849">
        <ele>194</ele>
        <time>2018-08-06T09:05:48Z</time>
      </trkpt>
      <trkpt lat="45.95178" lon="4.74852">
        <ele>194</ele>
        <time>2018-08-06T09:05:49Z</time>
      </trkpt>
      <trkpt lat="45.95182" lon="4.7486">
        <ele>194</ele>
        <time>2018-08-06T09:05:50Z</time>
      </trkpt>
      <trkpt lat="45.95186" lon="4.74865">
        <ele>194</ele>
        <time>2018-08-06T09:05:51Z</time>
      </trkpt>
      <trkpt lat="45.95189" lon="4.74872">
        <ele>194</ele>
        <time>2018-08-06T09:05:52Z</time>
      </trkpt>
      <trkpt lat="45.95191" lon="4.74879">
        <ele>194</ele>
        <time>2018-08-06T09:05:53Z</time>
      </trkpt>
      <trkpt lat="45.95195" lon="4.74886">
        <ele>194</ele>
        <time>2018-08-06T09:05:54Z</time>
      </trkpt>
      <trkpt lat="45.952" lon="4.7489">
        <ele>194</ele>
        <time>2018-08-06T09:05:55Z</time>
      </trkpt>
      <trkpt lat="45.95205" lon="4.749">
        <ele>194</ele>
        <time>2018-08-06T09:05:57Z</time>
      </trkpt>
      <trkpt lat="45.95208" lon="4.74905">
        <ele>194</ele>
        <time>2018-08-06T09:05:58Z</time>
      </trkpt>
      <trkpt lat="45.95211" lon="4.7491">
        <ele>193</ele>
        <time>2018-08-06T09:05:59Z</time>
      </trkpt>
      <trkpt lat="45.95215" lon="4.74915">
        <ele>193</ele>
        <time>2018-08-06T09:06:00Z</time>
      </trkpt>
      <trkpt lat="45.95218" lon="4.7492">
        <ele>192</ele>
        <time>2018-08-06T09:06:01Z</time>
      </trkpt>
      <trkpt lat="45.95222" lon="4.74924">
        <ele>192</ele>
        <time>2018-08-06T09:06:02Z</time>
      </trkpt>
      <trkpt lat="45.95225" lon="4.7493">
        <ele>192</ele>
        <time>2018-08-06T09:06:03Z</time>
      </trkpt>
      <trkpt lat="45.95227" lon="4.74936">
        <ele>192</ele>
        <time>2018-08-06T09:06:04Z</time>
      </trkpt>
      <trkpt lat="45.95232" lon="4.74944">
        <ele>192</ele>
        <time>2018-08-06T09:06:05Z</time>
      </trkpt>
      <trkpt lat="45.95237" lon="4.7495">
        <ele>192</ele>
        <time>2018-08-06T09:06:06Z</time>
      </trkpt>
      <trkpt lat="45.9524" lon="4.74957">
        <ele>192</ele>
        <time>2018-08-06T09:06:07Z</time>
      </trkpt>
      <trkpt lat="45.95244" lon="4.74964">
        <ele>191</ele>
        <time>2018-08-06T09:06:08Z</time>
      </trkpt>
      <trkpt lat="45.9525" lon="4.74972">
        <ele>192</ele>
        <time>2018-08-06T09:06:10Z</time>
      </trkpt>
      <trkpt lat="45.95255" lon="4.74978">
        <ele>192</ele>
        <time>2018-08-06T09:06:11Z</time>
      </trkpt>
      <trkpt lat="45.95258" lon="4.74984">
        <ele>192</ele>
        <time>2018-08-06T09:06:12Z</time>
      </trkpt>
      <trkpt lat="45.95263" lon="4.7499">
        <ele>192</ele>
        <time>2018-08-06T09:06:13Z</time>
      </trkpt>
      <trkpt lat="45.95266" lon="4.74994">
        <ele>192</ele>
        <time>2018-08-06T09:06:14Z</time>
      </trkpt>
      <trkpt lat="45.95269" lon="4.75">
        <ele>192</ele>
        <time>2018-08-06T09:06:15Z</time>
      </trkpt>
      <trkpt lat="45.95272" lon="4.75005">
        <ele>191</ele>
        <time>2018-08-06T09:06:16Z</time>
      </trkpt>
      <trkpt lat="45.95276" lon="4.75012">
        <ele>191</ele>
        <time>2018-08-06T09:06:17Z</time>
      </trkpt>
      <trkpt lat="45.9528" lon="4.75018">
        <ele>191</ele>
        <time>2018-08-06T09:06:18Z</time>
      </trkpt>
      <trkpt lat="45.95284" lon="4.75023">
        <ele>191</ele>
        <time>2018-08-06T09:06:19Z</time>
      </trkpt>
      <trkpt lat="45.95289" lon="4.75029">
        <ele>191</ele>
        <time>2018-08-06T09:06:20Z</time>
      </trkpt>
      <trkpt lat="45.95292" lon="4.75036">
        <ele>191</ele>
        <time>2018-08-06T09:06:21Z</time>
      </trkpt>
      <trkpt lat="45.95297" lon="4.75041">
        <ele>191</ele>
        <time>2018-08-06T09:06:22Z</time>
      </trkpt>
      <trkpt lat="45.953" lon="4.75047">
        <ele>191</ele>
        <time>2018-08-06T09:06:23Z</time>
      </trkpt>
      <trkpt lat="45.95304" lon="4.75053">
        <ele>191</ele>
        <time>2018-08-06T09:06:24Z</time>
      </trkpt>
      <trkpt lat="45.95308" lon="4.75059">
        <ele>192</ele>
        <time>2018-08-06T09:06:25Z</time>
      </trkpt>
      <trkpt lat="45.95311" lon="4.75065">
        <ele>192</ele>
        <time>2018-08-06T09:06:26Z</time>
      </trkpt>
      <trkpt lat="45.95315" lon="4.7507">
        <ele>192</ele>
        <time>2018-08-06T09:06:27Z</time>
      </trkpt>
      <trkpt lat="45.95319" lon="4.75076">
        <ele>192</ele>
        <time>2018-08-06T09:06:28Z</time>
      </trkpt>
      <trkpt lat="45.95322" lon="4.75082">
        <ele>192</ele>
        <time>2018-08-06T09:06:29Z</time>
      </trkpt>
      <trkpt lat="45.95324" lon="4.75089">
        <ele>191</ele>
        <time>2018-08-06T09:06:30Z</time>
      </trkpt>
      <trkpt lat="45.95328" lon="4.75095">
        <ele>191</ele>
        <time>2018-08-06T09:06:31Z</time>
      </trkpt>
      <trkpt lat="45.95333" lon="4.751">
        <ele>191</ele>
        <time>2018-08-06T09:06:32Z</time>
      </trkpt>
      <trkpt lat="45.95337" lon="4.75106">
        <ele>192</ele>
        <time>2018-08-06T09:06:33Z</time>
      </trkpt>
      <trkpt lat="45.9534" lon="4.75112">
        <ele>192</ele>
        <time>2018-08-06T09:06:34Z</time>
      </trkpt>
      <trkpt lat="45.95344" lon="4.75117">
        <ele>191</ele>
        <time>2018-08-06T09:06:35Z</time>
      </trkpt>
      <trkpt lat="45.95349" lon="4.75123">
        <ele>191</ele>
        <time>2018-08-06T09:06:36Z</time>
      </trkpt>
      <trkpt lat="45.95353" lon="4.75129">
        <ele>191</ele>
        <time>2018-08-06T09:06:37Z</time>
      </trkpt>
      <trkpt lat="45.95358" lon="4.75136">
        <ele>191</ele>
        <time>2018-08-06T09:06:38Z</time>
      </trkpt>
      <trkpt lat="45.95362" lon="4.75142">
        <ele>191</ele>
        <time>2018-08-06T09:06:39Z</time>
      </trkpt>
      <trkpt lat="45.95365" lon="4.75149">
        <ele>191</ele>
        <time>2018-08-06T09:06:40Z</time>
      </trkpt>
      <trkpt lat="45.95369" lon="4.75155">
        <ele>191</ele>
        <time>2018-08-06T09:06:41Z</time>
      </trkpt>
      <trkpt lat="45.95373" lon="4.75161">
        <ele>191</ele>
        <time>2018-08-06T09:06:42Z</time>
      </trkpt>
      <trkpt lat="45.95377" lon="4.75168">
        <ele>189</ele>
        <time>2018-08-06T09:06:43Z</time>
      </trkpt>
      <trkpt lat="45.95381" lon="4.75174">
        <ele>189</ele>
        <time>2018-08-06T09:06:44Z</time>
      </trkpt>
      <trkpt lat="45.95384" lon="4.75181">
        <ele>189</ele>
        <time>2018-08-06T09:06:45Z</time>
      </trkpt>
      <trkpt lat="45.95388" lon="4.75187">
        <ele>189</ele>
        <time>2018-08-06T09:06:46Z</time>
      </trkpt>
      <trkpt lat="45.95392" lon="4.75194">
        <ele>189</ele>
        <time>2018-08-06T09:06:47Z</time>
      </trkpt>
      <trkpt lat="45.95396" lon="4.752">
        <ele>189</ele>
        <time>2018-08-06T09:06:48Z</time>
      </trkpt>
      <trkpt lat="45.954" lon="4.75206">
        <ele>189</ele>
        <time>2018-08-06T09:06:49Z</time>
      </trkpt>
      <trkpt lat="45.95405" lon="4.75212">
        <ele>189</ele>
        <time>2018-08-06T09:06:50Z</time>
      </trkpt>
      <trkpt lat="45.95409" lon="4.75218">
        <ele>189</ele>
        <time>2018-08-06T09:06:51Z</time>
      </trkpt>
      <trkpt lat="45.95413" lon="4.75226">
        <ele>189</ele>
        <time>2018-08-06T09:06:52Z</time>
      </trkpt>
      <trkpt lat="45.95415" lon="4.75231">
        <ele>189</ele>
        <time>2018-08-06T09:06:53Z</time>
      </trkpt>
      <trkpt lat="45.95419" lon="4.75237">
        <ele>190</ele>
        <time>2018-08-06T09:06:54Z</time>
      </trkpt>
      <trkpt lat="45.95421" lon="4.75243">
        <ele>190</ele>
        <time>2018-08-06T09:06:55Z</time>
      </trkpt>
      <trkpt lat="45.95426" lon="4.75247">
        <ele>190</ele>
        <time>2018-08-06T09:06:56Z</time>
      </trkpt>
      <trkpt lat="45.95428" lon="4.75256">
        <ele>189</ele>
        <time>2018-08-06T09:06:57Z</time>
      </trkpt>
      <trkpt lat="45.95431" lon="4.75263">
        <ele>189</ele>
        <time>2018-08-06T09:06:58Z</time>
      </trkpt>
      <trkpt lat="45.95434" lon="4.7527">
        <ele>189</ele>
        <time>2018-08-06T09:06:59Z</time>
      </trkpt>
      <trkpt lat="45.95437" lon="4.75277">
        <ele>188</ele>
        <time>2018-08-06T09:07:00Z</time>
      </trkpt>
      <trkpt lat="45.9544" lon="4.75284">
        <ele>188</ele>
        <time>2018-08-06T09:07:01Z</time>
      </trkpt>
      <trkpt lat="45.95444" lon="4.75291">
        <ele>188</ele>
        <time>2018-08-06T09:07:02Z</time>
      </trkpt>
      <trkpt lat="45.95447" lon="4.75298">
        <ele>188</ele>
        <time>2018-08-06T09:07:03Z</time>
      </trkpt>
      <trkpt lat="45.9545" lon="4.75304">
        <ele>188</ele>
        <time>2018-08-06T09:07:04Z</time>
      </trkpt>
      <trkpt lat="45.95454" lon="4.7531">
        <ele>188</ele>
        <time>2018-08-06T09:07:05Z</time>
      </trkpt>
      <trkpt lat="45.95457" lon="4.75317">
        <ele>188</ele>
        <time>2018-08-06T09:07:06Z</time>
      </trkpt>
      <trkpt lat="45.95461" lon="4.75324">
        <ele>188</ele>
        <time>2018-08-06T09:07:07Z</time>
      </trkpt>
      <trkpt lat="45.95465" lon="4.7533">
        <ele>188</ele>
        <time>2018-08-06T09:07:08Z</time>
      </trkpt>
      <trkpt lat="45.9547" lon="4.75336">
        <ele>186</ele>
        <time>2018-08-06T09:07:09Z</time>
      </trkpt>
      <trkpt lat="45.95473" lon="4.75343">
        <ele>186</ele>
        <time>2018-08-06T09:07:10Z</time>
      </trkpt>
      <trkpt lat="45.95477" lon="4.7535">
        <ele>186</ele>
        <time>2018-08-06T09:07:11Z</time>
      </trkpt>
      <trkpt lat="45.95481" lon="4.75357">
        <ele>186</ele>
        <time>2018-08-06T09:07:12Z</time>
      </trkpt>
      <trkpt lat="45.95484" lon="4.75365">
        <ele>186</ele>
        <time>2018-08-06T09:07:13Z</time>
      </trkpt>
      <trkpt lat="45.95487" lon="4.75372">
        <ele>185</ele>
        <time>2018-08-06T09:07:14Z</time>
      </trkpt>
      <trkpt lat="45.95491" lon="4.7538">
        <ele>185</ele>
        <time>2018-08-06T09:07:15Z</time>
      </trkpt>
      <trkpt lat="45.95495" lon="4.75387">
        <ele>185</ele>
        <time>2018-08-06T09:07:16Z</time>
      </trkpt>
      <trkpt lat="45.95498" lon="4.75395">
        <ele>185</ele>
        <time>2018-08-06T09:07:17Z</time>
      </trkpt>
      <trkpt lat="45.95501" lon="4.75403">
        <ele>187</ele>
        <time>2018-08-06T09:07:18Z</time>
      </trkpt>
      <trkpt lat="45.95503" lon="4.75411">
        <ele>186</ele>
        <time>2018-08-06T09:07:19Z</time>
      </trkpt>
      <trkpt lat="45.95506" lon="4.7542">
        <ele>186</ele>
        <time>2018-08-06T09:07:20Z</time>
      </trkpt>
      <trkpt lat="45.95507" lon="4.75429">
        <ele>186</ele>
        <time>2018-08-06T09:07:21Z</time>
      </trkpt>
      <trkpt lat="45.95508" lon="4.75439">
        <ele>186</ele>
        <time>2018-08-06T09:07:22Z</time>
      </trkpt>
      <trkpt lat="45.95509" lon="4.75449">
        <ele>187</ele>
        <time>2018-08-06T09:07:23Z</time>
      </trkpt>
      <trkpt lat="45.95507" lon="4.75459">
        <ele>186</ele>
        <time>2018-08-06T09:07:24Z</time>
      </trkpt>
      <trkpt lat="45.95507" lon="4.75468">
        <ele>186</ele>
        <time>2018-08-06T09:07:25Z</time>
      </trkpt>
      <trkpt lat="45.95507" lon="4.75476">
        <ele>186</ele>
        <time>2018-08-06T09:07:26Z</time>
      </trkpt>
      <trkpt lat="45.9551" lon="4.75486">
        <ele>186</ele>
        <time>2018-08-06T09:07:27Z</time>
      </trkpt>
      <trkpt lat="45.95513" lon="4.75493">
        <ele>186</ele>
        <time>2018-08-06T09:07:28Z</time>
      </trkpt>
      <trkpt lat="45.95518" lon="4.75499">
        <ele>186</ele>
        <time>2018-08-06T09:07:29Z</time>
      </trkpt>
      <trkpt lat="45.95522" lon="4.755">
        <ele>185</ele>
        <time>2018-08-06T09:07:30Z</time>
      </trkpt>
      <trkpt lat="45.95527" lon="4.75504">
        <ele>185</ele>
        <time>2018-08-06T09:07:31Z</time>
      </trkpt>
      <trkpt lat="45.95531" lon="4.75508">
        <ele>185</ele>
        <time>2018-08-06T09:07:32Z</time>
      </trkpt>
      <trkpt lat="45.95536" lon="4.75513">
        <ele>186</ele>
        <time>2018-08-06T09:07:33Z</time>
      </trkpt>
      <trkpt lat="45.95541" lon="4.75519">
        <ele>186</ele>
        <time>2018-08-06T09:07:34Z</time>
      </trkpt>
      <trkpt lat="45.95546" lon="4.75523">
        <ele>186</ele>
        <time>2018-08-06T09:07:35Z</time>
      </trkpt>
      <trkpt lat="45.95551" lon="4.75528">
        <ele>186</ele>
        <time>2018-08-06T09:07:36Z</time>
      </trkpt>
      <trkpt lat="45.95556" lon="4.75532">
        <ele>186</ele>
        <time>2018-08-06T09:07:37Z</time>
      </trkpt>
      <trkpt lat="45.95561" lon="4.75537">
        <ele>186</ele>
        <time>2018-08-06T09:07:38Z</time>
      </trkpt>
      <trkpt lat="45.95566" lon="4.75542">
        <ele>186</ele>
        <time>2018-08-06T09:07:39Z</time>
      </trkpt>
      <trkpt lat="45.95571" lon="4.75547">
        <ele>186</ele>
        <time>2018-08-06T09:07:40Z</time>
      </trkpt>
      <trkpt lat="45.95575" lon="4.75552">
        <ele>186</ele>
        <time>2018-08-06T09:07:41Z</time>
      </trkpt>
      <trkpt lat="45.95579" lon="4.75557">
        <ele>186</ele>
        <time>2018-08-06T09:07:42Z</time>
      </trkpt>
      <trkpt lat="45.95583" lon="4.75562">
        <ele>186</ele>
        <time>2018-08-06T09:07:43Z</time>
      </trkpt>
      <trkpt lat="45.95587" lon="4.75568">
        <ele>188</ele>
        <time>2018-08-06T09:07:44Z</time>
      </trkpt>
      <trkpt lat="45.95591" lon="4.75574">
        <ele>187</ele>
        <time>2018-08-06T09:07:45Z</time>
      </trkpt>
      <trkpt lat="45.95593" lon="4.75581">
        <ele>187</ele>
        <time>2018-08-06T09:07:46Z</time>
      </trkpt>
      <trkpt lat="45.95596" lon="4.75587">
        <ele>187</ele>
        <time>2018-08-06T09:07:47Z</time>
      </trkpt>
      <trkpt lat="45.95599" lon="4.75594">
        <ele>187</ele>
        <time>2018-08-06T09:07:48Z</time>
      </trkpt>
      <trkpt lat="45.95601" lon="4.756">
        <ele>187</ele>
        <time>2018-08-06T09:07:49Z</time>
      </trkpt>
      <trkpt lat="45.95604" lon="4.75606">
        <ele>187</ele>
        <time>2018-08-06T09:07:50Z</time>
      </trkpt>
      <trkpt lat="45.95606" lon="4.75613">
        <ele>188</ele>
        <time>2018-08-06T09:07:51Z</time>
      </trkpt>
      <trkpt lat="45.95608" lon="4.75618">
        <ele>188</ele>
        <time>2018-08-06T09:07:52Z</time>
      </trkpt>
      <trkpt lat="45.95611" lon="4.75625">
        <ele>188</ele>
        <time>2018-08-06T09:07:53Z</time>
      </trkpt>
      <trkpt lat="45.95613" lon="4.75633">
        <ele>188</ele>
        <time>2018-08-06T09:07:54Z</time>
      </trkpt>
      <trkpt lat="45.95615" lon="4.75641">
        <ele>188</ele>
        <time>2018-08-06T09:07:55Z</time>
      </trkpt>
      <trkpt lat="45.95617" lon="4.75649">
        <ele>188</ele>
        <time>2018-08-06T09:07:56Z</time>
      </trkpt>
      <trkpt lat="45.95619" lon="4.75657">
        <ele>188</ele>
        <time>2018-08-06T09:07:57Z</time>
      </trkpt>
      <trkpt lat="45.9562" lon="4.75666">
        <ele>188</ele>
        <time>2018-08-06T09:07:58Z</time>
      </trkpt>
      <trkpt lat="45.95621" lon="4.75674">
        <ele>187</ele>
        <time>2018-08-06T09:07:59Z</time>
      </trkpt>
      <trkpt lat="45.95622" lon="4.75682">
        <ele>187</ele>
        <time>2018-08-06T09:08:00Z</time>
      </trkpt>
      <trkpt lat="45.95623" lon="4.75691">
        <ele>187</ele>
        <time>2018-08-06T09:08:01Z</time>
      </trkpt>
      <trkpt lat="45.95624" lon="4.75699">
        <ele>187</ele>
        <time>2018-08-06T09:08:02Z</time>
      </trkpt>
      <trkpt lat="45.95625" lon="4.75707">
        <ele>187</ele>
        <time>2018-08-06T09:08:03Z</time>
      </trkpt>
      <trkpt lat="45.95625" lon="4.75715">
        <ele>187</ele>
        <time>2018-08-06T09:08:04Z</time>
      </trkpt>
      <trkpt lat="45.95626" lon="4.75723">
        <ele>187</ele>
        <time>2018-08-06T09:08:05Z</time>
      </trkpt>
      <trkpt lat="45.95627" lon="4.7573">
        <ele>187</ele>
        <time>2018-08-06T09:08:06Z</time>
      </trkpt>
      <trkpt lat="45.95628" lon="4.75737">
        <ele>187</ele>
        <time>2018-08-06T09:08:07Z</time>
      </trkpt>
      <trkpt lat="45.95629" lon="4.75745">
        <ele>187</ele>
        <time>2018-08-06T09:08:08Z</time>
      </trkpt>
      <trkpt lat="45.9563" lon="4.75753">
        <ele>186</ele>
        <time>2018-08-06T09:08:09Z</time>
      </trkpt>
      <trkpt lat="45.95632" lon="4.75761">
        <ele>186</ele>
        <time>2018-08-06T09:08:10Z</time>
      </trkpt>
      <trkpt lat="45.95633" lon="4.75769">
        <ele>186</ele>
        <time>2018-08-06T09:08:11Z</time>
      </trkpt>
      <trkpt lat="45.95634" lon="4.75778">
        <ele>185</ele>
        <time>2018-08-06T09:08:12Z</time>
      </trkpt>
      <trkpt lat="45.95636" lon="4.75787">
        <ele>185</ele>
        <time>2018-08-06T09:08:13Z</time>
      </trkpt>
      <trkpt lat="45.95637" lon="4.75796">
        <ele>185</ele>
        <time>2018-08-06T09:08:14Z</time>
      </trkpt>
      <trkpt lat="45.95639" lon="4.75804">
        <ele>185</ele>
        <time>2018-08-06T09:08:15Z</time>
      </trkpt>
      <trkpt lat="45.95641" lon="4.75813">
        <ele>185</ele>
        <time>2018-08-06T09:08:16Z</time>
      </trkpt>
      <trkpt lat="45.95644" lon="4.75822">
        <ele>185</ele>
        <time>2018-08-06T09:08:17Z</time>
      </trkpt>
      <trkpt lat="45.95646" lon="4.75831">
        <ele>185</ele>
        <time>2018-08-06T09:08:18Z</time>
      </trkpt>
      <trkpt lat="45.95648" lon="4.75839">
        <ele>185</ele>
        <time>2018-08-06T09:08:19Z</time>
      </trkpt>
      <trkpt lat="45.9565" lon="4.75848">
        <ele>184</ele>
        <time>2018-08-06T09:08:20Z</time>
      </trkpt>
      <trkpt lat="45.95652" lon="4.75855">
        <ele>184</ele>
        <time>2018-08-06T09:08:21Z</time>
      </trkpt>
      <trkpt lat="45.95654" lon="4.75863">
        <ele>184</ele>
        <time>2018-08-06T09:08:22Z</time>
      </trkpt>
      <trkpt lat="45.95656" lon="4.7587">
        <ele>184</ele>
        <time>2018-08-06T09:08:23Z</time>
      </trkpt>
      <trkpt lat="45.95658" lon="4.75878">
        <ele>184</ele>
        <time>2018-08-06T09:08:24Z</time>
      </trkpt>
      <trkpt lat="45.95661" lon="4.75885">
        <ele>184</ele>
        <time>2018-08-06T09:08:25Z</time>
      </trkpt>
      <trkpt lat="45.95663" lon="4.75892">
        <ele>184</ele>
        <time>2018-08-06T09:08:26Z</time>
      </trkpt>
      <trkpt lat="45.95665" lon="4.75901">
        <ele>184</ele>
        <time>2018-08-06T09:08:27Z</time>
      </trkpt>
      <trkpt lat="45.95669" lon="4.75909">
        <ele>185</ele>
        <time>2018-08-06T09:08:28Z</time>
      </trkpt>
      <trkpt lat="45.95671" lon="4.75916">
        <ele>184</ele>
        <time>2018-08-06T09:08:29Z</time>
      </trkpt>
      <trkpt lat="45.95675" lon="4.75924">
        <ele>184</ele>
        <time>2018-08-06T09:08:30Z</time>
      </trkpt>
      <trkpt lat="45.95679" lon="4.75933">
        <ele>185</ele>
        <time>2018-08-06T09:08:31Z</time>
      </trkpt>
      <trkpt lat="45.95683" lon="4.75939">
        <ele>185</ele>
        <time>2018-08-06T09:08:32Z</time>
      </trkpt>
      <trkpt lat="45.95687" lon="4.75946">
        <ele>185</ele>
        <time>2018-08-06T09:08:33Z</time>
      </trkpt>
      <trkpt lat="45.95691" lon="4.75953">
        <ele>185</ele>
        <time>2018-08-06T09:08:34Z</time>
      </trkpt>
      <trkpt lat="45.95695" lon="4.7596">
        <ele>185</ele>
        <time>2018-08-06T09:08:35Z</time>
      </trkpt>
      <trkpt lat="45.95698" lon="4.75968">
        <ele>185</ele>
        <time>2018-08-06T09:08:36Z</time>
      </trkpt>
      <trkpt lat="45.95701" lon="4.75975">
        <ele>185</ele>
        <time>2018-08-06T09:08:37Z</time>
      </trkpt>
      <trkpt lat="45.95704" lon="4.75982">
        <ele>185</ele>
        <time>2018-08-06T09:08:38Z</time>
      </trkpt>
      <trkpt lat="45.95708" lon="4.75988">
        <ele>185</ele>
        <time>2018-08-06T09:08:39Z</time>
      </trkpt>
      <trkpt lat="45.95711" lon="4.75995">
        <ele>185</ele>
        <time>2018-08-06T09:08:40Z</time>
      </trkpt>
      <trkpt lat="45.95714" lon="4.76003">
        <ele>184</ele>
        <time>2018-08-06T09:08:41Z</time>
      </trkpt>
      <trkpt lat="45.95716" lon="4.76009">
        <ele>184</ele>
        <time>2018-08-06T09:08:42Z</time>
      </trkpt>
      <trkpt lat="45.95718" lon="4.76016">
        <ele>184</ele>
        <time>2018-08-06T09:08:43Z</time>
      </trkpt>
      <trkpt lat="45.95722" lon="4.76023">
        <ele>184</ele>
        <time>2018-08-06T09:08:44Z</time>
      </trkpt>
      <trkpt lat="45.95725" lon="4.7603">
        <ele>184</ele>
        <time>2018-08-06T09:08:45Z</time>
      </trkpt>
      <trkpt lat="45.95728" lon="4.76036">
        <ele>184</ele>
        <time>2018-08-06T09:08:46Z</time>
      </trkpt>
      <trkpt lat="45.95731" lon="4.76044">
        <ele>184</ele>
        <time>2018-08-06T09:08:47Z</time>
      </trkpt>
      <trkpt lat="45.95734" lon="4.76051">
        <ele>184</ele>
        <time>2018-08-06T09:08:48Z</time>
      </trkpt>
      <trkpt lat="45.95737" lon="4.76057">
        <ele>184</ele>
        <time>2018-08-06T09:08:49Z</time>
      </trkpt>
      <trkpt lat="45.95741" lon="4.76064">
        <ele>184</ele>
        <time>2018-08-06T09:08:50Z</time>
      </trkpt>
      <trkpt lat="45.95743" lon="4.76072">
        <ele>185</ele>
        <time>2018-08-06T09:08:51Z</time>
      </trkpt>
      <trkpt lat="45.95746" lon="4.76079">
        <ele>185</ele>
        <time>2018-08-06T09:08:52Z</time>
      </trkpt>
      <trkpt lat="45.95747" lon="4.76086">
        <ele>185</ele>
        <time>2018-08-06T09:08:53Z</time>
      </trkpt>
      <trkpt lat="45.9575" lon="4.76093">
        <ele>185</ele>
        <time>2018-08-06T09:08:54Z</time>
      </trkpt>
      <trkpt lat="45.95753" lon="4.76101">
        <ele>186</ele>
        <time>2018-08-06T09:08:55Z</time>
      </trkpt>
      <trkpt lat="45.95754" lon="4.76109">
        <ele>186</ele>
        <time>2018-08-06T09:08:56Z</time>
      </trkpt>
      <trkpt lat="45.95756" lon="4.76118">
        <ele>186</ele>
        <time>2018-08-06T09:08:57Z</time>
      </trkpt>
      <trkpt lat="45.95758" lon="4.76125">
        <ele>186</ele>
        <time>2018-08-06T09:08:58Z</time>
      </trkpt>
      <trkpt lat="45.95761" lon="4.76134">
        <ele>186</ele>
        <time>2018-08-06T09:08:59Z</time>
      </trkpt>
      <trkpt lat="45.95762" lon="4.76142">
        <ele>186</ele>
        <time>2018-08-06T09:09:00Z</time>
      </trkpt>
      <trkpt lat="45.95762" lon="4.76152">
        <ele>186</ele>
        <time>2018-08-06T09:09:01Z</time>
      </trkpt>
      <trkpt lat="45.95763" lon="4.76161">
        <ele>186</ele>
        <time>2018-08-06T09:09:02Z</time>
      </trkpt>
      <trkpt lat="45.95763" lon="4.7617">
        <ele>185</ele>
        <time>2018-08-06T09:09:03Z</time>
      </trkpt>
      <trkpt lat="45.95762" lon="4.76178">
        <ele>185</ele>
        <time>2018-08-06T09:09:04Z</time>
      </trkpt>
      <trkpt lat="45.95762" lon="4.76187">
        <ele>186</ele>
        <time>2018-08-06T09:09:05Z</time>
      </trkpt>
      <trkpt lat="45.95762" lon="4.76194">
        <ele>186</ele>
        <time>2018-08-06T09:09:06Z</time>
      </trkpt>
      <trkpt lat="45.95762" lon="4.76202">
        <ele>186</ele>
        <time>2018-08-06T09:09:07Z</time>
      </trkpt>
      <trkpt lat="45.95762" lon="4.7621">
        <ele>186</ele>
        <time>2018-08-06T09:09:08Z</time>
      </trkpt>
      <trkpt lat="45.95763" lon="4.76217">
        <ele>186</ele>
        <time>2018-08-06T09:09:09Z</time>
      </trkpt>
      <trkpt lat="45.95765" lon="4.76224">
        <ele>186</ele>
        <time>2018-08-06T09:09:10Z</time>
      </trkpt>
      <trkpt lat="45.95765" lon="4.76232">
        <ele>186</ele>
        <time>2018-08-06T09:09:11Z</time>
      </trkpt>
      <trkpt lat="45.95765" lon="4.76239">
        <ele>186</ele>
        <time>2018-08-06T09:09:12Z</time>
      </trkpt>
      <trkpt lat="45.95766" lon="4.76247">
        <ele>185</ele>
        <time>2018-08-06T09:09:13Z</time>
      </trkpt>
      <trkpt lat="45.95766" lon="4.76253">
        <ele>185</ele>
        <time>2018-08-06T09:09:14Z</time>
      </trkpt>
      <trkpt lat="45.95767" lon="4.7626">
        <ele>185</ele>
        <time>2018-08-06T09:09:15Z</time>
      </trkpt>
      <trkpt lat="45.95769" lon="4.76269">
        <ele>186</ele>
        <time>2018-08-06T09:09:16Z</time>
      </trkpt>
      <trkpt lat="45.95769" lon="4.76277">
        <ele>186</ele>
        <time>2018-08-06T09:09:17Z</time>
      </trkpt>
      <trkpt lat="45.95769" lon="4.76284">
        <ele>186</ele>
        <time>2018-08-06T09:09:18Z</time>
      </trkpt>
      <trkpt lat="45.95771" lon="4.76292">
        <ele>186</ele>
        <time>2018-08-06T09:09:19Z</time>
      </trkpt>
      <trkpt lat="45.95771" lon="4.76301">
        <ele>186</ele>
        <time>2018-08-06T09:09:20Z</time>
      </trkpt>
      <trkpt lat="45.95771" lon="4.76308">
        <ele>186</ele>
        <time>2018-08-06T09:09:21Z</time>
      </trkpt>
      <trkpt lat="45.95771" lon="4.76316">
        <ele>185</ele>
        <time>2018-08-06T09:09:22Z</time>
      </trkpt>
      <trkpt lat="45.95771" lon="4.76325">
        <ele>185</ele>
        <time>2018-08-06T09:09:23Z</time>
      </trkpt>
      <trkpt lat="45.95772" lon="4.76334">
        <ele>186</ele>
        <time>2018-08-06T09:09:24Z</time>
      </trkpt>
      <trkpt lat="45.95772" lon="4.76343">
        <ele>186</ele>
        <time>2018-08-06T09:09:25Z</time>
      </trkpt>
      <trkpt lat="45.95773" lon="4.76351">
        <ele>186</ele>
        <time>2018-08-06T09:09:26Z</time>
      </trkpt>
      <trkpt lat="45.95773" lon="4.76359">
        <ele>186</ele>
        <time>2018-08-06T09:09:27Z</time>
      </trkpt>
      <trkpt lat="45.95774" lon="4.76367">
        <ele>186</ele>
        <time>2018-08-06T09:09:28Z</time>
      </trkpt>
      <trkpt lat="45.95774" lon="4.76376">
        <ele>186</ele>
        <time>2018-08-06T09:09:29Z</time>
      </trkpt>
      <trkpt lat="45.95775" lon="4.76385">
        <ele>186</ele>
        <time>2018-08-06T09:09:30Z</time>
      </trkpt>
      <trkpt lat="45.95776" lon="4.76392">
        <ele>186</ele>
        <time>2018-08-06T09:09:31Z</time>
      </trkpt>
      <trkpt lat="45.95777" lon="4.764">
        <ele>186</ele>
        <time>2018-08-06T09:09:32Z</time>
      </trkpt>
      <trkpt lat="45.95777" lon="4.76408">
        <ele>186</ele>
        <time>2018-08-06T09:09:33Z</time>
      </trkpt>
      <trkpt lat="45.95777" lon="4.76417">
        <ele>186</ele>
        <time>2018-08-06T09:09:34Z</time>
      </trkpt>
      <trkpt lat="45.95778" lon="4.76425">
        <ele>186</ele>
        <time>2018-08-06T09:09:35Z</time>
      </trkpt>
      <trkpt lat="45.95781" lon="4.76433">
        <ele>186</ele>
        <time>2018-08-06T09:09:36Z</time>
      </trkpt>
      <trkpt lat="45.95783" lon="4.76442">
        <ele>186</ele>
        <time>2018-08-06T09:09:37Z</time>
      </trkpt>
      <trkpt lat="45.95784" lon="4.76451">
        <ele>186</ele>
        <time>2018-08-06T09:09:38Z</time>
      </trkpt>
      <trkpt lat="45.95785" lon="4.76459">
        <ele>186</ele>
        <time>2018-08-06T09:09:39Z</time>
      </trkpt>
      <trkpt lat="45.95786" lon="4.76466">
        <ele>186</ele>
        <time>2018-08-06T09:09:40Z</time>
      </trkpt>
      <trkpt lat="45.95788" lon="4.76474">
        <ele>186</ele>
        <time>2018-08-06T09:09:41Z</time>
      </trkpt>
      <trkpt lat="45.95788" lon="4.76482">
        <ele>186</ele>
        <time>2018-08-06T09:09:42Z</time>
      </trkpt>
      <trkpt lat="45.95789" lon="4.76489">
        <ele>186</ele>
        <time>2018-08-06T09:09:43Z</time>
      </trkpt>
      <trkpt lat="45.9579" lon="4.76496">
        <ele>186</ele>
        <time>2018-08-06T09:09:44Z</time>
      </trkpt>
      <trkpt lat="45.95792" lon="4.76505">
        <ele>187</ele>
        <time>2018-08-06T09:09:45Z</time>
      </trkpt>
      <trkpt lat="45.95793" lon="4.76511">
        <ele>187</ele>
        <time>2018-08-06T09:09:46Z</time>
      </trkpt>
      <trkpt lat="45.95794" lon="4.76519">
        <ele>187</ele>
        <time>2018-08-06T09:09:47Z</time>
      </trkpt>
      <trkpt lat="45.95796" lon="4.76526">
        <ele>187</ele>
        <time>2018-08-06T09:09:48Z</time>
      </trkpt>
      <trkpt lat="45.95797" lon="4.76534">
        <ele>187</ele>
        <time>2018-08-06T09:09:49Z</time>
      </trkpt>
      <trkpt lat="45.95797" lon="4.76542">
        <ele>187</ele>
        <time>2018-08-06T09:09:50Z</time>
      </trkpt>
      <trkpt lat="45.95798" lon="4.7655">
        <ele>187</ele>
        <time>2018-08-06T09:09:51Z</time>
      </trkpt>
      <trkpt lat="45.95799" lon="4.76558">
        <ele>187</ele>
        <time>2018-08-06T09:09:52Z</time>
      </trkpt>
      <trkpt lat="45.958" lon="4.76566">
        <ele>187</ele>
        <time>2018-08-06T09:09:53Z</time>
      </trkpt>
      <trkpt lat="45.95801" lon="4.76574">
        <ele>187</ele>
        <time>2018-08-06T09:09:54Z</time>
      </trkpt>
      <trkpt lat="45.95803" lon="4.76582">
        <ele>187</ele>
        <time>2018-08-06T09:09:55Z</time>
      </trkpt>
      <trkpt lat="45.95804" lon="4.76589">
        <ele>188</ele>
        <time>2018-08-06T09:09:56Z</time>
      </trkpt>
      <trkpt lat="45.95805" lon="4.76597">
        <ele>188</ele>
        <time>2018-08-06T09:09:57Z</time>
      </trkpt>
      <trkpt lat="45.95806" lon="4.76604">
        <ele>188</ele>
        <time>2018-08-06T09:09:58Z</time>
      </trkpt>
      <trkpt lat="45.95806" lon="4.76612">
        <ele>188</ele>
        <time>2018-08-06T09:09:59Z</time>
      </trkpt>
      <trkpt lat="45.95807" lon="4.7662">
        <ele>188</ele>
        <time>2018-08-06T09:10:00Z</time>
      </trkpt>
      <trkpt lat="45.95808" lon="4.76627">
        <ele>188</ele>
        <time>2018-08-06T09:10:01Z</time>
      </trkpt>
      <trkpt lat="45.95809" lon="4.76634">
        <ele>188</ele>
        <time>2018-08-06T09:10:02Z</time>
      </trkpt>
      <trkpt lat="45.95811" lon="4.76641">
        <ele>188</ele>
        <time>2018-08-06T09:10:03Z</time>
      </trkpt>
      <trkpt lat="45.95811" lon="4.76649">
        <ele>188</ele>
        <time>2018-08-06T09:10:04Z</time>
      </trkpt>
      <trkpt lat="45.95814" lon="4.76656">
        <ele>188</ele>
        <time>2018-08-06T09:10:05Z</time>
      </trkpt>
      <trkpt lat="45.95815" lon="4.76663">
        <ele>188</ele>
        <time>2018-08-06T09:10:06Z</time>
      </trkpt>
      <trkpt lat="45.95815" lon="4.76671">
        <ele>189</ele>
        <time>2018-08-06T09:10:07Z</time>
      </trkpt>
      <trkpt lat="45.95816" lon="4.76679">
        <ele>189</ele>
        <time>2018-08-06T09:10:08Z</time>
      </trkpt>
      <trkpt lat="45.95816" lon="4.76687">
        <ele>189</ele>
        <time>2018-08-06T09:10:09Z</time>
      </trkpt>
      <trkpt lat="45.95816" lon="4.76694">
        <ele>189</ele>
        <time>2018-08-06T09:10:10Z</time>
      </trkpt>
      <trkpt lat="45.95819" lon="4.76703">
        <ele>189</ele>
        <time>2018-08-06T09:10:11Z</time>
      </trkpt>
      <trkpt lat="45.9582" lon="4.76711">
        <ele>189</ele>
        <time>2018-08-06T09:10:12Z</time>
      </trkpt>
      <trkpt lat="45.9582" lon="4.76719">
        <ele>189</ele>
        <time>2018-08-06T09:10:13Z</time>
      </trkpt>
      <trkpt lat="45.95822" lon="4.76727">
        <ele>190</ele>
        <time>2018-08-06T09:10:14Z</time>
      </trkpt>
      <trkpt lat="45.95823" lon="4.76735">
        <ele>190</ele>
        <time>2018-08-06T09:10:15Z</time>
      </trkpt>
      <trkpt lat="45.95824" lon="4.76741">
        <ele>190</ele>
        <time>2018-08-06T09:10:16Z</time>
      </trkpt>
      <trkpt lat="45.95825" lon="4.76748">
        <ele>190</ele>
        <time>2018-08-06T09:10:17Z</time>
      </trkpt>
      <trkpt lat="45.95827" lon="4.76755">
        <ele>191</ele>
        <time>2018-08-06T09:10:18Z</time>
      </trkpt>
      <trkpt lat="45.95828" lon="4.76762">
        <ele>190</ele>
        <time>2018-08-06T09:10:19Z</time>
      </trkpt>
      <trkpt lat="45.95831" lon="4.76774">
        <ele>190</ele>
        <time>2018-08-06T09:10:21Z</time>
      </trkpt>
      <trkpt lat="45.95834" lon="4.76779">
        <ele>191</ele>
        <time>2018-08-06T09:10:22Z</time>
      </trkpt>
      <trkpt lat="45.95837" lon="4.76785">
        <ele>191</ele>
        <time>2018-08-06T09:10:23Z</time>
      </trkpt>
      <trkpt lat="45.9584" lon="4.7679">
        <ele>191</ele>
        <time>2018-08-06T09:10:24Z</time>
      </trkpt>
      <trkpt lat="45.95843" lon="4.76795">
        <ele>191</ele>
        <time>2018-08-06T09:10:25Z</time>
      </trkpt>
      <trkpt lat="45.95847" lon="4.76799">
        <ele>191</ele>
        <time>2018-08-06T09:10:26Z</time>
      </trkpt>
      <trkpt lat="45.95851" lon="4.76803">
        <ele>191</ele>
        <time>2018-08-06T09:10:27Z</time>
      </trkpt>
      <trkpt lat="45.95854" lon="4.76807">
        <ele>191</ele>
        <time>2018-08-06T09:10:28Z</time>
      </trkpt>
      <trkpt lat="45.95858" lon="4.76811">
        <ele>191</ele>
        <time>2018-08-06T09:10:29Z</time>
      </trkpt>
      <trkpt lat="45.95862" lon="4.76817">
        <ele>191</ele>
        <time>2018-08-06T09:10:30Z</time>
      </trkpt>
      <trkpt lat="45.95867" lon="4.76821">
        <ele>191</ele>
        <time>2018-08-06T09:10:31Z</time>
      </trkpt>
      <trkpt lat="45.9587" lon="4.76826">
        <ele>191</ele>
        <time>2018-08-06T09:10:32Z</time>
      </trkpt>
      <trkpt lat="45.95874" lon="4.7683">
        <ele>191</ele>
        <time>2018-08-06T09:10:33Z</time>
      </trkpt>
      <trkpt lat="45.95878" lon="4.76834">
        <ele>191</ele>
        <time>2018-08-06T09:10:34Z</time>
      </trkpt>
      <trkpt lat="45.95882" lon="4.76839">
        <ele>191</ele>
        <time>2018-08-06T09:10:35Z</time>
      </trkpt>
      <trkpt lat="45.95886" lon="4.76844">
        <ele>191</ele>
        <time>2018-08-06T09:10:36Z</time>
      </trkpt>
      <trkpt lat="45.9589" lon="4.76847">
        <ele>191</ele>
        <time>2018-08-06T09:10:37Z</time>
      </trkpt>
      <trkpt lat="45.95895" lon="4.76851">
        <ele>191</ele>
        <time>2018-08-06T09:10:38Z</time>
      </trkpt>
      <trkpt lat="45.95899" lon="4.76856">
        <ele>191</ele>
        <time>2018-08-06T09:10:39Z</time>
      </trkpt>
      <trkpt lat="45.95903" lon="4.76859">
        <ele>191</ele>
        <time>2018-08-06T09:10:40Z</time>
      </trkpt>
      <trkpt lat="45.95906" lon="4.76861">
        <ele>191</ele>
        <time>2018-08-06T09:10:41Z</time>
      </trkpt>
      <trkpt lat="45.95911" lon="4.76865">
        <ele>191</ele>
        <time>2018-08-06T09:10:42Z</time>
      </trkpt>
      <trkpt lat="45.95914" lon="4.76869">
        <ele>191</ele>
        <time>2018-08-06T09:10:43Z</time>
      </trkpt>
      <trkpt lat="45.95918" lon="4.76875">
        <ele>192</ele>
        <time>2018-08-06T09:10:44Z</time>
      </trkpt>
      <trkpt lat="45.95921" lon="4.76879">
        <ele>192</ele>
        <time>2018-08-06T09:10:45Z</time>
      </trkpt>
      <trkpt lat="45.95924" lon="4.76883">
        <ele>192</ele>
        <time>2018-08-06T09:10:46Z</time>
      </trkpt>
      <trkpt lat="45.9593" lon="4.76891">
        <ele>192</ele>
        <time>2018-08-06T09:10:48Z</time>
      </trkpt>
      <trkpt lat="45.95933" lon="4.76895">
        <ele>192</ele>
        <time>2018-08-06T09:10:49Z</time>
      </trkpt>
      <trkpt lat="45.95939" lon="4.769">
        <ele>192</ele>
        <time>2018-08-06T09:10:52Z</time>
      </trkpt>
      <trkpt lat="45.95941" lon="4.76903">
        <ele>192</ele>
        <time>2018-08-06T09:10:53Z</time>
      </trkpt>
      <trkpt lat="45.95947" lon="4.76912">
        <ele>193</ele>
        <time>2018-08-06T09:10:54Z</time>
      </trkpt>
      <trkpt lat="45.95948" lon="4.76914">
        <ele>193</ele>
        <time>2018-08-06T09:10:55Z</time>
      </trkpt>
      <trkpt lat="45.95955" lon="4.7692">
        <ele>195</ele>
        <time>2018-08-06T09:10:57Z</time>
      </trkpt>
      <trkpt lat="45.95957" lon="4.76921">
        <ele>195</ele>
        <time>2018-08-06T09:10:58Z</time>
      </trkpt>
      <trkpt lat="45.95963" lon="4.76928">
        <ele>195</ele>
        <time>2018-08-06T09:11:01Z</time>
      </trkpt>
      <trkpt lat="45.95965" lon="4.7693">
        <ele>195</ele>
        <time>2018-08-06T09:11:02Z</time>
      </trkpt>
      <trkpt lat="45.9597" lon="4.76936">
        <ele>195</ele>
        <time>2018-08-06T09:11:04Z</time>
      </trkpt>
      <trkpt lat="45.95972" lon="4.76939">
        <ele>196</ele>
        <time>2018-08-06T09:11:05Z</time>
      </trkpt>
      <trkpt lat="45.95976" lon="4.76946">
        <ele>196</ele>
        <time>2018-08-06T09:11:07Z</time>
      </trkpt>
      <trkpt lat="45.95977" lon="4.7695">
        <ele>196</ele>
        <time>2018-08-06T09:11:08Z</time>
      </trkpt>
      <trkpt lat="45.9598" lon="4.76959">
        <ele>196</ele>
        <time>2018-08-06T09:11:10Z</time>
      </trkpt>
      <trkpt lat="45.9598" lon="4.76963">
        <ele>196</ele>
        <time>2018-08-06T09:11:11Z</time>
      </trkpt>
      <trkpt lat="45.9598" lon="4.76975">
        <ele>197</ele>
        <time>2018-08-06T09:11:14Z</time>
      </trkpt>
      <trkpt lat="45.9598" lon="4.76979">
        <ele>197</ele>
        <time>2018-08-06T09:11:15Z</time>
      </trkpt>
      <trkpt lat="45.95978" lon="4.76991">
        <ele>198</ele>
        <time>2018-08-06T09:11:18Z</time>
      </trkpt>
      <trkpt lat="45.95977" lon="4.76995">
        <ele>198</ele>
        <time>2018-08-06T09:11:19Z</time>
      </trkpt>
      <trkpt lat="45.95973" lon="4.77006">
        <ele>200</ele>
        <time>2018-08-06T09:11:22Z</time>
      </trkpt>
      <trkpt lat="45.95972" lon="4.7701">
        <ele>200</ele>
        <time>2018-08-06T09:11:23Z</time>
      </trkpt>
      <trkpt lat="45.95968" lon="4.77017">
        <ele>200</ele>
        <time>2018-08-06T09:11:25Z</time>
      </trkpt>
      <trkpt lat="45.95966" lon="4.77021">
        <ele>200</ele>
        <time>2018-08-06T09:11:26Z</time>
      </trkpt>
      <trkpt lat="45.95963" lon="4.7703">
        <ele>200</ele>
        <time>2018-08-06T09:11:28Z</time>
      </trkpt>
      <trkpt lat="45.95961" lon="4.77034">
        <ele>200</ele>
        <time>2018-08-06T09:11:29Z</time>
      </trkpt>
      <trkpt lat="45.95957" lon="4.77042">
        <ele>200</ele>
        <time>2018-08-06T09:11:31Z</time>
      </trkpt>
      <trkpt lat="45.95956" lon="4.77047">
        <ele>200</ele>
        <time>2018-08-06T09:11:32Z</time>
      </trkpt>
      <trkpt lat="45.95953" lon="4.77055">
        <ele>200</ele>
        <time>2018-08-06T09:11:34Z</time>
      </trkpt>
      <trkpt lat="45.95952" lon="4.77059">
        <ele>200</ele>
        <time>2018-08-06T09:11:35Z</time>
      </trkpt>
      <trkpt lat="45.95948" lon="4.7707">
        <ele>200</ele>
        <time>2018-08-06T09:11:38Z</time>
      </trkpt>
      <trkpt lat="45.95947" lon="4.77074">
        <ele>200</ele>
        <time>2018-08-06T09:11:39Z</time>
      </trkpt>
      <trkpt lat="45.95944" lon="4.77086">
        <ele>201</ele>
        <time>2018-08-06T09:11:42Z</time>
      </trkpt>
      <trkpt lat="45.95943" lon="4.77091">
        <ele>201</ele>
        <time>2018-08-06T09:11:43Z</time>
      </trkpt>
      <trkpt lat="45.95942" lon="4.77101">
        <ele>201</ele>
        <time>2018-08-06T09:11:45Z</time>
      </trkpt>
      <trkpt lat="45.95941" lon="4.77105">
        <ele>201</ele>
        <time>2018-08-06T09:11:46Z</time>
      </trkpt>
      <trkpt lat="45.9594" lon="4.77117">
        <ele>201</ele>
        <time>2018-08-06T09:11:47Z</time>
      </trkpt>
      <trkpt lat="45.9594" lon="4.7712">
        <ele>201</ele>
        <time>2018-08-06T09:11:48Z</time>
      </trkpt>
      <trkpt lat="45.95942" lon="4.7713">
        <ele>201</ele>
        <time>2018-08-06T09:11:51Z</time>
      </trkpt>
      <trkpt lat="45.95942" lon="4.77134">
        <ele>201</ele>
        <time>2018-08-06T09:11:52Z</time>
      </trkpt>
      <trkpt lat="45.95943" lon="4.77142">
        <ele>201</ele>
        <time>2018-08-06T09:11:54Z</time>
      </trkpt>
      <trkpt lat="45.95943" lon="4.77147">
        <ele>201</ele>
        <time>2018-08-06T09:11:55Z</time>
      </trkpt>
      <trkpt lat="45.95943" lon="4.77157">
        <ele>201</ele>
        <time>2018-08-06T09:11:57Z</time>
      </trkpt>
      <trkpt lat="45.95944" lon="4.77161">
        <ele>201</ele>
        <time>2018-08-06T09:11:58Z</time>
      </trkpt>
      <trkpt lat="45.95945" lon="4.77173">
        <ele>200</ele>
        <time>2018-08-06T09:12:01Z</time>
      </trkpt>
      <trkpt lat="45.95946" lon="4.77178">
        <ele>200</ele>
        <time>2018-08-06T09:12:02Z</time>
      </trkpt>
      <trkpt lat="45.95949" lon="4.77186">
        <ele>201</ele>
        <time>2018-08-06T09:12:04Z</time>
      </trkpt>
      <trkpt lat="45.9595" lon="4.7719">
        <ele>201</ele>
        <time>2018-08-06T09:12:05Z</time>
      </trkpt>
      <trkpt lat="45.95953" lon="4.77199">
        <ele>201</ele>
        <time>2018-08-06T09:12:07Z</time>
      </trkpt>
      <trkpt lat="45.95958" lon="4.77211">
        <ele>201</ele>
        <time>2018-08-06T09:12:08Z</time>
      </trkpt>
      <trkpt lat="45.95963" lon="4.7722">
        <ele>201</ele>
        <time>2018-08-06T09:12:12Z</time>
      </trkpt>
      <trkpt lat="45.95965" lon="4.77222">
        <ele>201</ele>
        <time>2018-08-06T09:12:13Z</time>
      </trkpt>
      <trkpt lat="45.95972" lon="4.77229">
        <ele>202</ele>
        <time>2018-08-06T09:12:16Z</time>
      </trkpt>
      <trkpt lat="45.95974" lon="4.77231">
        <ele>202</ele>
        <time>2018-08-06T09:12:17Z</time>
      </trkpt>
      <trkpt lat="45.95981" lon="4.77237">
        <ele>202</ele>
        <time>2018-08-06T09:12:20Z</time>
      </trkpt>
      <trkpt lat="45.95984" lon="4.77239">
        <ele>202</ele>
        <time>2018-08-06T09:12:21Z</time>
      </trkpt>
      <trkpt lat="45.95992" lon="4.77243">
        <ele>202</ele>
        <time>2018-08-06T09:12:24Z</time>
      </trkpt>
      <trkpt lat="45.95995" lon="4.77244">
        <ele>203</ele>
        <time>2018-08-06T09:12:25Z</time>
      </trkpt>
      <trkpt lat="45.96003" lon="4.77246">
        <ele>204</ele>
        <time>2018-08-06T09:12:28Z</time>
      </trkpt>
      <trkpt lat="45.96006" lon="4.77247">
        <ele>204</ele>
        <time>2018-08-06T09:12:29Z</time>
      </trkpt>
      <trkpt lat="45.96014" lon="4.77248">
        <ele>206</ele>
        <time>2018-08-06T09:12:32Z</time>
      </trkpt>
      <trkpt lat="45.96017" lon="4.77248">
        <ele>206</ele>
        <time>2018-08-06T09:12:33Z</time>
      </trkpt>
      <trkpt lat="45.96025" lon="4.77248">
        <ele>207</ele>
        <time>2018-08-06T09:12:36Z</time>
      </trkpt>
      <trkpt lat="45.96028" lon="4.77248">
        <ele>207</ele>
        <time>2018-08-06T09:12:37Z</time>
      </trkpt>
      <trkpt lat="45.96036" lon="4.77247">
        <ele>208</ele>
        <time>2018-08-06T09:12:40Z</time>
      </trkpt>
      <trkpt lat="45.96039" lon="4.77247">
        <ele>208</ele>
        <time>2018-08-06T09:12:41Z</time>
      </trkpt>
      <trkpt lat="45.96048" lon="4.77246">
        <ele>209</ele>
        <time>2018-08-06T09:12:44Z</time>
      </trkpt>
      <trkpt lat="45.9605" lon="4.77245">
        <ele>209</ele>
        <time>2018-08-06T09:12:45Z</time>
      </trkpt>
      <trkpt lat="45.96059" lon="4.77245">
        <ele>209</ele>
        <time>2018-08-06T09:12:48Z</time>
      </trkpt>
      <trkpt lat="45.96062" lon="4.77245">
        <ele>209</ele>
        <time>2018-08-06T09:12:49Z</time>
      </trkpt>
      <trkpt lat="45.96069" lon="4.77244">
        <ele>210</ele>
        <time>2018-08-06T09:12:51Z</time>
      </trkpt>
      <trkpt lat="45.96072" lon="4.77244">
        <ele>210</ele>
        <time>2018-08-06T09:12:52Z</time>
      </trkpt>
      <trkpt lat="45.9608" lon="4.77242">
        <ele>210</ele>
        <time>2018-08-06T09:12:55Z</time>
      </trkpt>
      <trkpt lat="45.96083" lon="4.77242">
        <ele>211</ele>
        <time>2018-08-06T09:12:56Z</time>
      </trkpt>
      <trkpt lat="45.9609" lon="4.77241">
        <ele>212</ele>
        <time>2018-08-06T09:12:58Z</time>
      </trkpt>
      <trkpt lat="45.96094" lon="4.77241">
        <ele>212</ele>
        <time>2018-08-06T09:12:59Z</time>
      </trkpt>
      <trkpt lat="45.961" lon="4.77241">
        <ele>213</ele>
        <time>2018-08-06T09:13:01Z</time>
      </trkpt>
      <trkpt lat="45.96104" lon="4.77242">
        <ele>213</ele>
        <time>2018-08-06T09:13:02Z</time>
      </trkpt>
      <trkpt lat="45.96111" lon="4.77242">
        <ele>213</ele>
        <time>2018-08-06T09:13:04Z</time>
      </trkpt>
      <trkpt lat="45.9612" lon="4.77242">
        <ele>214</ele>
        <time>2018-08-06T09:13:05Z</time>
      </trkpt>
      <trkpt lat="45.96124" lon="4.77242">
        <ele>214</ele>
        <time>2018-08-06T09:13:07Z</time>
      </trkpt>
      <trkpt lat="45.96131" lon="4.77242">
        <ele>215</ele>
        <time>2018-08-06T09:13:08Z</time>
      </trkpt>
      <trkpt lat="45.96138" lon="4.77244">
        <ele>215</ele>
        <time>2018-08-06T09:13:11Z</time>
      </trkpt>
      <trkpt lat="45.9614" lon="4.77245">
        <ele>215</ele>
        <time>2018-08-06T09:13:12Z</time>
      </trkpt>
      <trkpt lat="45.96148" lon="4.77248">
        <ele>215</ele>
        <time>2018-08-06T09:13:15Z</time>
      </trkpt>
      <trkpt lat="45.96151" lon="4.77249">
        <ele>215</ele>
        <time>2018-08-06T09:13:16Z</time>
      </trkpt>
      <trkpt lat="45.96159" lon="4.77253">
        <ele>215</ele>
        <time>2018-08-06T09:13:17Z</time>
      </trkpt>
      <trkpt lat="45.96161" lon="4.77254">
        <ele>215</ele>
        <time>2018-08-06T09:13:18Z</time>
      </trkpt>
      <trkpt lat="45.96169" lon="4.77259">
        <ele>216</ele>
        <time>2018-08-06T09:13:21Z</time>
      </trkpt>
      <trkpt lat="45.96171" lon="4.7726">
        <ele>216</ele>
        <time>2018-08-06T09:13:22Z</time>
      </trkpt>
      <trkpt lat="45.96178" lon="4.77262">
        <ele>216</ele>
        <time>2018-08-06T09:13:23Z</time>
      </trkpt>
      <trkpt lat="45.96182" lon="4.77263">
        <ele>216</ele>
        <time>2018-08-06T09:13:24Z</time>
      </trkpt>
      <trkpt lat="45.9619" lon="4.77265">
        <ele>216</ele>
        <time>2018-08-06T09:13:26Z</time>
      </trkpt>
      <trkpt lat="45.96194" lon="4.77267">
        <ele>216</ele>
        <time>2018-08-06T09:13:27Z</time>
      </trkpt>
      <trkpt lat="45.96202" lon="4.77272">
        <ele>217</ele>
        <time>2018-08-06T09:13:29Z</time>
      </trkpt>
      <trkpt lat="45.96205" lon="4.77275">
        <ele>217</ele>
        <time>2018-08-06T09:13:30Z</time>
      </trkpt>
      <trkpt lat="45.96213" lon="4.77279">
        <ele>217</ele>
        <time>2018-08-06T09:13:32Z</time>
      </trkpt>
      <trkpt lat="45.96218" lon="4.77281">
        <ele>217</ele>
        <time>2018-08-06T09:13:33Z</time>
      </trkpt>
      <trkpt lat="45.96225" lon="4.77285">
        <ele>217</ele>
        <time>2018-08-06T09:13:35Z</time>
      </trkpt>
      <trkpt lat="45.96229" lon="4.77287">
        <ele>217</ele>
        <time>2018-08-06T09:13:36Z</time>
      </trkpt>
      <trkpt lat="45.96236" lon="4.77292">
        <ele>217</ele>
        <time>2018-08-06T09:13:38Z</time>
      </trkpt>
      <trkpt lat="45.9624" lon="4.77295">
        <ele>217</ele>
        <time>2018-08-06T09:13:39Z</time>
      </trkpt>
      <trkpt lat="45.96245" lon="4.77298">
        <ele>217</ele>
        <time>2018-08-06T09:13:41Z</time>
      </trkpt>
      <trkpt lat="45.96251" lon="4.77301">
        <ele>219</ele>
        <time>2018-08-06T09:13:42Z</time>
      </trkpt>
      <trkpt lat="45.96257" lon="4.77304">
        <ele>219</ele>
        <time>2018-08-06T09:13:45Z</time>
      </trkpt>
      <trkpt lat="45.9626" lon="4.77305">
        <ele>219</ele>
        <time>2018-08-06T09:13:46Z</time>
      </trkpt>
      <trkpt lat="45.96267" lon="4.7731">
        <ele>219</ele>
        <time>2018-08-06T09:13:47Z</time>
      </trkpt>
      <trkpt lat="45.96271" lon="4.77312">
        <ele>219</ele>
        <time>2018-08-06T09:13:48Z</time>
      </trkpt>
      <trkpt lat="45.96279" lon="4.77317">
        <ele>219</ele>
        <time>2018-08-06T09:13:50Z</time>
      </trkpt>
      <trkpt lat="45.96283" lon="4.77319">
        <ele>219</ele>
        <time>2018-08-06T09:13:51Z</time>
      </trkpt>
      <trkpt lat="45.96289" lon="4.77323">
        <ele>219</ele>
        <time>2018-08-06T09:13:54Z</time>
      </trkpt>
      <trkpt lat="45.96296" lon="4.77328">
        <ele>219</ele>
        <time>2018-08-06T09:13:55Z</time>
      </trkpt>
      <trkpt lat="45.96303" lon="4.77332">
        <ele>219</ele>
        <time>2018-08-06T09:13:57Z</time>
      </trkpt>
      <trkpt lat="45.96306" lon="4.77334">
        <ele>217</ele>
        <time>2018-08-06T09:13:58Z</time>
      </trkpt>
      <trkpt lat="45.96313" lon="4.77337">
        <ele>218</ele>
        <time>2018-08-06T09:14:00Z</time>
      </trkpt>
      <trkpt lat="45.96317" lon="4.77339">
        <ele>218</ele>
        <time>2018-08-06T09:14:01Z</time>
      </trkpt>
      <trkpt lat="45.96324" lon="4.77343">
        <ele>218</ele>
        <time>2018-08-06T09:14:03Z</time>
      </trkpt>
      <trkpt lat="45.96328" lon="4.77345">
        <ele>218</ele>
        <time>2018-08-06T09:14:04Z</time>
      </trkpt>
      <trkpt lat="45.96335" lon="4.77349">
        <ele>220</ele>
        <time>2018-08-06T09:14:06Z</time>
      </trkpt>
      <trkpt lat="45.96338" lon="4.77351">
        <ele>220</ele>
        <time>2018-08-06T09:14:07Z</time>
      </trkpt>
      <trkpt lat="45.96346" lon="4.77356">
        <ele>219</ele>
        <time>2018-08-06T09:14:09Z</time>
      </trkpt>
      <trkpt lat="45.96349" lon="4.77358">
        <ele>219</ele>
        <time>2018-08-06T09:14:10Z</time>
      </trkpt>
      <trkpt lat="45.96357" lon="4.77362">
        <ele>219</ele>
        <time>2018-08-06T09:14:12Z</time>
      </trkpt>
      <trkpt lat="45.96361" lon="4.77364">
        <ele>219</ele>
        <time>2018-08-06T09:14:13Z</time>
      </trkpt>
      <trkpt lat="45.96368" lon="4.77368">
        <ele>219</ele>
        <time>2018-08-06T09:14:15Z</time>
      </trkpt>
      <trkpt lat="45.96371" lon="4.7737">
        <ele>220</ele>
        <time>2018-08-06T09:14:16Z</time>
      </trkpt>
      <trkpt lat="45.96378" lon="4.77374">
        <ele>220</ele>
        <time>2018-08-06T09:14:18Z</time>
      </trkpt>
      <trkpt lat="45.96381" lon="4.77376">
        <ele>220</ele>
        <time>2018-08-06T09:14:19Z</time>
      </trkpt>
      <trkpt lat="45.96389" lon="4.77381">
        <ele>220</ele>
        <time>2018-08-06T09:14:21Z</time>
      </trkpt>
      <trkpt lat="45.9639" lon="4.77382">
        <ele>220</ele>
        <time>2018-08-06T09:14:22Z</time>
      </trkpt>
      <trkpt lat="45.96395" lon="4.77385">
        <ele>220</ele>
        <time>2018-08-06T09:14:23Z</time>
      </trkpt>
      <trkpt lat="45.96399" lon="4.77388">
        <ele>220</ele>
        <time>2018-08-06T09:14:24Z</time>
      </trkpt>
      <trkpt lat="45.96406" lon="4.77392">
        <ele>220</ele>
        <time>2018-08-06T09:14:26Z</time>
      </trkpt>
      <trkpt lat="45.96409" lon="4.77394">
        <ele>220</ele>
        <time>2018-08-06T09:14:27Z</time>
      </trkpt>
      <trkpt lat="45.96414" lon="4.77398">
        <ele>220</ele>
        <time>2018-08-06T09:14:29Z</time>
      </trkpt>
      <trkpt lat="45.96418" lon="4.77401">
        <ele>222</ele>
        <time>2018-08-06T09:14:30Z</time>
      </trkpt>
      <trkpt lat="45.96426" lon="4.77406">
        <ele>222</ele>
        <time>2018-08-06T09:14:33Z</time>
      </trkpt>
      <trkpt lat="45.96428" lon="4.77407">
        <ele>222</ele>
        <time>2018-08-06T09:14:34Z</time>
      </trkpt>
      <trkpt lat="45.96431" lon="4.77408">
        <ele>222</ele>
        <time>2018-08-06T09:14:35Z</time>
      </trkpt>
      <trkpt lat="45.96439" lon="4.77412">
        <ele>222</ele>
        <time>2018-08-06T09:14:36Z</time>
      </trkpt>
      <trkpt lat="45.96445" lon="4.77415">
        <ele>222</ele>
        <time>2018-08-06T09:14:39Z</time>
      </trkpt>
      <trkpt lat="45.96448" lon="4.77417">
        <ele>221</ele>
        <time>2018-08-06T09:14:40Z</time>
      </trkpt>
      <trkpt lat="45.96454" lon="4.77424">
        <ele>221</ele>
        <time>2018-08-06T09:14:41Z</time>
      </trkpt>
      <trkpt lat="45.96455" lon="4.77425">
        <ele>221</ele>
        <time>2018-08-06T09:14:42Z</time>
      </trkpt>
      <trkpt lat="45.9646" lon="4.77428">
        <ele>221</ele>
        <time>2018-08-06T09:14:44Z</time>
      </trkpt>
      <trkpt lat="45.96468" lon="4.77431">
        <ele>221</ele>
        <time>2018-08-06T09:14:45Z</time>
      </trkpt>
      <trkpt lat="45.96475" lon="4.77435">
        <ele>221</ele>
        <time>2018-08-06T09:14:47Z</time>
      </trkpt>
      <trkpt lat="45.96479" lon="4.77438">
        <ele>221</ele>
        <time>2018-08-06T09:14:48Z</time>
      </trkpt>
      <trkpt lat="45.96484" lon="4.77441">
        <ele>221</ele>
        <time>2018-08-06T09:14:50Z</time>
      </trkpt>
      <trkpt lat="45.96489" lon="4.77444">
        <ele>221</ele>
        <time>2018-08-06T09:14:51Z</time>
      </trkpt>
      <trkpt lat="45.96494" lon="4.77447">
        <ele>221</ele>
        <time>2018-08-06T09:14:53Z</time>
      </trkpt>
      <trkpt lat="45.96499" lon="4.7745">
        <ele>221</ele>
        <time>2018-08-06T09:14:54Z</time>
      </trkpt>
      <trkpt lat="45.96504" lon="4.77454">
        <ele>223</ele>
        <time>2018-08-06T09:14:56Z</time>
      </trkpt>
      <trkpt lat="45.96509" lon="4.77457">
        <ele>223</ele>
        <time>2018-08-06T09:14:57Z</time>
      </trkpt>
      <trkpt lat="45.96516" lon="4.77462">
        <ele>223</ele>
        <time>2018-08-06T09:14:59Z</time>
      </trkpt>
      <trkpt lat="45.96519" lon="4.77465">
        <ele>223</ele>
        <time>2018-08-06T09:15:00Z</time>
      </trkpt>
      <trkpt lat="45.96527" lon="4.77468">
        <ele>223</ele>
        <time>2018-08-06T09:15:02Z</time>
      </trkpt>
      <trkpt lat="45.96529" lon="4.77469">
        <ele>223</ele>
        <time>2018-08-06T09:15:03Z</time>
      </trkpt>
      <trkpt lat="45.96536" lon="4.77473">
        <ele>223</ele>
        <time>2018-08-06T09:15:06Z</time>
      </trkpt>
      <trkpt lat="45.96538" lon="4.77475">
        <ele>223</ele>
        <time>2018-08-06T09:15:07Z</time>
      </trkpt>
      <trkpt lat="45.96541" lon="4.77476">
        <ele>223</ele>
        <time>2018-08-06T09:15:08Z</time>
      </trkpt>
      <trkpt lat="45.9655" lon="4.77481">
        <ele>223</ele>
        <time>2018-08-06T09:15:09Z</time>
      </trkpt>
      <trkpt lat="45.96556" lon="4.77485">
        <ele>224</ele>
        <time>2018-08-06T09:15:11Z</time>
      </trkpt>
      <trkpt lat="45.9656" lon="4.77487">
        <ele>224</ele>
        <time>2018-08-06T09:15:12Z</time>
      </trkpt>
      <trkpt lat="45.96566" lon="4.77492">
        <ele>224</ele>
        <time>2018-08-06T09:15:14Z</time>
      </trkpt>
      <trkpt lat="45.9657" lon="4.77494">
        <ele>224</ele>
        <time>2018-08-06T09:15:15Z</time>
      </trkpt>
      <trkpt lat="45.96577" lon="4.77499">
        <ele>224</ele>
        <time>2018-08-06T09:15:17Z</time>
      </trkpt>
      <trkpt lat="45.9658" lon="4.77501">
        <ele>224</ele>
        <time>2018-08-06T09:15:18Z</time>
      </trkpt>
      <trkpt lat="45.96588" lon="4.77506">
        <ele>224</ele>
        <time>2018-08-06T09:15:20Z</time>
      </trkpt>
      <trkpt lat="45.96591" lon="4.77508">
        <ele>224</ele>
        <time>2018-08-06T09:15:21Z</time>
      </trkpt>
      <trkpt lat="45.96599" lon="4.77513">
        <ele>224</ele>
        <time>2018-08-06T09:15:24Z</time>
      </trkpt>
      <trkpt lat="45.96605" lon="4.77517">
        <ele>224</ele>
        <time>2018-08-06T09:15:25Z</time>
      </trkpt>
      <trkpt lat="45.96612" lon="4.77521">
        <ele>224</ele>
        <time>2018-08-06T09:15:27Z</time>
      </trkpt>
      <trkpt lat="45.96615" lon="4.77524">
        <ele>224</ele>
        <time>2018-08-06T09:15:28Z</time>
      </trkpt>
      <trkpt lat="45.96623" lon="4.77528">
        <ele>224</ele>
        <time>2018-08-06T09:15:30Z</time>
      </trkpt>
      <trkpt lat="45.96626" lon="4.77531">
        <ele>224</ele>
        <time>2018-08-06T09:15:31Z</time>
      </trkpt>
      <trkpt lat="45.96633" lon="4.77536">
        <ele>224</ele>
        <time>2018-08-06T09:15:33Z</time>
      </trkpt>
      <trkpt lat="45.96637" lon="4.77539">
        <ele>224</ele>
        <time>2018-08-06T09:15:34Z</time>
      </trkpt>
      <trkpt lat="45.96644" lon="4.77544">
        <ele>224</ele>
        <time>2018-08-06T09:15:36Z</time>
      </trkpt>
      <trkpt lat="45.96648" lon="4.77546">
        <ele>224</ele>
        <time>2018-08-06T09:15:37Z</time>
      </trkpt>
      <trkpt lat="45.96654" lon="4.77551">
        <ele>224</ele>
        <time>2018-08-06T09:15:40Z</time>
      </trkpt>
      <trkpt lat="45.9666" lon="4.77556">
        <ele>224</ele>
        <time>2018-08-06T09:15:41Z</time>
      </trkpt>
      <trkpt lat="45.96666" lon="4.77562">
        <ele>225</ele>
        <time>2018-08-06T09:15:43Z</time>
      </trkpt>
      <trkpt lat="45.96669" lon="4.77565">
        <ele>225</ele>
        <time>2018-08-06T09:15:44Z</time>
      </trkpt>
      <trkpt lat="45.96676" lon="4.77569">
        <ele>225</ele>
        <time>2018-08-06T09:15:46Z</time>
      </trkpt>
      <trkpt lat="45.96679" lon="4.77572">
        <ele>225</ele>
        <time>2018-08-06T09:15:47Z</time>
      </trkpt>
      <trkpt lat="45.96686" lon="4.77577">
        <ele>225</ele>
        <time>2018-08-06T09:15:49Z</time>
      </trkpt>
      <trkpt lat="45.96689" lon="4.7758">
        <ele>225</ele>
        <time>2018-08-06T09:15:50Z</time>
      </trkpt>
      <trkpt lat="45.96696" lon="4.77587">
        <ele>226</ele>
        <time>2018-08-06T09:15:52Z</time>
      </trkpt>
      <trkpt lat="45.96699" lon="4.7759">
        <ele>226</ele>
        <time>2018-08-06T09:15:53Z</time>
      </trkpt>
      <trkpt lat="45.96706" lon="4.77596">
        <ele>226</ele>
        <time>2018-08-06T09:15:55Z</time>
      </trkpt>
      <trkpt lat="45.96709" lon="4.77599">
        <ele>226</ele>
        <time>2018-08-06T09:15:56Z</time>
      </trkpt>
      <trkpt lat="45.96715" lon="4.77606">
        <ele>226</ele>
        <time>2018-08-06T09:15:58Z</time>
      </trkpt>
      <trkpt lat="45.96718" lon="4.77609">
        <ele>226</ele>
        <time>2018-08-06T09:15:59Z</time>
      </trkpt>
      <trkpt lat="45.96724" lon="4.77616">
        <ele>226</ele>
        <time>2018-08-06T09:16:01Z</time>
      </trkpt>
      <trkpt lat="45.96728" lon="4.77619">
        <ele>226</ele>
        <time>2018-08-06T09:16:02Z</time>
      </trkpt>
      <trkpt lat="45.96734" lon="4.77625">
        <ele>226</ele>
        <time>2018-08-06T09:16:04Z</time>
      </trkpt>
      <trkpt lat="45.96737" lon="4.77629">
        <ele>226</ele>
        <time>2018-08-06T09:16:05Z</time>
      </trkpt>
      <trkpt lat="45.96743" lon="4.77637">
        <ele>227</ele>
        <time>2018-08-06T09:16:07Z</time>
      </trkpt>
      <trkpt lat="45.96746" lon="4.77641">
        <ele>227</ele>
        <time>2018-08-06T09:16:08Z</time>
      </trkpt>
      <trkpt lat="45.96752" lon="4.77649">
        <ele>227</ele>
        <time>2018-08-06T09:16:10Z</time>
      </trkpt>
      <trkpt lat="45.96755" lon="4.77654">
        <ele>227</ele>
        <time>2018-08-06T09:16:11Z</time>
      </trkpt>
      <trkpt lat="45.96759" lon="4.77659">
        <ele>227</ele>
        <time>2018-08-06T09:16:12Z</time>
      </trkpt>
      <trkpt lat="45.96762" lon="4.77663">
        <ele>227</ele>
        <time>2018-08-06T09:16:13Z</time>
      </trkpt>
      <trkpt lat="45.96768" lon="4.77671">
        <ele>227</ele>
        <time>2018-08-06T09:16:15Z</time>
      </trkpt>
      <trkpt lat="45.96771" lon="4.77676">
        <ele>227</ele>
        <time>2018-08-06T09:16:16Z</time>
      </trkpt>
      <trkpt lat="45.96777" lon="4.77677">
        <ele>227</ele>
        <time>2018-08-06T09:16:17Z</time>
      </trkpt>
      <trkpt lat="45.96781" lon="4.7768">
        <ele>227</ele>
        <time>2018-08-06T09:16:18Z</time>
      </trkpt>
      <trkpt lat="45.96787" lon="4.77688">
        <ele>227</ele>
        <time>2018-08-06T09:16:20Z</time>
      </trkpt>
      <trkpt lat="45.9679" lon="4.77692">
        <ele>227</ele>
        <time>2018-08-06T09:16:21Z</time>
      </trkpt>
      <trkpt lat="45.96795" lon="4.77702">
        <ele>228</ele>
        <time>2018-08-06T09:16:23Z</time>
      </trkpt>
      <trkpt lat="45.96799" lon="4.77707">
        <ele>228</ele>
        <time>2018-08-06T09:16:24Z</time>
      </trkpt>
      <trkpt lat="45.96803" lon="4.77709">
        <ele>228</ele>
        <time>2018-08-06T09:16:25Z</time>
      </trkpt>
      <trkpt lat="45.96808" lon="4.77712">
        <ele>228</ele>
        <time>2018-08-06T09:16:26Z</time>
      </trkpt>
      <trkpt lat="45.96814" lon="4.77721">
        <ele>228</ele>
        <time>2018-08-06T09:16:28Z</time>
      </trkpt>
      <trkpt lat="45.96817" lon="4.77724">
        <ele>228</ele>
        <time>2018-08-06T09:16:29Z</time>
      </trkpt>
      <trkpt lat="45.96824" lon="4.7773">
        <ele>228</ele>
        <time>2018-08-06T09:16:31Z</time>
      </trkpt>
      <trkpt lat="45.96828" lon="4.77735">
        <ele>228</ele>
        <time>2018-08-06T09:16:32Z</time>
      </trkpt>
      <trkpt lat="45.96835" lon="4.77743">
        <ele>228</ele>
        <time>2018-08-06T09:16:34Z</time>
      </trkpt>
      <trkpt lat="45.96838" lon="4.77746">
        <ele>228</ele>
        <time>2018-08-06T09:16:35Z</time>
      </trkpt>
      <trkpt lat="45.96843" lon="4.77749">
        <ele>228</ele>
        <time>2018-08-06T09:16:36Z</time>
      </trkpt>
      <trkpt lat="45.96846" lon="4.77753">
        <ele>228</ele>
        <time>2018-08-06T09:16:37Z</time>
      </trkpt>
      <trkpt lat="45.96854" lon="4.7776">
        <ele>228</ele>
        <time>2018-08-06T09:16:39Z</time>
      </trkpt>
      <trkpt lat="45.96857" lon="4.77764">
        <ele>228</ele>
        <time>2018-08-06T09:16:40Z</time>
      </trkpt>
      <trkpt lat="45.96861" lon="4.77768">
        <ele>228</ele>
        <time>2018-08-06T09:16:41Z</time>
      </trkpt>
      <trkpt lat="45.96865" lon="4.77773">
        <ele>228</ele>
        <time>2018-08-06T09:16:42Z</time>
      </trkpt>
      <trkpt lat="45.96869" lon="4.77777">
        <ele>228</ele>
        <time>2018-08-06T09:16:43Z</time>
      </trkpt>
      <trkpt lat="45.96873" lon="4.77781">
        <ele>228</ele>
        <time>2018-08-06T09:16:44Z</time>
      </trkpt>
      <trkpt lat="45.9688" lon="4.77789">
        <ele>228</ele>
        <time>2018-08-06T09:16:46Z</time>
      </trkpt>
      <trkpt lat="45.96883" lon="4.77792">
        <ele>228</ele>
        <time>2018-08-06T09:16:47Z</time>
      </trkpt>
      <trkpt lat="45.9689" lon="4.77798">
        <ele>228</ele>
        <time>2018-08-06T09:16:49Z</time>
      </trkpt>
      <trkpt lat="45.96894" lon="4.77801">
        <ele>228</ele>
        <time>2018-08-06T09:16:50Z</time>
      </trkpt>
      <trkpt lat="45.96897" lon="4.77805">
        <ele>228</ele>
        <time>2018-08-06T09:16:51Z</time>
      </trkpt>
      <trkpt lat="45.96902" lon="4.77809">
        <ele>228</ele>
        <time>2018-08-06T09:16:52Z</time>
      </trkpt>
      <trkpt lat="45.96905" lon="4.77812">
        <ele>228</ele>
        <time>2018-08-06T09:16:53Z</time>
      </trkpt>
      <trkpt lat="45.96909" lon="4.77816">
        <ele>228</ele>
        <time>2018-08-06T09:16:54Z</time>
      </trkpt>
      <trkpt lat="45.96913" lon="4.7782">
        <ele>228</ele>
        <time>2018-08-06T09:16:55Z</time>
      </trkpt>
      <trkpt lat="45.96918" lon="4.77824">
        <ele>228</ele>
        <time>2018-08-06T09:16:56Z</time>
      </trkpt>
      <trkpt lat="45.96921" lon="4.77828">
        <ele>228</ele>
        <time>2018-08-06T09:16:57Z</time>
      </trkpt>
      <trkpt lat="45.96925" lon="4.77831">
        <ele>228</ele>
        <time>2018-08-06T09:16:58Z</time>
      </trkpt>
      <trkpt lat="45.96931" lon="4.7784">
        <ele>228</ele>
        <time>2018-08-06T09:17:00Z</time>
      </trkpt>
      <trkpt lat="45.96934" lon="4.77844">
        <ele>228</ele>
        <time>2018-08-06T09:17:01Z</time>
      </trkpt>
      <trkpt lat="45.96941" lon="4.77852">
        <ele>228</ele>
        <time>2018-08-06T09:17:03Z</time>
      </trkpt>
      <trkpt lat="45.96945" lon="4.77856">
        <ele>228</ele>
        <time>2018-08-06T09:17:04Z</time>
      </trkpt>
      <trkpt lat="45.96949" lon="4.77861">
        <ele>228</ele>
        <time>2018-08-06T09:17:05Z</time>
      </trkpt>
      <trkpt lat="45.96952" lon="4.77865">
        <ele>228</ele>
        <time>2018-08-06T09:17:06Z</time>
      </trkpt>
      <trkpt lat="45.96956" lon="4.7787">
        <ele>228</ele>
        <time>2018-08-06T09:17:07Z</time>
      </trkpt>
      <trkpt lat="45.9696" lon="4.77872">
        <ele>228</ele>
        <time>2018-08-06T09:17:08Z</time>
      </trkpt>
      <trkpt lat="45.96964" lon="4.77877">
        <ele>228</ele>
        <time>2018-08-06T09:17:09Z</time>
      </trkpt>
      <trkpt lat="45.96969" lon="4.77881">
        <ele>228</ele>
        <time>2018-08-06T09:17:10Z</time>
      </trkpt>
      <trkpt lat="45.96976" lon="4.77888">
        <ele>228</ele>
        <time>2018-08-06T09:17:12Z</time>
      </trkpt>
      <trkpt lat="45.96979" lon="4.77892">
        <ele>228</ele>
        <time>2018-08-06T09:17:13Z</time>
      </trkpt>
      <trkpt lat="45.96985" lon="4.779">
        <ele>227</ele>
        <time>2018-08-06T09:17:15Z</time>
      </trkpt>
      <trkpt lat="45.96988" lon="4.77905">
        <ele>227</ele>
        <time>2018-08-06T09:17:16Z</time>
      </trkpt>
      <trkpt lat="45.96992" lon="4.77909">
        <ele>227</ele>
        <time>2018-08-06T09:17:17Z</time>
      </trkpt>
      <trkpt lat="45.96996" lon="4.77914">
        <ele>227</ele>
        <time>2018-08-06T09:17:18Z</time>
      </trkpt>
      <trkpt lat="45.96999" lon="4.77919">
        <ele>227</ele>
        <time>2018-08-06T09:17:19Z</time>
      </trkpt>
      <trkpt lat="45.97003" lon="4.77925">
        <ele>227</ele>
        <time>2018-08-06T09:17:20Z</time>
      </trkpt>
      <trkpt lat="45.97009" lon="4.77933">
        <ele>228</ele>
        <time>2018-08-06T09:17:22Z</time>
      </trkpt>
      <trkpt lat="45.97013" lon="4.77937">
        <ele>228</ele>
        <time>2018-08-06T09:17:23Z</time>
      </trkpt>
      <trkpt lat="45.9702" lon="4.77945">
        <ele>228</ele>
        <time>2018-08-06T09:17:25Z</time>
      </trkpt>
      <trkpt lat="45.97023" lon="4.7795">
        <ele>228</ele>
        <time>2018-08-06T09:17:26Z</time>
      </trkpt>
      <trkpt lat="45.97027" lon="4.77955">
        <ele>228</ele>
        <time>2018-08-06T09:17:27Z</time>
      </trkpt>
      <trkpt lat="45.9703" lon="4.77959">
        <ele>228</ele>
        <time>2018-08-06T09:17:28Z</time>
      </trkpt>
      <trkpt lat="45.97034" lon="4.77964">
        <ele>228</ele>
        <time>2018-08-06T09:17:29Z</time>
      </trkpt>
      <trkpt lat="45.97038" lon="4.77969">
        <ele>229</ele>
        <time>2018-08-06T09:17:30Z</time>
      </trkpt>
      <trkpt lat="45.97043" lon="4.77971">
        <ele>229</ele>
        <time>2018-08-06T09:17:31Z</time>
      </trkpt>
      <trkpt lat="45.97047" lon="4.77976">
        <ele>229</ele>
        <time>2018-08-06T09:17:32Z</time>
      </trkpt>
      <trkpt lat="45.97051" lon="4.77981">
        <ele>229</ele>
        <time>2018-08-06T09:17:33Z</time>
      </trkpt>
      <trkpt lat="45.97054" lon="4.77985">
        <ele>229</ele>
        <time>2018-08-06T09:17:34Z</time>
      </trkpt>
      <trkpt lat="45.97061" lon="4.77993">
        <ele>229</ele>
        <time>2018-08-06T09:17:36Z</time>
      </trkpt>
      <trkpt lat="45.97064" lon="4.77996">
        <ele>229</ele>
        <time>2018-08-06T09:17:37Z</time>
      </trkpt>
      <trkpt lat="45.97068" lon="4.77999">
        <ele>229</ele>
        <time>2018-08-06T09:17:38Z</time>
      </trkpt>
      <trkpt lat="45.97072" lon="4.78003">
        <ele>229</ele>
        <time>2018-08-06T09:17:39Z</time>
      </trkpt>
      <trkpt lat="45.9708" lon="4.7801">
        <ele>229</ele>
        <time>2018-08-06T09:17:41Z</time>
      </trkpt>
      <trkpt lat="45.97084" lon="4.78014">
        <ele>229</ele>
        <time>2018-08-06T09:17:42Z</time>
      </trkpt>
      <trkpt lat="45.97087" lon="4.78019">
        <ele>229</ele>
        <time>2018-08-06T09:17:43Z</time>
      </trkpt>
      <trkpt lat="45.97091" lon="4.78023">
        <ele>229</ele>
        <time>2018-08-06T09:17:44Z</time>
      </trkpt>
      <trkpt lat="45.97095" lon="4.78028">
        <ele>229</ele>
        <time>2018-08-06T09:17:45Z</time>
      </trkpt>
      <trkpt lat="45.97098" lon="4.78032">
        <ele>229</ele>
        <time>2018-08-06T09:17:46Z</time>
      </trkpt>
      <trkpt lat="45.97103" lon="4.78036">
        <ele>229</ele>
        <time>2018-08-06T09:17:47Z</time>
      </trkpt>
      <trkpt lat="45.97106" lon="4.7804">
        <ele>229</ele>
        <time>2018-08-06T09:17:48Z</time>
      </trkpt>
      <trkpt lat="45.9711" lon="4.78044">
        <ele>229</ele>
        <time>2018-08-06T09:17:49Z</time>
      </trkpt>
      <trkpt lat="45.97115" lon="4.78049">
        <ele>229</ele>
        <time>2018-08-06T09:17:50Z</time>
      </trkpt>
      <trkpt lat="45.97118" lon="4.78053">
        <ele>229</ele>
        <time>2018-08-06T09:17:51Z</time>
      </trkpt>
      <trkpt lat="45.97121" lon="4.78058">
        <ele>229</ele>
        <time>2018-08-06T09:17:52Z</time>
      </trkpt>
      <trkpt lat="45.97127" lon="4.78066">
        <ele>230</ele>
        <time>2018-08-06T09:17:54Z</time>
      </trkpt>
      <trkpt lat="45.97131" lon="4.78071">
        <ele>230</ele>
        <time>2018-08-06T09:17:55Z</time>
      </trkpt>
      <trkpt lat="45.97137" lon="4.78079">
        <ele>230</ele>
        <time>2018-08-06T09:17:57Z</time>
      </trkpt>
      <trkpt lat="45.97141" lon="4.78085">
        <ele>230</ele>
        <time>2018-08-06T09:17:58Z</time>
      </trkpt>
      <trkpt lat="45.97147" lon="4.78093">
        <ele>230</ele>
        <time>2018-08-06T09:18:00Z</time>
      </trkpt>
      <trkpt lat="45.97151" lon="4.78099">
        <ele>230</ele>
        <time>2018-08-06T09:18:01Z</time>
      </trkpt>
      <trkpt lat="45.97154" lon="4.78105">
        <ele>230</ele>
        <time>2018-08-06T09:18:02Z</time>
      </trkpt>
      <trkpt lat="45.97157" lon="4.7811">
        <ele>230</ele>
        <time>2018-08-06T09:18:03Z</time>
      </trkpt>
      <trkpt lat="45.97163" lon="4.78118">
        <ele>230</ele>
        <time>2018-08-06T09:18:05Z</time>
      </trkpt>
      <trkpt lat="45.97166" lon="4.78124">
        <ele>230</ele>
        <time>2018-08-06T09:18:06Z</time>
      </trkpt>
      <trkpt lat="45.97169" lon="4.78128">
        <ele>231</ele>
        <time>2018-08-06T09:18:07Z</time>
      </trkpt>
      <trkpt lat="45.97172" lon="4.78134">
        <ele>231</ele>
        <time>2018-08-06T09:18:08Z</time>
      </trkpt>
      <trkpt lat="45.97176" lon="4.7814">
        <ele>231</ele>
        <time>2018-08-06T09:18:09Z</time>
      </trkpt>
      <trkpt lat="45.97179" lon="4.78147">
        <ele>231</ele>
        <time>2018-08-06T09:18:10Z</time>
      </trkpt>
      <trkpt lat="45.97182" lon="4.78153">
        <ele>231</ele>
        <time>2018-08-06T09:18:11Z</time>
      </trkpt>
      <trkpt lat="45.97185" lon="4.78159">
        <ele>231</ele>
        <time>2018-08-06T09:18:12Z</time>
      </trkpt>
      <trkpt lat="45.97189" lon="4.78165">
        <ele>231</ele>
        <time>2018-08-06T09:18:13Z</time>
      </trkpt>
      <trkpt lat="45.97193" lon="4.78171">
        <ele>231</ele>
        <time>2018-08-06T09:18:14Z</time>
      </trkpt>
      <trkpt lat="45.97196" lon="4.78177">
        <ele>231</ele>
        <time>2018-08-06T09:18:15Z</time>
      </trkpt>
      <trkpt lat="45.97198" lon="4.78182">
        <ele>231</ele>
        <time>2018-08-06T09:18:16Z</time>
      </trkpt>
      <trkpt lat="45.97203" lon="4.78193">
        <ele>231</ele>
        <time>2018-08-06T09:18:18Z</time>
      </trkpt>
      <trkpt lat="45.97207" lon="4.78198">
        <ele>231</ele>
        <time>2018-08-06T09:18:19Z</time>
      </trkpt>
      <trkpt lat="45.9721" lon="4.78202">
        <ele>231</ele>
        <time>2018-08-06T09:18:20Z</time>
      </trkpt>
      <trkpt lat="45.97213" lon="4.78207">
        <ele>231</ele>
        <time>2018-08-06T09:18:21Z</time>
      </trkpt>
      <trkpt lat="45.97216" lon="4.78214">
        <ele>231</ele>
        <time>2018-08-06T09:18:22Z</time>
      </trkpt>
      <trkpt lat="45.97219" lon="4.7822">
        <ele>231</ele>
        <time>2018-08-06T09:18:23Z</time>
      </trkpt>
      <trkpt lat="45.97222" lon="4.78226">
        <ele>231</ele>
        <time>2018-08-06T09:18:24Z</time>
      </trkpt>
      <trkpt lat="45.97225" lon="4.78232">
        <ele>231</ele>
        <time>2018-08-06T09:18:25Z</time>
      </trkpt>
      <trkpt lat="45.97228" lon="4.78238">
        <ele>231</ele>
        <time>2018-08-06T09:18:26Z</time>
      </trkpt>
      <trkpt lat="45.97232" lon="4.78243">
        <ele>231</ele>
        <time>2018-08-06T09:18:27Z</time>
      </trkpt>
      <trkpt lat="45.97237" lon="4.78249">
        <ele>231</ele>
        <time>2018-08-06T09:18:28Z</time>
      </trkpt>
      <trkpt lat="45.97242" lon="4.78253">
        <ele>231</ele>
        <time>2018-08-06T09:18:29Z</time>
      </trkpt>
      <trkpt lat="45.97246" lon="4.78259">
        <ele>231</ele>
        <time>2018-08-06T09:18:30Z</time>
      </trkpt>
      <trkpt lat="45.9725" lon="4.78264">
        <ele>231</ele>
        <time>2018-08-06T09:18:31Z</time>
      </trkpt>
      <trkpt lat="45.97253" lon="4.78269">
        <ele>231</ele>
        <time>2018-08-06T09:18:32Z</time>
      </trkpt>
      <trkpt lat="45.97257" lon="4.78274">
        <ele>232</ele>
        <time>2018-08-06T09:18:33Z</time>
      </trkpt>
      <trkpt lat="45.9726" lon="4.7828">
        <ele>232</ele>
        <time>2018-08-06T09:18:34Z</time>
      </trkpt>
      <trkpt lat="45.97263" lon="4.78286">
        <ele>232</ele>
        <time>2018-08-06T09:18:35Z</time>
      </trkpt>
      <trkpt lat="45.97268" lon="4.78292">
        <ele>232</ele>
        <time>2018-08-06T09:18:36Z</time>
      </trkpt>
      <trkpt lat="45.97272" lon="4.78299">
        <ele>232</ele>
        <time>2018-08-06T09:18:37Z</time>
      </trkpt>
      <trkpt lat="45.97276" lon="4.78305">
        <ele>232</ele>
        <time>2018-08-06T09:18:38Z</time>
      </trkpt>
      <trkpt lat="45.97278" lon="4.7831">
        <ele>232</ele>
        <time>2018-08-06T09:18:39Z</time>
      </trkpt>
      <trkpt lat="45.97283" lon="4.78316">
        <ele>232</ele>
        <time>2018-08-06T09:18:40Z</time>
      </trkpt>
      <trkpt lat="45.97286" lon="4.78321">
        <ele>232</ele>
        <time>2018-08-06T09:18:41Z</time>
      </trkpt>
      <trkpt lat="45.97289" lon="4.78326">
        <ele>232</ele>
        <time>2018-08-06T09:18:42Z</time>
      </trkpt>
      <trkpt lat="45.97292" lon="4.78331">
        <ele>232</ele>
        <time>2018-08-06T09:18:43Z</time>
      </trkpt>
      <trkpt lat="45.97299" lon="4.7834">
        <ele>232</ele>
        <time>2018-08-06T09:18:45Z</time>
      </trkpt>
      <trkpt lat="45.97302" lon="4.78343">
        <ele>232</ele>
        <time>2018-08-06T09:18:46Z</time>
      </trkpt>
      <trkpt lat="45.97306" lon="4.78348">
        <ele>232</ele>
        <time>2018-08-06T09:18:47Z</time>
      </trkpt>
      <trkpt lat="45.97309" lon="4.78353">
        <ele>232</ele>
        <time>2018-08-06T09:18:48Z</time>
      </trkpt>
      <trkpt lat="45.97312" lon="4.78357">
        <ele>232</ele>
        <time>2018-08-06T09:18:49Z</time>
      </trkpt>
      <trkpt lat="45.97316" lon="4.78361">
        <ele>232</ele>
        <time>2018-08-06T09:18:50Z</time>
      </trkpt>
      <trkpt lat="45.97319" lon="4.78366">
        <ele>232</ele>
        <time>2018-08-06T09:18:51Z</time>
      </trkpt>
      <trkpt lat="45.97323" lon="4.78371">
        <ele>232</ele>
        <time>2018-08-06T09:18:52Z</time>
      </trkpt>
      <trkpt lat="45.97326" lon="4.78374">
        <ele>232</ele>
        <time>2018-08-06T09:18:53Z</time>
      </trkpt>
      <trkpt lat="45.9733" lon="4.78378">
        <ele>232</ele>
        <time>2018-08-06T09:18:54Z</time>
      </trkpt>
      <trkpt lat="45.97334" lon="4.78384">
        <ele>233</ele>
        <time>2018-08-06T09:18:55Z</time>
      </trkpt>
      <trkpt lat="45.97338" lon="4.78389">
        <ele>233</ele>
        <time>2018-08-06T09:18:56Z</time>
      </trkpt>
      <trkpt lat="45.97342" lon="4.78392">
        <ele>233</ele>
        <time>2018-08-06T09:18:57Z</time>
      </trkpt>
      <trkpt lat="45.97346" lon="4.78397">
        <ele>232</ele>
        <time>2018-08-06T09:18:58Z</time>
      </trkpt>
      <trkpt lat="45.97349" lon="4.78402">
        <ele>232</ele>
        <time>2018-08-06T09:18:59Z</time>
      </trkpt>
      <trkpt lat="45.97354" lon="4.78406">
        <ele>232</ele>
        <time>2018-08-06T09:19:00Z</time>
      </trkpt>
      <trkpt lat="45.97361" lon="4.78412">
        <ele>233</ele>
        <time>2018-08-06T09:19:02Z</time>
      </trkpt>
      <trkpt lat="45.97365" lon="4.78417">
        <ele>233</ele>
        <time>2018-08-06T09:19:03Z</time>
      </trkpt>
      <trkpt lat="45.9737" lon="4.78421">
        <ele>233</ele>
        <time>2018-08-06T09:19:04Z</time>
      </trkpt>
      <trkpt lat="45.97374" lon="4.78426">
        <ele>233</ele>
        <time>2018-08-06T09:19:05Z</time>
      </trkpt>
      <trkpt lat="45.97378" lon="4.78432">
        <ele>233</ele>
        <time>2018-08-06T09:19:06Z</time>
      </trkpt>
      <trkpt lat="45.97383" lon="4.78436">
        <ele>233</ele>
        <time>2018-08-06T09:19:07Z</time>
      </trkpt>
      <trkpt lat="45.97387" lon="4.7844">
        <ele>233</ele>
        <time>2018-08-06T09:19:08Z</time>
      </trkpt>
      <trkpt lat="45.9739" lon="4.78444">
        <ele>233</ele>
        <time>2018-08-06T09:19:09Z</time>
      </trkpt>
      <trkpt lat="45.97394" lon="4.78447">
        <ele>233</ele>
        <time>2018-08-06T09:19:10Z</time>
      </trkpt>
      <trkpt lat="45.97398" lon="4.78451">
        <ele>233</ele>
        <time>2018-08-06T09:19:11Z</time>
      </trkpt>
      <trkpt lat="45.97402" lon="4.78455">
        <ele>233</ele>
        <time>2018-08-06T09:19:12Z</time>
      </trkpt>
      <trkpt lat="45.97406" lon="4.78459">
        <ele>233</ele>
        <time>2018-08-06T09:19:13Z</time>
      </trkpt>
      <trkpt lat="45.97413" lon="4.78465">
        <ele>233</ele>
        <time>2018-08-06T09:19:15Z</time>
      </trkpt>
      <trkpt lat="45.97417" lon="4.78465">
        <ele>234</ele>
        <time>2018-08-06T09:19:16Z</time>
      </trkpt>
      <trkpt lat="45.9742" lon="4.7847">
        <ele>234</ele>
        <time>2018-08-06T09:19:17Z</time>
      </trkpt>
      <trkpt lat="45.97424" lon="4.78476">
        <ele>234</ele>
        <time>2018-08-06T09:19:18Z</time>
      </trkpt>
      <trkpt lat="45.97428" lon="4.78481">
        <ele>234</ele>
        <time>2018-08-06T09:19:19Z</time>
      </trkpt>
      <trkpt lat="45.97432" lon="4.78485">
        <ele>234</ele>
        <time>2018-08-06T09:19:20Z</time>
      </trkpt>
      <trkpt lat="45.97436" lon="4.7849">
        <ele>234</ele>
        <time>2018-08-06T09:19:21Z</time>
      </trkpt>
      <trkpt lat="45.97441" lon="4.78494">
        <ele>234</ele>
        <time>2018-08-06T09:19:22Z</time>
      </trkpt>
      <trkpt lat="45.97445" lon="4.78498">
        <ele>234</ele>
        <time>2018-08-06T09:19:23Z</time>
      </trkpt>
      <trkpt lat="45.9745" lon="4.78502">
        <ele>234</ele>
        <time>2018-08-06T09:19:24Z</time>
      </trkpt>
      <trkpt lat="45.97454" lon="4.78506">
        <ele>234</ele>
        <time>2018-08-06T09:19:25Z</time>
      </trkpt>
      <trkpt lat="45.97458" lon="4.7851">
        <ele>233</ele>
        <time>2018-08-06T09:19:26Z</time>
      </trkpt>
      <trkpt lat="45.97462" lon="4.78513">
        <ele>233</ele>
        <time>2018-08-06T09:19:27Z</time>
      </trkpt>
      <trkpt lat="45.97466" lon="4.78515">
        <ele>233</ele>
        <time>2018-08-06T09:19:28Z</time>
      </trkpt>
      <trkpt lat="45.9747" lon="4.78518">
        <ele>233</ele>
        <time>2018-08-06T09:19:29Z</time>
      </trkpt>
      <trkpt lat="45.97474" lon="4.78522">
        <ele>233</ele>
        <time>2018-08-06T09:19:30Z</time>
      </trkpt>
      <trkpt lat="45.97478" lon="4.78526">
        <ele>233</ele>
        <time>2018-08-06T09:19:31Z</time>
      </trkpt>
      <trkpt lat="45.97483" lon="4.78529">
        <ele>233</ele>
        <time>2018-08-06T09:19:32Z</time>
      </trkpt>
      <trkpt lat="45.97488" lon="4.78533">
        <ele>233</ele>
        <time>2018-08-06T09:19:33Z</time>
      </trkpt>
      <trkpt lat="45.97493" lon="4.78537">
        <ele>233</ele>
        <time>2018-08-06T09:19:34Z</time>
      </trkpt>
      <trkpt lat="45.97498" lon="4.78541">
        <ele>233</ele>
        <time>2018-08-06T09:19:35Z</time>
      </trkpt>
      <trkpt lat="45.97502" lon="4.78544">
        <ele>234</ele>
        <time>2018-08-06T09:19:36Z</time>
      </trkpt>
      <trkpt lat="45.97507" lon="4.78548">
        <ele>234</ele>
        <time>2018-08-06T09:19:37Z</time>
      </trkpt>
      <trkpt lat="45.97512" lon="4.7855">
        <ele>234</ele>
        <time>2018-08-06T09:19:38Z</time>
      </trkpt>
      <trkpt lat="45.97517" lon="4.78553">
        <ele>234</ele>
        <time>2018-08-06T09:19:39Z</time>
      </trkpt>
      <trkpt lat="45.97521" lon="4.78556">
        <ele>234</ele>
        <time>2018-08-06T09:19:40Z</time>
      </trkpt>
      <trkpt lat="45.97527" lon="4.78559">
        <ele>234</ele>
        <time>2018-08-06T09:19:41Z</time>
      </trkpt>
      <trkpt lat="45.97532" lon="4.78562">
        <ele>234</ele>
        <time>2018-08-06T09:19:42Z</time>
      </trkpt>
      <trkpt lat="45.97537" lon="4.78564">
        <ele>234</ele>
        <time>2018-08-06T09:19:43Z</time>
      </trkpt>
      <trkpt lat="45.97543" lon="4.78566">
        <ele>234</ele>
        <time>2018-08-06T09:19:44Z</time>
      </trkpt>
      <trkpt lat="45.97547" lon="4.78568">
        <ele>234</ele>
        <time>2018-08-06T09:19:45Z</time>
      </trkpt>
      <trkpt lat="45.97552" lon="4.7857">
        <ele>234</ele>
        <time>2018-08-06T09:19:46Z</time>
      </trkpt>
      <trkpt lat="45.97559" lon="4.78572">
        <ele>233</ele>
        <time>2018-08-06T09:19:47Z</time>
      </trkpt>
      <trkpt lat="45.97564" lon="4.78575">
        <ele>233</ele>
        <time>2018-08-06T09:19:48Z</time>
      </trkpt>
      <trkpt lat="45.97569" lon="4.78577">
        <ele>233</ele>
        <time>2018-08-06T09:19:49Z</time>
      </trkpt>
      <trkpt lat="45.97576" lon="4.78578">
        <ele>233</ele>
        <time>2018-08-06T09:19:50Z</time>
      </trkpt>
      <trkpt lat="45.97581" lon="4.78579">
        <ele>233</ele>
        <time>2018-08-06T09:19:51Z</time>
      </trkpt>
      <trkpt lat="45.97586" lon="4.78582">
        <ele>233</ele>
        <time>2018-08-06T09:19:52Z</time>
      </trkpt>
      <trkpt lat="45.9759" lon="4.78583">
        <ele>233</ele>
        <time>2018-08-06T09:19:53Z</time>
      </trkpt>
      <trkpt lat="45.97595" lon="4.78585">
        <ele>233</ele>
        <time>2018-08-06T09:19:54Z</time>
      </trkpt>
      <trkpt lat="45.976" lon="4.78587">
        <ele>233</ele>
        <time>2018-08-06T09:19:55Z</time>
      </trkpt>
      <trkpt lat="45.97606" lon="4.78588">
        <ele>233</ele>
        <time>2018-08-06T09:19:56Z</time>
      </trkpt>
      <trkpt lat="45.97614" lon="4.78593">
        <ele>233</ele>
        <time>2018-08-06T09:19:58Z</time>
      </trkpt>
      <trkpt lat="45.97618" lon="4.78594">
        <ele>233</ele>
        <time>2018-08-06T09:19:59Z</time>
      </trkpt>
      <trkpt lat="45.97621" lon="4.78601">
        <ele>233</ele>
        <time>2018-08-06T09:20:00Z</time>
      </trkpt>
      <trkpt lat="45.97626" lon="4.78603">
        <ele>233</ele>
        <time>2018-08-06T09:20:01Z</time>
      </trkpt>
      <trkpt lat="45.97631" lon="4.78604">
        <ele>233</ele>
        <time>2018-08-06T09:20:02Z</time>
      </trkpt>
      <trkpt lat="45.97635" lon="4.78608">
        <ele>233</ele>
        <time>2018-08-06T09:20:03Z</time>
      </trkpt>
      <trkpt lat="45.97642" lon="4.78609">
        <ele>233</ele>
        <time>2018-08-06T09:20:04Z</time>
      </trkpt>
      <trkpt lat="45.97646" lon="4.78611">
        <ele>233</ele>
        <time>2018-08-06T09:20:05Z</time>
      </trkpt>
      <trkpt lat="45.97652" lon="4.78615">
        <ele>233</ele>
        <time>2018-08-06T09:20:06Z</time>
      </trkpt>
      <trkpt lat="45.97657" lon="4.78617">
        <ele>233</ele>
        <time>2018-08-06T09:20:07Z</time>
      </trkpt>
      <trkpt lat="45.97662" lon="4.78619">
        <ele>233</ele>
        <time>2018-08-06T09:20:08Z</time>
      </trkpt>
      <trkpt lat="45.97668" lon="4.78621">
        <ele>234</ele>
        <time>2018-08-06T09:20:09Z</time>
      </trkpt>
      <trkpt lat="45.97672" lon="4.78624">
        <ele>234</ele>
        <time>2018-08-06T09:20:10Z</time>
      </trkpt>
      <trkpt lat="45.97678" lon="4.78625">
        <ele>234</ele>
        <time>2018-08-06T09:20:11Z</time>
      </trkpt>
      <trkpt lat="45.97686" lon="4.78629">
        <ele>234</ele>
        <time>2018-08-06T09:20:13Z</time>
      </trkpt>
      <trkpt lat="45.97692" lon="4.7863">
        <ele>234</ele>
        <time>2018-08-06T09:20:14Z</time>
      </trkpt>
      <trkpt lat="45.97697" lon="4.78631">
        <ele>234</ele>
        <time>2018-08-06T09:20:15Z</time>
      </trkpt>
      <trkpt lat="45.97702" lon="4.78633">
        <ele>234</ele>
        <time>2018-08-06T09:20:16Z</time>
      </trkpt>
      <trkpt lat="45.97706" lon="4.78636">
        <ele>234</ele>
        <time>2018-08-06T09:20:17Z</time>
      </trkpt>
      <trkpt lat="45.97712" lon="4.78638">
        <ele>234</ele>
        <time>2018-08-06T09:20:18Z</time>
      </trkpt>
      <trkpt lat="45.97717" lon="4.7864">
        <ele>234</ele>
        <time>2018-08-06T09:20:19Z</time>
      </trkpt>
      <trkpt lat="45.97724" lon="4.78641">
        <ele>234</ele>
        <time>2018-08-06T09:20:20Z</time>
      </trkpt>
      <trkpt lat="45.97729" lon="4.78643">
        <ele>234</ele>
        <time>2018-08-06T09:20:21Z</time>
      </trkpt>
      <trkpt lat="45.97734" lon="4.78645">
        <ele>234</ele>
        <time>2018-08-06T09:20:22Z</time>
      </trkpt>
      <trkpt lat="45.97738" lon="4.78648">
        <ele>234</ele>
        <time>2018-08-06T09:20:23Z</time>
      </trkpt>
      <trkpt lat="45.97742" lon="4.7865">
        <ele>234</ele>
        <time>2018-08-06T09:20:24Z</time>
      </trkpt>
      <trkpt lat="45.97746" lon="4.78655">
        <ele>234</ele>
        <time>2018-08-06T09:20:25Z</time>
      </trkpt>
      <trkpt lat="45.97751" lon="4.78657">
        <ele>234</ele>
        <time>2018-08-06T09:20:26Z</time>
      </trkpt>
      <trkpt lat="45.97755" lon="4.78659">
        <ele>234</ele>
        <time>2018-08-06T09:20:27Z</time>
      </trkpt>
      <trkpt lat="45.97759" lon="4.78663">
        <ele>234</ele>
        <time>2018-08-06T09:20:28Z</time>
      </trkpt>
      <trkpt lat="45.97764" lon="4.78664">
        <ele>235</ele>
        <time>2018-08-06T09:20:29Z</time>
      </trkpt>
      <trkpt lat="45.97769" lon="4.78667">
        <ele>235</ele>
        <time>2018-08-06T09:20:30Z</time>
      </trkpt>
      <trkpt lat="45.97774" lon="4.78669">
        <ele>235</ele>
        <time>2018-08-06T09:20:31Z</time>
      </trkpt>
      <trkpt lat="45.97781" lon="4.78671">
        <ele>235</ele>
        <time>2018-08-06T09:20:32Z</time>
      </trkpt>
      <trkpt lat="45.97786" lon="4.78674">
        <ele>235</ele>
        <time>2018-08-06T09:20:33Z</time>
      </trkpt>
      <trkpt lat="45.97791" lon="4.78675">
        <ele>235</ele>
        <time>2018-08-06T09:20:34Z</time>
      </trkpt>
      <trkpt lat="45.97796" lon="4.78678">
        <ele>235</ele>
        <time>2018-08-06T09:20:35Z</time>
      </trkpt>
      <trkpt lat="45.97801" lon="4.7868">
        <ele>235</ele>
        <time>2018-08-06T09:20:36Z</time>
      </trkpt>
      <trkpt lat="45.97806" lon="4.78682">
        <ele>235</ele>
        <time>2018-08-06T09:20:37Z</time>
      </trkpt>
      <trkpt lat="45.9781" lon="4.78684">
        <ele>235</ele>
        <time>2018-08-06T09:20:38Z</time>
      </trkpt>
      <trkpt lat="45.97816" lon="4.78686">
        <ele>235</ele>
        <time>2018-08-06T09:20:39Z</time>
      </trkpt>
      <trkpt lat="45.97821" lon="4.78688">
        <ele>235</ele>
        <time>2018-08-06T09:20:40Z</time>
      </trkpt>
      <trkpt lat="45.97826" lon="4.7869">
        <ele>235</ele>
        <time>2018-08-06T09:20:41Z</time>
      </trkpt>
      <trkpt lat="45.97831" lon="4.78693">
        <ele>235</ele>
        <time>2018-08-06T09:20:42Z</time>
      </trkpt>
      <trkpt lat="45.97836" lon="4.78696">
        <ele>236</ele>
        <time>2018-08-06T09:20:43Z</time>
      </trkpt>
      <trkpt lat="45.9784" lon="4.78698">
        <ele>236</ele>
        <time>2018-08-06T09:20:44Z</time>
      </trkpt>
      <trkpt lat="45.97844" lon="4.78702">
        <ele>236</ele>
        <time>2018-08-06T09:20:45Z</time>
      </trkpt>
      <trkpt lat="45.97849" lon="4.78705">
        <ele>236</ele>
        <time>2018-08-06T09:20:46Z</time>
      </trkpt>
      <trkpt lat="45.97855" lon="4.78707">
        <ele>236</ele>
        <time>2018-08-06T09:20:47Z</time>
      </trkpt>
      <trkpt lat="45.97861" lon="4.78707">
        <ele>236</ele>
        <time>2018-08-06T09:20:48Z</time>
      </trkpt>
      <trkpt lat="45.97865" lon="4.7871">
        <ele>236</ele>
        <time>2018-08-06T09:20:49Z</time>
      </trkpt>
      <trkpt lat="45.9787" lon="4.78715">
        <ele>236</ele>
        <time>2018-08-06T09:20:50Z</time>
      </trkpt>
      <trkpt lat="45.97876" lon="4.78718">
        <ele>236</ele>
        <time>2018-08-06T09:20:51Z</time>
      </trkpt>
      <trkpt lat="45.9788" lon="4.78721">
        <ele>236</ele>
        <time>2018-08-06T09:20:52Z</time>
      </trkpt>
      <trkpt lat="45.97885" lon="4.78723">
        <ele>236</ele>
        <time>2018-08-06T09:20:53Z</time>
      </trkpt>
      <trkpt lat="45.97889" lon="4.78727">
        <ele>236</ele>
        <time>2018-08-06T09:20:54Z</time>
      </trkpt>
      <trkpt lat="45.97893" lon="4.7873">
        <ele>236</ele>
        <time>2018-08-06T09:20:55Z</time>
      </trkpt>
      <trkpt lat="45.97897" lon="4.78733">
        <ele>237</ele>
        <time>2018-08-06T09:20:56Z</time>
      </trkpt>
      <trkpt lat="45.97904" lon="4.78738">
        <ele>237</ele>
        <time>2018-08-06T09:20:58Z</time>
      </trkpt>
      <trkpt lat="45.97908" lon="4.78741">
        <ele>237</ele>
        <time>2018-08-06T09:20:59Z</time>
      </trkpt>
      <trkpt lat="45.97916" lon="4.78746">
        <ele>237</ele>
        <time>2018-08-06T09:21:01Z</time>
      </trkpt>
      <trkpt lat="45.9792" lon="4.78749">
        <ele>237</ele>
        <time>2018-08-06T09:21:02Z</time>
      </trkpt>
      <trkpt lat="45.97924" lon="4.78752">
        <ele>237</ele>
        <time>2018-08-06T09:21:03Z</time>
      </trkpt>
      <trkpt lat="45.97928" lon="4.78755">
        <ele>237</ele>
        <time>2018-08-06T09:21:04Z</time>
      </trkpt>
      <trkpt lat="45.97933" lon="4.7876">
        <ele>238</ele>
        <time>2018-08-06T09:21:05Z</time>
      </trkpt>
      <trkpt lat="45.97937" lon="4.78763">
        <ele>238</ele>
        <time>2018-08-06T09:21:06Z</time>
      </trkpt>
      <trkpt lat="45.97941" lon="4.78766">
        <ele>238</ele>
        <time>2018-08-06T09:21:07Z</time>
      </trkpt>
      <trkpt lat="45.97946" lon="4.78769">
        <ele>238</ele>
        <time>2018-08-06T09:21:08Z</time>
      </trkpt>
      <trkpt lat="45.97951" lon="4.78772">
        <ele>238</ele>
        <time>2018-08-06T09:21:09Z</time>
      </trkpt>
      <trkpt lat="45.97955" lon="4.78775">
        <ele>238</ele>
        <time>2018-08-06T09:21:10Z</time>
      </trkpt>
      <trkpt lat="45.97961" lon="4.78775">
        <ele>238</ele>
        <time>2018-08-06T09:21:11Z</time>
      </trkpt>
      <trkpt lat="45.97965" lon="4.78779">
        <ele>238</ele>
        <time>2018-08-06T09:21:12Z</time>
      </trkpt>
      <trkpt lat="45.97973" lon="4.78784">
        <ele>238</ele>
        <time>2018-08-06T09:21:14Z</time>
      </trkpt>
      <trkpt lat="45.97977" lon="4.78787">
        <ele>238</ele>
        <time>2018-08-06T09:21:15Z</time>
      </trkpt>
      <trkpt lat="45.97981" lon="4.7879">
        <ele>238</ele>
        <time>2018-08-06T09:21:16Z</time>
      </trkpt>
      <trkpt lat="45.97985" lon="4.78793">
        <ele>238</ele>
        <time>2018-08-06T09:21:17Z</time>
      </trkpt>
      <trkpt lat="45.9799" lon="4.78797">
        <ele>238</ele>
        <time>2018-08-06T09:21:18Z</time>
      </trkpt>
      <trkpt lat="45.97993" lon="4.78801">
        <ele>238</ele>
        <time>2018-08-06T09:21:19Z</time>
      </trkpt>
      <trkpt lat="45.98" lon="4.78807">
        <ele>238</ele>
        <time>2018-08-06T09:21:21Z</time>
      </trkpt>
      <trkpt lat="45.98004" lon="4.78809">
        <ele>238</ele>
        <time>2018-08-06T09:21:22Z</time>
      </trkpt>
      <trkpt lat="45.98012" lon="4.78814">
        <ele>238</ele>
        <time>2018-08-06T09:21:24Z</time>
      </trkpt>
      <trkpt lat="45.98017" lon="4.78818">
        <ele>238</ele>
        <time>2018-08-06T09:21:25Z</time>
      </trkpt>
      <trkpt lat="45.98025" lon="4.78823">
        <ele>238</ele>
        <time>2018-08-06T09:21:27Z</time>
      </trkpt>
      <trkpt lat="45.98029" lon="4.78827">
        <ele>238</ele>
        <time>2018-08-06T09:21:28Z</time>
      </trkpt>
      <trkpt lat="45.98033" lon="4.78831">
        <ele>238</ele>
        <time>2018-08-06T09:21:29Z</time>
      </trkpt>
      <trkpt lat="45.98037" lon="4.78834">
        <ele>238</ele>
        <time>2018-08-06T09:21:30Z</time>
      </trkpt>
      <trkpt lat="45.98043" lon="4.78839">
        <ele>238</ele>
        <time>2018-08-06T09:21:31Z</time>
      </trkpt>
      <trkpt lat="45.98048" lon="4.78843">
        <ele>239</ele>
        <time>2018-08-06T09:21:32Z</time>
      </trkpt>
      <trkpt lat="45.98056" lon="4.78848">
        <ele>239</ele>
        <time>2018-08-06T09:21:34Z</time>
      </trkpt>
      <trkpt lat="45.9806" lon="4.78851">
        <ele>239</ele>
        <time>2018-08-06T09:21:35Z</time>
      </trkpt>
      <trkpt lat="45.98067" lon="4.78858">
        <ele>239</ele>
        <time>2018-08-06T09:21:37Z</time>
      </trkpt>
      <trkpt lat="45.9807" lon="4.78858">
        <ele>239</ele>
        <time>2018-08-06T09:21:38Z</time>
      </trkpt>
      <trkpt lat="45.98076" lon="4.7886">
        <ele>239</ele>
        <time>2018-08-06T09:21:39Z</time>
      </trkpt>
      <trkpt lat="45.98081" lon="4.78863">
        <ele>239</ele>
        <time>2018-08-06T09:21:40Z</time>
      </trkpt>
      <trkpt lat="45.98085" lon="4.78866">
        <ele>239</ele>
        <time>2018-08-06T09:21:41Z</time>
      </trkpt>
      <trkpt lat="45.98089" lon="4.78869">
        <ele>239</ele>
        <time>2018-08-06T09:21:42Z</time>
      </trkpt>
      <trkpt lat="45.98093" lon="4.78873">
        <ele>239</ele>
        <time>2018-08-06T09:21:43Z</time>
      </trkpt>
      <trkpt lat="45.98098" lon="4.78875">
        <ele>239</ele>
        <time>2018-08-06T09:21:44Z</time>
      </trkpt>
      <trkpt lat="45.98105" lon="4.78881">
        <ele>240</ele>
        <time>2018-08-06T09:21:46Z</time>
      </trkpt>
      <trkpt lat="45.9811" lon="4.78883">
        <ele>240</ele>
        <time>2018-08-06T09:21:47Z</time>
      </trkpt>
      <trkpt lat="45.98114" lon="4.78886">
        <ele>240</ele>
        <time>2018-08-06T09:21:48Z</time>
      </trkpt>
      <trkpt lat="45.98119" lon="4.78889">
        <ele>240</ele>
        <time>2018-08-06T09:21:49Z</time>
      </trkpt>
      <trkpt lat="45.98126" lon="4.78894">
        <ele>240</ele>
        <time>2018-08-06T09:21:51Z</time>
      </trkpt>
      <trkpt lat="45.9813" lon="4.78898">
        <ele>240</ele>
        <time>2018-08-06T09:21:52Z</time>
      </trkpt>
      <trkpt lat="45.98137" lon="4.78905">
        <ele>240</ele>
        <time>2018-08-06T09:21:54Z</time>
      </trkpt>
      <trkpt lat="45.98138" lon="4.78907">
        <ele>240</ele>
        <time>2018-08-06T09:21:55Z</time>
      </trkpt>
      <trkpt lat="45.98143" lon="4.78909">
        <ele>240</ele>
        <time>2018-08-06T09:21:56Z</time>
      </trkpt>
      <trkpt lat="45.98147" lon="4.78912">
        <ele>240</ele>
        <time>2018-08-06T09:21:57Z</time>
      </trkpt>
      <trkpt lat="45.98149" lon="4.78917">
        <ele>240</ele>
        <time>2018-08-06T09:21:58Z</time>
      </trkpt>
      <trkpt lat="45.98157" lon="4.78916">
        <ele>240</ele>
        <time>2018-08-06T09:21:59Z</time>
      </trkpt>
      <trkpt lat="45.98163" lon="4.78918">
        <ele>240</ele>
        <time>2018-08-06T09:22:00Z</time>
      </trkpt>
      <trkpt lat="45.98168" lon="4.78921">
        <ele>240</ele>
        <time>2018-08-06T09:22:01Z</time>
      </trkpt>
      <trkpt lat="45.98174" lon="4.78924">
        <ele>240</ele>
        <time>2018-08-06T09:22:02Z</time>
      </trkpt>
      <trkpt lat="45.98178" lon="4.78928">
        <ele>240</ele>
        <time>2018-08-06T09:22:03Z</time>
      </trkpt>
      <trkpt lat="45.98184" lon="4.78929">
        <ele>241</ele>
        <time>2018-08-06T09:22:04Z</time>
      </trkpt>
      <trkpt lat="45.98187" lon="4.78933">
        <ele>241</ele>
        <time>2018-08-06T09:22:05Z</time>
      </trkpt>
      <trkpt lat="45.9819" lon="4.78936">
        <ele>241</ele>
        <time>2018-08-06T09:22:06Z</time>
      </trkpt>
      <trkpt lat="45.98195" lon="4.78938">
        <ele>241</ele>
        <time>2018-08-06T09:22:07Z</time>
      </trkpt>
      <trkpt lat="45.982" lon="4.78942">
        <ele>241</ele>
        <time>2018-08-06T09:22:08Z</time>
      </trkpt>
      <trkpt lat="45.98205" lon="4.78943">
        <ele>241</ele>
        <time>2018-08-06T09:22:09Z</time>
      </trkpt>
      <trkpt lat="45.9821" lon="4.78945">
        <ele>241</ele>
        <time>2018-08-06T09:22:10Z</time>
      </trkpt>
      <trkpt lat="45.98213" lon="4.78948">
        <ele>241</ele>
        <time>2018-08-06T09:22:11Z</time>
      </trkpt>
      <trkpt lat="45.98218" lon="4.7895">
        <ele>241</ele>
        <time>2018-08-06T09:22:12Z</time>
      </trkpt>
      <trkpt lat="45.98223" lon="4.78953">
        <ele>241</ele>
        <time>2018-08-06T09:22:13Z</time>
      </trkpt>
      <trkpt lat="45.98228" lon="4.78955">
        <ele>241</ele>
        <time>2018-08-06T09:22:14Z</time>
      </trkpt>
      <trkpt lat="45.98232" lon="4.78956">
        <ele>241</ele>
        <time>2018-08-06T09:22:15Z</time>
      </trkpt>
      <trkpt lat="45.98239" lon="4.78961">
        <ele>241</ele>
        <time>2018-08-06T09:22:17Z</time>
      </trkpt>
      <trkpt lat="45.98244" lon="4.78964">
        <ele>241</ele>
        <time>2018-08-06T09:22:18Z</time>
      </trkpt>
      <trkpt lat="45.98249" lon="4.78966">
        <ele>241</ele>
        <time>2018-08-06T09:22:19Z</time>
      </trkpt>
      <trkpt lat="45.98254" lon="4.78968">
        <ele>241</ele>
        <time>2018-08-06T09:22:20Z</time>
      </trkpt>
      <trkpt lat="45.98262" lon="4.78973">
        <ele>241</ele>
        <time>2018-08-06T09:22:22Z</time>
      </trkpt>
      <trkpt lat="45.98266" lon="4.78976">
        <ele>241</ele>
        <time>2018-08-06T09:22:23Z</time>
      </trkpt>
      <trkpt lat="45.9827" lon="4.78979">
        <ele>241</ele>
        <time>2018-08-06T09:22:24Z</time>
      </trkpt>
      <trkpt lat="45.98275" lon="4.78981">
        <ele>241</ele>
        <time>2018-08-06T09:22:25Z</time>
      </trkpt>
      <trkpt lat="45.98281" lon="4.78985">
        <ele>241</ele>
        <time>2018-08-06T09:22:27Z</time>
      </trkpt>
      <trkpt lat="45.98283" lon="4.78986">
        <ele>241</ele>
        <time>2018-08-06T09:22:28Z</time>
      </trkpt>
      <trkpt lat="45.9829" lon="4.7899">
        <ele>241</ele>
        <time>2018-08-06T09:22:29Z</time>
      </trkpt>
      <trkpt lat="45.98293" lon="4.78992">
        <ele>241</ele>
        <time>2018-08-06T09:22:30Z</time>
      </trkpt>
      <trkpt lat="45.983" lon="4.78999">
        <ele>241</ele>
        <time>2018-08-06T09:22:32Z</time>
      </trkpt>
      <trkpt lat="45.98305" lon="4.78999">
        <ele>241</ele>
        <time>2018-08-06T09:22:33Z</time>
      </trkpt>
      <trkpt lat="45.98309" lon="4.79002">
        <ele>242</ele>
        <time>2018-08-06T09:22:34Z</time>
      </trkpt>
      <trkpt lat="45.98314" lon="4.79004">
        <ele>242</ele>
        <time>2018-08-06T09:22:35Z</time>
      </trkpt>
      <trkpt lat="45.98319" lon="4.79006">
        <ele>242</ele>
        <time>2018-08-06T09:22:36Z</time>
      </trkpt>
      <trkpt lat="45.98323" lon="4.79009">
        <ele>242</ele>
        <time>2018-08-06T09:22:37Z</time>
      </trkpt>
      <trkpt lat="45.98328" lon="4.79011">
        <ele>242</ele>
        <time>2018-08-06T09:22:38Z</time>
      </trkpt>
      <trkpt lat="45.98333" lon="4.79014">
        <ele>242</ele>
        <time>2018-08-06T09:22:39Z</time>
      </trkpt>
      <trkpt lat="45.98337" lon="4.79017">
        <ele>242</ele>
        <time>2018-08-06T09:22:40Z</time>
      </trkpt>
      <trkpt lat="45.98341" lon="4.79021">
        <ele>242</ele>
        <time>2018-08-06T09:22:41Z</time>
      </trkpt>
      <trkpt lat="45.98345" lon="4.79024">
        <ele>242</ele>
        <time>2018-08-06T09:22:42Z</time>
      </trkpt>
      <trkpt lat="45.98349" lon="4.79029">
        <ele>242</ele>
        <time>2018-08-06T09:22:43Z</time>
      </trkpt>
      <trkpt lat="45.98353" lon="4.79033">
        <ele>242</ele>
        <time>2018-08-06T09:22:44Z</time>
      </trkpt>
      <trkpt lat="45.98358" lon="4.79036">
        <ele>242</ele>
        <time>2018-08-06T09:22:45Z</time>
      </trkpt>
      <trkpt lat="45.98361" lon="4.79041">
        <ele>242</ele>
        <time>2018-08-06T09:22:46Z</time>
      </trkpt>
      <trkpt lat="45.98365" lon="4.79047">
        <ele>242</ele>
        <time>2018-08-06T09:22:47Z</time>
      </trkpt>
      <trkpt lat="45.98368" lon="4.79052">
        <ele>242</ele>
        <time>2018-08-06T09:22:48Z</time>
      </trkpt>
      <trkpt lat="45.98372" lon="4.79058">
        <ele>242</ele>
        <time>2018-08-06T09:22:49Z</time>
      </trkpt>
      <trkpt lat="45.98375" lon="4.79064">
        <ele>242</ele>
        <time>2018-08-06T09:22:50Z</time>
      </trkpt>
      <trkpt lat="45.98379" lon="4.7907">
        <ele>242</ele>
        <time>2018-08-06T09:22:51Z</time>
      </trkpt>
      <trkpt lat="45.98382" lon="4.79076">
        <ele>242</ele>
        <time>2018-08-06T09:22:52Z</time>
      </trkpt>
      <trkpt lat="45.98386" lon="4.79081">
        <ele>242</ele>
        <time>2018-08-06T09:22:53Z</time>
      </trkpt>
      <trkpt lat="45.98388" lon="4.79087">
        <ele>242</ele>
        <time>2018-08-06T09:22:54Z</time>
      </trkpt>
      <trkpt lat="45.98391" lon="4.79093">
        <ele>242</ele>
        <time>2018-08-06T09:22:55Z</time>
      </trkpt>
      <trkpt lat="45.98394" lon="4.79099">
        <ele>242</ele>
        <time>2018-08-06T09:22:56Z</time>
      </trkpt>
      <trkpt lat="45.98397" lon="4.79105">
        <ele>242</ele>
        <time>2018-08-06T09:22:57Z</time>
      </trkpt>
      <trkpt lat="45.984" lon="4.7911">
        <ele>242</ele>
        <time>2018-08-06T09:22:58Z</time>
      </trkpt>
      <trkpt lat="45.98404" lon="4.79116">
        <ele>242</ele>
        <time>2018-08-06T09:22:59Z</time>
      </trkpt>
      <trkpt lat="45.98406" lon="4.79122">
        <ele>242</ele>
        <time>2018-08-06T09:23:00Z</time>
      </trkpt>
      <trkpt lat="45.9841" lon="4.79129">
        <ele>242</ele>
        <time>2018-08-06T09:23:01Z</time>
      </trkpt>
      <trkpt lat="45.98413" lon="4.79134">
        <ele>242</ele>
        <time>2018-08-06T09:23:02Z</time>
      </trkpt>
      <trkpt lat="45.98416" lon="4.7914">
        <ele>242</ele>
        <time>2018-08-06T09:23:03Z</time>
      </trkpt>
      <trkpt lat="45.98419" lon="4.79147">
        <ele>242</ele>
        <time>2018-08-06T09:23:04Z</time>
      </trkpt>
      <trkpt lat="45.98422" lon="4.79152">
        <ele>242</ele>
        <time>2018-08-06T09:23:05Z</time>
      </trkpt>
      <trkpt lat="45.98426" lon="4.79163">
        <ele>242</ele>
        <time>2018-08-06T09:23:07Z</time>
      </trkpt>
      <trkpt lat="45.98428" lon="4.79169">
        <ele>242</ele>
        <time>2018-08-06T09:23:08Z</time>
      </trkpt>
      <trkpt lat="45.98431" lon="4.79173">
        <ele>242</ele>
        <time>2018-08-06T09:23:09Z</time>
      </trkpt>
      <trkpt lat="45.98436" lon="4.79179">
        <ele>242</ele>
        <time>2018-08-06T09:23:10Z</time>
      </trkpt>
      <trkpt lat="45.98441" lon="4.79189">
        <ele>242</ele>
        <time>2018-08-06T09:23:12Z</time>
      </trkpt>
      <trkpt lat="45.98443" lon="4.79194">
        <ele>242</ele>
        <time>2018-08-06T09:23:13Z</time>
      </trkpt>
      <trkpt lat="45.98446" lon="4.792">
        <ele>242</ele>
        <time>2018-08-06T09:23:14Z</time>
      </trkpt>
      <trkpt lat="45.98449" lon="4.79205">
        <ele>242</ele>
        <time>2018-08-06T09:23:15Z</time>
      </trkpt>
      <trkpt lat="45.98454" lon="4.79213">
        <ele>242</ele>
        <time>2018-08-06T09:23:17Z</time>
      </trkpt>
      <trkpt lat="45.98457" lon="4.79219">
        <ele>243</ele>
        <time>2018-08-06T09:23:18Z</time>
      </trkpt>
      <trkpt lat="45.98459" lon="4.79225">
        <ele>243</ele>
        <time>2018-08-06T09:23:19Z</time>
      </trkpt>
      <trkpt lat="45.98462" lon="4.79231">
        <ele>243</ele>
        <time>2018-08-06T09:23:20Z</time>
      </trkpt>
      <trkpt lat="45.98464" lon="4.79236">
        <ele>243</ele>
        <time>2018-08-06T09:23:21Z</time>
      </trkpt>
      <trkpt lat="45.98467" lon="4.79242">
        <ele>243</ele>
        <time>2018-08-06T09:23:22Z</time>
      </trkpt>
      <trkpt lat="45.98472" lon="4.79251">
        <ele>243</ele>
        <time>2018-08-06T09:23:24Z</time>
      </trkpt>
      <trkpt lat="45.98475" lon="4.79257">
        <ele>243</ele>
        <time>2018-08-06T09:23:25Z</time>
      </trkpt>
      <trkpt lat="45.98478" lon="4.79262">
        <ele>243</ele>
        <time>2018-08-06T09:23:26Z</time>
      </trkpt>
      <trkpt lat="45.9848" lon="4.79268">
        <ele>243</ele>
        <time>2018-08-06T09:23:27Z</time>
      </trkpt>
      <trkpt lat="45.98483" lon="4.79274">
        <ele>243</ele>
        <time>2018-08-06T09:23:28Z</time>
      </trkpt>
      <trkpt lat="45.98486" lon="4.7928">
        <ele>243</ele>
        <time>2018-08-06T09:23:29Z</time>
      </trkpt>
      <trkpt lat="45.9849" lon="4.7929">
        <ele>243</ele>
        <time>2018-08-06T09:23:31Z</time>
      </trkpt>
      <trkpt lat="45.98493" lon="4.79297">
        <ele>243</ele>
        <time>2018-08-06T09:23:32Z</time>
      </trkpt>
      <trkpt lat="45.98496" lon="4.79304">
        <ele>243</ele>
        <time>2018-08-06T09:23:33Z</time>
      </trkpt>
      <trkpt lat="45.98497" lon="4.7931">
        <ele>243</ele>
        <time>2018-08-06T09:23:34Z</time>
      </trkpt>
      <trkpt lat="45.98499" lon="4.79317">
        <ele>243</ele>
        <time>2018-08-06T09:23:35Z</time>
      </trkpt>
      <trkpt lat="45.98501" lon="4.79324">
        <ele>243</ele>
        <time>2018-08-06T09:23:36Z</time>
      </trkpt>
      <trkpt lat="45.98503" lon="4.7933">
        <ele>243</ele>
        <time>2018-08-06T09:23:37Z</time>
      </trkpt>
      <trkpt lat="45.98506" lon="4.79337">
        <ele>243</ele>
        <time>2018-08-06T09:23:38Z</time>
      </trkpt>
      <trkpt lat="45.98509" lon="4.79346">
        <ele>243</ele>
        <time>2018-08-06T09:23:39Z</time>
      </trkpt>
      <trkpt lat="45.9851" lon="4.79351">
        <ele>243</ele>
        <time>2018-08-06T09:23:40Z</time>
      </trkpt>
      <trkpt lat="45.98513" lon="4.79357">
        <ele>243</ele>
        <time>2018-08-06T09:23:41Z</time>
      </trkpt>
      <trkpt lat="45.98515" lon="4.79363">
        <ele>243</ele>
        <time>2018-08-06T09:23:42Z</time>
      </trkpt>
      <trkpt lat="45.98517" lon="4.79375">
        <ele>244</ele>
        <time>2018-08-06T09:23:44Z</time>
      </trkpt>
      <trkpt lat="45.98518" lon="4.79381">
        <ele>244</ele>
        <time>2018-08-06T09:23:45Z</time>
      </trkpt>
      <trkpt lat="45.98519" lon="4.79388">
        <ele>244</ele>
        <time>2018-08-06T09:23:46Z</time>
      </trkpt>
      <trkpt lat="45.9852" lon="4.79396">
        <ele>244</ele>
        <time>2018-08-06T09:23:47Z</time>
      </trkpt>
      <trkpt lat="45.9852" lon="4.79402">
        <ele>244</ele>
        <time>2018-08-06T09:23:48Z</time>
      </trkpt>
      <trkpt lat="45.9852" lon="4.79409">
        <ele>244</ele>
        <time>2018-08-06T09:23:49Z</time>
      </trkpt>
      <trkpt lat="45.98522" lon="4.79416">
        <ele>244</ele>
        <time>2018-08-06T09:23:50Z</time>
      </trkpt>
      <trkpt lat="45.98523" lon="4.79422">
        <ele>244</ele>
        <time>2018-08-06T09:23:51Z</time>
      </trkpt>
      <trkpt lat="45.98523" lon="4.79429">
        <ele>244</ele>
        <time>2018-08-06T09:23:52Z</time>
      </trkpt>
      <trkpt lat="45.98524" lon="4.79436">
        <ele>244</ele>
        <time>2018-08-06T09:23:53Z</time>
      </trkpt>
      <trkpt lat="45.98522" lon="4.79444">
        <ele>244</ele>
        <time>2018-08-06T09:23:56Z</time>
      </trkpt>
      <trkpt lat="45.98522" lon="4.79456">
        <ele>244</ele>
        <time>2018-08-06T09:23:57Z</time>
      </trkpt>
      <trkpt lat="45.98522" lon="4.79463">
        <ele>244</ele>
        <time>2018-08-06T09:23:58Z</time>
      </trkpt>
      <trkpt lat="45.98523" lon="4.7947">
        <ele>244</ele>
        <time>2018-08-06T09:23:59Z</time>
      </trkpt>
      <trkpt lat="45.98524" lon="4.79482">
        <ele>244</ele>
        <time>2018-08-06T09:24:01Z</time>
      </trkpt>
      <trkpt lat="45.98524" lon="4.79489">
        <ele>244</ele>
        <time>2018-08-06T09:24:02Z</time>
      </trkpt>
      <trkpt lat="45.98524" lon="4.79501">
        <ele>244</ele>
        <time>2018-08-06T09:24:04Z</time>
      </trkpt>
      <trkpt lat="45.98525" lon="4.79507">
        <ele>244</ele>
        <time>2018-08-06T09:24:05Z</time>
      </trkpt>
      <trkpt lat="45.98528" lon="4.79514">
        <ele>244</ele>
        <time>2018-08-06T09:24:06Z</time>
      </trkpt>
      <trkpt lat="45.98529" lon="4.79521">
        <ele>244</ele>
        <time>2018-08-06T09:24:07Z</time>
      </trkpt>
      <trkpt lat="45.98531" lon="4.79526">
        <ele>244</ele>
        <time>2018-08-06T09:24:08Z</time>
      </trkpt>
      <trkpt lat="45.98533" lon="4.79532">
        <ele>244</ele>
        <time>2018-08-06T09:24:09Z</time>
      </trkpt>
      <trkpt lat="45.98536" lon="4.79538">
        <ele>244</ele>
        <time>2018-08-06T09:24:10Z</time>
      </trkpt>
      <trkpt lat="45.98539" lon="4.79544">
        <ele>244</ele>
        <time>2018-08-06T09:24:11Z</time>
      </trkpt>
      <trkpt lat="45.98542" lon="4.79549">
        <ele>244</ele>
        <time>2018-08-06T09:24:12Z</time>
      </trkpt>
      <trkpt lat="45.98544" lon="4.79555">
        <ele>244</ele>
        <time>2018-08-06T09:24:13Z</time>
      </trkpt>
      <trkpt lat="45.98547" lon="4.7956">
        <ele>244</ele>
        <time>2018-08-06T09:24:14Z</time>
      </trkpt>
      <trkpt lat="45.9855" lon="4.79565">
        <ele>244</ele>
        <time>2018-08-06T09:24:15Z</time>
      </trkpt>
      <trkpt lat="45.98553" lon="4.7957">
        <ele>244</ele>
        <time>2018-08-06T09:24:16Z</time>
      </trkpt>
      <trkpt lat="45.98556" lon="4.79574">
        <ele>244</ele>
        <time>2018-08-06T09:24:17Z</time>
      </trkpt>
      <trkpt lat="45.98563" lon="4.79582">
        <ele>244</ele>
        <time>2018-08-06T09:24:19Z</time>
      </trkpt>
      <trkpt lat="45.98566" lon="4.79586">
        <ele>245</ele>
        <time>2018-08-06T09:24:20Z</time>
      </trkpt>
      <trkpt lat="45.98572" lon="4.79592">
        <ele>245</ele>
        <time>2018-08-06T09:24:22Z</time>
      </trkpt>
      <trkpt lat="45.98576" lon="4.79595">
        <ele>245</ele>
        <time>2018-08-06T09:24:23Z</time>
      </trkpt>
      <trkpt lat="45.98583" lon="4.79602">
        <ele>245</ele>
        <time>2018-08-06T09:24:25Z</time>
      </trkpt>
      <trkpt lat="45.98586" lon="4.79606">
        <ele>245</ele>
        <time>2018-08-06T09:24:26Z</time>
      </trkpt>
      <trkpt lat="45.98591" lon="4.79616">
        <ele>245</ele>
        <time>2018-08-06T09:24:28Z</time>
      </trkpt>
      <trkpt lat="45.98594" lon="4.79621">
        <ele>245</ele>
        <time>2018-08-06T09:24:29Z</time>
      </trkpt>
      <trkpt lat="45.98599" lon="4.7963">
        <ele>245</ele>
        <time>2018-08-06T09:24:31Z</time>
      </trkpt>
      <trkpt lat="45.98603" lon="4.79633">
        <ele>245</ele>
        <time>2018-08-06T09:24:32Z</time>
      </trkpt>
      <trkpt lat="45.98608" lon="4.79634">
        <ele>245</ele>
        <time>2018-08-06T09:24:33Z</time>
      </trkpt>
      <trkpt lat="45.98612" lon="4.79636">
        <ele>245</ele>
        <time>2018-08-06T09:24:34Z</time>
      </trkpt>
      <trkpt lat="45.98617" lon="4.79639">
        <ele>245</ele>
        <time>2018-08-06T09:24:35Z</time>
      </trkpt>
      <trkpt lat="45.98622" lon="4.79643">
        <ele>245</ele>
        <time>2018-08-06T09:24:36Z</time>
      </trkpt>
      <trkpt lat="45.98626" lon="4.79647">
        <ele>245</ele>
        <time>2018-08-06T09:24:37Z</time>
      </trkpt>
      <trkpt lat="45.98629" lon="4.79652">
        <ele>245</ele>
        <time>2018-08-06T09:24:38Z</time>
      </trkpt>
      <trkpt lat="45.98632" lon="4.79658">
        <ele>245</ele>
        <time>2018-08-06T09:24:39Z</time>
      </trkpt>
      <trkpt lat="45.98636" lon="4.79662">
        <ele>245</ele>
        <time>2018-08-06T09:24:40Z</time>
      </trkpt>
      <trkpt lat="45.98641" lon="4.79672">
        <ele>245</ele>
        <time>2018-08-06T09:24:42Z</time>
      </trkpt>
      <trkpt lat="45.98645" lon="4.79677">
        <ele>245</ele>
        <time>2018-08-06T09:24:43Z</time>
      </trkpt>
      <trkpt lat="45.98649" lon="4.79681">
        <ele>245</ele>
        <time>2018-08-06T09:24:44Z</time>
      </trkpt>
      <trkpt lat="45.98652" lon="4.79688">
        <ele>245</ele>
        <time>2018-08-06T09:24:45Z</time>
      </trkpt>
      <trkpt lat="45.98656" lon="4.79693">
        <ele>245</ele>
        <time>2018-08-06T09:24:46Z</time>
      </trkpt>
      <trkpt lat="45.9866" lon="4.79698">
        <ele>245</ele>
        <time>2018-08-06T09:24:47Z</time>
      </trkpt>
      <trkpt lat="45.98665" lon="4.79703">
        <ele>245</ele>
        <time>2018-08-06T09:24:48Z</time>
      </trkpt>
      <trkpt lat="45.98669" lon="4.79707">
        <ele>245</ele>
        <time>2018-08-06T09:24:49Z</time>
      </trkpt>
      <trkpt lat="45.98673" lon="4.79711">
        <ele>245</ele>
        <time>2018-08-06T09:24:50Z</time>
      </trkpt>
      <trkpt lat="45.98677" lon="4.79715">
        <ele>245</ele>
        <time>2018-08-06T09:24:51Z</time>
      </trkpt>
      <trkpt lat="45.98681" lon="4.79718">
        <ele>245</ele>
        <time>2018-08-06T09:24:52Z</time>
      </trkpt>
      <trkpt lat="45.98686" lon="4.79719">
        <ele>245</ele>
        <time>2018-08-06T09:24:53Z</time>
      </trkpt>
      <trkpt lat="45.98694" lon="4.79723">
        <ele>245</ele>
        <time>2018-08-06T09:24:55Z</time>
      </trkpt>
      <trkpt lat="45.98698" lon="4.79726">
        <ele>245</ele>
        <time>2018-08-06T09:24:56Z</time>
      </trkpt>
      <trkpt lat="45.98704" lon="4.79725">
        <ele>245</ele>
        <time>2018-08-06T09:24:57Z</time>
      </trkpt>
      <trkpt lat="45.98709" lon="4.79725">
        <ele>245</ele>
        <time>2018-08-06T09:24:58Z</time>
      </trkpt>
      <trkpt lat="45.98715" lon="4.79728">
        <ele>245</ele>
        <time>2018-08-06T09:24:59Z</time>
      </trkpt>
      <trkpt lat="45.9872" lon="4.79731">
        <ele>245</ele>
        <time>2018-08-06T09:25:00Z</time>
      </trkpt>
      <trkpt lat="45.98724" lon="4.79735">
        <ele>245</ele>
        <time>2018-08-06T09:25:01Z</time>
      </trkpt>
      <trkpt lat="45.98729" lon="4.79738">
        <ele>245</ele>
        <time>2018-08-06T09:25:02Z</time>
      </trkpt>
      <trkpt lat="45.98735" lon="4.79741">
        <ele>245</ele>
        <time>2018-08-06T09:25:03Z</time>
      </trkpt>
      <trkpt lat="45.9874" lon="4.79747">
        <ele>245</ele>
        <time>2018-08-06T09:25:04Z</time>
      </trkpt>
      <trkpt lat="45.98745" lon="4.7975">
        <ele>245</ele>
        <time>2018-08-06T09:25:05Z</time>
      </trkpt>
      <trkpt lat="45.98749" lon="4.79755">
        <ele>245</ele>
        <time>2018-08-06T09:25:06Z</time>
      </trkpt>
      <trkpt lat="45.98755" lon="4.79759">
        <ele>245</ele>
        <time>2018-08-06T09:25:07Z</time>
      </trkpt>
      <trkpt lat="45.98759" lon="4.79764">
        <ele>245</ele>
        <time>2018-08-06T09:25:08Z</time>
      </trkpt>
      <trkpt lat="45.98764" lon="4.79769">
        <ele>245</ele>
        <time>2018-08-06T09:25:09Z</time>
      </trkpt>
      <trkpt lat="45.98768" lon="4.79773">
        <ele>245</ele>
        <time>2018-08-06T09:25:10Z</time>
      </trkpt>
      <trkpt lat="45.98772" lon="4.79777">
        <ele>245</ele>
        <time>2018-08-06T09:25:11Z</time>
      </trkpt>
      <trkpt lat="45.98777" lon="4.79782">
        <ele>245</ele>
        <time>2018-08-06T09:25:12Z</time>
      </trkpt>
      <trkpt lat="45.98782" lon="4.79787">
        <ele>245</ele>
        <time>2018-08-06T09:25:13Z</time>
      </trkpt>
      <trkpt lat="45.98786" lon="4.79793">
        <ele>245</ele>
        <time>2018-08-06T09:25:14Z</time>
      </trkpt>
      <trkpt lat="45.9879" lon="4.79799">
        <ele>245</ele>
        <time>2018-08-06T09:25:15Z</time>
      </trkpt>
      <trkpt lat="45.98795" lon="4.79805">
        <ele>245</ele>
        <time>2018-08-06T09:25:16Z</time>
      </trkpt>
      <trkpt lat="45.98799" lon="4.7981">
        <ele>245</ele>
        <time>2018-08-06T09:25:17Z</time>
      </trkpt>
      <trkpt lat="45.98804" lon="4.79816">
        <ele>245</ele>
        <time>2018-08-06T09:25:18Z</time>
      </trkpt>
      <trkpt lat="45.98808" lon="4.79821">
        <ele>245</ele>
        <time>2018-08-06T09:25:19Z</time>
      </trkpt>
      <trkpt lat="45.98813" lon="4.79826">
        <ele>245</ele>
        <time>2018-08-06T09:25:20Z</time>
      </trkpt>
      <trkpt lat="45.98818" lon="4.79832">
        <ele>244</ele>
        <time>2018-08-06T09:25:21Z</time>
      </trkpt>
      <trkpt lat="45.98823" lon="4.79837">
        <ele>244</ele>
        <time>2018-08-06T09:25:22Z</time>
      </trkpt>
      <trkpt lat="45.98828" lon="4.79842">
        <ele>244</ele>
        <time>2018-08-06T09:25:23Z</time>
      </trkpt>
      <trkpt lat="45.98832" lon="4.79847">
        <ele>243</ele>
        <time>2018-08-06T09:25:24Z</time>
      </trkpt>
      <trkpt lat="45.98837" lon="4.79852">
        <ele>244</ele>
        <time>2018-08-06T09:25:25Z</time>
      </trkpt>
      <trkpt lat="45.98841" lon="4.79856">
        <ele>244</ele>
        <time>2018-08-06T09:25:26Z</time>
      </trkpt>
      <trkpt lat="45.98846" lon="4.79862">
        <ele>244</ele>
        <time>2018-08-06T09:25:27Z</time>
      </trkpt>
      <trkpt lat="45.98851" lon="4.79867">
        <ele>244</ele>
        <time>2018-08-06T09:25:28Z</time>
      </trkpt>
      <trkpt lat="45.98855" lon="4.79872">
        <ele>244</ele>
        <time>2018-08-06T09:25:29Z</time>
      </trkpt>
      <trkpt lat="45.9886" lon="4.79876">
        <ele>244</ele>
        <time>2018-08-06T09:25:30Z</time>
      </trkpt>
      <trkpt lat="45.98864" lon="4.79882">
        <ele>244</ele>
        <time>2018-08-06T09:25:31Z</time>
      </trkpt>
      <trkpt lat="45.9887" lon="4.79888">
        <ele>244</ele>
        <time>2018-08-06T09:25:32Z</time>
      </trkpt>
      <trkpt lat="45.98875" lon="4.79893">
        <ele>244</ele>
        <time>2018-08-06T09:25:33Z</time>
      </trkpt>
      <trkpt lat="45.9888" lon="4.79899">
        <ele>244</ele>
        <time>2018-08-06T09:25:34Z</time>
      </trkpt>
      <trkpt lat="45.98884" lon="4.79905">
        <ele>244</ele>
        <time>2018-08-06T09:25:35Z</time>
      </trkpt>
      <trkpt lat="45.98889" lon="4.79911">
        <ele>244</ele>
        <time>2018-08-06T09:25:36Z</time>
      </trkpt>
      <trkpt lat="45.98894" lon="4.79917">
        <ele>244</ele>
        <time>2018-08-06T09:25:37Z</time>
      </trkpt>
      <trkpt lat="45.98898" lon="4.79922">
        <ele>244</ele>
        <time>2018-08-06T09:25:38Z</time>
      </trkpt>
      <trkpt lat="45.98903" lon="4.79927">
        <ele>244</ele>
        <time>2018-08-06T09:25:39Z</time>
      </trkpt>
      <trkpt lat="45.98907" lon="4.79932">
        <ele>244</ele>
        <time>2018-08-06T09:25:40Z</time>
      </trkpt>
      <trkpt lat="45.98911" lon="4.79937">
        <ele>244</ele>
        <time>2018-08-06T09:25:41Z</time>
      </trkpt>
      <trkpt lat="45.98917" lon="4.79943">
        <ele>245</ele>
        <time>2018-08-06T09:25:42Z</time>
      </trkpt>
      <trkpt lat="45.98922" lon="4.79948">
        <ele>245</ele>
        <time>2018-08-06T09:25:43Z</time>
      </trkpt>
      <trkpt lat="45.98926" lon="4.79953">
        <ele>245</ele>
        <time>2018-08-06T09:25:44Z</time>
      </trkpt>
      <trkpt lat="45.9893" lon="4.79958">
        <ele>245</ele>
        <time>2018-08-06T09:25:45Z</time>
      </trkpt>
      <trkpt lat="45.98933" lon="4.79963">
        <ele>245</ele>
        <time>2018-08-06T09:25:46Z</time>
      </trkpt>
      <trkpt lat="45.98938" lon="4.79968">
        <ele>245</ele>
        <time>2018-08-06T09:25:47Z</time>
      </trkpt>
      <trkpt lat="45.98941" lon="4.79972">
        <ele>245</ele>
        <time>2018-08-06T09:25:48Z</time>
      </trkpt>
      <trkpt lat="45.98945" lon="4.79976">
        <ele>245</ele>
        <time>2018-08-06T09:25:49Z</time>
      </trkpt>
      <trkpt lat="45.98948" lon="4.79981">
        <ele>245</ele>
        <time>2018-08-06T09:25:50Z</time>
      </trkpt>
      <trkpt lat="45.98952" lon="4.79987">
        <ele>245</ele>
        <time>2018-08-06T09:25:51Z</time>
      </trkpt>
      <trkpt lat="45.98956" lon="4.79991">
        <ele>245</ele>
        <time>2018-08-06T09:25:52Z</time>
      </trkpt>
      <trkpt lat="45.9896" lon="4.79995">
        <ele>245</ele>
        <time>2018-08-06T09:25:53Z</time>
      </trkpt>
      <trkpt lat="45.98964" lon="4.79999">
        <ele>245</ele>
        <time>2018-08-06T09:25:54Z</time>
      </trkpt>
      <trkpt lat="45.98968" lon="4.80003">
        <ele>243</ele>
        <time>2018-08-06T09:25:55Z</time>
      </trkpt>
      <trkpt lat="45.98972" lon="4.80007">
        <ele>243</ele>
        <time>2018-08-06T09:25:56Z</time>
      </trkpt>
      <trkpt lat="45.98976" lon="4.80012">
        <ele>243</ele>
        <time>2018-08-06T09:25:57Z</time>
      </trkpt>
      <trkpt lat="45.98979" lon="4.80016">
        <ele>243</ele>
        <time>2018-08-06T09:25:58Z</time>
      </trkpt>
      <trkpt lat="45.98983" lon="4.8002">
        <ele>243</ele>
        <time>2018-08-06T09:25:59Z</time>
      </trkpt>
      <trkpt lat="45.98987" lon="4.80026">
        <ele>243</ele>
        <time>2018-08-06T09:26:00Z</time>
      </trkpt>
      <trkpt lat="45.98991" lon="4.80031">
        <ele>242</ele>
        <time>2018-08-06T09:26:01Z</time>
      </trkpt>
      <trkpt lat="45.98996" lon="4.80035">
        <ele>242</ele>
        <time>2018-08-06T09:26:02Z</time>
      </trkpt>
      <trkpt lat="45.99001" lon="4.80041">
        <ele>244</ele>
        <time>2018-08-06T09:26:03Z</time>
      </trkpt>
      <trkpt lat="45.99005" lon="4.80046">
        <ele>244</ele>
        <time>2018-08-06T09:26:04Z</time>
      </trkpt>
      <trkpt lat="45.9901" lon="4.80052">
        <ele>243</ele>
        <time>2018-08-06T09:26:05Z</time>
      </trkpt>
      <trkpt lat="45.99014" lon="4.80057">
        <ele>243</ele>
        <time>2018-08-06T09:26:06Z</time>
      </trkpt>
      <trkpt lat="45.99019" lon="4.80063">
        <ele>243</ele>
        <time>2018-08-06T09:26:07Z</time>
      </trkpt>
      <trkpt lat="45.99024" lon="4.80068">
        <ele>243</ele>
        <time>2018-08-06T09:26:08Z</time>
      </trkpt>
      <trkpt lat="45.99029" lon="4.80074">
        <ele>243</ele>
        <time>2018-08-06T09:26:09Z</time>
      </trkpt>
      <trkpt lat="45.99034" lon="4.80079">
        <ele>243</ele>
        <time>2018-08-06T09:26:10Z</time>
      </trkpt>
      <trkpt lat="45.99038" lon="4.80084">
        <ele>242</ele>
        <time>2018-08-06T09:26:11Z</time>
      </trkpt>
      <trkpt lat="45.99043" lon="4.8009">
        <ele>242</ele>
        <time>2018-08-06T09:26:12Z</time>
      </trkpt>
      <trkpt lat="45.99047" lon="4.80095">
        <ele>242</ele>
        <time>2018-08-06T09:26:13Z</time>
      </trkpt>
      <trkpt lat="45.99052" lon="4.80101">
        <ele>242</ele>
        <time>2018-08-06T09:26:14Z</time>
      </trkpt>
      <trkpt lat="45.99058" lon="4.80106">
        <ele>242</ele>
        <time>2018-08-06T09:26:15Z</time>
      </trkpt>
      <trkpt lat="45.99063" lon="4.80112">
        <ele>242</ele>
        <time>2018-08-06T09:26:16Z</time>
      </trkpt>
      <trkpt lat="45.99067" lon="4.80118">
        <ele>242</ele>
        <time>2018-08-06T09:26:17Z</time>
      </trkpt>
      <trkpt lat="45.99072" lon="4.80124">
        <ele>242</ele>
        <time>2018-08-06T09:26:18Z</time>
      </trkpt>
      <trkpt lat="45.99076" lon="4.8013">
        <ele>242</ele>
        <time>2018-08-06T09:26:19Z</time>
      </trkpt>
      <trkpt lat="45.9908" lon="4.80135">
        <ele>242</ele>
        <time>2018-08-06T09:26:20Z</time>
      </trkpt>
      <trkpt lat="45.99085" lon="4.8014">
        <ele>243</ele>
        <time>2018-08-06T09:26:21Z</time>
      </trkpt>
      <trkpt lat="45.99089" lon="4.80145">
        <ele>243</ele>
        <time>2018-08-06T09:26:22Z</time>
      </trkpt>
      <trkpt lat="45.99093" lon="4.8015">
        <ele>243</ele>
        <time>2018-08-06T09:26:23Z</time>
      </trkpt>
      <trkpt lat="45.99097" lon="4.80154">
        <ele>243</ele>
        <time>2018-08-06T09:26:24Z</time>
      </trkpt>
      <trkpt lat="45.99101" lon="4.80159">
        <ele>243</ele>
        <time>2018-08-06T09:26:25Z</time>
      </trkpt>
      <trkpt lat="45.99105" lon="4.80163">
        <ele>243</ele>
        <time>2018-08-06T09:26:26Z</time>
      </trkpt>
      <trkpt lat="45.99109" lon="4.80168">
        <ele>242</ele>
        <time>2018-08-06T09:26:27Z</time>
      </trkpt>
      <trkpt lat="45.99112" lon="4.80172">
        <ele>242</ele>
        <time>2018-08-06T09:26:28Z</time>
      </trkpt>
      <trkpt lat="45.99117" lon="4.80176">
        <ele>242</ele>
        <time>2018-08-06T09:26:29Z</time>
      </trkpt>
      <trkpt lat="45.99121" lon="4.80181">
        <ele>242</ele>
        <time>2018-08-06T09:26:30Z</time>
      </trkpt>
      <trkpt lat="45.99125" lon="4.80186">
        <ele>242</ele>
        <time>2018-08-06T09:26:31Z</time>
      </trkpt>
      <trkpt lat="45.99129" lon="4.80191">
        <ele>242</ele>
        <time>2018-08-06T09:26:32Z</time>
      </trkpt>
      <trkpt lat="45.99133" lon="4.80197">
        <ele>242</ele>
        <time>2018-08-06T09:26:33Z</time>
      </trkpt>
      <trkpt lat="45.9914" lon="4.80202">
        <ele>242</ele>
        <time>2018-08-06T09:26:34Z</time>
      </trkpt>
      <trkpt lat="45.99145" lon="4.80206">
        <ele>242</ele>
        <time>2018-08-06T09:26:35Z</time>
      </trkpt>
      <trkpt lat="45.99151" lon="4.80211">
        <ele>242</ele>
        <time>2018-08-06T09:26:36Z</time>
      </trkpt>
      <trkpt lat="45.99154" lon="4.80216">
        <ele>242</ele>
        <time>2018-08-06T09:26:37Z</time>
      </trkpt>
      <trkpt lat="45.99157" lon="4.80222">
        <ele>241</ele>
        <time>2018-08-06T09:26:38Z</time>
      </trkpt>
      <trkpt lat="45.99162" lon="4.80227">
        <ele>241</ele>
        <time>2018-08-06T09:26:39Z</time>
      </trkpt>
      <trkpt lat="45.99166" lon="4.80231">
        <ele>241</ele>
        <time>2018-08-06T09:26:40Z</time>
      </trkpt>
      <trkpt lat="45.99171" lon="4.80235">
        <ele>242</ele>
        <time>2018-08-06T09:26:41Z</time>
      </trkpt>
      <trkpt lat="45.99175" lon="4.80239">
        <ele>242</ele>
        <time>2018-08-06T09:26:42Z</time>
      </trkpt>
      <trkpt lat="45.9918" lon="4.80245">
        <ele>242</ele>
        <time>2018-08-06T09:26:43Z</time>
      </trkpt>
      <trkpt lat="45.99184" lon="4.8025">
        <ele>242</ele>
        <time>2018-08-06T09:26:44Z</time>
      </trkpt>
      <trkpt lat="45.99189" lon="4.80255">
        <ele>242</ele>
        <time>2018-08-06T09:26:45Z</time>
      </trkpt>
      <trkpt lat="45.99193" lon="4.80261">
        <ele>242</ele>
        <time>2018-08-06T09:26:46Z</time>
      </trkpt>
      <trkpt lat="45.99198" lon="4.80266">
        <ele>242</ele>
        <time>2018-08-06T09:26:47Z</time>
      </trkpt>
      <trkpt lat="45.99202" lon="4.80271">
        <ele>242</ele>
        <time>2018-08-06T09:26:48Z</time>
      </trkpt>
      <trkpt lat="45.99206" lon="4.80277">
        <ele>242</ele>
        <time>2018-08-06T09:26:49Z</time>
      </trkpt>
      <trkpt lat="45.9921" lon="4.80283">
        <ele>242</ele>
        <time>2018-08-06T09:26:50Z</time>
      </trkpt>
      <trkpt lat="45.99214" lon="4.80289">
        <ele>242</ele>
        <time>2018-08-06T09:26:51Z</time>
      </trkpt>
      <trkpt lat="45.99218" lon="4.80296">
        <ele>242</ele>
        <time>2018-08-06T09:26:52Z</time>
      </trkpt>
      <trkpt lat="45.99223" lon="4.80302">
        <ele>242</ele>
        <time>2018-08-06T09:26:53Z</time>
      </trkpt>
      <trkpt lat="45.99226" lon="4.80309">
        <ele>242</ele>
        <time>2018-08-06T09:26:54Z</time>
      </trkpt>
      <trkpt lat="45.9923" lon="4.80315">
        <ele>243</ele>
        <time>2018-08-06T09:26:55Z</time>
      </trkpt>
      <trkpt lat="45.99233" lon="4.80322">
        <ele>243</ele>
        <time>2018-08-06T09:26:56Z</time>
      </trkpt>
      <trkpt lat="45.99237" lon="4.80328">
        <ele>243</ele>
        <time>2018-08-06T09:26:57Z</time>
      </trkpt>
      <trkpt lat="45.9924" lon="4.80334">
        <ele>243</ele>
        <time>2018-08-06T09:26:58Z</time>
      </trkpt>
      <trkpt lat="45.99244" lon="4.8034">
        <ele>243</ele>
        <time>2018-08-06T09:26:59Z</time>
      </trkpt>
      <trkpt lat="45.99247" lon="4.80346">
        <ele>242</ele>
        <time>2018-08-06T09:27:00Z</time>
      </trkpt>
      <trkpt lat="45.9925" lon="4.80352">
        <ele>242</ele>
        <time>2018-08-06T09:27:01Z</time>
      </trkpt>
      <trkpt lat="45.99253" lon="4.80357">
        <ele>243</ele>
        <time>2018-08-06T09:27:02Z</time>
      </trkpt>
      <trkpt lat="45.99256" lon="4.80362">
        <ele>243</ele>
        <time>2018-08-06T09:27:03Z</time>
      </trkpt>
      <trkpt lat="45.9926" lon="4.80367">
        <ele>243</ele>
        <time>2018-08-06T09:27:04Z</time>
      </trkpt>
      <trkpt lat="45.99264" lon="4.80372">
        <ele>243</ele>
        <time>2018-08-06T09:27:05Z</time>
      </trkpt>
      <trkpt lat="45.99268" lon="4.80377">
        <ele>242</ele>
        <time>2018-08-06T09:27:06Z</time>
      </trkpt>
      <trkpt lat="45.99273" lon="4.80381">
        <ele>242</ele>
        <time>2018-08-06T09:27:07Z</time>
      </trkpt>
      <trkpt lat="45.99279" lon="4.80386">
        <ele>242</ele>
        <time>2018-08-06T09:27:08Z</time>
      </trkpt>
      <trkpt lat="45.99282" lon="4.80392">
        <ele>242</ele>
        <time>2018-08-06T09:27:09Z</time>
      </trkpt>
      <trkpt lat="45.99286" lon="4.80397">
        <ele>242</ele>
        <time>2018-08-06T09:27:10Z</time>
      </trkpt>
      <trkpt lat="45.99291" lon="4.80403">
        <ele>242</ele>
        <time>2018-08-06T09:27:11Z</time>
      </trkpt>
      <trkpt lat="45.99293" lon="4.80411">
        <ele>242</ele>
        <time>2018-08-06T09:27:12Z</time>
      </trkpt>
      <trkpt lat="45.99297" lon="4.80417">
        <ele>241</ele>
        <time>2018-08-06T09:27:13Z</time>
      </trkpt>
      <trkpt lat="45.99299" lon="4.80425">
        <ele>241</ele>
        <time>2018-08-06T09:27:14Z</time>
      </trkpt>
      <trkpt lat="45.99302" lon="4.80431">
        <ele>241</ele>
        <time>2018-08-06T09:27:15Z</time>
      </trkpt>
      <trkpt lat="45.99304" lon="4.80438">
        <ele>241</ele>
        <time>2018-08-06T09:27:16Z</time>
      </trkpt>
      <trkpt lat="45.99305" lon="4.80445">
        <ele>241</ele>
        <time>2018-08-06T09:27:17Z</time>
      </trkpt>
      <trkpt lat="45.99306" lon="4.80454">
        <ele>241</ele>
        <time>2018-08-06T09:27:18Z</time>
      </trkpt>
      <trkpt lat="45.99307" lon="4.80462">
        <ele>241</ele>
        <time>2018-08-06T09:27:19Z</time>
      </trkpt>
      <trkpt lat="45.99308" lon="4.80469">
        <ele>241</ele>
        <time>2018-08-06T09:27:20Z</time>
      </trkpt>
      <trkpt lat="45.99309" lon="4.80476">
        <ele>241</ele>
        <time>2018-08-06T09:27:21Z</time>
      </trkpt>
      <trkpt lat="45.9931" lon="4.80484">
        <ele>241</ele>
        <time>2018-08-06T09:27:22Z</time>
      </trkpt>
      <trkpt lat="45.99311" lon="4.80491">
        <ele>241</ele>
        <time>2018-08-06T09:27:23Z</time>
      </trkpt>
      <trkpt lat="45.99312" lon="4.80498">
        <ele>241</ele>
        <time>2018-08-06T09:27:24Z</time>
      </trkpt>
      <trkpt lat="45.99314" lon="4.80507">
        <ele>241</ele>
        <time>2018-08-06T09:27:25Z</time>
      </trkpt>
      <trkpt lat="45.99315" lon="4.80515">
        <ele>241</ele>
        <time>2018-08-06T09:27:26Z</time>
      </trkpt>
      <trkpt lat="45.99316" lon="4.80522">
        <ele>241</ele>
        <time>2018-08-06T09:27:27Z</time>
      </trkpt>
      <trkpt lat="45.99317" lon="4.8053">
        <ele>241</ele>
        <time>2018-08-06T09:27:28Z</time>
      </trkpt>
      <trkpt lat="45.99318" lon="4.80536">
        <ele>241</ele>
        <time>2018-08-06T09:27:29Z</time>
      </trkpt>
      <trkpt lat="45.99319" lon="4.80544">
        <ele>241</ele>
        <time>2018-08-06T09:27:30Z</time>
      </trkpt>
      <trkpt lat="45.99321" lon="4.80551">
        <ele>241</ele>
        <time>2018-08-06T09:27:31Z</time>
      </trkpt>
      <trkpt lat="45.99322" lon="4.80558">
        <ele>242</ele>
        <time>2018-08-06T09:27:32Z</time>
      </trkpt>
      <trkpt lat="45.99322" lon="4.80565">
        <ele>242</ele>
        <time>2018-08-06T09:27:33Z</time>
      </trkpt>
      <trkpt lat="45.99324" lon="4.80572">
        <ele>242</ele>
        <time>2018-08-06T09:27:34Z</time>
      </trkpt>
      <trkpt lat="45.99324" lon="4.80579">
        <ele>242</ele>
        <time>2018-08-06T09:27:35Z</time>
      </trkpt>
      <trkpt lat="45.99325" lon="4.80586">
        <ele>242</ele>
        <time>2018-08-06T09:27:36Z</time>
      </trkpt>
      <trkpt lat="45.99326" lon="4.80594">
        <ele>242</ele>
        <time>2018-08-06T09:27:37Z</time>
      </trkpt>
      <trkpt lat="45.99326" lon="4.80602">
        <ele>243</ele>
        <time>2018-08-06T09:27:38Z</time>
      </trkpt>
      <trkpt lat="45.99328" lon="4.8061">
        <ele>243</ele>
        <time>2018-08-06T09:27:39Z</time>
      </trkpt>
      <trkpt lat="45.99329" lon="4.80617">
        <ele>243</ele>
        <time>2018-08-06T09:27:40Z</time>
      </trkpt>
      <trkpt lat="45.99329" lon="4.80625">
        <ele>243</ele>
        <time>2018-08-06T09:27:41Z</time>
      </trkpt>
      <trkpt lat="45.9933" lon="4.80632">
        <ele>243</ele>
        <time>2018-08-06T09:27:42Z</time>
      </trkpt>
      <trkpt lat="45.99332" lon="4.80645">
        <ele>243</ele>
        <time>2018-08-06T09:27:44Z</time>
      </trkpt>
      <trkpt lat="45.99333" lon="4.80651">
        <ele>244</ele>
        <time>2018-08-06T09:27:45Z</time>
      </trkpt>
      <trkpt lat="45.99335" lon="4.80658">
        <ele>244</ele>
        <time>2018-08-06T09:27:47Z</time>
      </trkpt>
      <trkpt lat="45.99339" lon="4.80665">
        <ele>244</ele>
        <time>2018-08-06T09:27:48Z</time>
      </trkpt>
      <trkpt lat="45.99341" lon="4.80677">
        <ele>244</ele>
        <time>2018-08-06T09:27:50Z</time>
      </trkpt>
      <trkpt lat="45.99342" lon="4.80684">
        <ele>244</ele>
        <time>2018-08-06T09:27:51Z</time>
      </trkpt>
      <trkpt lat="45.99343" lon="4.80695">
        <ele>244</ele>
        <time>2018-08-06T09:27:53Z</time>
      </trkpt>
      <trkpt lat="45.99343" lon="4.80701">
        <ele>244</ele>
        <time>2018-08-06T09:27:54Z</time>
      </trkpt>
      <trkpt lat="45.99345" lon="4.80714">
        <ele>244</ele>
        <time>2018-08-06T09:27:56Z</time>
      </trkpt>
      <trkpt lat="45.99346" lon="4.80719">
        <ele>244</ele>
        <time>2018-08-06T09:27:57Z</time>
      </trkpt>
      <trkpt lat="45.99348" lon="4.80731">
        <ele>245</ele>
        <time>2018-08-06T09:27:59Z</time>
      </trkpt>
      <trkpt lat="45.99349" lon="4.80738">
        <ele>245</ele>
        <time>2018-08-06T09:28:00Z</time>
      </trkpt>
      <trkpt lat="45.9935" lon="4.8075">
        <ele>245</ele>
        <time>2018-08-06T09:28:02Z</time>
      </trkpt>
      <trkpt lat="45.9935" lon="4.80756">
        <ele>245</ele>
        <time>2018-08-06T09:28:03Z</time>
      </trkpt>
      <trkpt lat="45.99351" lon="4.80768">
        <ele>245</ele>
        <time>2018-08-06T09:28:05Z</time>
      </trkpt>
      <trkpt lat="45.99352" lon="4.80774">
        <ele>245</ele>
        <time>2018-08-06T09:28:06Z</time>
      </trkpt>
      <trkpt lat="45.99354" lon="4.80784">
        <ele>246</ele>
        <time>2018-08-06T09:28:08Z</time>
      </trkpt>
      <trkpt lat="45.99354" lon="4.8079">
        <ele>246</ele>
        <time>2018-08-06T09:28:09Z</time>
      </trkpt>
      <trkpt lat="45.99356" lon="4.808">
        <ele>246</ele>
        <time>2018-08-06T09:28:11Z</time>
      </trkpt>
      <trkpt lat="45.99358" lon="4.80809">
        <ele>246</ele>
        <time>2018-08-06T09:28:12Z</time>
      </trkpt>
      <trkpt lat="45.99359" lon="4.80819">
        <ele>246</ele>
        <time>2018-08-06T09:28:14Z</time>
      </trkpt>
      <trkpt lat="45.99359" lon="4.80826">
        <ele>246</ele>
        <time>2018-08-06T09:28:15Z</time>
      </trkpt>
      <trkpt lat="45.99358" lon="4.80837">
        <ele>247</ele>
        <time>2018-08-06T09:28:17Z</time>
      </trkpt>
      <trkpt lat="45.99358" lon="4.80839">
        <ele>247</ele>
        <time>2018-08-06T09:28:18Z</time>
      </trkpt>
      <trkpt lat="45.9936" lon="4.80851">
        <ele>248</ele>
        <time>2018-08-06T09:28:20Z</time>
      </trkpt>
      <trkpt lat="45.9936" lon="4.80856">
        <ele>248</ele>
        <time>2018-08-06T09:28:21Z</time>
      </trkpt>
      <trkpt lat="45.99361" lon="4.80868">
        <ele>248</ele>
        <time>2018-08-06T09:28:23Z</time>
      </trkpt>
      <trkpt lat="45.99361" lon="4.80874">
        <ele>248</ele>
        <time>2018-08-06T09:28:24Z</time>
      </trkpt>
      <trkpt lat="45.99362" lon="4.8088">
        <ele>248</ele>
        <time>2018-08-06T09:28:25Z</time>
      </trkpt>
      <trkpt lat="45.99363" lon="4.80886">
        <ele>248</ele>
        <time>2018-08-06T09:28:26Z</time>
      </trkpt>
      <trkpt lat="45.99365" lon="4.80897">
        <ele>248</ele>
        <time>2018-08-06T09:28:28Z</time>
      </trkpt>
      <trkpt lat="45.99365" lon="4.80902">
        <ele>248</ele>
        <time>2018-08-06T09:28:29Z</time>
      </trkpt>
      <trkpt lat="45.99367" lon="4.80914">
        <ele>249</ele>
        <time>2018-08-06T09:28:31Z</time>
      </trkpt>
      <trkpt lat="45.99368" lon="4.8092">
        <ele>250</ele>
        <time>2018-08-06T09:28:32Z</time>
      </trkpt>
      <trkpt lat="45.99369" lon="4.80925">
        <ele>250</ele>
        <time>2018-08-06T09:28:33Z</time>
      </trkpt>
      <trkpt lat="45.9937" lon="4.80932">
        <ele>250</ele>
        <time>2018-08-06T09:28:34Z</time>
      </trkpt>
      <trkpt lat="45.99371" lon="4.8094">
        <ele>250</ele>
        <time>2018-08-06T09:28:35Z</time>
      </trkpt>
      <trkpt lat="45.99372" lon="4.80947">
        <ele>250</ele>
        <time>2018-08-06T09:28:36Z</time>
      </trkpt>
      <trkpt lat="45.99373" lon="4.80958">
        <ele>250</ele>
        <time>2018-08-06T09:28:38Z</time>
      </trkpt>
      <trkpt lat="45.99374" lon="4.80963">
        <ele>250</ele>
        <time>2018-08-06T09:28:39Z</time>
      </trkpt>
      <trkpt lat="45.99375" lon="4.8097">
        <ele>250</ele>
        <time>2018-08-06T09:28:40Z</time>
      </trkpt>
      <trkpt lat="45.99375" lon="4.80977">
        <ele>250</ele>
        <time>2018-08-06T09:28:41Z</time>
      </trkpt>
      <trkpt lat="45.99377" lon="4.80987">
        <ele>250</ele>
        <time>2018-08-06T09:28:43Z</time>
      </trkpt>
      <trkpt lat="45.99378" lon="4.80993">
        <ele>250</ele>
        <time>2018-08-06T09:28:44Z</time>
      </trkpt>
      <trkpt lat="45.9938" lon="4.81005">
        <ele>251</ele>
        <time>2018-08-06T09:28:46Z</time>
      </trkpt>
      <trkpt lat="45.99381" lon="4.81011">
        <ele>251</ele>
        <time>2018-08-06T09:28:47Z</time>
      </trkpt>
      <trkpt lat="45.99383" lon="4.81022">
        <ele>251</ele>
        <time>2018-08-06T09:28:49Z</time>
      </trkpt>
      <trkpt lat="45.99384" lon="4.81028">
        <ele>251</ele>
        <time>2018-08-06T09:28:50Z</time>
      </trkpt>
      <trkpt lat="45.99384" lon="4.81035">
        <ele>251</ele>
        <time>2018-08-06T09:28:51Z</time>
      </trkpt>
      <trkpt lat="45.99387" lon="4.81041">
        <ele>251</ele>
        <time>2018-08-06T09:28:52Z</time>
      </trkpt>
      <trkpt lat="45.99388" lon="4.81048">
        <ele>251</ele>
        <time>2018-08-06T09:28:53Z</time>
      </trkpt>
      <trkpt lat="45.99388" lon="4.81055">
        <ele>251</ele>
        <time>2018-08-06T09:28:54Z</time>
      </trkpt>
      <trkpt lat="45.99389" lon="4.81062">
        <ele>251</ele>
        <time>2018-08-06T09:28:55Z</time>
      </trkpt>
      <trkpt lat="45.99391" lon="4.81068">
        <ele>251</ele>
        <time>2018-08-06T09:28:56Z</time>
      </trkpt>
      <trkpt lat="45.99393" lon="4.81076">
        <ele>251</ele>
        <time>2018-08-06T09:28:57Z</time>
      </trkpt>
      <trkpt lat="45.99393" lon="4.81082">
        <ele>251</ele>
        <time>2018-08-06T09:28:58Z</time>
      </trkpt>
      <trkpt lat="45.99394" lon="4.81095">
        <ele>251</ele>
        <time>2018-08-06T09:29:00Z</time>
      </trkpt>
      <trkpt lat="45.99394" lon="4.811">
        <ele>251</ele>
        <time>2018-08-06T09:29:01Z</time>
      </trkpt>
      <trkpt lat="45.99394" lon="4.81105">
        <ele>251</ele>
        <time>2018-08-06T09:29:02Z</time>
      </trkpt>
      <trkpt lat="45.99395" lon="4.81113">
        <ele>251</ele>
        <time>2018-08-06T09:29:03Z</time>
      </trkpt>
      <trkpt lat="45.99396" lon="4.81119">
        <ele>251</ele>
        <time>2018-08-06T09:29:04Z</time>
      </trkpt>
      <trkpt lat="45.99396" lon="4.81126">
        <ele>251</ele>
        <time>2018-08-06T09:29:05Z</time>
      </trkpt>
      <trkpt lat="45.99398" lon="4.81133">
        <ele>251</ele>
        <time>2018-08-06T09:29:06Z</time>
      </trkpt>
      <trkpt lat="45.99398" lon="4.8114">
        <ele>251</ele>
        <time>2018-08-06T09:29:07Z</time>
      </trkpt>
      <trkpt lat="45.99399" lon="4.81146">
        <ele>251</ele>
        <time>2018-08-06T09:29:08Z</time>
      </trkpt>
      <trkpt lat="45.99399" lon="4.81153">
        <ele>251</ele>
        <time>2018-08-06T09:29:09Z</time>
      </trkpt>
      <trkpt lat="45.994" lon="4.8116">
        <ele>251</ele>
        <time>2018-08-06T09:29:10Z</time>
      </trkpt>
      <trkpt lat="45.994" lon="4.81166">
        <ele>251</ele>
        <time>2018-08-06T09:29:11Z</time>
      </trkpt>
      <trkpt lat="45.99401" lon="4.81177">
        <ele>251</ele>
        <time>2018-08-06T09:29:13Z</time>
      </trkpt>
      <trkpt lat="45.99402" lon="4.81183">
        <ele>251</ele>
        <time>2018-08-06T09:29:14Z</time>
      </trkpt>
      <trkpt lat="45.99405" lon="4.8119">
        <ele>252</ele>
        <time>2018-08-06T09:29:15Z</time>
      </trkpt>
      <trkpt lat="45.99407" lon="4.81196">
        <ele>252</ele>
        <time>2018-08-06T09:29:16Z</time>
      </trkpt>
      <trkpt lat="45.99408" lon="4.81201">
        <ele>252</ele>
        <time>2018-08-06T09:29:17Z</time>
      </trkpt>
      <trkpt lat="45.99411" lon="4.81208">
        <ele>252</ele>
        <time>2018-08-06T09:29:18Z</time>
      </trkpt>
      <trkpt lat="45.99413" lon="4.81219">
        <ele>252</ele>
        <time>2018-08-06T09:29:20Z</time>
      </trkpt>
      <trkpt lat="45.99414" lon="4.81225">
        <ele>252</ele>
        <time>2018-08-06T09:29:21Z</time>
      </trkpt>
      <trkpt lat="45.99414" lon="4.81238">
        <ele>252</ele>
        <time>2018-08-06T09:29:23Z</time>
      </trkpt>
      <trkpt lat="45.99415" lon="4.81244">
        <ele>252</ele>
        <time>2018-08-06T09:29:24Z</time>
      </trkpt>
      <trkpt lat="45.99416" lon="4.81256">
        <ele>252</ele>
        <time>2018-08-06T09:29:26Z</time>
      </trkpt>
      <trkpt lat="45.99417" lon="4.81263">
        <ele>252</ele>
        <time>2018-08-06T09:29:27Z</time>
      </trkpt>
      <trkpt lat="45.99419" lon="4.81269">
        <ele>252</ele>
        <time>2018-08-06T09:29:28Z</time>
      </trkpt>
      <trkpt lat="45.9942" lon="4.81276">
        <ele>253</ele>
        <time>2018-08-06T09:29:29Z</time>
      </trkpt>
      <trkpt lat="45.99423" lon="4.81288">
        <ele>253</ele>
        <time>2018-08-06T09:29:31Z</time>
      </trkpt>
      <trkpt lat="45.99423" lon="4.81295">
        <ele>253</ele>
        <time>2018-08-06T09:29:32Z</time>
      </trkpt>
      <trkpt lat="45.99423" lon="4.81304">
        <ele>253</ele>
        <time>2018-08-06T09:29:33Z</time>
      </trkpt>
      <trkpt lat="45.99424" lon="4.81311">
        <ele>254</ele>
        <time>2018-08-06T09:29:34Z</time>
      </trkpt>
      <trkpt lat="45.99425" lon="4.81319">
        <ele>254</ele>
        <time>2018-08-06T09:29:35Z</time>
      </trkpt>
      <trkpt lat="45.99425" lon="4.81326">
        <ele>254</ele>
        <time>2018-08-06T09:29:36Z</time>
      </trkpt>
      <trkpt lat="45.99426" lon="4.81337">
        <ele>255</ele>
        <time>2018-08-06T09:29:38Z</time>
      </trkpt>
      <trkpt lat="45.99426" lon="4.81343">
        <ele>254</ele>
        <time>2018-08-06T09:29:39Z</time>
      </trkpt>
      <trkpt lat="45.99428" lon="4.8135">
        <ele>254</ele>
        <time>2018-08-06T09:29:40Z</time>
      </trkpt>
      <trkpt lat="45.99428" lon="4.81356">
        <ele>254</ele>
        <time>2018-08-06T09:29:41Z</time>
      </trkpt>
      <trkpt lat="45.99429" lon="4.81365">
        <ele>254</ele>
        <time>2018-08-06T09:29:43Z</time>
      </trkpt>
      <trkpt lat="45.99429" lon="4.81375">
        <ele>254</ele>
        <time>2018-08-06T09:29:44Z</time>
      </trkpt>
      <trkpt lat="45.9943" lon="4.81382">
        <ele>254</ele>
        <time>2018-08-06T09:29:45Z</time>
      </trkpt>
      <trkpt lat="45.99432" lon="4.81389">
        <ele>254</ele>
        <time>2018-08-06T09:29:46Z</time>
      </trkpt>
      <trkpt lat="45.99432" lon="4.81396">
        <ele>254</ele>
        <time>2018-08-06T09:29:47Z</time>
      </trkpt>
      <trkpt lat="45.99432" lon="4.81404">
        <ele>254</ele>
        <time>2018-08-06T09:29:48Z</time>
      </trkpt>
      <trkpt lat="45.99433" lon="4.81415">
        <ele>254</ele>
        <time>2018-08-06T09:29:50Z</time>
      </trkpt>
      <trkpt lat="45.99434" lon="4.81421">
        <ele>254</ele>
        <time>2018-08-06T09:29:51Z</time>
      </trkpt>
      <trkpt lat="45.99435" lon="4.8143">
        <ele>254</ele>
        <time>2018-08-06T09:29:53Z</time>
      </trkpt>
      <trkpt lat="45.99436" lon="4.81437">
        <ele>254</ele>
        <time>2018-08-06T09:29:54Z</time>
      </trkpt>
      <trkpt lat="45.99438" lon="4.81448">
        <ele>254</ele>
        <time>2018-08-06T09:29:56Z</time>
      </trkpt>
      <trkpt lat="45.99439" lon="4.81452">
        <ele>254</ele>
        <time>2018-08-06T09:29:57Z</time>
      </trkpt>
      <trkpt lat="45.9944" lon="4.81463">
        <ele>254</ele>
        <time>2018-08-06T09:29:59Z</time>
      </trkpt>
      <trkpt lat="45.99441" lon="4.81469">
        <ele>254</ele>
        <time>2018-08-06T09:30:00Z</time>
      </trkpt>
      <trkpt lat="45.99443" lon="4.81481">
        <ele>254</ele>
        <time>2018-08-06T09:30:02Z</time>
      </trkpt>
      <trkpt lat="45.99444" lon="4.81487">
        <ele>254</ele>
        <time>2018-08-06T09:30:03Z</time>
      </trkpt>
      <trkpt lat="45.99445" lon="4.81496">
        <ele>254</ele>
        <time>2018-08-06T09:30:05Z</time>
      </trkpt>
      <trkpt lat="45.99445" lon="4.81506">
        <ele>255</ele>
        <time>2018-08-06T09:30:06Z</time>
      </trkpt>
      <trkpt lat="45.99447" lon="4.81517">
        <ele>255</ele>
        <time>2018-08-06T09:30:08Z</time>
      </trkpt>
      <trkpt lat="45.99448" lon="4.81523">
        <ele>255</ele>
        <time>2018-08-06T09:30:09Z</time>
      </trkpt>
      <trkpt lat="45.99449" lon="4.8153">
        <ele>255</ele>
        <time>2018-08-06T09:30:10Z</time>
      </trkpt>
      <trkpt lat="45.99451" lon="4.81537">
        <ele>255</ele>
        <time>2018-08-06T09:30:11Z</time>
      </trkpt>
      <trkpt lat="45.99453" lon="4.81544">
        <ele>255</ele>
        <time>2018-08-06T09:30:12Z</time>
      </trkpt>
      <trkpt lat="45.99453" lon="4.8155">
        <ele>255</ele>
        <time>2018-08-06T09:30:13Z</time>
      </trkpt>
      <trkpt lat="45.99454" lon="4.81562">
        <ele>255</ele>
        <time>2018-08-06T09:30:15Z</time>
      </trkpt>
      <trkpt lat="45.99454" lon="4.81568">
        <ele>255</ele>
        <time>2018-08-06T09:30:16Z</time>
      </trkpt>
      <trkpt lat="45.99457" lon="4.81576">
        <ele>255</ele>
        <time>2018-08-06T09:30:17Z</time>
      </trkpt>
      <trkpt lat="45.99458" lon="4.81581">
        <ele>255</ele>
        <time>2018-08-06T09:30:18Z</time>
      </trkpt>
      <trkpt lat="45.99459" lon="4.81593">
        <ele>257</ele>
        <time>2018-08-06T09:30:20Z</time>
      </trkpt>
      <trkpt lat="45.9946" lon="4.81599">
        <ele>257</ele>
        <time>2018-08-06T09:30:21Z</time>
      </trkpt>
      <trkpt lat="45.99461" lon="4.81611">
        <ele>258</ele>
        <time>2018-08-06T09:30:23Z</time>
      </trkpt>
      <trkpt lat="45.99463" lon="4.81617">
        <ele>258</ele>
        <time>2018-08-06T09:30:24Z</time>
      </trkpt>
      <trkpt lat="45.99463" lon="4.81625">
        <ele>258</ele>
        <time>2018-08-06T09:30:25Z</time>
      </trkpt>
      <trkpt lat="45.99464" lon="4.81631">
        <ele>258</ele>
        <time>2018-08-06T09:30:26Z</time>
      </trkpt>
      <trkpt lat="45.99466" lon="4.81642">
        <ele>258</ele>
        <time>2018-08-06T09:30:28Z</time>
      </trkpt>
      <trkpt lat="45.99466" lon="4.8165">
        <ele>259</ele>
        <time>2018-08-06T09:30:29Z</time>
      </trkpt>
      <trkpt lat="45.99467" lon="4.81659">
        <ele>259</ele>
        <time>2018-08-06T09:30:31Z</time>
      </trkpt>
      <trkpt lat="45.99468" lon="4.81668">
        <ele>261</ele>
        <time>2018-08-06T09:30:32Z</time>
      </trkpt>
      <trkpt lat="45.9947" lon="4.81678">
        <ele>261</ele>
        <time>2018-08-06T09:30:34Z</time>
      </trkpt>
      <trkpt lat="45.99471" lon="4.81684">
        <ele>261</ele>
        <time>2018-08-06T09:30:35Z</time>
      </trkpt>
      <trkpt lat="45.99472" lon="4.8169">
        <ele>261</ele>
        <time>2018-08-06T09:30:36Z</time>
      </trkpt>
      <trkpt lat="45.99474" lon="4.81697">
        <ele>261</ele>
        <time>2018-08-06T09:30:37Z</time>
      </trkpt>
      <trkpt lat="45.99476" lon="4.81708">
        <ele>261</ele>
        <time>2018-08-06T09:30:39Z</time>
      </trkpt>
      <trkpt lat="45.99476" lon="4.81714">
        <ele>261</ele>
        <time>2018-08-06T09:30:40Z</time>
      </trkpt>
      <trkpt lat="45.99478" lon="4.8172">
        <ele>261</ele>
        <time>2018-08-06T09:30:41Z</time>
      </trkpt>
      <trkpt lat="45.99479" lon="4.81727">
        <ele>261</ele>
        <time>2018-08-06T09:30:42Z</time>
      </trkpt>
      <trkpt lat="45.99479" lon="4.81731">
        <ele>261</ele>
        <time>2018-08-06T09:30:43Z</time>
      </trkpt>
      <trkpt lat="45.99481" lon="4.81739">
        <ele>261</ele>
        <time>2018-08-06T09:30:44Z</time>
      </trkpt>
      <trkpt lat="45.99481" lon="4.81745">
        <ele>261</ele>
        <time>2018-08-06T09:30:45Z</time>
      </trkpt>
      <trkpt lat="45.99483" lon="4.81752">
        <ele>262</ele>
        <time>2018-08-06T09:30:46Z</time>
      </trkpt>
      <trkpt lat="45.99483" lon="4.81765">
        <ele>262</ele>
        <time>2018-08-06T09:30:48Z</time>
      </trkpt>
      <trkpt lat="45.99483" lon="4.81772">
        <ele>262</ele>
        <time>2018-08-06T09:30:49Z</time>
      </trkpt>
      <trkpt lat="45.99483" lon="4.81781">
        <ele>262</ele>
        <time>2018-08-06T09:30:50Z</time>
      </trkpt>
      <trkpt lat="45.99484" lon="4.81787">
        <ele>262</ele>
        <time>2018-08-06T09:30:51Z</time>
      </trkpt>
      <trkpt lat="45.99483" lon="4.81797">
        <ele>262</ele>
        <time>2018-08-06T09:30:53Z</time>
      </trkpt>
      <trkpt lat="45.99485" lon="4.81805">
        <ele>262</ele>
        <time>2018-08-06T09:30:54Z</time>
      </trkpt>
      <trkpt lat="45.99488" lon="4.81817">
        <ele>262</ele>
        <time>2018-08-06T09:30:56Z</time>
      </trkpt>
      <trkpt lat="45.99489" lon="4.81823">
        <ele>262</ele>
        <time>2018-08-06T09:30:57Z</time>
      </trkpt>
      <trkpt lat="45.99492" lon="4.81834">
        <ele>261</ele>
        <time>2018-08-06T09:30:59Z</time>
      </trkpt>
      <trkpt lat="45.99494" lon="4.8184">
        <ele>261</ele>
        <time>2018-08-06T09:31:00Z</time>
      </trkpt>
      <trkpt lat="45.99495" lon="4.81847">
        <ele>261</ele>
        <time>2018-08-06T09:31:01Z</time>
      </trkpt>
      <trkpt lat="45.99496" lon="4.81854">
        <ele>260</ele>
        <time>2018-08-06T09:31:02Z</time>
      </trkpt>
      <trkpt lat="45.99496" lon="4.81861">
        <ele>260</ele>
        <time>2018-08-06T09:31:03Z</time>
      </trkpt>
      <trkpt lat="45.99497" lon="4.81867">
        <ele>260</ele>
        <time>2018-08-06T09:31:04Z</time>
      </trkpt>
      <trkpt lat="45.99499" lon="4.8188">
        <ele>260</ele>
        <time>2018-08-06T09:31:06Z</time>
      </trkpt>
      <trkpt lat="45.99501" lon="4.81886">
        <ele>261</ele>
        <time>2018-08-06T09:31:07Z</time>
      </trkpt>
      <trkpt lat="45.99502" lon="4.81891">
        <ele>261</ele>
        <time>2018-08-06T09:31:08Z</time>
      </trkpt>
      <trkpt lat="45.99501" lon="4.81899">
        <ele>261</ele>
        <time>2018-08-06T09:31:09Z</time>
      </trkpt>
      <trkpt lat="45.99503" lon="4.81905">
        <ele>260</ele>
        <time>2018-08-06T09:31:10Z</time>
      </trkpt>
      <trkpt lat="45.99504" lon="4.81911">
        <ele>260</ele>
        <time>2018-08-06T09:31:11Z</time>
      </trkpt>
      <trkpt lat="45.99505" lon="4.81916">
        <ele>260</ele>
        <time>2018-08-06T09:31:12Z</time>
      </trkpt>
      <trkpt lat="45.99507" lon="4.81923">
        <ele>260</ele>
        <time>2018-08-06T09:31:13Z</time>
      </trkpt>
      <trkpt lat="45.99508" lon="4.8193">
        <ele>260</ele>
        <time>2018-08-06T09:31:14Z</time>
      </trkpt>
      <trkpt lat="45.99509" lon="4.81936">
        <ele>260</ele>
        <time>2018-08-06T09:31:15Z</time>
      </trkpt>
      <trkpt lat="45.99509" lon="4.81942">
        <ele>261</ele>
        <time>2018-08-06T09:31:16Z</time>
      </trkpt>
      <trkpt lat="45.9951" lon="4.8195">
        <ele>261</ele>
        <time>2018-08-06T09:31:17Z</time>
      </trkpt>
      <trkpt lat="45.99511" lon="4.81963">
        <ele>261</ele>
        <time>2018-08-06T09:31:19Z</time>
      </trkpt>
      <trkpt lat="45.99513" lon="4.8197">
        <ele>261</ele>
        <time>2018-08-06T09:31:20Z</time>
      </trkpt>
      <trkpt lat="45.99513" lon="4.81977">
        <ele>261</ele>
        <time>2018-08-06T09:31:21Z</time>
      </trkpt>
      <trkpt lat="45.99514" lon="4.81984">
        <ele>260</ele>
        <time>2018-08-06T09:31:22Z</time>
      </trkpt>
      <trkpt lat="45.99513" lon="4.81992">
        <ele>260</ele>
        <time>2018-08-06T09:31:23Z</time>
      </trkpt>
      <trkpt lat="45.99514" lon="4.81999">
        <ele>260</ele>
        <time>2018-08-06T09:31:24Z</time>
      </trkpt>
      <trkpt lat="45.99515" lon="4.82006">
        <ele>261</ele>
        <time>2018-08-06T09:31:25Z</time>
      </trkpt>
      <trkpt lat="45.99515" lon="4.82012">
        <ele>261</ele>
        <time>2018-08-06T09:31:26Z</time>
      </trkpt>
      <trkpt lat="45.99516" lon="4.82019">
        <ele>261</ele>
        <time>2018-08-06T09:31:27Z</time>
      </trkpt>
      <trkpt lat="45.99518" lon="4.82025">
        <ele>261</ele>
        <time>2018-08-06T09:31:28Z</time>
      </trkpt>
      <trkpt lat="45.9952" lon="4.82037">
        <ele>262</ele>
        <time>2018-08-06T09:31:30Z</time>
      </trkpt>
      <trkpt lat="45.99521" lon="4.82043">
        <ele>262</ele>
        <time>2018-08-06T09:31:31Z</time>
      </trkpt>
      <trkpt lat="45.99523" lon="4.82055">
        <ele>262</ele>
        <time>2018-08-06T09:31:33Z</time>
      </trkpt>
      <trkpt lat="45.99523" lon="4.82061">
        <ele>262</ele>
        <time>2018-08-06T09:31:34Z</time>
      </trkpt>
      <trkpt lat="45.99525" lon="4.82074">
        <ele>262</ele>
        <time>2018-08-06T09:31:36Z</time>
      </trkpt>
      <trkpt lat="45.99524" lon="4.8208">
        <ele>262</ele>
        <time>2018-08-06T09:31:37Z</time>
      </trkpt>
      <trkpt lat="45.99525" lon="4.82089">
        <ele>262</ele>
        <time>2018-08-06T09:31:38Z</time>
      </trkpt>
      <trkpt lat="45.99525" lon="4.82094">
        <ele>262</ele>
        <time>2018-08-06T09:31:39Z</time>
      </trkpt>
      <trkpt lat="45.99527" lon="4.82103">
        <ele>262</ele>
        <time>2018-08-06T09:31:40Z</time>
      </trkpt>
      <trkpt lat="45.99528" lon="4.82109">
        <ele>262</ele>
        <time>2018-08-06T09:31:41Z</time>
      </trkpt>
      <trkpt lat="45.9953" lon="4.82122">
        <ele>263</ele>
        <time>2018-08-06T09:31:43Z</time>
      </trkpt>
      <trkpt lat="45.99531" lon="4.82128">
        <ele>263</ele>
        <time>2018-08-06T09:31:44Z</time>
      </trkpt>
      <trkpt lat="45.99532" lon="4.82136">
        <ele>263</ele>
        <time>2018-08-06T09:31:45Z</time>
      </trkpt>
      <trkpt lat="45.99532" lon="4.82143">
        <ele>263</ele>
        <time>2018-08-06T09:31:46Z</time>
      </trkpt>
      <trkpt lat="45.99533" lon="4.82151">
        <ele>263</ele>
        <time>2018-08-06T09:31:47Z</time>
      </trkpt>
      <trkpt lat="45.99534" lon="4.82157">
        <ele>263</ele>
        <time>2018-08-06T09:31:48Z</time>
      </trkpt>
      <trkpt lat="45.99534" lon="4.82164">
        <ele>263</ele>
        <time>2018-08-06T09:31:49Z</time>
      </trkpt>
      <trkpt lat="45.99535" lon="4.82171">
        <ele>262</ele>
        <time>2018-08-06T09:31:50Z</time>
      </trkpt>
      <trkpt lat="45.99537" lon="4.8218">
        <ele>262</ele>
        <time>2018-08-06T09:31:51Z</time>
      </trkpt>
      <trkpt lat="45.99538" lon="4.82186">
        <ele>262</ele>
        <time>2018-08-06T09:31:52Z</time>
      </trkpt>
      <trkpt lat="45.99541" lon="4.82192">
        <ele>262</ele>
        <time>2018-08-06T09:31:53Z</time>
      </trkpt>
      <trkpt lat="45.99541" lon="4.82199">
        <ele>262</ele>
        <time>2018-08-06T09:31:54Z</time>
      </trkpt>
      <trkpt lat="45.99542" lon="4.82206">
        <ele>262</ele>
        <time>2018-08-06T09:31:55Z</time>
      </trkpt>
      <trkpt lat="45.99544" lon="4.82212">
        <ele>262</ele>
        <time>2018-08-06T09:31:56Z</time>
      </trkpt>
      <trkpt lat="45.99546" lon="4.82219">
        <ele>262</ele>
        <time>2018-08-06T09:31:57Z</time>
      </trkpt>
      <trkpt lat="45.99548" lon="4.82227">
        <ele>262</ele>
        <time>2018-08-06T09:31:58Z</time>
      </trkpt>
      <trkpt lat="45.99551" lon="4.82234">
        <ele>262</ele>
        <time>2018-08-06T09:31:59Z</time>
      </trkpt>
      <trkpt lat="45.99553" lon="4.82241">
        <ele>262</ele>
        <time>2018-08-06T09:32:00Z</time>
      </trkpt>
      <trkpt lat="45.99557" lon="4.82249">
        <ele>262</ele>
        <time>2018-08-06T09:32:01Z</time>
      </trkpt>
      <trkpt lat="45.99559" lon="4.82256">
        <ele>262</ele>
        <time>2018-08-06T09:32:02Z</time>
      </trkpt>
      <trkpt lat="45.99561" lon="4.82264">
        <ele>262</ele>
        <time>2018-08-06T09:32:03Z</time>
      </trkpt>
      <trkpt lat="45.99563" lon="4.82272">
        <ele>262</ele>
        <time>2018-08-06T09:32:04Z</time>
      </trkpt>
      <trkpt lat="45.99567" lon="4.82279">
        <ele>262</ele>
        <time>2018-08-06T09:32:05Z</time>
      </trkpt>
      <trkpt lat="45.99568" lon="4.82287">
        <ele>262</ele>
        <time>2018-08-06T09:32:06Z</time>
      </trkpt>
      <trkpt lat="45.99569" lon="4.82294">
        <ele>262</ele>
        <time>2018-08-06T09:32:07Z</time>
      </trkpt>
      <trkpt lat="45.99571" lon="4.82301">
        <ele>262</ele>
        <time>2018-08-06T09:32:08Z</time>
      </trkpt>
      <trkpt lat="45.99574" lon="4.82309">
        <ele>262</ele>
        <time>2018-08-06T09:32:09Z</time>
      </trkpt>
      <trkpt lat="45.99575" lon="4.82316">
        <ele>262</ele>
        <time>2018-08-06T09:32:10Z</time>
      </trkpt>
      <trkpt lat="45.99577" lon="4.82323">
        <ele>262</ele>
        <time>2018-08-06T09:32:11Z</time>
      </trkpt>
      <trkpt lat="45.99578" lon="4.82329">
        <ele>262</ele>
        <time>2018-08-06T09:32:12Z</time>
      </trkpt>
      <trkpt lat="45.9958" lon="4.82335">
        <ele>262</ele>
        <time>2018-08-06T09:32:13Z</time>
      </trkpt>
      <trkpt lat="45.9958" lon="4.82342">
        <ele>262</ele>
        <time>2018-08-06T09:32:14Z</time>
      </trkpt>
      <trkpt lat="45.99582" lon="4.82349">
        <ele>262</ele>
        <time>2018-08-06T09:32:15Z</time>
      </trkpt>
      <trkpt lat="45.99583" lon="4.82356">
        <ele>261</ele>
        <time>2018-08-06T09:32:16Z</time>
      </trkpt>
      <trkpt lat="45.99583" lon="4.82367">
        <ele>261</ele>
        <time>2018-08-06T09:32:18Z</time>
      </trkpt>
      <trkpt lat="45.99585" lon="4.82374">
        <ele>264</ele>
        <time>2018-08-06T09:32:19Z</time>
      </trkpt>
      <trkpt lat="45.99587" lon="4.82385">
        <ele>264</ele>
        <time>2018-08-06T09:32:21Z</time>
      </trkpt>
      <trkpt lat="45.99588" lon="4.82391">
        <ele>264</ele>
        <time>2018-08-06T09:32:22Z</time>
      </trkpt>
      <trkpt lat="45.99589" lon="4.824">
        <ele>264</ele>
        <time>2018-08-06T09:32:24Z</time>
      </trkpt>
      <trkpt lat="45.99591" lon="4.82407">
        <ele>263</ele>
        <time>2018-08-06T09:32:25Z</time>
      </trkpt>
      <trkpt lat="45.99594" lon="4.82418">
        <ele>263</ele>
        <time>2018-08-06T09:32:27Z</time>
      </trkpt>
      <trkpt lat="45.99596" lon="4.82423">
        <ele>263</ele>
        <time>2018-08-06T09:32:28Z</time>
      </trkpt>
      <trkpt lat="45.996" lon="4.82434">
        <ele>264</ele>
        <time>2018-08-06T09:32:30Z</time>
      </trkpt>
      <trkpt lat="45.99601" lon="4.8244">
        <ele>264</ele>
        <time>2018-08-06T09:32:31Z</time>
      </trkpt>
      <trkpt lat="45.99607" lon="4.8245">
        <ele>264</ele>
        <time>2018-08-06T09:32:33Z</time>
      </trkpt>
      <trkpt lat="45.99609" lon="4.82455">
        <ele>265</ele>
        <time>2018-08-06T09:32:34Z</time>
      </trkpt>
      <trkpt lat="45.99612" lon="4.82462">
        <ele>265</ele>
        <time>2018-08-06T09:32:35Z</time>
      </trkpt>
      <trkpt lat="45.99614" lon="4.82468">
        <ele>265</ele>
        <time>2018-08-06T09:32:36Z</time>
      </trkpt>
      <trkpt lat="45.99617" lon="4.82479">
        <ele>265</ele>
        <time>2018-08-06T09:32:38Z</time>
      </trkpt>
      <trkpt lat="45.99619" lon="4.82484">
        <ele>265</ele>
        <time>2018-08-06T09:32:39Z</time>
      </trkpt>
      <trkpt lat="45.99619" lon="4.8249">
        <ele>265</ele>
        <time>2018-08-06T09:32:40Z</time>
      </trkpt>
      <trkpt lat="45.99622" lon="4.82496">
        <ele>265</ele>
        <time>2018-08-06T09:32:41Z</time>
      </trkpt>
      <trkpt lat="45.99625" lon="4.82507">
        <ele>265</ele>
        <time>2018-08-06T09:32:43Z</time>
      </trkpt>
      <trkpt lat="45.99626" lon="4.82514">
        <ele>265</ele>
        <time>2018-08-06T09:32:44Z</time>
      </trkpt>
      <trkpt lat="45.99629" lon="4.82525">
        <ele>266</ele>
        <time>2018-08-06T09:32:46Z</time>
      </trkpt>
      <trkpt lat="45.99631" lon="4.82531">
        <ele>266</ele>
        <time>2018-08-06T09:32:47Z</time>
      </trkpt>
      <trkpt lat="45.99633" lon="4.82542">
        <ele>266</ele>
        <time>2018-08-06T09:32:49Z</time>
      </trkpt>
      <trkpt lat="45.99634" lon="4.8255">
        <ele>266</ele>
        <time>2018-08-06T09:32:50Z</time>
      </trkpt>
      <trkpt lat="45.99635" lon="4.82557">
        <ele>266</ele>
        <time>2018-08-06T09:32:51Z</time>
      </trkpt>
      <trkpt lat="45.99637" lon="4.82565">
        <ele>266</ele>
        <time>2018-08-06T09:32:52Z</time>
      </trkpt>
      <trkpt lat="45.99639" lon="4.82572">
        <ele>266</ele>
        <time>2018-08-06T09:32:53Z</time>
      </trkpt>
      <trkpt lat="45.9964" lon="4.82579">
        <ele>266</ele>
        <time>2018-08-06T09:32:54Z</time>
      </trkpt>
      <trkpt lat="45.99641" lon="4.82592">
        <ele>266</ele>
        <time>2018-08-06T09:32:56Z</time>
      </trkpt>
      <trkpt lat="45.99642" lon="4.82598">
        <ele>266</ele>
        <time>2018-08-06T09:32:57Z</time>
      </trkpt>
      <trkpt lat="45.99644" lon="4.82605">
        <ele>267</ele>
        <time>2018-08-06T09:32:58Z</time>
      </trkpt>
      <trkpt lat="45.99645" lon="4.82612">
        <ele>267</ele>
        <time>2018-08-06T09:32:59Z</time>
      </trkpt>
      <trkpt lat="45.99646" lon="4.82619">
        <ele>267</ele>
        <time>2018-08-06T09:33:00Z</time>
      </trkpt>
      <trkpt lat="45.99646" lon="4.82627">
        <ele>267</ele>
        <time>2018-08-06T09:33:01Z</time>
      </trkpt>
      <trkpt lat="45.99648" lon="4.82634">
        <ele>267</ele>
        <time>2018-08-06T09:33:02Z</time>
      </trkpt>
      <trkpt lat="45.9965" lon="4.82642">
        <ele>267</ele>
        <time>2018-08-06T09:33:03Z</time>
      </trkpt>
      <trkpt lat="45.99652" lon="4.82649">
        <ele>267</ele>
        <time>2018-08-06T09:33:04Z</time>
      </trkpt>
      <trkpt lat="45.99652" lon="4.82655">
        <ele>267</ele>
        <time>2018-08-06T09:33:05Z</time>
      </trkpt>
      <trkpt lat="45.99653" lon="4.82661">
        <ele>268</ele>
        <time>2018-08-06T09:33:06Z</time>
      </trkpt>
      <trkpt lat="45.99654" lon="4.82667">
        <ele>268</ele>
        <time>2018-08-06T09:33:07Z</time>
      </trkpt>
      <trkpt lat="45.99656" lon="4.82674">
        <ele>268</ele>
        <time>2018-08-06T09:33:08Z</time>
      </trkpt>
      <trkpt lat="45.99656" lon="4.82681">
        <ele>268</ele>
        <time>2018-08-06T09:33:09Z</time>
      </trkpt>
      <trkpt lat="45.99657" lon="4.82688">
        <ele>268</ele>
        <time>2018-08-06T09:33:10Z</time>
      </trkpt>
      <trkpt lat="45.99659" lon="4.82696">
        <ele>268</ele>
        <time>2018-08-06T09:33:11Z</time>
      </trkpt>
      <trkpt lat="45.9966" lon="4.82702">
        <ele>268</ele>
        <time>2018-08-06T09:33:12Z</time>
      </trkpt>
      <trkpt lat="45.99661" lon="4.82709">
        <ele>268</ele>
        <time>2018-08-06T09:33:13Z</time>
      </trkpt>
      <trkpt lat="45.99661" lon="4.82716">
        <ele>268</ele>
        <time>2018-08-06T09:33:14Z</time>
      </trkpt>
      <trkpt lat="45.99663" lon="4.82723">
        <ele>268</ele>
        <time>2018-08-06T09:33:15Z</time>
      </trkpt>
      <trkpt lat="45.99663" lon="4.82731">
        <ele>268</ele>
        <time>2018-08-06T09:33:16Z</time>
      </trkpt>
      <trkpt lat="45.99665" lon="4.82741">
        <ele>268</ele>
        <time>2018-08-06T09:33:17Z</time>
      </trkpt>
      <trkpt lat="45.99666" lon="4.82748">
        <ele>269</ele>
        <time>2018-08-06T09:33:18Z</time>
      </trkpt>
      <trkpt lat="45.99667" lon="4.82756">
        <ele>269</ele>
        <time>2018-08-06T09:33:19Z</time>
      </trkpt>
      <trkpt lat="45.99667" lon="4.82763">
        <ele>269</ele>
        <time>2018-08-06T09:33:20Z</time>
      </trkpt>
      <trkpt lat="45.99667" lon="4.82769">
        <ele>269</ele>
        <time>2018-08-06T09:33:21Z</time>
      </trkpt>
      <trkpt lat="45.99668" lon="4.82776">
        <ele>269</ele>
        <time>2018-08-06T09:33:22Z</time>
      </trkpt>
      <trkpt lat="45.9967" lon="4.82782">
        <ele>269</ele>
        <time>2018-08-06T09:33:23Z</time>
      </trkpt>
      <trkpt lat="45.99673" lon="4.82793">
        <ele>270</ele>
        <time>2018-08-06T09:33:25Z</time>
      </trkpt>
      <trkpt lat="45.99674" lon="4.82797">
        <ele>270</ele>
        <time>2018-08-06T09:33:26Z</time>
      </trkpt>
      <trkpt lat="45.99676" lon="4.82805">
        <ele>270</ele>
        <time>2018-08-06T09:33:27Z</time>
      </trkpt>
      <trkpt lat="45.99678" lon="4.8281">
        <ele>270</ele>
        <time>2018-08-06T09:33:28Z</time>
      </trkpt>
      <trkpt lat="45.99679" lon="4.82816">
        <ele>270</ele>
        <time>2018-08-06T09:33:29Z</time>
      </trkpt>
      <trkpt lat="45.9968" lon="4.82823">
        <ele>270</ele>
        <time>2018-08-06T09:33:30Z</time>
      </trkpt>
      <trkpt lat="45.99682" lon="4.82832">
        <ele>270</ele>
        <time>2018-08-06T09:33:32Z</time>
      </trkpt>
      <trkpt lat="45.99683" lon="4.8284">
        <ele>270</ele>
        <time>2018-08-06T09:33:33Z</time>
      </trkpt>
      <trkpt lat="45.99684" lon="4.82842">
        <ele>270</ele>
        <time>2018-08-06T09:33:34Z</time>
      </trkpt>
      <trkpt lat="45.99687" lon="4.82852">
        <ele>270</ele>
        <time>2018-08-06T09:33:35Z</time>
      </trkpt>
      <trkpt lat="45.9969" lon="4.82862">
        <ele>270</ele>
        <time>2018-08-06T09:33:37Z</time>
      </trkpt>
      <trkpt lat="45.99692" lon="4.82867">
        <ele>270</ele>
        <time>2018-08-06T09:33:38Z</time>
      </trkpt>
      <trkpt lat="45.99694" lon="4.82878">
        <ele>271</ele>
        <time>2018-08-06T09:33:40Z</time>
      </trkpt>
      <trkpt lat="45.99696" lon="4.82884">
        <ele>271</ele>
        <time>2018-08-06T09:33:41Z</time>
      </trkpt>
      <trkpt lat="45.99698" lon="4.82891">
        <ele>271</ele>
        <time>2018-08-06T09:33:42Z</time>
      </trkpt>
      <trkpt lat="45.997" lon="4.82897">
        <ele>271</ele>
        <time>2018-08-06T09:33:43Z</time>
      </trkpt>
      <trkpt lat="45.99704" lon="4.82908">
        <ele>271</ele>
        <time>2018-08-06T09:33:45Z</time>
      </trkpt>
      <trkpt lat="45.99705" lon="4.82915">
        <ele>271</ele>
        <time>2018-08-06T09:33:46Z</time>
      </trkpt>
      <trkpt lat="45.99708" lon="4.82922">
        <ele>271</ele>
        <time>2018-08-06T09:33:47Z</time>
      </trkpt>
      <trkpt lat="45.99709" lon="4.82929">
        <ele>271</ele>
        <time>2018-08-06T09:33:48Z</time>
      </trkpt>
      <trkpt lat="45.99712" lon="4.82936">
        <ele>271</ele>
        <time>2018-08-06T09:33:49Z</time>
      </trkpt>
      <trkpt lat="45.99714" lon="4.82942">
        <ele>271</ele>
        <time>2018-08-06T09:33:50Z</time>
      </trkpt>
      <trkpt lat="45.99716" lon="4.82948">
        <ele>271</ele>
        <time>2018-08-06T09:33:51Z</time>
      </trkpt>
      <trkpt lat="45.99718" lon="4.82954">
        <ele>271</ele>
        <time>2018-08-06T09:33:52Z</time>
      </trkpt>
      <trkpt lat="45.99721" lon="4.8296">
        <ele>271</ele>
        <time>2018-08-06T09:33:53Z</time>
      </trkpt>
      <trkpt lat="45.99723" lon="4.82966">
        <ele>271</ele>
        <time>2018-08-06T09:33:54Z</time>
      </trkpt>
      <trkpt lat="45.99726" lon="4.82973">
        <ele>271</ele>
        <time>2018-08-06T09:33:55Z</time>
      </trkpt>
      <trkpt lat="45.99727" lon="4.82979">
        <ele>271</ele>
        <time>2018-08-06T09:33:56Z</time>
      </trkpt>
      <trkpt lat="45.99729" lon="4.82986">
        <ele>271</ele>
        <time>2018-08-06T09:33:57Z</time>
      </trkpt>
      <trkpt lat="45.9973" lon="4.82992">
        <ele>271</ele>
        <time>2018-08-06T09:33:58Z</time>
      </trkpt>
      <trkpt lat="45.99732" lon="4.82998">
        <ele>271</ele>
        <time>2018-08-06T09:33:59Z</time>
      </trkpt>
      <trkpt lat="45.99734" lon="4.83004">
        <ele>271</ele>
        <time>2018-08-06T09:34:00Z</time>
      </trkpt>
      <trkpt lat="45.99735" lon="4.83012">
        <ele>271</ele>
        <time>2018-08-06T09:34:01Z</time>
      </trkpt>
      <trkpt lat="45.99737" lon="4.83017">
        <ele>271</ele>
        <time>2018-08-06T09:34:02Z</time>
      </trkpt>
      <trkpt lat="45.99738" lon="4.83024">
        <ele>271</ele>
        <time>2018-08-06T09:34:03Z</time>
      </trkpt>
      <trkpt lat="45.99741" lon="4.83031">
        <ele>271</ele>
        <time>2018-08-06T09:34:04Z</time>
      </trkpt>
      <trkpt lat="45.99744" lon="4.83038">
        <ele>271</ele>
        <time>2018-08-06T09:34:05Z</time>
      </trkpt>
      <trkpt lat="45.99746" lon="4.83046">
        <ele>271</ele>
        <time>2018-08-06T09:34:06Z</time>
      </trkpt>
      <trkpt lat="45.99746" lon="4.83054">
        <ele>271</ele>
        <time>2018-08-06T09:34:07Z</time>
      </trkpt>
      <trkpt lat="45.99747" lon="4.83061">
        <ele>272</ele>
        <time>2018-08-06T09:34:08Z</time>
      </trkpt>
      <trkpt lat="45.9975" lon="4.8307">
        <ele>272</ele>
        <time>2018-08-06T09:34:09Z</time>
      </trkpt>
      <trkpt lat="45.99754" lon="4.8308">
        <ele>272</ele>
        <time>2018-08-06T09:34:10Z</time>
      </trkpt>
      <trkpt lat="45.99752" lon="4.8309">
        <ele>272</ele>
        <time>2018-08-06T09:34:11Z</time>
      </trkpt>
      <trkpt lat="45.99753" lon="4.831">
        <ele>272</ele>
        <time>2018-08-06T09:34:12Z</time>
      </trkpt>
      <trkpt lat="45.99754" lon="4.83107">
        <ele>271</ele>
        <time>2018-08-06T09:34:13Z</time>
      </trkpt>
      <trkpt lat="45.99754" lon="4.83116">
        <ele>271</ele>
        <time>2018-08-06T09:34:14Z</time>
      </trkpt>
      <trkpt lat="45.99756" lon="4.83126">
        <ele>271</ele>
        <time>2018-08-06T09:34:15Z</time>
      </trkpt>
      <trkpt lat="45.99758" lon="4.83136">
        <ele>271</ele>
        <time>2018-08-06T09:34:16Z</time>
      </trkpt>
      <trkpt lat="45.99759" lon="4.83147">
        <ele>271</ele>
        <time>2018-08-06T09:34:17Z</time>
      </trkpt>
      <trkpt lat="45.9976" lon="4.83158">
        <ele>271</ele>
        <time>2018-08-06T09:34:18Z</time>
      </trkpt>
      <trkpt lat="45.99761" lon="4.83169">
        <ele>269</ele>
        <time>2018-08-06T09:34:19Z</time>
      </trkpt>
      <trkpt lat="45.99761" lon="4.83178">
        <ele>269</ele>
        <time>2018-08-06T09:34:20Z</time>
      </trkpt>
      <trkpt lat="45.99762" lon="4.83189">
        <ele>269</ele>
        <time>2018-08-06T09:34:21Z</time>
      </trkpt>
      <trkpt lat="45.99763" lon="4.83201">
        <ele>268</ele>
        <time>2018-08-06T09:34:22Z</time>
      </trkpt>
      <trkpt lat="45.99764" lon="4.83212">
        <ele>268</ele>
        <time>2018-08-06T09:34:23Z</time>
      </trkpt>
      <trkpt lat="45.99765" lon="4.83223">
        <ele>267</ele>
        <time>2018-08-06T09:34:24Z</time>
      </trkpt>
      <trkpt lat="45.99766" lon="4.83233">
        <ele>267</ele>
        <time>2018-08-06T09:34:25Z</time>
      </trkpt>
      <trkpt lat="45.99767" lon="4.83244">
        <ele>267</ele>
        <time>2018-08-06T09:34:26Z</time>
      </trkpt>
      <trkpt lat="45.99768" lon="4.83255">
        <ele>265</ele>
        <time>2018-08-06T09:34:27Z</time>
      </trkpt>
      <trkpt lat="45.99769" lon="4.83266">
        <ele>265</ele>
        <time>2018-08-06T09:34:28Z</time>
      </trkpt>
      <trkpt lat="45.9977" lon="4.83277">
        <ele>265</ele>
        <time>2018-08-06T09:34:29Z</time>
      </trkpt>
      <trkpt lat="45.9977" lon="4.83288">
        <ele>264</ele>
        <time>2018-08-06T09:34:30Z</time>
      </trkpt>
      <trkpt lat="45.9977" lon="4.83298">
        <ele>264</ele>
        <time>2018-08-06T09:34:31Z</time>
      </trkpt>
      <trkpt lat="45.99772" lon="4.83308">
        <ele>264</ele>
        <time>2018-08-06T09:34:32Z</time>
      </trkpt>
      <trkpt lat="45.99773" lon="4.83319">
        <ele>264</ele>
        <time>2018-08-06T09:34:33Z</time>
      </trkpt>
      <trkpt lat="45.99775" lon="4.83329">
        <ele>264</ele>
        <time>2018-08-06T09:34:34Z</time>
      </trkpt>
      <trkpt lat="45.99777" lon="4.83339">
        <ele>263</ele>
        <time>2018-08-06T09:34:35Z</time>
      </trkpt>
      <trkpt lat="45.99778" lon="4.83349">
        <ele>263</ele>
        <time>2018-08-06T09:34:36Z</time>
      </trkpt>
      <trkpt lat="45.99782" lon="4.83359">
        <ele>262</ele>
        <time>2018-08-06T09:34:37Z</time>
      </trkpt>
      <trkpt lat="45.99785" lon="4.83369">
        <ele>262</ele>
        <time>2018-08-06T09:34:38Z</time>
      </trkpt>
      <trkpt lat="45.99787" lon="4.83379">
        <ele>262</ele>
        <time>2018-08-06T09:34:39Z</time>
      </trkpt>
      <trkpt lat="45.9979" lon="4.83389">
        <ele>262</ele>
        <time>2018-08-06T09:34:40Z</time>
      </trkpt>
      <trkpt lat="45.99791" lon="4.83399">
        <ele>262</ele>
        <time>2018-08-06T09:34:41Z</time>
      </trkpt>
      <trkpt lat="45.99793" lon="4.83408">
        <ele>262</ele>
        <time>2018-08-06T09:34:42Z</time>
      </trkpt>
      <trkpt lat="45.99795" lon="4.83418">
        <ele>261</ele>
        <time>2018-08-06T09:34:43Z</time>
      </trkpt>
      <trkpt lat="45.99797" lon="4.83428">
        <ele>261</ele>
        <time>2018-08-06T09:34:44Z</time>
      </trkpt>
      <trkpt lat="45.99799" lon="4.83438">
        <ele>261</ele>
        <time>2018-08-06T09:34:45Z</time>
      </trkpt>
      <trkpt lat="45.99801" lon="4.83448">
        <ele>261</ele>
        <time>2018-08-06T09:34:46Z</time>
      </trkpt>
      <trkpt lat="45.99802" lon="4.83458">
        <ele>261</ele>
        <time>2018-08-06T09:34:47Z</time>
      </trkpt>
      <trkpt lat="45.99804" lon="4.83467">
        <ele>261</ele>
        <time>2018-08-06T09:34:48Z</time>
      </trkpt>
      <trkpt lat="45.99807" lon="4.83476">
        <ele>260</ele>
        <time>2018-08-06T09:34:49Z</time>
      </trkpt>
      <trkpt lat="45.99809" lon="4.83486">
        <ele>260</ele>
        <time>2018-08-06T09:34:50Z</time>
      </trkpt>
      <trkpt lat="45.99812" lon="4.83495">
        <ele>260</ele>
        <time>2018-08-06T09:34:51Z</time>
      </trkpt>
      <trkpt lat="45.99816" lon="4.83502">
        <ele>259</ele>
        <time>2018-08-06T09:34:52Z</time>
      </trkpt>
      <trkpt lat="45.99817" lon="4.83511">
        <ele>259</ele>
        <time>2018-08-06T09:34:53Z</time>
      </trkpt>
      <trkpt lat="45.9982" lon="4.8352">
        <ele>259</ele>
        <time>2018-08-06T09:34:54Z</time>
      </trkpt>
      <trkpt lat="45.99822" lon="4.83529">
        <ele>259</ele>
        <time>2018-08-06T09:34:55Z</time>
      </trkpt>
      <trkpt lat="45.99824" lon="4.83538">
        <ele>259</ele>
        <time>2018-08-06T09:34:56Z</time>
      </trkpt>
      <trkpt lat="45.99827" lon="4.83547">
        <ele>259</ele>
        <time>2018-08-06T09:34:57Z</time>
      </trkpt>
      <trkpt lat="45.99829" lon="4.83557">
        <ele>258</ele>
        <time>2018-08-06T09:34:58Z</time>
      </trkpt>
      <trkpt lat="45.99832" lon="4.83568">
        <ele>258</ele>
        <time>2018-08-06T09:34:59Z</time>
      </trkpt>
      <trkpt lat="45.99834" lon="4.83579">
        <ele>257</ele>
        <time>2018-08-06T09:35:00Z</time>
      </trkpt>
      <trkpt lat="45.99835" lon="4.83589">
        <ele>257</ele>
        <time>2018-08-06T09:35:01Z</time>
      </trkpt>
      <trkpt lat="45.99838" lon="4.83598">
        <ele>257</ele>
        <time>2018-08-06T09:35:02Z</time>
      </trkpt>
      <trkpt lat="45.99841" lon="4.83608">
        <ele>257</ele>
        <time>2018-08-06T09:35:03Z</time>
      </trkpt>
      <trkpt lat="45.99845" lon="4.83618">
        <ele>257</ele>
        <time>2018-08-06T09:35:04Z</time>
      </trkpt>
      <trkpt lat="45.99847" lon="4.83626">
        <ele>257</ele>
        <time>2018-08-06T09:35:05Z</time>
      </trkpt>
      <trkpt lat="45.99848" lon="4.83635">
        <ele>257</ele>
        <time>2018-08-06T09:35:06Z</time>
      </trkpt>
      <trkpt lat="45.9985" lon="4.83645">
        <ele>257</ele>
        <time>2018-08-06T09:35:07Z</time>
      </trkpt>
      <trkpt lat="45.99852" lon="4.83653">
        <ele>257</ele>
        <time>2018-08-06T09:35:08Z</time>
      </trkpt>
      <trkpt lat="45.99854" lon="4.83662">
        <ele>257</ele>
        <time>2018-08-06T09:35:09Z</time>
      </trkpt>
      <trkpt lat="45.99857" lon="4.83671">
        <ele>256</ele>
        <time>2018-08-06T09:35:10Z</time>
      </trkpt>
      <trkpt lat="45.99858" lon="4.8368">
        <ele>256</ele>
        <time>2018-08-06T09:35:11Z</time>
      </trkpt>
      <trkpt lat="45.99862" lon="4.8369">
        <ele>256</ele>
        <time>2018-08-06T09:35:12Z</time>
      </trkpt>
      <trkpt lat="45.99865" lon="4.837">
        <ele>256</ele>
        <time>2018-08-06T09:35:13Z</time>
      </trkpt>
      <trkpt lat="45.99867" lon="4.83708">
        <ele>256</ele>
        <time>2018-08-06T09:35:14Z</time>
      </trkpt>
      <trkpt lat="45.9987" lon="4.83718">
        <ele>256</ele>
        <time>2018-08-06T09:35:15Z</time>
      </trkpt>
      <trkpt lat="45.99872" lon="4.83727">
        <ele>256</ele>
        <time>2018-08-06T09:35:16Z</time>
      </trkpt>
      <trkpt lat="45.99874" lon="4.83736">
        <ele>256</ele>
        <time>2018-08-06T09:35:17Z</time>
      </trkpt>
      <trkpt lat="45.99876" lon="4.83745">
        <ele>256</ele>
        <time>2018-08-06T09:35:18Z</time>
      </trkpt>
      <trkpt lat="45.99879" lon="4.83753">
        <ele>256</ele>
        <time>2018-08-06T09:35:19Z</time>
      </trkpt>
      <trkpt lat="45.99881" lon="4.8376">
        <ele>256</ele>
        <time>2018-08-06T09:35:20Z</time>
      </trkpt>
      <trkpt lat="45.99883" lon="4.83766">
        <ele>256</ele>
        <time>2018-08-06T09:35:21Z</time>
      </trkpt>
      <trkpt lat="45.99885" lon="4.83773">
        <ele>257</ele>
        <time>2018-08-06T09:35:22Z</time>
      </trkpt>
      <trkpt lat="45.99886" lon="4.8378">
        <ele>257</ele>
        <time>2018-08-06T09:35:23Z</time>
      </trkpt>
      <trkpt lat="45.99888" lon="4.83788">
        <ele>257</ele>
        <time>2018-08-06T09:35:24Z</time>
      </trkpt>
      <trkpt lat="45.99892" lon="4.83796">
        <ele>257</ele>
        <time>2018-08-06T09:35:25Z</time>
      </trkpt>
      <trkpt lat="45.99894" lon="4.83803">
        <ele>257</ele>
        <time>2018-08-06T09:35:26Z</time>
      </trkpt>
      <trkpt lat="45.99896" lon="4.83811">
        <ele>257</ele>
        <time>2018-08-06T09:35:27Z</time>
      </trkpt>
      <trkpt lat="45.99898" lon="4.83819">
        <ele>257</ele>
        <time>2018-08-06T09:35:28Z</time>
      </trkpt>
      <trkpt lat="45.99901" lon="4.83827">
        <ele>257</ele>
        <time>2018-08-06T09:35:29Z</time>
      </trkpt>
      <trkpt lat="45.99903" lon="4.83837">
        <ele>258</ele>
        <time>2018-08-06T09:35:30Z</time>
      </trkpt>
      <trkpt lat="45.99904" lon="4.83845">
        <ele>258</ele>
        <time>2018-08-06T09:35:31Z</time>
      </trkpt>
      <trkpt lat="45.99907" lon="4.83853">
        <ele>258</ele>
        <time>2018-08-06T09:35:32Z</time>
      </trkpt>
      <trkpt lat="45.99909" lon="4.83862">
        <ele>258</ele>
        <time>2018-08-06T09:35:33Z</time>
      </trkpt>
      <trkpt lat="45.99912" lon="4.83871">
        <ele>258</ele>
        <time>2018-08-06T09:35:34Z</time>
      </trkpt>
      <trkpt lat="45.99914" lon="4.8388">
        <ele>258</ele>
        <time>2018-08-06T09:35:35Z</time>
      </trkpt>
      <trkpt lat="45.99917" lon="4.83889">
        <ele>259</ele>
        <time>2018-08-06T09:35:36Z</time>
      </trkpt>
      <trkpt lat="45.99919" lon="4.83897">
        <ele>259</ele>
        <time>2018-08-06T09:35:37Z</time>
      </trkpt>
      <trkpt lat="45.99922" lon="4.83906">
        <ele>259</ele>
        <time>2018-08-06T09:35:38Z</time>
      </trkpt>
      <trkpt lat="45.99923" lon="4.83913">
        <ele>259</ele>
        <time>2018-08-06T09:35:39Z</time>
      </trkpt>
      <trkpt lat="45.99926" lon="4.83921">
        <ele>259</ele>
        <time>2018-08-06T09:35:40Z</time>
      </trkpt>
      <trkpt lat="45.99927" lon="4.83929">
        <ele>259</ele>
        <time>2018-08-06T09:35:41Z</time>
      </trkpt>
      <trkpt lat="45.9993" lon="4.83936">
        <ele>259</ele>
        <time>2018-08-06T09:35:42Z</time>
      </trkpt>
      <trkpt lat="45.99931" lon="4.83942">
        <ele>259</ele>
        <time>2018-08-06T09:35:43Z</time>
      </trkpt>
      <trkpt lat="45.99933" lon="4.83949">
        <ele>259</ele>
        <time>2018-08-06T09:35:44Z</time>
      </trkpt>
      <trkpt lat="45.99935" lon="4.83955">
        <ele>259</ele>
        <time>2018-08-06T09:35:45Z</time>
      </trkpt>
      <trkpt lat="45.99937" lon="4.83962">
        <ele>259</ele>
        <time>2018-08-06T09:35:46Z</time>
      </trkpt>
      <trkpt lat="45.99939" lon="4.83969">
        <ele>259</ele>
        <time>2018-08-06T09:35:47Z</time>
      </trkpt>
      <trkpt lat="45.9994" lon="4.83975">
        <ele>259</ele>
        <time>2018-08-06T09:35:48Z</time>
      </trkpt>
      <trkpt lat="45.99942" lon="4.83983">
        <ele>259</ele>
        <time>2018-08-06T09:35:49Z</time>
      </trkpt>
      <trkpt lat="45.99946" lon="4.8399">
        <ele>259</ele>
        <time>2018-08-06T09:35:50Z</time>
      </trkpt>
      <trkpt lat="45.99949" lon="4.83997">
        <ele>259</ele>
        <time>2018-08-06T09:35:51Z</time>
      </trkpt>
      <trkpt lat="45.99952" lon="4.84006">
        <ele>259</ele>
        <time>2018-08-06T09:35:52Z</time>
      </trkpt>
      <trkpt lat="45.99954" lon="4.84014">
        <ele>259</ele>
        <time>2018-08-06T09:35:53Z</time>
      </trkpt>
      <trkpt lat="45.99956" lon="4.84022">
        <ele>259</ele>
        <time>2018-08-06T09:35:54Z</time>
      </trkpt>
      <trkpt lat="45.99958" lon="4.8403">
        <ele>259</ele>
        <time>2018-08-06T09:35:55Z</time>
      </trkpt>
      <trkpt lat="45.9996" lon="4.84038">
        <ele>259</ele>
        <time>2018-08-06T09:35:56Z</time>
      </trkpt>
      <trkpt lat="45.99964" lon="4.84045">
        <ele>259</ele>
        <time>2018-08-06T09:35:57Z</time>
      </trkpt>
      <trkpt lat="45.99966" lon="4.84052">
        <ele>259</ele>
        <time>2018-08-06T09:35:58Z</time>
      </trkpt>
      <trkpt lat="45.99968" lon="4.8406">
        <ele>259</ele>
        <time>2018-08-06T09:35:59Z</time>
      </trkpt>
      <trkpt lat="45.9997" lon="4.84067">
        <ele>259</ele>
        <time>2018-08-06T09:36:00Z</time>
      </trkpt>
      <trkpt lat="45.99971" lon="4.84074">
        <ele>259</ele>
        <time>2018-08-06T09:36:01Z</time>
      </trkpt>
      <trkpt lat="45.99974" lon="4.84081">
        <ele>259</ele>
        <time>2018-08-06T09:36:02Z</time>
      </trkpt>
      <trkpt lat="45.99976" lon="4.84088">
        <ele>258</ele>
        <time>2018-08-06T09:36:03Z</time>
      </trkpt>
      <trkpt lat="45.99977" lon="4.84096">
        <ele>258</ele>
        <time>2018-08-06T09:36:04Z</time>
      </trkpt>
      <trkpt lat="45.99979" lon="4.84102">
        <ele>258</ele>
        <time>2018-08-06T09:36:05Z</time>
      </trkpt>
      <trkpt lat="45.99981" lon="4.84109">
        <ele>258</ele>
        <time>2018-08-06T09:36:06Z</time>
      </trkpt>
      <trkpt lat="45.99982" lon="4.84116">
        <ele>258</ele>
        <time>2018-08-06T09:36:07Z</time>
      </trkpt>
      <trkpt lat="45.99985" lon="4.84122">
        <ele>258</ele>
        <time>2018-08-06T09:36:08Z</time>
      </trkpt>
      <trkpt lat="45.99987" lon="4.84129">
        <ele>257</ele>
        <time>2018-08-06T09:36:09Z</time>
      </trkpt>
      <trkpt lat="45.99989" lon="4.84137">
        <ele>257</ele>
        <time>2018-08-06T09:36:10Z</time>
      </trkpt>
      <trkpt lat="45.99994" lon="4.84144">
        <ele>257</ele>
        <time>2018-08-06T09:36:11Z</time>
      </trkpt>
      <trkpt lat="45.99998" lon="4.84153">
        <ele>257</ele>
        <time>2018-08-06T09:36:12Z</time>
      </trkpt>
      <trkpt lat="46" lon="4.84162">
        <ele>257</ele>
        <time>2018-08-06T09:36:13Z</time>
      </trkpt>
      <trkpt lat="46.00002" lon="4.84169">
        <ele>257</ele>
        <time>2018-08-06T09:36:14Z</time>
      </trkpt>
      <trkpt lat="46.00004" lon="4.84177">
        <ele>258</ele>
        <time>2018-08-06T09:36:15Z</time>
      </trkpt>
      <trkpt lat="46.00004" lon="4.84185">
        <ele>258</ele>
        <time>2018-08-06T09:36:16Z</time>
      </trkpt>
      <trkpt lat="46.00006" lon="4.8419">
        <ele>258</ele>
        <time>2018-08-06T09:36:17Z</time>
      </trkpt>
      <trkpt lat="46.00008" lon="4.84198">
        <ele>258</ele>
        <time>2018-08-06T09:36:18Z</time>
      </trkpt>
      <trkpt lat="46.00011" lon="4.84206">
        <ele>259</ele>
        <time>2018-08-06T09:36:19Z</time>
      </trkpt>
      <trkpt lat="46.00013" lon="4.84214">
        <ele>259</ele>
        <time>2018-08-06T09:36:20Z</time>
      </trkpt>
      <trkpt lat="46.00014" lon="4.84222">
        <ele>259</ele>
        <time>2018-08-06T09:36:21Z</time>
      </trkpt>
      <trkpt lat="46.00017" lon="4.84231">
        <ele>259</ele>
        <time>2018-08-06T09:36:22Z</time>
      </trkpt>
      <trkpt lat="46.00018" lon="4.84239">
        <ele>259</ele>
        <time>2018-08-06T09:36:23Z</time>
      </trkpt>
      <trkpt lat="46.0002" lon="4.84246">
        <ele>259</ele>
        <time>2018-08-06T09:36:24Z</time>
      </trkpt>
      <trkpt lat="46.00023" lon="4.84252">
        <ele>260</ele>
        <time>2018-08-06T09:36:25Z</time>
      </trkpt>
      <trkpt lat="46.00025" lon="4.84259">
        <ele>260</ele>
        <time>2018-08-06T09:36:26Z</time>
      </trkpt>
      <trkpt lat="46.00026" lon="4.84265">
        <ele>260</ele>
        <time>2018-08-06T09:36:27Z</time>
      </trkpt>
      <trkpt lat="46.00028" lon="4.84271">
        <ele>260</ele>
        <time>2018-08-06T09:36:28Z</time>
      </trkpt>
      <trkpt lat="46.0003" lon="4.84278">
        <ele>260</ele>
        <time>2018-08-06T09:36:29Z</time>
      </trkpt>
      <trkpt lat="46.00032" lon="4.84284">
        <ele>260</ele>
        <time>2018-08-06T09:36:30Z</time>
      </trkpt>
      <trkpt lat="46.00033" lon="4.84291">
        <ele>260</ele>
        <time>2018-08-06T09:36:31Z</time>
      </trkpt>
      <trkpt lat="46.00035" lon="4.84298">
        <ele>259</ele>
        <time>2018-08-06T09:36:32Z</time>
      </trkpt>
      <trkpt lat="46.00038" lon="4.84305">
        <ele>259</ele>
        <time>2018-08-06T09:36:33Z</time>
      </trkpt>
      <trkpt lat="46.0004" lon="4.84311">
        <ele>259</ele>
        <time>2018-08-06T09:36:34Z</time>
      </trkpt>
      <trkpt lat="46.00043" lon="4.84321">
        <ele>260</ele>
        <time>2018-08-06T09:36:35Z</time>
      </trkpt>
      <trkpt lat="46.00046" lon="4.84328">
        <ele>260</ele>
        <time>2018-08-06T09:36:36Z</time>
      </trkpt>
      <trkpt lat="46.00048" lon="4.84337">
        <ele>259</ele>
        <time>2018-08-06T09:36:37Z</time>
      </trkpt>
      <trkpt lat="46.00049" lon="4.84344">
        <ele>259</ele>
        <time>2018-08-06T09:36:38Z</time>
      </trkpt>
      <trkpt lat="46.00051" lon="4.84353">
        <ele>259</ele>
        <time>2018-08-06T09:36:39Z</time>
      </trkpt>
      <trkpt lat="46.00052" lon="4.84361">
        <ele>259</ele>
        <time>2018-08-06T09:36:40Z</time>
      </trkpt>
      <trkpt lat="46.00054" lon="4.84369">
        <ele>259</ele>
        <time>2018-08-06T09:36:41Z</time>
      </trkpt>
      <trkpt lat="46.00055" lon="4.84378">
        <ele>259</ele>
        <time>2018-08-06T09:36:42Z</time>
      </trkpt>
      <trkpt lat="46.00056" lon="4.84386">
        <ele>259</ele>
        <time>2018-08-06T09:36:43Z</time>
      </trkpt>
      <trkpt lat="46.00058" lon="4.84394">
        <ele>259</ele>
        <time>2018-08-06T09:36:44Z</time>
      </trkpt>
      <trkpt lat="46.00059" lon="4.84402">
        <ele>259</ele>
        <time>2018-08-06T09:36:45Z</time>
      </trkpt>
      <trkpt lat="46.0006" lon="4.84411">
        <ele>259</ele>
        <time>2018-08-06T09:36:46Z</time>
      </trkpt>
      <trkpt lat="46.00062" lon="4.84419">
        <ele>258</ele>
        <time>2018-08-06T09:36:47Z</time>
      </trkpt>
      <trkpt lat="46.00064" lon="4.84428">
        <ele>258</ele>
        <time>2018-08-06T09:36:48Z</time>
      </trkpt>
      <trkpt lat="46.00065" lon="4.84437">
        <ele>258</ele>
        <time>2018-08-06T09:36:49Z</time>
      </trkpt>
      <trkpt lat="46.00066" lon="4.84446">
        <ele>258</ele>
        <time>2018-08-06T09:36:50Z</time>
      </trkpt>
      <trkpt lat="46.00068" lon="4.84456">
        <ele>258</ele>
        <time>2018-08-06T09:36:51Z</time>
      </trkpt>
      <trkpt lat="46.00069" lon="4.84465">
        <ele>258</ele>
        <time>2018-08-06T09:36:52Z</time>
      </trkpt>
      <trkpt lat="46.0007" lon="4.84474">
        <ele>258</ele>
        <time>2018-08-06T09:36:53Z</time>
      </trkpt>
      <trkpt lat="46.00072" lon="4.84482">
        <ele>258</ele>
        <time>2018-08-06T09:36:54Z</time>
      </trkpt>
      <trkpt lat="46.00074" lon="4.84489">
        <ele>259</ele>
        <time>2018-08-06T09:36:55Z</time>
      </trkpt>
      <trkpt lat="46.00074" lon="4.84496">
        <ele>259</ele>
        <time>2018-08-06T09:36:56Z</time>
      </trkpt>
      <trkpt lat="46.00076" lon="4.84508">
        <ele>258</ele>
        <time>2018-08-06T09:36:58Z</time>
      </trkpt>
      <trkpt lat="46.00077" lon="4.84514">
        <ele>258</ele>
        <time>2018-08-06T09:36:59Z</time>
      </trkpt>
      <trkpt lat="46.00081" lon="4.84524">
        <ele>258</ele>
        <time>2018-08-06T09:37:03Z</time>
      </trkpt>
      <trkpt lat="46.00083" lon="4.84526">
        <ele>258</ele>
        <time>2018-08-06T09:37:04Z</time>
      </trkpt>
      <trkpt lat="46.00089" lon="4.84517">
        <ele>259</ele>
        <time>2018-08-06T09:37:08Z</time>
      </trkpt>
      <trkpt lat="46.0009" lon="4.84514">
        <ele>259</ele>
        <time>2018-08-06T09:37:09Z</time>
      </trkpt>
      <trkpt lat="46.00092" lon="4.84506">
        <ele>259</ele>
        <time>2018-08-06T09:37:11Z</time>
      </trkpt>
      <trkpt lat="46.00094" lon="4.84494">
        <ele>259</ele>
        <time>2018-08-06T09:37:12Z</time>
      </trkpt>
      <trkpt lat="46.00096" lon="4.84482">
        <ele>260</ele>
        <time>2018-08-06T09:37:14Z</time>
      </trkpt>
      <trkpt lat="46.00096" lon="4.84476">
        <ele>260</ele>
        <time>2018-08-06T09:37:15Z</time>
      </trkpt>
      <trkpt lat="46.00096" lon="4.84464">
        <ele>260</ele>
        <time>2018-08-06T09:37:18Z</time>
      </trkpt>
      <trkpt lat="46.00096" lon="4.84461">
        <ele>260</ele>
        <time>2018-08-06T09:37:19Z</time>
      </trkpt>
      <trkpt lat="46.00097" lon="4.84449">
        <ele>260</ele>
        <time>2018-08-06T09:37:23Z</time>
      </trkpt>
      <trkpt lat="46.00096" lon="4.84447">
        <ele>260</ele>
        <time>2018-08-06T09:37:24Z</time>
      </trkpt>
      <trkpt lat="46.00087" lon="4.84446">
        <ele>260</ele>
        <time>2018-08-06T09:37:29Z</time>
      </trkpt>
      <trkpt lat="46.00086" lon="4.84448">
        <ele>260</ele>
        <time>2018-08-06T09:37:30Z</time>
      </trkpt>
      <trkpt lat="46.00084" lon="4.84449">
        <ele>260</ele>
        <time>2018-08-06T09:37:31Z</time>
      </trkpt>
      <trkpt lat="46.00084" lon="4.8445">
        <ele>260</ele>
        <time>2018-08-06T09:37:32Z</time>
      </trkpt>
      <trkpt lat="46.00082" lon="4.84452">
        <ele>258</ele>
        <time>2018-08-06T09:37:35Z</time>
      </trkpt>
      <trkpt lat="46.00082" lon="4.84452">
        <ele>258</ele>
        <time>2018-08-06T09:37:36Z</time>
      </trkpt>
      <trkpt lat="46.0008" lon="4.84454">
        <ele>258</ele>
        <time>2018-08-06T09:37:51Z</time>
      </trkpt>
      <trkpt lat="46.0008" lon="4.84454">
        <ele>258</ele>
        <time>2018-08-06T09:37:52Z</time>
      </trkpt>
      <trkpt lat="46.00078" lon="4.84455">
        <ele>258</ele>
        <time>2018-08-06T09:40:50Z</time>
      </trkpt>
      <trkpt lat="46.00078" lon="4.84455">
        <ele>258</ele>
        <time>2018-08-06T09:40:51Z</time>
      </trkpt>
      <trkpt lat="46.00079" lon="4.84451">
        <ele>258</ele>
        <time>2018-08-06T09:44:28Z</time>
      </trkpt>
      <trkpt lat="46.00079" lon="4.84451">
        <ele>258</ele>
        <time>2018-08-06T09:44:29Z</time>
      </trkpt>
      <trkpt lat="46.00079" lon="4.84451">
        <ele>258</ele>
        <time>2018-08-06T09:44:30Z</time>
      </trkpt>
      <trkpt lat="46.0008" lon="4.84452">
        <ele>258</ele>
        <time>2018-08-06T09:45:12Z</time>
      </trkpt>
      <trkpt lat="46.00081" lon="4.84452">
        <ele>258</ele>
        <time>2018-08-06T09:45:13Z</time>
      </trkpt>
      <trkpt lat="46.0008" lon="4.84452">
        <ele>258</ele>
        <time>2018-08-06T09:45:23Z</time>
      </trkpt>
      <trkpt lat="46.0008" lon="4.84452">
        <ele>258</ele>
        <time>2018-08-06T09:45:24Z</time>
      </trkpt>
      <trkpt lat="46.00086" lon="4.8446">
        <ele>260</ele>
        <time>2018-08-06T09:45:51Z</time>
      </trkpt>
      <trkpt lat="46.00087" lon="4.84461">
        <ele>260</ele>
        <time>2018-08-06T09:45:52Z</time>
      </trkpt>
      <trkpt lat="46.00086" lon="4.84472">
        <ele>260</ele>
        <time>2018-08-06T09:45:56Z</time>
      </trkpt>
      <trkpt lat="46.00085" lon="4.84476">
        <ele>260</ele>
        <time>2018-08-06T09:45:57Z</time>
      </trkpt>
      <trkpt lat="46.00083" lon="4.84484">
        <ele>259</ele>
        <time>2018-08-06T09:45:59Z</time>
      </trkpt>
      <trkpt lat="46.0008" lon="4.84496">
        <ele>259</ele>
        <time>2018-08-06T09:46:00Z</time>
      </trkpt>
      <trkpt lat="46.00076" lon="4.84507">
        <ele>258</ele>
        <time>2018-08-06T09:46:02Z</time>
      </trkpt>
      <trkpt lat="46.00075" lon="4.84509">
        <ele>258</ele>
        <time>2018-08-06T09:46:03Z</time>
      </trkpt>
      <trkpt lat="46.00072" lon="4.84521">
        <ele>258</ele>
        <time>2018-08-06T09:46:05Z</time>
      </trkpt>
      <trkpt lat="46.00072" lon="4.84526">
        <ele>257</ele>
        <time>2018-08-06T09:46:06Z</time>
      </trkpt>
      <trkpt lat="46.00072" lon="4.84538">
        <ele>257</ele>
        <time>2018-08-06T09:46:08Z</time>
      </trkpt>
      <trkpt lat="46.00072" lon="4.84545">
        <ele>257</ele>
        <time>2018-08-06T09:46:09Z</time>
      </trkpt>
      <trkpt lat="46.00073" lon="4.84551">
        <ele>257</ele>
        <time>2018-08-06T09:46:10Z</time>
      </trkpt>
      <trkpt lat="46.00073" lon="4.8456">
        <ele>257</ele>
        <time>2018-08-06T09:46:11Z</time>
      </trkpt>
      <trkpt lat="46.00074" lon="4.84569">
        <ele>257</ele>
        <time>2018-08-06T09:46:12Z</time>
      </trkpt>
      <trkpt lat="46.00075" lon="4.84577">
        <ele>257</ele>
        <time>2018-08-06T09:46:13Z</time>
      </trkpt>
      <trkpt lat="46.00075" lon="4.84585">
        <ele>257</ele>
        <time>2018-08-06T09:46:14Z</time>
      </trkpt>
      <trkpt lat="46.00074" lon="4.84591">
        <ele>257</ele>
        <time>2018-08-06T09:46:15Z</time>
      </trkpt>
      <trkpt lat="46.00075" lon="4.84598">
        <ele>256</ele>
        <time>2018-08-06T09:46:16Z</time>
      </trkpt>
      <trkpt lat="46.00075" lon="4.84604">
        <ele>256</ele>
        <time>2018-08-06T09:46:17Z</time>
      </trkpt>
      <trkpt lat="46.00075" lon="4.84615">
        <ele>256</ele>
        <time>2018-08-06T09:46:19Z</time>
      </trkpt>
      <trkpt lat="46.00076" lon="4.84622">
        <ele>256</ele>
        <time>2018-08-06T09:46:20Z</time>
      </trkpt>
      <trkpt lat="46.00077" lon="4.84635">
        <ele>256</ele>
        <time>2018-08-06T09:46:22Z</time>
      </trkpt>
      <trkpt lat="46.00079" lon="4.84641">
        <ele>256</ele>
        <time>2018-08-06T09:46:23Z</time>
      </trkpt>
      <trkpt lat="46.0008" lon="4.84653">
        <ele>256</ele>
        <time>2018-08-06T09:46:25Z</time>
      </trkpt>
      <trkpt lat="46.00081" lon="4.8466">
        <ele>256</ele>
        <time>2018-08-06T09:46:26Z</time>
      </trkpt>
      <trkpt lat="46.00081" lon="4.84673">
        <ele>256</ele>
        <time>2018-08-06T09:46:28Z</time>
      </trkpt>
      <trkpt lat="46.00081" lon="4.8468">
        <ele>256</ele>
        <time>2018-08-06T09:46:29Z</time>
      </trkpt>
      <trkpt lat="46.00082" lon="4.84687">
        <ele>256</ele>
        <time>2018-08-06T09:46:30Z</time>
      </trkpt>
      <trkpt lat="46.00082" lon="4.84694">
        <ele>256</ele>
        <time>2018-08-06T09:46:31Z</time>
      </trkpt>
      <trkpt lat="46.00079" lon="4.84706">
        <ele>257</ele>
        <time>2018-08-06T09:46:34Z</time>
      </trkpt>
      <trkpt lat="46.00078" lon="4.84714">
        <ele>257</ele>
        <time>2018-08-06T09:46:35Z</time>
      </trkpt>
      <trkpt lat="46.00077" lon="4.8472">
        <ele>257</ele>
        <time>2018-08-06T09:46:36Z</time>
      </trkpt>
      <trkpt lat="46.00077" lon="4.84727">
        <ele>257</ele>
        <time>2018-08-06T09:46:37Z</time>
      </trkpt>
      <trkpt lat="46.00076" lon="4.84735">
        <ele>257</ele>
        <time>2018-08-06T09:46:38Z</time>
      </trkpt>
      <trkpt lat="46.00075" lon="4.84741">
        <ele>257</ele>
        <time>2018-08-06T09:46:39Z</time>
      </trkpt>
      <trkpt lat="46.00074" lon="4.84747">
        <ele>258</ele>
        <time>2018-08-06T09:46:40Z</time>
      </trkpt>
      <trkpt lat="46.00077" lon="4.84758">
        <ele>258</ele>
        <time>2018-08-06T09:46:41Z</time>
      </trkpt>
      <trkpt lat="46.00076" lon="4.84771">
        <ele>259</ele>
        <time>2018-08-06T09:46:43Z</time>
      </trkpt>
      <trkpt lat="46.00076" lon="4.84777">
        <ele>259</ele>
        <time>2018-08-06T09:46:44Z</time>
      </trkpt>
      <trkpt lat="46.00076" lon="4.84789">
        <ele>259</ele>
        <time>2018-08-06T09:46:46Z</time>
      </trkpt>
      <trkpt lat="46.00076" lon="4.84793">
        <ele>260</ele>
        <time>2018-08-06T09:46:47Z</time>
      </trkpt>
      <trkpt lat="46.00074" lon="4.848">
        <ele>260</ele>
        <time>2018-08-06T09:46:48Z</time>
      </trkpt>
      <trkpt lat="46.00074" lon="4.84808">
        <ele>260</ele>
        <time>2018-08-06T09:46:49Z</time>
      </trkpt>
      <trkpt lat="46.00074" lon="4.8482">
        <ele>261</ele>
        <time>2018-08-06T09:46:51Z</time>
      </trkpt>
      <trkpt lat="46.00074" lon="4.84822">
        <ele>261</ele>
        <time>2018-08-06T09:46:52Z</time>
      </trkpt>
      <trkpt lat="46.00074" lon="4.84833">
        <ele>262</ele>
        <time>2018-08-06T09:46:55Z</time>
      </trkpt>
      <trkpt lat="46.00074" lon="4.84836">
        <ele>262</ele>
        <time>2018-08-06T09:46:56Z</time>
      </trkpt>
      <trkpt lat="46.00076" lon="4.84846">
        <ele>262</ele>
        <time>2018-08-06T09:46:59Z</time>
      </trkpt>
      <trkpt lat="46.00076" lon="4.8485">
        <ele>262</ele>
        <time>2018-08-06T09:47:00Z</time>
      </trkpt>
      <trkpt lat="46.0008" lon="4.84859">
        <ele>262</ele>
        <time>2018-08-06T09:47:03Z</time>
      </trkpt>
      <trkpt lat="46.00083" lon="4.84861">
        <ele>262</ele>
        <time>2018-08-06T09:47:04Z</time>
      </trkpt>
      <trkpt lat="46.0009" lon="4.84862">
        <ele>263</ele>
        <time>2018-08-06T09:47:07Z</time>
      </trkpt>
      <trkpt lat="46.001" lon="4.84861">
        <ele>263</ele>
        <time>2018-08-06T09:47:08Z</time>
      </trkpt>
      <trkpt lat="46.00107" lon="4.84862">
        <ele>263</ele>
        <time>2018-08-06T09:47:11Z</time>
      </trkpt>
      <trkpt lat="46.00115" lon="4.84862">
        <ele>263</ele>
        <time>2018-08-06T09:47:12Z</time>
      </trkpt>
      <trkpt lat="46.00119" lon="4.84861">
        <ele>263</ele>
        <time>2018-08-06T09:47:14Z</time>
      </trkpt>
      <trkpt lat="46.00125" lon="4.84862">
        <ele>263</ele>
        <time>2018-08-06T09:47:15Z</time>
      </trkpt>
      <trkpt lat="46.00132" lon="4.84864">
        <ele>263</ele>
        <time>2018-08-06T09:47:17Z</time>
      </trkpt>
      <trkpt lat="46.00136" lon="4.84864">
        <ele>263</ele>
        <time>2018-08-06T09:47:18Z</time>
      </trkpt>
      <trkpt lat="46.00143" lon="4.84861">
        <ele>263</ele>
        <time>2018-08-06T09:47:21Z</time>
      </trkpt>
      <trkpt lat="46.00145" lon="4.8486">
        <ele>263</ele>
        <time>2018-08-06T09:47:22Z</time>
      </trkpt>
      <trkpt lat="46.00148" lon="4.84859">
        <ele>263</ele>
        <time>2018-08-06T09:47:23Z</time>
      </trkpt>
      <trkpt lat="46.00156" lon="4.84857">
        <ele>262</ele>
        <time>2018-08-06T09:47:24Z</time>
      </trkpt>
      <trkpt lat="46.00164" lon="4.8485">
        <ele>262</ele>
        <time>2018-08-06T09:47:26Z</time>
      </trkpt>
      <trkpt lat="46.00165" lon="4.84848">
        <ele>262</ele>
        <time>2018-08-06T09:47:27Z</time>
      </trkpt>
      <trkpt lat="46.00168" lon="4.84835">
        <ele>261</ele>
        <time>2018-08-06T09:47:28Z</time>
      </trkpt>
      <trkpt lat="46.00167" lon="4.84823">
        <ele>261</ele>
        <time>2018-08-06T09:47:30Z</time>
      </trkpt>
      <trkpt lat="46.00166" lon="4.84816">
        <ele>260</ele>
        <time>2018-08-06T09:47:31Z</time>
      </trkpt>
      <trkpt lat="46.00166" lon="4.84808">
        <ele>260</ele>
        <time>2018-08-06T09:47:32Z</time>
      </trkpt>
      <trkpt lat="46.00165" lon="4.848">
        <ele>260</ele>
        <time>2018-08-06T09:47:33Z</time>
      </trkpt>
      <trkpt lat="46.00165" lon="4.84792">
        <ele>260</ele>
        <time>2018-08-06T09:47:34Z</time>
      </trkpt>
      <trkpt lat="46.00164" lon="4.84784">
        <ele>259</ele>
        <time>2018-08-06T09:47:35Z</time>
      </trkpt>
      <trkpt lat="46.00163" lon="4.84775">
        <ele>259</ele>
        <time>2018-08-06T09:47:36Z</time>
      </trkpt>
      <trkpt lat="46.00163" lon="4.84767">
        <ele>259</ele>
        <time>2018-08-06T09:47:37Z</time>
      </trkpt>
      <trkpt lat="46.00161" lon="4.8476">
        <ele>259</ele>
        <time>2018-08-06T09:47:38Z</time>
      </trkpt>
      <trkpt lat="46.00162" lon="4.84752">
        <ele>258</ele>
        <time>2018-08-06T09:47:39Z</time>
      </trkpt>
      <trkpt lat="46.0016" lon="4.84744">
        <ele>258</ele>
        <time>2018-08-06T09:47:40Z</time>
      </trkpt>
      <trkpt lat="46.0016" lon="4.84737">
        <ele>258</ele>
        <time>2018-08-06T09:47:41Z</time>
      </trkpt>
      <trkpt lat="46.00164" lon="4.84729">
        <ele>258</ele>
        <time>2018-08-06T09:47:43Z</time>
      </trkpt>
      <trkpt lat="46.00167" lon="4.84725">
        <ele>258</ele>
        <time>2018-08-06T09:47:44Z</time>
      </trkpt>
      <trkpt lat="46.00172" lon="4.84723">
        <ele>258</ele>
        <time>2018-08-06T09:47:45Z</time>
      </trkpt>
      <trkpt lat="46.00177" lon="4.84724">
        <ele>258</ele>
        <time>2018-08-06T09:47:46Z</time>
      </trkpt>
      <trkpt lat="46.00182" lon="4.84716">
        <ele>258</ele>
        <time>2018-08-06T09:47:48Z</time>
      </trkpt>
      <trkpt lat="46.00182" lon="4.8471">
        <ele>258</ele>
        <time>2018-08-06T09:47:49Z</time>
      </trkpt>
      <trkpt lat="46.0018" lon="4.847">
        <ele>258</ele>
        <time>2018-08-06T09:47:51Z</time>
      </trkpt>
      <trkpt lat="46.00176" lon="4.84696">
        <ele>258</ele>
        <time>2018-08-06T09:47:52Z</time>
      </trkpt>
      <trkpt lat="46.00171" lon="4.84692">
        <ele>258</ele>
        <time>2018-08-06T09:47:54Z</time>
      </trkpt>
      <trkpt lat="46.00162" lon="4.84699">
        <ele>258</ele>
        <time>2018-08-06T09:47:55Z</time>
      </trkpt>
      <trkpt lat="46.00158" lon="4.84701">
        <ele>258</ele>
        <time>2018-08-06T09:47:56Z</time>
      </trkpt>
      <trkpt lat="46.00153" lon="4.84703">
        <ele>258</ele>
        <time>2018-08-06T09:47:57Z</time>
      </trkpt>
      <trkpt lat="46.00144" lon="4.84706">
        <ele>258</ele>
        <time>2018-08-06T09:47:59Z</time>
      </trkpt>
      <trkpt lat="46.00138" lon="4.84707">
        <ele>258</ele>
        <time>2018-08-06T09:48:00Z</time>
      </trkpt>
      <trkpt lat="46.00133" lon="4.84708">
        <ele>258</ele>
        <time>2018-08-06T09:48:01Z</time>
      </trkpt>
      <trkpt lat="46.00127" lon="4.84708">
        <ele>258</ele>
        <time>2018-08-06T09:48:02Z</time>
      </trkpt>
      <trkpt lat="46.00119" lon="4.84707">
        <ele>257</ele>
        <time>2018-08-06T09:48:04Z</time>
      </trkpt>
      <trkpt lat="46.00117" lon="4.84707">
        <ele>257</ele>
        <time>2018-08-06T09:48:05Z</time>
      </trkpt>
      <trkpt lat="46.00113" lon="4.84707">
        <ele>257</ele>
        <time>2018-08-06T09:48:07Z</time>
      </trkpt>
      <trkpt lat="46.00106" lon="4.84708">
        <ele>257</ele>
        <time>2018-08-06T09:48:08Z</time>
      </trkpt>
      <trkpt lat="46.00098" lon="4.84705">
        <ele>257</ele>
        <time>2018-08-06T09:48:10Z</time>
      </trkpt>
      <trkpt lat="46.00096" lon="4.84705">
        <ele>257</ele>
        <time>2018-08-06T09:48:11Z</time>
      </trkpt>
      <trkpt lat="46.00088" lon="4.84702">
        <ele>257</ele>
        <time>2018-08-06T09:48:15Z</time>
      </trkpt>
      <trkpt lat="46.00082" lon="4.84698">
        <ele>257</ele>
        <time>2018-08-06T09:48:16Z</time>
      </trkpt>
      <trkpt lat="46.00077" lon="4.84694">
        <ele>256</ele>
        <time>2018-08-06T09:48:17Z</time>
      </trkpt>
      <trkpt lat="46.00073" lon="4.84693">
        <ele>256</ele>
        <time>2018-08-06T09:48:18Z</time>
      </trkpt>
      <trkpt lat="46.00067" lon="4.84692">
        <ele>256</ele>
        <time>2018-08-06T09:48:19Z</time>
      </trkpt>
      <trkpt lat="46.00062" lon="4.84691">
        <ele>256</ele>
        <time>2018-08-06T09:48:20Z</time>
      </trkpt>
      <trkpt lat="46.00055" lon="4.8469">
        <ele>256</ele>
        <time>2018-08-06T09:48:22Z</time>
      </trkpt>
      <trkpt lat="46.0005" lon="4.84689">
        <ele>256</ele>
        <time>2018-08-06T09:48:23Z</time>
      </trkpt>
      <trkpt lat="46.00045" lon="4.84685">
        <ele>256</ele>
        <time>2018-08-06T09:48:24Z</time>
      </trkpt>
      <trkpt lat="46.00039" lon="4.84683">
        <ele>256</ele>
        <time>2018-08-06T09:48:25Z</time>
      </trkpt>
      <trkpt lat="46.00032" lon="4.84682">
        <ele>256</ele>
        <time>2018-08-06T09:48:26Z</time>
      </trkpt>
      <trkpt lat="46.00028" lon="4.84682">
        <ele>256</ele>
        <time>2018-08-06T09:48:27Z</time>
      </trkpt>
      <trkpt lat="46.00023" lon="4.8468">
        <ele>256</ele>
        <time>2018-08-06T09:48:28Z</time>
      </trkpt>
      <trkpt lat="46.00018" lon="4.84679">
        <ele>256</ele>
        <time>2018-08-06T09:48:29Z</time>
      </trkpt>
      <trkpt lat="46.00013" lon="4.84678">
        <ele>256</ele>
        <time>2018-08-06T09:48:30Z</time>
      </trkpt>
      <trkpt lat="46.00008" lon="4.84678">
        <ele>256</ele>
        <time>2018-08-06T09:48:31Z</time>
      </trkpt>
      <trkpt lat="46.00003" lon="4.84677">
        <ele>256</ele>
        <time>2018-08-06T09:48:32Z</time>
      </trkpt>
      <trkpt lat="45.99998" lon="4.84674">
        <ele>255</ele>
        <time>2018-08-06T09:48:33Z</time>
      </trkpt>
      <trkpt lat="45.99992" lon="4.84674">
        <ele>255</ele>
        <time>2018-08-06T09:48:34Z</time>
      </trkpt>
      <trkpt lat="45.99986" lon="4.84674">
        <ele>255</ele>
        <time>2018-08-06T09:48:35Z</time>
      </trkpt>
      <trkpt lat="45.99981" lon="4.84673">
        <ele>255</ele>
        <time>2018-08-06T09:48:36Z</time>
      </trkpt>
      <trkpt lat="45.99976" lon="4.8467">
        <ele>255</ele>
        <time>2018-08-06T09:48:37Z</time>
      </trkpt>
      <trkpt lat="45.9997" lon="4.84669">
        <ele>255</ele>
        <time>2018-08-06T09:48:38Z</time>
      </trkpt>
      <trkpt lat="45.99965" lon="4.84668">
        <ele>255</ele>
        <time>2018-08-06T09:48:39Z</time>
      </trkpt>
      <trkpt lat="45.99959" lon="4.84667">
        <ele>254</ele>
        <time>2018-08-06T09:48:40Z</time>
      </trkpt>
      <trkpt lat="45.99955" lon="4.84666">
        <ele>254</ele>
        <time>2018-08-06T09:48:41Z</time>
      </trkpt>
      <trkpt lat="45.9995" lon="4.84663">
        <ele>254</ele>
        <time>2018-08-06T09:48:42Z</time>
      </trkpt>
      <trkpt lat="45.99943" lon="4.84661">
        <ele>254</ele>
        <time>2018-08-06T09:48:43Z</time>
      </trkpt>
      <trkpt lat="45.99936" lon="4.84663">
        <ele>254</ele>
        <time>2018-08-06T09:48:44Z</time>
      </trkpt>
      <trkpt lat="45.99932" lon="4.8466">
        <ele>254</ele>
        <time>2018-08-06T09:48:45Z</time>
      </trkpt>
      <trkpt lat="45.99924" lon="4.84662">
        <ele>254</ele>
        <time>2018-08-06T09:48:46Z</time>
      </trkpt>
      <trkpt lat="45.9992" lon="4.84662">
        <ele>254</ele>
        <time>2018-08-06T09:48:47Z</time>
      </trkpt>
      <trkpt lat="45.99912" lon="4.84656">
        <ele>254</ele>
        <time>2018-08-06T09:48:49Z</time>
      </trkpt>
      <trkpt lat="45.99907" lon="4.84655">
        <ele>254</ele>
        <time>2018-08-06T09:48:50Z</time>
      </trkpt>
      <trkpt lat="45.99902" lon="4.84652">
        <ele>254</ele>
        <time>2018-08-06T09:48:51Z</time>
      </trkpt>
      <trkpt lat="45.99897" lon="4.84651">
        <ele>254</ele>
        <time>2018-08-06T09:48:52Z</time>
      </trkpt>
      <trkpt lat="45.99893" lon="4.84651">
        <ele>254</ele>
        <time>2018-08-06T09:48:53Z</time>
      </trkpt>
      <trkpt lat="45.99887" lon="4.84649">
        <ele>254</ele>
        <time>2018-08-06T09:48:54Z</time>
      </trkpt>
      <trkpt lat="45.99882" lon="4.84648">
        <ele>254</ele>
        <time>2018-08-06T09:48:55Z</time>
      </trkpt>
      <trkpt lat="45.99876" lon="4.84648">
        <ele>254</ele>
        <time>2018-08-06T09:48:56Z</time>
      </trkpt>
      <trkpt lat="45.9987" lon="4.84646">
        <ele>254</ele>
        <time>2018-08-06T09:48:57Z</time>
      </trkpt>
      <trkpt lat="45.99866" lon="4.84645">
        <ele>254</ele>
        <time>2018-08-06T09:48:58Z</time>
      </trkpt>
      <trkpt lat="45.9986" lon="4.84644">
        <ele>254</ele>
        <time>2018-08-06T09:48:59Z</time>
      </trkpt>
      <trkpt lat="45.99854" lon="4.84645">
        <ele>254</ele>
        <time>2018-08-06T09:49:00Z</time>
      </trkpt>
      <trkpt lat="45.99849" lon="4.84643">
        <ele>254</ele>
        <time>2018-08-06T09:49:01Z</time>
      </trkpt>
      <trkpt lat="45.99842" lon="4.84641">
        <ele>254</ele>
        <time>2018-08-06T09:49:02Z</time>
      </trkpt>
      <trkpt lat="45.99837" lon="4.84639">
        <ele>254</ele>
        <time>2018-08-06T09:49:03Z</time>
      </trkpt>
      <trkpt lat="45.99832" lon="4.84637">
        <ele>254</ele>
        <time>2018-08-06T09:49:04Z</time>
      </trkpt>
      <trkpt lat="45.99826" lon="4.84637">
        <ele>254</ele>
        <time>2018-08-06T09:49:05Z</time>
      </trkpt>
      <trkpt lat="45.99821" lon="4.84635">
        <ele>254</ele>
        <time>2018-08-06T09:49:06Z</time>
      </trkpt>
      <trkpt lat="45.99815" lon="4.84635">
        <ele>254</ele>
        <time>2018-08-06T09:49:07Z</time>
      </trkpt>
      <trkpt lat="45.9981" lon="4.84632">
        <ele>254</ele>
        <time>2018-08-06T09:49:08Z</time>
      </trkpt>
      <trkpt lat="45.99804" lon="4.84633">
        <ele>254</ele>
        <time>2018-08-06T09:49:09Z</time>
      </trkpt>
      <trkpt lat="45.998" lon="4.84631">
        <ele>254</ele>
        <time>2018-08-06T09:49:10Z</time>
      </trkpt>
      <trkpt lat="45.99794" lon="4.84629">
        <ele>254</ele>
        <time>2018-08-06T09:49:11Z</time>
      </trkpt>
      <trkpt lat="45.99789" lon="4.84629">
        <ele>254</ele>
        <time>2018-08-06T09:49:12Z</time>
      </trkpt>
      <trkpt lat="45.99783" lon="4.84628">
        <ele>254</ele>
        <time>2018-08-06T09:49:13Z</time>
      </trkpt>
      <trkpt lat="45.99778" lon="4.84627">
        <ele>254</ele>
        <time>2018-08-06T09:49:14Z</time>
      </trkpt>
      <trkpt lat="45.99773" lon="4.84626">
        <ele>254</ele>
        <time>2018-08-06T09:49:15Z</time>
      </trkpt>
      <trkpt lat="45.99768" lon="4.84624">
        <ele>254</ele>
        <time>2018-08-06T09:49:16Z</time>
      </trkpt>
      <trkpt lat="45.99762" lon="4.84623">
        <ele>254</ele>
        <time>2018-08-06T09:49:17Z</time>
      </trkpt>
      <trkpt lat="45.99756" lon="4.84621">
        <ele>254</ele>
        <time>2018-08-06T09:49:18Z</time>
      </trkpt>
      <trkpt lat="45.9975" lon="4.84621">
        <ele>253</ele>
        <time>2018-08-06T09:49:19Z</time>
      </trkpt>
      <trkpt lat="45.99746" lon="4.84618">
        <ele>253</ele>
        <time>2018-08-06T09:49:20Z</time>
      </trkpt>
      <trkpt lat="45.99739" lon="4.84619">
        <ele>253</ele>
        <time>2018-08-06T09:49:21Z</time>
      </trkpt>
      <trkpt lat="45.99732" lon="4.84622">
        <ele>252</ele>
        <time>2018-08-06T09:49:22Z</time>
      </trkpt>
      <trkpt lat="45.99727" lon="4.84622">
        <ele>252</ele>
        <time>2018-08-06T09:49:23Z</time>
      </trkpt>
      <trkpt lat="45.99721" lon="4.84623">
        <ele>252</ele>
        <time>2018-08-06T09:49:24Z</time>
      </trkpt>
      <trkpt lat="45.99714" lon="4.84625">
        <ele>252</ele>
        <time>2018-08-06T09:49:25Z</time>
      </trkpt>
      <trkpt lat="45.99708" lon="4.84626">
        <ele>252</ele>
        <time>2018-08-06T09:49:26Z</time>
      </trkpt>
      <trkpt lat="45.99701" lon="4.84628">
        <ele>252</ele>
        <time>2018-08-06T09:49:27Z</time>
      </trkpt>
      <trkpt lat="45.99694" lon="4.84629">
        <ele>252</ele>
        <time>2018-08-06T09:49:28Z</time>
      </trkpt>
      <trkpt lat="45.99687" lon="4.84631">
        <ele>252</ele>
        <time>2018-08-06T09:49:29Z</time>
      </trkpt>
      <trkpt lat="45.9968" lon="4.84633">
        <ele>252</ele>
        <time>2018-08-06T09:49:30Z</time>
      </trkpt>
      <trkpt lat="45.99673" lon="4.84634">
        <ele>252</ele>
        <time>2018-08-06T09:49:31Z</time>
      </trkpt>
      <trkpt lat="45.99665" lon="4.84637">
        <ele>250</ele>
        <time>2018-08-06T09:49:32Z</time>
      </trkpt>
      <trkpt lat="45.99656" lon="4.8464">
        <ele>250</ele>
        <time>2018-08-06T09:49:33Z</time>
      </trkpt>
      <trkpt lat="45.9965" lon="4.84639">
        <ele>250</ele>
        <time>2018-08-06T09:49:34Z</time>
      </trkpt>
      <trkpt lat="45.99643" lon="4.84641">
        <ele>250</ele>
        <time>2018-08-06T09:49:35Z</time>
      </trkpt>
      <trkpt lat="45.99636" lon="4.84643">
        <ele>250</ele>
        <time>2018-08-06T09:49:36Z</time>
      </trkpt>
      <trkpt lat="45.99628" lon="4.84645">
        <ele>250</ele>
        <time>2018-08-06T09:49:37Z</time>
      </trkpt>
      <trkpt lat="45.99624" lon="4.84644">
        <ele>250</ele>
        <time>2018-08-06T09:49:38Z</time>
      </trkpt>
      <trkpt lat="45.99618" lon="4.84646">
        <ele>250</ele>
        <time>2018-08-06T09:49:39Z</time>
      </trkpt>
      <trkpt lat="45.99611" lon="4.84647">
        <ele>250</ele>
        <time>2018-08-06T09:49:40Z</time>
      </trkpt>
      <trkpt lat="45.99604" lon="4.84647">
        <ele>250</ele>
        <time>2018-08-06T09:49:41Z</time>
      </trkpt>
      <trkpt lat="45.99597" lon="4.84648">
        <ele>250</ele>
        <time>2018-08-06T09:49:42Z</time>
      </trkpt>
      <trkpt lat="45.99591" lon="4.8465">
        <ele>250</ele>
        <time>2018-08-06T09:49:43Z</time>
      </trkpt>
      <trkpt lat="45.99585" lon="4.84651">
        <ele>250</ele>
        <time>2018-08-06T09:49:44Z</time>
      </trkpt>
      <trkpt lat="45.99579" lon="4.84651">
        <ele>250</ele>
        <time>2018-08-06T09:49:45Z</time>
      </trkpt>
      <trkpt lat="45.99573" lon="4.84652">
        <ele>250</ele>
        <time>2018-08-06T09:49:46Z</time>
      </trkpt>
      <trkpt lat="45.99569" lon="4.84653">
        <ele>250</ele>
        <time>2018-08-06T09:49:47Z</time>
      </trkpt>
      <trkpt lat="45.99563" lon="4.84654">
        <ele>250</ele>
        <time>2018-08-06T09:49:48Z</time>
      </trkpt>
      <trkpt lat="45.99558" lon="4.84654">
        <ele>250</ele>
        <time>2018-08-06T09:49:49Z</time>
      </trkpt>
      <trkpt lat="45.99549" lon="4.84656">
        <ele>250</ele>
        <time>2018-08-06T09:49:51Z</time>
      </trkpt>
      <trkpt lat="45.99544" lon="4.84656">
        <ele>250</ele>
        <time>2018-08-06T09:49:52Z</time>
      </trkpt>
      <trkpt lat="45.9954" lon="4.84656">
        <ele>250</ele>
        <time>2018-08-06T09:49:53Z</time>
      </trkpt>
      <trkpt lat="45.99535" lon="4.84654">
        <ele>250</ele>
        <time>2018-08-06T09:49:54Z</time>
      </trkpt>
      <trkpt lat="45.99529" lon="4.84655">
        <ele>250</ele>
        <time>2018-08-06T09:49:55Z</time>
      </trkpt>
      <trkpt lat="45.99524" lon="4.84654">
        <ele>250</ele>
        <time>2018-08-06T09:49:56Z</time>
      </trkpt>
      <trkpt lat="45.99518" lon="4.84658">
        <ele>250</ele>
        <time>2018-08-06T09:49:57Z</time>
      </trkpt>
      <trkpt lat="45.99513" lon="4.84659">
        <ele>250</ele>
        <time>2018-08-06T09:49:58Z</time>
      </trkpt>
      <trkpt lat="45.99508" lon="4.8466">
        <ele>250</ele>
        <time>2018-08-06T09:49:59Z</time>
      </trkpt>
      <trkpt lat="45.99502" lon="4.84663">
        <ele>251</ele>
        <time>2018-08-06T09:50:00Z</time>
      </trkpt>
      <trkpt lat="45.99497" lon="4.84664">
        <ele>251</ele>
        <time>2018-08-06T09:50:01Z</time>
      </trkpt>
      <trkpt lat="45.99491" lon="4.84666">
        <ele>250</ele>
        <time>2018-08-06T09:50:02Z</time>
      </trkpt>
      <trkpt lat="45.99486" lon="4.84667">
        <ele>250</ele>
        <time>2018-08-06T09:50:03Z</time>
      </trkpt>
      <trkpt lat="45.99481" lon="4.84668">
        <ele>250</ele>
        <time>2018-08-06T09:50:04Z</time>
      </trkpt>
      <trkpt lat="45.99476" lon="4.84671">
        <ele>250</ele>
        <time>2018-08-06T09:50:05Z</time>
      </trkpt>
      <trkpt lat="45.99473" lon="4.84675">
        <ele>250</ele>
        <time>2018-08-06T09:50:06Z</time>
      </trkpt>
      <trkpt lat="45.99467" lon="4.84676">
        <ele>250</ele>
        <time>2018-08-06T09:50:07Z</time>
      </trkpt>
      <trkpt lat="45.99462" lon="4.84679">
        <ele>250</ele>
        <time>2018-08-06T09:50:08Z</time>
      </trkpt>
      <trkpt lat="45.99457" lon="4.84681">
        <ele>250</ele>
        <time>2018-08-06T09:50:09Z</time>
      </trkpt>
      <trkpt lat="45.99452" lon="4.84682">
        <ele>250</ele>
        <time>2018-08-06T09:50:10Z</time>
      </trkpt>
      <trkpt lat="45.99448" lon="4.84684">
        <ele>249</ele>
        <time>2018-08-06T09:50:11Z</time>
      </trkpt>
      <trkpt lat="45.99443" lon="4.84687">
        <ele>249</ele>
        <time>2018-08-06T09:50:12Z</time>
      </trkpt>
      <trkpt lat="45.99437" lon="4.84694">
        <ele>249</ele>
        <time>2018-08-06T09:50:13Z</time>
      </trkpt>
      <trkpt lat="45.99432" lon="4.84695">
        <ele>249</ele>
        <time>2018-08-06T09:50:14Z</time>
      </trkpt>
      <trkpt lat="45.99428" lon="4.84697">
        <ele>249</ele>
        <time>2018-08-06T09:50:15Z</time>
      </trkpt>
      <trkpt lat="45.99423" lon="4.84701">
        <ele>249</ele>
        <time>2018-08-06T09:50:16Z</time>
      </trkpt>
      <trkpt lat="45.99415" lon="4.84707">
        <ele>249</ele>
        <time>2018-08-06T09:50:18Z</time>
      </trkpt>
      <trkpt lat="45.99409" lon="4.84709">
        <ele>249</ele>
        <time>2018-08-06T09:50:19Z</time>
      </trkpt>
      <trkpt lat="45.99404" lon="4.84711">
        <ele>249</ele>
        <time>2018-08-06T09:50:20Z</time>
      </trkpt>
      <trkpt lat="45.99398" lon="4.84714">
        <ele>249</ele>
        <time>2018-08-06T09:50:21Z</time>
      </trkpt>
      <trkpt lat="45.99393" lon="4.84715">
        <ele>249</ele>
        <time>2018-08-06T09:50:22Z</time>
      </trkpt>
      <trkpt lat="45.99389" lon="4.84718">
        <ele>249</ele>
        <time>2018-08-06T09:50:23Z</time>
      </trkpt>
      <trkpt lat="45.99385" lon="4.84719">
        <ele>249</ele>
        <time>2018-08-06T09:50:24Z</time>
      </trkpt>
      <trkpt lat="45.99379" lon="4.84726">
        <ele>250</ele>
        <time>2018-08-06T09:50:25Z</time>
      </trkpt>
      <trkpt lat="45.99374" lon="4.84729">
        <ele>250</ele>
        <time>2018-08-06T09:50:26Z</time>
      </trkpt>
      <trkpt lat="45.9937" lon="4.84728">
        <ele>250</ele>
        <time>2018-08-06T09:50:27Z</time>
      </trkpt>
      <trkpt lat="45.99366" lon="4.84727">
        <ele>250</ele>
        <time>2018-08-06T09:50:28Z</time>
      </trkpt>
      <trkpt lat="45.99359" lon="4.8473">
        <ele>250</ele>
        <time>2018-08-06T09:50:29Z</time>
      </trkpt>
      <trkpt lat="45.99355" lon="4.84733">
        <ele>250</ele>
        <time>2018-08-06T09:50:30Z</time>
      </trkpt>
      <trkpt lat="45.9935" lon="4.84735">
        <ele>250</ele>
        <time>2018-08-06T09:50:31Z</time>
      </trkpt>
      <trkpt lat="45.99343" lon="4.84737">
        <ele>250</ele>
        <time>2018-08-06T09:50:33Z</time>
      </trkpt>
      <trkpt lat="45.99338" lon="4.84741">
        <ele>251</ele>
        <time>2018-08-06T09:50:34Z</time>
      </trkpt>
      <trkpt lat="45.99333" lon="4.84743">
        <ele>251</ele>
        <time>2018-08-06T09:50:35Z</time>
      </trkpt>
      <trkpt lat="45.99329" lon="4.84746">
        <ele>251</ele>
        <time>2018-08-06T09:50:36Z</time>
      </trkpt>
      <trkpt lat="45.99321" lon="4.84752">
        <ele>252</ele>
        <time>2018-08-06T09:50:38Z</time>
      </trkpt>
      <trkpt lat="45.99319" lon="4.84753">
        <ele>252</ele>
        <time>2018-08-06T09:50:39Z</time>
      </trkpt>
      <trkpt lat="45.99313" lon="4.84758">
        <ele>252</ele>
        <time>2018-08-06T09:50:40Z</time>
      </trkpt>
      <trkpt lat="45.99309" lon="4.8476">
        <ele>252</ele>
        <time>2018-08-06T09:50:41Z</time>
      </trkpt>
      <trkpt lat="45.99303" lon="4.84765">
        <ele>253</ele>
        <time>2018-08-06T09:50:43Z</time>
      </trkpt>
      <trkpt lat="45.99298" lon="4.84768">
        <ele>253</ele>
        <time>2018-08-06T09:50:44Z</time>
      </trkpt>
      <trkpt lat="45.99293" lon="4.8477">
        <ele>253</ele>
        <time>2018-08-06T09:50:46Z</time>
      </trkpt>
      <trkpt lat="45.99288" lon="4.84774">
        <ele>253</ele>
        <time>2018-08-06T09:50:47Z</time>
      </trkpt>
      <trkpt lat="45.99282" lon="4.84778">
        <ele>253</ele>
        <time>2018-08-06T09:50:49Z</time>
      </trkpt>
      <trkpt lat="45.99277" lon="4.84781">
        <ele>253</ele>
        <time>2018-08-06T09:50:50Z</time>
      </trkpt>
      <trkpt lat="45.99269" lon="4.84785">
        <ele>253</ele>
        <time>2018-08-06T09:50:52Z</time>
      </trkpt>
      <trkpt lat="45.99267" lon="4.84786">
        <ele>253</ele>
        <time>2018-08-06T09:50:53Z</time>
      </trkpt>
      <trkpt lat="45.9926" lon="4.84789">
        <ele>254</ele>
        <time>2018-08-06T09:50:55Z</time>
      </trkpt>
      <trkpt lat="45.99258" lon="4.8479">
        <ele>254</ele>
        <time>2018-08-06T09:50:56Z</time>
      </trkpt>
      <trkpt lat="45.9925" lon="4.84795">
        <ele>254</ele>
        <time>2018-08-06T09:50:58Z</time>
      </trkpt>
      <trkpt lat="45.99246" lon="4.84797">
        <ele>256</ele>
        <time>2018-08-06T09:50:59Z</time>
      </trkpt>
      <trkpt lat="45.99237" lon="4.848">
        <ele>256</ele>
        <time>2018-08-06T09:51:03Z</time>
      </trkpt>
      <trkpt lat="45.99234" lon="4.84801">
        <ele>257</ele>
        <time>2018-08-06T09:51:04Z</time>
      </trkpt>
      <trkpt lat="45.99226" lon="4.84805">
        <ele>257</ele>
        <time>2018-08-06T09:51:07Z</time>
      </trkpt>
      <trkpt lat="45.99223" lon="4.84806">
        <ele>257</ele>
        <time>2018-08-06T09:51:08Z</time>
      </trkpt>
      <trkpt lat="45.99218" lon="4.84809">
        <ele>257</ele>
        <time>2018-08-06T09:51:10Z</time>
      </trkpt>
      <trkpt lat="45.99209" lon="4.84814">
        <ele>257</ele>
        <time>2018-08-06T09:51:11Z</time>
      </trkpt>
      <trkpt lat="45.99201" lon="4.84818">
        <ele>258</ele>
        <time>2018-08-06T09:51:15Z</time>
      </trkpt>
      <trkpt lat="45.99199" lon="4.84819">
        <ele>258</ele>
        <time>2018-08-06T09:51:16Z</time>
      </trkpt>
      <trkpt lat="45.9919" lon="4.84822">
        <ele>258</ele>
        <time>2018-08-06T09:51:19Z</time>
      </trkpt>
      <trkpt lat="45.99187" lon="4.84823">
        <ele>258</ele>
        <time>2018-08-06T09:51:20Z</time>
      </trkpt>
      <trkpt lat="45.99181" lon="4.84826">
        <ele>258</ele>
        <time>2018-08-06T09:51:22Z</time>
      </trkpt>
      <trkpt lat="45.99178" lon="4.84827">
        <ele>258</ele>
        <time>2018-08-06T09:51:23Z</time>
      </trkpt>
      <trkpt lat="45.99172" lon="4.8483">
        <ele>259</ele>
        <time>2018-08-06T09:51:25Z</time>
      </trkpt>
      <trkpt lat="45.99169" lon="4.84832">
        <ele>259</ele>
        <time>2018-08-06T09:51:26Z</time>
      </trkpt>
      <trkpt lat="45.99163" lon="4.84836">
        <ele>259</ele>
        <time>2018-08-06T09:51:28Z</time>
      </trkpt>
      <trkpt lat="45.99152" lon="4.84841">
        <ele>259</ele>
        <time>2018-08-06T09:51:29Z</time>
      </trkpt>
      <trkpt lat="45.99146" lon="4.84845">
        <ele>260</ele>
        <time>2018-08-06T09:51:32Z</time>
      </trkpt>
      <trkpt lat="45.99144" lon="4.84846">
        <ele>260</ele>
        <time>2018-08-06T09:51:33Z</time>
      </trkpt>
      <trkpt lat="45.99138" lon="4.84852">
        <ele>260</ele>
        <time>2018-08-06T09:51:36Z</time>
      </trkpt>
      <trkpt lat="45.99136" lon="4.84853">
        <ele>260</ele>
        <time>2018-08-06T09:51:37Z</time>
      </trkpt>
      <trkpt lat="45.99128" lon="4.84857">
        <ele>260</ele>
        <time>2018-08-06T09:51:40Z</time>
      </trkpt>
      <trkpt lat="45.99125" lon="4.84859">
        <ele>260</ele>
        <time>2018-08-06T09:51:41Z</time>
      </trkpt>
      <trkpt lat="45.99117" lon="4.84864">
        <ele>260</ele>
        <time>2018-08-06T09:51:44Z</time>
      </trkpt>
      <trkpt lat="45.99115" lon="4.84865">
        <ele>260</ele>
        <time>2018-08-06T09:51:45Z</time>
      </trkpt>
      <trkpt lat="45.99109" lon="4.84868">
        <ele>261</ele>
        <time>2018-08-06T09:51:47Z</time>
      </trkpt>
      <trkpt lat="45.99105" lon="4.84869">
        <ele>261</ele>
        <time>2018-08-06T09:51:48Z</time>
      </trkpt>
      <trkpt lat="45.99099" lon="4.84871">
        <ele>261</ele>
        <time>2018-08-06T09:51:50Z</time>
      </trkpt>
      <trkpt lat="45.99096" lon="4.84871">
        <ele>261</ele>
        <time>2018-08-06T09:51:51Z</time>
      </trkpt>
      <trkpt lat="45.9909" lon="4.84873">
        <ele>261</ele>
        <time>2018-08-06T09:51:53Z</time>
      </trkpt>
      <trkpt lat="45.99087" lon="4.84874">
        <ele>261</ele>
        <time>2018-08-06T09:51:54Z</time>
      </trkpt>
      <trkpt lat="45.99084" lon="4.84876">
        <ele>261</ele>
        <time>2018-08-06T09:51:55Z</time>
      </trkpt>
      <trkpt lat="45.99075" lon="4.8488">
        <ele>263</ele>
        <time>2018-08-06T09:51:56Z</time>
      </trkpt>
      <trkpt lat="45.99071" lon="4.84882">
        <ele>263</ele>
        <time>2018-08-06T09:51:58Z</time>
      </trkpt>
      <trkpt lat="45.99065" lon="4.84885">
        <ele>263</ele>
        <time>2018-08-06T09:51:59Z</time>
      </trkpt>
      <trkpt lat="45.99058" lon="4.84889">
        <ele>263</ele>
        <time>2018-08-06T09:52:02Z</time>
      </trkpt>
      <trkpt lat="45.99055" lon="4.84891">
        <ele>264</ele>
        <time>2018-08-06T09:52:03Z</time>
      </trkpt>
      <trkpt lat="45.99052" lon="4.84893">
        <ele>264</ele>
        <time>2018-08-06T09:52:04Z</time>
      </trkpt>
      <trkpt lat="45.99042" lon="4.84899">
        <ele>264</ele>
        <time>2018-08-06T09:52:05Z</time>
      </trkpt>
      <trkpt lat="45.99034" lon="4.84903">
        <ele>264</ele>
        <time>2018-08-06T09:52:07Z</time>
      </trkpt>
      <trkpt lat="45.99032" lon="4.84904">
        <ele>264</ele>
        <time>2018-08-06T09:52:08Z</time>
      </trkpt>
      <trkpt lat="45.99026" lon="4.84907">
        <ele>264</ele>
        <time>2018-08-06T09:52:09Z</time>
      </trkpt>
      <trkpt lat="45.99022" lon="4.84909">
        <ele>265</ele>
        <time>2018-08-06T09:52:10Z</time>
      </trkpt>
      <trkpt lat="45.99018" lon="4.84912">
        <ele>265</ele>
        <time>2018-08-06T09:52:11Z</time>
      </trkpt>
      <trkpt lat="45.99014" lon="4.84915">
        <ele>265</ele>
        <time>2018-08-06T09:52:12Z</time>
      </trkpt>
      <trkpt lat="45.99006" lon="4.8492">
        <ele>265</ele>
        <time>2018-08-06T09:52:14Z</time>
      </trkpt>
      <trkpt lat="45.99002" lon="4.84922">
        <ele>265</ele>
        <time>2018-08-06T09:52:15Z</time>
      </trkpt>
      <trkpt lat="45.98993" lon="4.84927">
        <ele>266</ele>
        <time>2018-08-06T09:52:17Z</time>
      </trkpt>
      <trkpt lat="45.98989" lon="4.84929">
        <ele>266</ele>
        <time>2018-08-06T09:52:18Z</time>
      </trkpt>
      <trkpt lat="45.98982" lon="4.84934">
        <ele>266</ele>
        <time>2018-08-06T09:52:20Z</time>
      </trkpt>
      <trkpt lat="45.98978" lon="4.84936">
        <ele>266</ele>
        <time>2018-08-06T09:52:21Z</time>
      </trkpt>
      <trkpt lat="45.9897" lon="4.84941">
        <ele>266</ele>
        <time>2018-08-06T09:52:23Z</time>
      </trkpt>
      <trkpt lat="45.98968" lon="4.84942">
        <ele>266</ele>
        <time>2018-08-06T09:52:24Z</time>
      </trkpt>
      <trkpt lat="45.98963" lon="4.84945">
        <ele>266</ele>
        <time>2018-08-06T09:52:25Z</time>
      </trkpt>
      <trkpt lat="45.98959" lon="4.84948">
        <ele>266</ele>
        <time>2018-08-06T09:52:26Z</time>
      </trkpt>
      <trkpt lat="45.98951" lon="4.84952">
        <ele>266</ele>
        <time>2018-08-06T09:52:28Z</time>
      </trkpt>
      <trkpt lat="45.98948" lon="4.84955">
        <ele>266</ele>
        <time>2018-08-06T09:52:29Z</time>
      </trkpt>
      <trkpt lat="45.98939" lon="4.84959">
        <ele>266</ele>
        <time>2018-08-06T09:52:32Z</time>
      </trkpt>
      <trkpt lat="45.98937" lon="4.8496">
        <ele>266</ele>
        <time>2018-08-06T09:52:33Z</time>
      </trkpt>
      <trkpt lat="45.98934" lon="4.84961">
        <ele>266</ele>
        <time>2018-08-06T09:52:34Z</time>
      </trkpt>
      <trkpt lat="45.98926" lon="4.84966">
        <ele>267</ele>
        <time>2018-08-06T09:52:35Z</time>
      </trkpt>
      <trkpt lat="45.98918" lon="4.84971">
        <ele>267</ele>
        <time>2018-08-06T09:52:37Z</time>
      </trkpt>
      <trkpt lat="45.98915" lon="4.84973">
        <ele>267</ele>
        <time>2018-08-06T09:52:38Z</time>
      </trkpt>
      <trkpt lat="45.98907" lon="4.84976">
        <ele>267</ele>
        <time>2018-08-06T09:52:41Z</time>
      </trkpt>
      <trkpt lat="45.98904" lon="4.84977">
        <ele>267</ele>
        <time>2018-08-06T09:52:42Z</time>
      </trkpt>
      <trkpt lat="45.98902" lon="4.84978">
        <ele>267</ele>
        <time>2018-08-06T09:52:43Z</time>
      </trkpt>
      <trkpt lat="45.98894" lon="4.8498">
        <ele>267</ele>
        <time>2018-08-06T09:52:44Z</time>
      </trkpt>
      <trkpt lat="45.98887" lon="4.84984">
        <ele>267</ele>
        <time>2018-08-06T09:52:46Z</time>
      </trkpt>
      <trkpt lat="45.98883" lon="4.84986">
        <ele>267</ele>
        <time>2018-08-06T09:52:47Z</time>
      </trkpt>
      <trkpt lat="45.98876" lon="4.84989">
        <ele>267</ele>
        <time>2018-08-06T09:52:49Z</time>
      </trkpt>
      <trkpt lat="45.98874" lon="4.84991">
        <ele>267</ele>
        <time>2018-08-06T09:52:50Z</time>
      </trkpt>
      <trkpt lat="45.98873" lon="4.84991">
        <ele>267</ele>
        <time>2018-08-06T09:52:51Z</time>
      </trkpt>
      <trkpt lat="45.98866" lon="4.84995">
        <ele>267</ele>
        <time>2018-08-06T09:52:52Z</time>
      </trkpt>
      <trkpt lat="45.98857" lon="4.84998">
        <ele>267</ele>
        <time>2018-08-06T09:52:54Z</time>
      </trkpt>
      <trkpt lat="45.98853" lon="4.85">
        <ele>267</ele>
        <time>2018-08-06T09:52:55Z</time>
      </trkpt>
      <trkpt lat="45.98846" lon="4.85003">
        <ele>267</ele>
        <time>2018-08-06T09:52:57Z</time>
      </trkpt>
      <trkpt lat="45.98842" lon="4.85006">
        <ele>267</ele>
        <time>2018-08-06T09:52:58Z</time>
      </trkpt>
      <trkpt lat="45.98834" lon="4.8501">
        <ele>267</ele>
        <time>2018-08-06T09:53:00Z</time>
      </trkpt>
      <trkpt lat="45.9883" lon="4.85013">
        <ele>267</ele>
        <time>2018-08-06T09:53:01Z</time>
      </trkpt>
      <trkpt lat="45.98826" lon="4.85015">
        <ele>267</ele>
        <time>2018-08-06T09:53:02Z</time>
      </trkpt>
      <trkpt lat="45.98823" lon="4.85021">
        <ele>267</ele>
        <time>2018-08-06T09:53:03Z</time>
      </trkpt>
      <trkpt lat="45.98814" lon="4.85022">
        <ele>267</ele>
        <time>2018-08-06T09:53:05Z</time>
      </trkpt>
      <trkpt lat="45.98811" lon="4.85026">
        <ele>267</ele>
        <time>2018-08-06T09:53:06Z</time>
      </trkpt>
      <trkpt lat="45.98803" lon="4.85029">
        <ele>267</ele>
        <time>2018-08-06T09:53:08Z</time>
      </trkpt>
      <trkpt lat="45.98799" lon="4.8503">
        <ele>267</ele>
        <time>2018-08-06T09:53:09Z</time>
      </trkpt>
      <trkpt lat="45.98791" lon="4.85033">
        <ele>267</ele>
        <time>2018-08-06T09:53:11Z</time>
      </trkpt>
      <trkpt lat="45.98784" lon="4.85034">
        <ele>267</ele>
        <time>2018-08-06T09:53:12Z</time>
      </trkpt>
      <trkpt lat="45.98778" lon="4.85032">
        <ele>267</ele>
        <time>2018-08-06T09:53:14Z</time>
      </trkpt>
      <trkpt lat="45.98771" lon="4.8504">
        <ele>268</ele>
        <time>2018-08-06T09:53:15Z</time>
      </trkpt>
      <trkpt lat="45.98766" lon="4.85041">
        <ele>268</ele>
        <time>2018-08-06T09:53:16Z</time>
      </trkpt>
      <trkpt lat="45.98762" lon="4.85045">
        <ele>268</ele>
        <time>2018-08-06T09:53:17Z</time>
      </trkpt>
      <trkpt lat="45.98753" lon="4.85049">
        <ele>268</ele>
        <time>2018-08-06T09:53:19Z</time>
      </trkpt>
      <trkpt lat="45.98749" lon="4.8505">
        <ele>269</ele>
        <time>2018-08-06T09:53:20Z</time>
      </trkpt>
      <trkpt lat="45.98745" lon="4.85051">
        <ele>269</ele>
        <time>2018-08-06T09:53:21Z</time>
      </trkpt>
      <trkpt lat="45.9874" lon="4.85056">
        <ele>269</ele>
        <time>2018-08-06T09:53:22Z</time>
      </trkpt>
      <trkpt lat="45.98737" lon="4.85061">
        <ele>269</ele>
        <time>2018-08-06T09:53:23Z</time>
      </trkpt>
      <trkpt lat="45.98732" lon="4.85062">
        <ele>269</ele>
        <time>2018-08-06T09:53:24Z</time>
      </trkpt>
      <trkpt lat="45.98727" lon="4.85066">
        <ele>270</ele>
        <time>2018-08-06T09:53:25Z</time>
      </trkpt>
      <trkpt lat="45.98724" lon="4.85068">
        <ele>270</ele>
        <time>2018-08-06T09:53:26Z</time>
      </trkpt>
      <trkpt lat="45.98717" lon="4.85071">
        <ele>270</ele>
        <time>2018-08-06T09:53:28Z</time>
      </trkpt>
      <trkpt lat="45.98713" lon="4.85073">
        <ele>270</ele>
        <time>2018-08-06T09:53:29Z</time>
      </trkpt>
      <trkpt lat="45.98709" lon="4.85077">
        <ele>270</ele>
        <time>2018-08-06T09:53:31Z</time>
      </trkpt>
      <trkpt lat="45.98704" lon="4.85079">
        <ele>270</ele>
        <time>2018-08-06T09:53:32Z</time>
      </trkpt>
      <trkpt lat="45.987" lon="4.85081">
        <ele>270</ele>
        <time>2018-08-06T09:53:34Z</time>
      </trkpt>
      <trkpt lat="45.98693" lon="4.85084">
        <ele>270</ele>
        <time>2018-08-06T09:53:35Z</time>
      </trkpt>
      <trkpt lat="45.98686" lon="4.85088">
        <ele>270</ele>
        <time>2018-08-06T09:53:37Z</time>
      </trkpt>
      <trkpt lat="45.98684" lon="4.85089">
        <ele>270</ele>
        <time>2018-08-06T09:53:38Z</time>
      </trkpt>
      <trkpt lat="45.98676" lon="4.85092">
        <ele>270</ele>
        <time>2018-08-06T09:53:40Z</time>
      </trkpt>
      <trkpt lat="45.98672" lon="4.85094">
        <ele>271</ele>
        <time>2018-08-06T09:53:41Z</time>
      </trkpt>
      <trkpt lat="45.98664" lon="4.85098">
        <ele>271</ele>
        <time>2018-08-06T09:53:43Z</time>
      </trkpt>
      <trkpt lat="45.9866" lon="4.851">
        <ele>271</ele>
        <time>2018-08-06T09:53:44Z</time>
      </trkpt>
      <trkpt lat="45.98655" lon="4.85103">
        <ele>271</ele>
        <time>2018-08-06T09:53:46Z</time>
      </trkpt>
      <trkpt lat="45.98649" lon="4.85106">
        <ele>272</ele>
        <time>2018-08-06T09:53:47Z</time>
      </trkpt>
      <trkpt lat="45.98642" lon="4.8511">
        <ele>272</ele>
        <time>2018-08-06T09:53:49Z</time>
      </trkpt>
      <trkpt lat="45.9864" lon="4.85111">
        <ele>272</ele>
        <time>2018-08-06T09:53:50Z</time>
      </trkpt>
      <trkpt lat="45.98636" lon="4.85114">
        <ele>272</ele>
        <time>2018-08-06T09:53:52Z</time>
      </trkpt>
      <trkpt lat="45.98629" lon="4.85117">
        <ele>272</ele>
        <time>2018-08-06T09:53:53Z</time>
      </trkpt>
      <trkpt lat="45.98622" lon="4.85121">
        <ele>272</ele>
        <time>2018-08-06T09:53:55Z</time>
      </trkpt>
      <trkpt lat="45.98617" lon="4.85124">
        <ele>272</ele>
        <time>2018-08-06T09:53:56Z</time>
      </trkpt>
      <trkpt lat="45.98612" lon="4.85127">
        <ele>272</ele>
        <time>2018-08-06T09:53:58Z</time>
      </trkpt>
      <trkpt lat="45.98604" lon="4.8513">
        <ele>272</ele>
        <time>2018-08-06T09:53:59Z</time>
      </trkpt>
      <trkpt lat="45.98599" lon="4.85133">
        <ele>272</ele>
        <time>2018-08-06T09:54:01Z</time>
      </trkpt>
      <trkpt lat="45.98595" lon="4.85135">
        <ele>272</ele>
        <time>2018-08-06T09:54:02Z</time>
      </trkpt>
      <trkpt lat="45.98586" lon="4.85138">
        <ele>272</ele>
        <time>2018-08-06T09:54:04Z</time>
      </trkpt>
      <trkpt lat="45.98584" lon="4.85138">
        <ele>272</ele>
        <time>2018-08-06T09:54:05Z</time>
      </trkpt>
      <trkpt lat="45.98578" lon="4.8514">
        <ele>274</ele>
        <time>2018-08-06T09:54:06Z</time>
      </trkpt>
      <trkpt lat="45.98575" lon="4.85142">
        <ele>274</ele>
        <time>2018-08-06T09:54:07Z</time>
      </trkpt>
      <trkpt lat="45.98567" lon="4.85146">
        <ele>274</ele>
        <time>2018-08-06T09:54:09Z</time>
      </trkpt>
      <trkpt lat="45.98562" lon="4.85148">
        <ele>274</ele>
        <time>2018-08-06T09:54:10Z</time>
      </trkpt>
      <trkpt lat="45.98558" lon="4.85149">
        <ele>274</ele>
        <time>2018-08-06T09:54:11Z</time>
      </trkpt>
      <trkpt lat="45.98554" lon="4.85151">
        <ele>274</ele>
        <time>2018-08-06T09:54:12Z</time>
      </trkpt>
      <trkpt lat="45.98549" lon="4.85153">
        <ele>274</ele>
        <time>2018-08-06T09:54:13Z</time>
      </trkpt>
      <trkpt lat="45.98545" lon="4.85155">
        <ele>274</ele>
        <time>2018-08-06T09:54:14Z</time>
      </trkpt>
      <trkpt lat="45.98537" lon="4.85158">
        <ele>274</ele>
        <time>2018-08-06T09:54:16Z</time>
      </trkpt>
      <trkpt lat="45.98533" lon="4.85159">
        <ele>274</ele>
        <time>2018-08-06T09:54:17Z</time>
      </trkpt>
      <trkpt lat="45.98525" lon="4.8516">
        <ele>275</ele>
        <time>2018-08-06T09:54:19Z</time>
      </trkpt>
      <trkpt lat="45.9852" lon="4.85161">
        <ele>275</ele>
        <time>2018-08-06T09:54:20Z</time>
      </trkpt>
      <trkpt lat="45.98512" lon="4.85164">
        <ele>275</ele>
        <time>2018-08-06T09:54:22Z</time>
      </trkpt>
      <trkpt lat="45.98508" lon="4.85166">
        <ele>275</ele>
        <time>2018-08-06T09:54:23Z</time>
      </trkpt>
      <trkpt lat="45.98499" lon="4.85167">
        <ele>275</ele>
        <time>2018-08-06T09:54:25Z</time>
      </trkpt>
      <trkpt lat="45.98495" lon="4.85167">
        <ele>275</ele>
        <time>2018-08-06T09:54:26Z</time>
      </trkpt>
      <trkpt lat="45.9849" lon="4.85168">
        <ele>275</ele>
        <time>2018-08-06T09:54:27Z</time>
      </trkpt>
      <trkpt lat="45.98484" lon="4.85167">
        <ele>275</ele>
        <time>2018-08-06T09:54:28Z</time>
      </trkpt>
      <trkpt lat="45.98478" lon="4.85167">
        <ele>275</ele>
        <time>2018-08-06T09:54:31Z</time>
      </trkpt>
      <trkpt lat="45.9847" lon="4.8517">
        <ele>275</ele>
        <time>2018-08-06T09:54:32Z</time>
      </trkpt>
      <trkpt lat="45.98466" lon="4.85171">
        <ele>275</ele>
        <time>2018-08-06T09:54:33Z</time>
      </trkpt>
      <trkpt lat="45.98461" lon="4.85172">
        <ele>275</ele>
        <time>2018-08-06T09:54:34Z</time>
      </trkpt>
      <trkpt lat="45.98455" lon="4.85171">
        <ele>275</ele>
        <time>2018-08-06T09:54:35Z</time>
      </trkpt>
      <trkpt lat="45.9845" lon="4.85169">
        <ele>275</ele>
        <time>2018-08-06T09:54:36Z</time>
      </trkpt>
      <trkpt lat="45.98446" lon="4.85169">
        <ele>275</ele>
        <time>2018-08-06T09:54:37Z</time>
      </trkpt>
      <trkpt lat="45.98441" lon="4.85172">
        <ele>275</ele>
        <time>2018-08-06T09:54:38Z</time>
      </trkpt>
      <trkpt lat="45.98434" lon="4.85173">
        <ele>275</ele>
        <time>2018-08-06T09:54:40Z</time>
      </trkpt>
      <trkpt lat="45.98429" lon="4.85174">
        <ele>275</ele>
        <time>2018-08-06T09:54:41Z</time>
      </trkpt>
      <trkpt lat="45.98422" lon="4.85173">
        <ele>276</ele>
        <time>2018-08-06T09:54:43Z</time>
      </trkpt>
      <trkpt lat="45.98417" lon="4.85174">
        <ele>276</ele>
        <time>2018-08-06T09:54:44Z</time>
      </trkpt>
      <trkpt lat="45.98409" lon="4.85174">
        <ele>276</ele>
        <time>2018-08-06T09:54:46Z</time>
      </trkpt>
      <trkpt lat="45.98403" lon="4.85174">
        <ele>276</ele>
        <time>2018-08-06T09:54:47Z</time>
      </trkpt>
      <trkpt lat="45.98394" lon="4.85174">
        <ele>275</ele>
        <time>2018-08-06T09:54:49Z</time>
      </trkpt>
      <trkpt lat="45.98391" lon="4.85176">
        <ele>275</ele>
        <time>2018-08-06T09:54:50Z</time>
      </trkpt>
      <trkpt lat="45.98382" lon="4.85179">
        <ele>275</ele>
        <time>2018-08-06T09:54:52Z</time>
      </trkpt>
      <trkpt lat="45.98377" lon="4.85178">
        <ele>275</ele>
        <time>2018-08-06T09:54:53Z</time>
      </trkpt>
      <trkpt lat="45.98372" lon="4.85179">
        <ele>275</ele>
        <time>2018-08-06T09:54:54Z</time>
      </trkpt>
      <trkpt lat="45.98368" lon="4.85179">
        <ele>275</ele>
        <time>2018-08-06T09:54:55Z</time>
      </trkpt>
      <trkpt lat="45.98359" lon="4.85181">
        <ele>275</ele>
        <time>2018-08-06T09:54:57Z</time>
      </trkpt>
      <trkpt lat="45.98355" lon="4.85181">
        <ele>275</ele>
        <time>2018-08-06T09:54:58Z</time>
      </trkpt>
      <trkpt lat="45.98346" lon="4.85182">
        <ele>275</ele>
        <time>2018-08-06T09:55:00Z</time>
      </trkpt>
      <trkpt lat="45.98342" lon="4.85182">
        <ele>275</ele>
        <time>2018-08-06T09:55:01Z</time>
      </trkpt>
      <trkpt lat="45.98333" lon="4.85184">
        <ele>274</ele>
        <time>2018-08-06T09:55:03Z</time>
      </trkpt>
      <trkpt lat="45.98329" lon="4.85185">
        <ele>274</ele>
        <time>2018-08-06T09:55:04Z</time>
      </trkpt>
      <trkpt lat="45.9832" lon="4.85184">
        <ele>274</ele>
        <time>2018-08-06T09:55:06Z</time>
      </trkpt>
      <trkpt lat="45.98316" lon="4.85184">
        <ele>274</ele>
        <time>2018-08-06T09:55:07Z</time>
      </trkpt>
      <trkpt lat="45.98308" lon="4.85184">
        <ele>274</ele>
        <time>2018-08-06T09:55:09Z</time>
      </trkpt>
      <trkpt lat="45.98304" lon="4.85184">
        <ele>274</ele>
        <time>2018-08-06T09:55:10Z</time>
      </trkpt>
      <trkpt lat="45.983" lon="4.85186">
        <ele>274</ele>
        <time>2018-08-06T09:55:11Z</time>
      </trkpt>
      <trkpt lat="45.98295" lon="4.85186">
        <ele>274</ele>
        <time>2018-08-06T09:55:12Z</time>
      </trkpt>
      <trkpt lat="45.9829" lon="4.85188">
        <ele>274</ele>
        <time>2018-08-06T09:55:13Z</time>
      </trkpt>
      <trkpt lat="45.98285" lon="4.8519">
        <ele>274</ele>
        <time>2018-08-06T09:55:14Z</time>
      </trkpt>
      <trkpt lat="45.98276" lon="4.85189">
        <ele>274</ele>
        <time>2018-08-06T09:55:16Z</time>
      </trkpt>
      <trkpt lat="45.98272" lon="4.85188">
        <ele>274</ele>
        <time>2018-08-06T09:55:17Z</time>
      </trkpt>
      <trkpt lat="45.98264" lon="4.8519">
        <ele>274</ele>
        <time>2018-08-06T09:55:19Z</time>
      </trkpt>
      <trkpt lat="45.9826" lon="4.8519">
        <ele>274</ele>
        <time>2018-08-06T09:55:20Z</time>
      </trkpt>
      <trkpt lat="45.98255" lon="4.85191">
        <ele>274</ele>
        <time>2018-08-06T09:55:21Z</time>
      </trkpt>
      <trkpt lat="45.9825" lon="4.85193">
        <ele>274</ele>
        <time>2018-08-06T09:55:22Z</time>
      </trkpt>
      <trkpt lat="45.98246" lon="4.85194">
        <ele>274</ele>
        <time>2018-08-06T09:55:23Z</time>
      </trkpt>
      <trkpt lat="45.9824" lon="4.85194">
        <ele>274</ele>
        <time>2018-08-06T09:55:24Z</time>
      </trkpt>
      <trkpt lat="45.98235" lon="4.85195">
        <ele>274</ele>
        <time>2018-08-06T09:55:25Z</time>
      </trkpt>
      <trkpt lat="45.98231" lon="4.85195">
        <ele>274</ele>
        <time>2018-08-06T09:55:26Z</time>
      </trkpt>
      <trkpt lat="45.98226" lon="4.85197">
        <ele>274</ele>
        <time>2018-08-06T09:55:27Z</time>
      </trkpt>
      <trkpt lat="45.98221" lon="4.85197">
        <ele>274</ele>
        <time>2018-08-06T09:55:28Z</time>
      </trkpt>
      <trkpt lat="45.98212" lon="4.85197">
        <ele>274</ele>
        <time>2018-08-06T09:55:30Z</time>
      </trkpt>
      <trkpt lat="45.98207" lon="4.85197">
        <ele>274</ele>
        <time>2018-08-06T09:55:31Z</time>
      </trkpt>
      <trkpt lat="45.98202" lon="4.85197">
        <ele>274</ele>
        <time>2018-08-06T09:55:32Z</time>
      </trkpt>
      <trkpt lat="45.98198" lon="4.85198">
        <ele>274</ele>
        <time>2018-08-06T09:55:33Z</time>
      </trkpt>
      <trkpt lat="45.98189" lon="4.85199">
        <ele>274</ele>
        <time>2018-08-06T09:55:35Z</time>
      </trkpt>
      <trkpt lat="45.98185" lon="4.85197">
        <ele>274</ele>
        <time>2018-08-06T09:55:36Z</time>
      </trkpt>
      <trkpt lat="45.98176" lon="4.85197">
        <ele>274</ele>
        <time>2018-08-06T09:55:38Z</time>
      </trkpt>
      <trkpt lat="45.98171" lon="4.85198">
        <ele>274</ele>
        <time>2018-08-06T09:55:39Z</time>
      </trkpt>
      <trkpt lat="45.98166" lon="4.85198">
        <ele>274</ele>
        <time>2018-08-06T09:55:40Z</time>
      </trkpt>
      <trkpt lat="45.98161" lon="4.85198">
        <ele>274</ele>
        <time>2018-08-06T09:55:41Z</time>
      </trkpt>
      <trkpt lat="45.98153" lon="4.852">
        <ele>275</ele>
        <time>2018-08-06T09:55:43Z</time>
      </trkpt>
      <trkpt lat="45.98149" lon="4.85199">
        <ele>275</ele>
        <time>2018-08-06T09:55:44Z</time>
      </trkpt>
      <trkpt lat="45.98144" lon="4.852">
        <ele>275</ele>
        <time>2018-08-06T09:55:45Z</time>
      </trkpt>
      <trkpt lat="45.9814" lon="4.85202">
        <ele>275</ele>
        <time>2018-08-06T09:55:46Z</time>
      </trkpt>
      <trkpt lat="45.98131" lon="4.85202">
        <ele>275</ele>
        <time>2018-08-06T09:55:48Z</time>
      </trkpt>
      <trkpt lat="45.98127" lon="4.85201">
        <ele>275</ele>
        <time>2018-08-06T09:55:49Z</time>
      </trkpt>
      <trkpt lat="45.98122" lon="4.85202">
        <ele>275</ele>
        <time>2018-08-06T09:55:50Z</time>
      </trkpt>
      <trkpt lat="45.98118" lon="4.85202">
        <ele>275</ele>
        <time>2018-08-06T09:55:51Z</time>
      </trkpt>
      <trkpt lat="45.98113" lon="4.85203">
        <ele>275</ele>
        <time>2018-08-06T09:55:52Z</time>
      </trkpt>
      <trkpt lat="45.98109" lon="4.85203">
        <ele>275</ele>
        <time>2018-08-06T09:55:53Z</time>
      </trkpt>
      <trkpt lat="45.981" lon="4.85205">
        <ele>275</ele>
        <time>2018-08-06T09:55:55Z</time>
      </trkpt>
      <trkpt lat="45.98096" lon="4.85205">
        <ele>275</ele>
        <time>2018-08-06T09:55:56Z</time>
      </trkpt>
      <trkpt lat="45.98087" lon="4.85206">
        <ele>275</ele>
        <time>2018-08-06T09:55:58Z</time>
      </trkpt>
      <trkpt lat="45.98082" lon="4.85207">
        <ele>276</ele>
        <time>2018-08-06T09:55:59Z</time>
      </trkpt>
      <trkpt lat="45.98077" lon="4.85207">
        <ele>276</ele>
        <time>2018-08-06T09:56:00Z</time>
      </trkpt>
      <trkpt lat="45.98072" lon="4.85209">
        <ele>276</ele>
        <time>2018-08-06T09:56:01Z</time>
      </trkpt>
      <trkpt lat="45.98068" lon="4.85209">
        <ele>276</ele>
        <time>2018-08-06T09:56:02Z</time>
      </trkpt>
      <trkpt lat="45.98063" lon="4.8521">
        <ele>276</ele>
        <time>2018-08-06T09:56:03Z</time>
      </trkpt>
      <trkpt lat="45.98055" lon="4.8521">
        <ele>276</ele>
        <time>2018-08-06T09:56:05Z</time>
      </trkpt>
      <trkpt lat="45.98051" lon="4.8521">
        <ele>276</ele>
        <time>2018-08-06T09:56:06Z</time>
      </trkpt>
      <trkpt lat="45.98043" lon="4.85209">
        <ele>276</ele>
        <time>2018-08-06T09:56:08Z</time>
      </trkpt>
      <trkpt lat="45.98038" lon="4.8521">
        <ele>276</ele>
        <time>2018-08-06T09:56:09Z</time>
      </trkpt>
      <trkpt lat="45.9803" lon="4.8521">
        <ele>276</ele>
        <time>2018-08-06T09:56:11Z</time>
      </trkpt>
      <trkpt lat="45.98025" lon="4.8521">
        <ele>276</ele>
        <time>2018-08-06T09:56:12Z</time>
      </trkpt>
      <trkpt lat="45.98017" lon="4.85211">
        <ele>276</ele>
        <time>2018-08-06T09:56:14Z</time>
      </trkpt>
      <trkpt lat="45.98012" lon="4.85211">
        <ele>276</ele>
        <time>2018-08-06T09:56:15Z</time>
      </trkpt>
      <trkpt lat="45.98007" lon="4.85211">
        <ele>276</ele>
        <time>2018-08-06T09:56:16Z</time>
      </trkpt>
      <trkpt lat="45.98001" lon="4.85213">
        <ele>276</ele>
        <time>2018-08-06T09:56:17Z</time>
      </trkpt>
      <trkpt lat="45.97993" lon="4.85211">
        <ele>276</ele>
        <time>2018-08-06T09:56:19Z</time>
      </trkpt>
      <trkpt lat="45.97989" lon="4.8521">
        <ele>276</ele>
        <time>2018-08-06T09:56:20Z</time>
      </trkpt>
      <trkpt lat="45.97984" lon="4.85212">
        <ele>276</ele>
        <time>2018-08-06T09:56:21Z</time>
      </trkpt>
      <trkpt lat="45.97979" lon="4.85214">
        <ele>276</ele>
        <time>2018-08-06T09:56:22Z</time>
      </trkpt>
      <trkpt lat="45.97973" lon="4.85216">
        <ele>276</ele>
        <time>2018-08-06T09:56:23Z</time>
      </trkpt>
      <trkpt lat="45.97969" lon="4.85215">
        <ele>276</ele>
        <time>2018-08-06T09:56:24Z</time>
      </trkpt>
      <trkpt lat="45.97964" lon="4.85216">
        <ele>276</ele>
        <time>2018-08-06T09:56:25Z</time>
      </trkpt>
      <trkpt lat="45.9796" lon="4.85216">
        <ele>276</ele>
        <time>2018-08-06T09:56:26Z</time>
      </trkpt>
      <trkpt lat="45.97955" lon="4.85216">
        <ele>276</ele>
        <time>2018-08-06T09:56:27Z</time>
      </trkpt>
      <trkpt lat="45.9795" lon="4.85217">
        <ele>276</ele>
        <time>2018-08-06T09:56:28Z</time>
      </trkpt>
      <trkpt lat="45.97945" lon="4.85218">
        <ele>276</ele>
        <time>2018-08-06T09:56:29Z</time>
      </trkpt>
      <trkpt lat="45.97941" lon="4.85218">
        <ele>276</ele>
        <time>2018-08-06T09:56:30Z</time>
      </trkpt>
      <trkpt lat="45.97935" lon="4.85219">
        <ele>276</ele>
        <time>2018-08-06T09:56:31Z</time>
      </trkpt>
      <trkpt lat="45.9793" lon="4.8522">
        <ele>276</ele>
        <time>2018-08-06T09:56:32Z</time>
      </trkpt>
      <trkpt lat="45.97925" lon="4.85221">
        <ele>276</ele>
        <time>2018-08-06T09:56:33Z</time>
      </trkpt>
      <trkpt lat="45.9792" lon="4.85221">
        <ele>276</ele>
        <time>2018-08-06T09:56:34Z</time>
      </trkpt>
      <trkpt lat="45.97915" lon="4.85223">
        <ele>275</ele>
        <time>2018-08-06T09:56:35Z</time>
      </trkpt>
      <trkpt lat="45.97911" lon="4.85224">
        <ele>275</ele>
        <time>2018-08-06T09:56:36Z</time>
      </trkpt>
      <trkpt lat="45.97902" lon="4.85223">
        <ele>275</ele>
        <time>2018-08-06T09:56:38Z</time>
      </trkpt>
      <trkpt lat="45.97896" lon="4.85224">
        <ele>275</ele>
        <time>2018-08-06T09:56:39Z</time>
      </trkpt>
      <trkpt lat="45.97892" lon="4.85225">
        <ele>275</ele>
        <time>2018-08-06T09:56:40Z</time>
      </trkpt>
      <trkpt lat="45.97887" lon="4.85226">
        <ele>275</ele>
        <time>2018-08-06T09:56:41Z</time>
      </trkpt>
      <trkpt lat="45.97883" lon="4.85226">
        <ele>275</ele>
        <time>2018-08-06T09:56:42Z</time>
      </trkpt>
      <trkpt lat="45.97877" lon="4.85226">
        <ele>275</ele>
        <time>2018-08-06T09:56:43Z</time>
      </trkpt>
      <trkpt lat="45.97873" lon="4.85226">
        <ele>275</ele>
        <time>2018-08-06T09:56:44Z</time>
      </trkpt>
      <trkpt lat="45.97868" lon="4.85227">
        <ele>275</ele>
        <time>2018-08-06T09:56:45Z</time>
      </trkpt>
      <trkpt lat="45.97864" lon="4.85229">
        <ele>275</ele>
        <time>2018-08-06T09:56:46Z</time>
      </trkpt>
      <trkpt lat="45.97859" lon="4.8523">
        <ele>275</ele>
        <time>2018-08-06T09:56:47Z</time>
      </trkpt>
      <trkpt lat="45.97854" lon="4.85231">
        <ele>275</ele>
        <time>2018-08-06T09:56:48Z</time>
      </trkpt>
      <trkpt lat="45.9785" lon="4.85231">
        <ele>275</ele>
        <time>2018-08-06T09:56:49Z</time>
      </trkpt>
      <trkpt lat="45.97845" lon="4.85232">
        <ele>275</ele>
        <time>2018-08-06T09:56:50Z</time>
      </trkpt>
      <trkpt lat="45.97839" lon="4.85233">
        <ele>275</ele>
        <time>2018-08-06T09:56:51Z</time>
      </trkpt>
      <trkpt lat="45.9783" lon="4.85232">
        <ele>275</ele>
        <time>2018-08-06T09:56:53Z</time>
      </trkpt>
      <trkpt lat="45.97827" lon="4.8523">
        <ele>275</ele>
        <time>2018-08-06T09:56:54Z</time>
      </trkpt>
      <trkpt lat="45.97822" lon="4.8523">
        <ele>275</ele>
        <time>2018-08-06T09:56:55Z</time>
      </trkpt>
      <trkpt lat="45.97817" lon="4.85232">
        <ele>275</ele>
        <time>2018-08-06T09:56:56Z</time>
      </trkpt>
      <trkpt lat="45.97809" lon="4.85233">
        <ele>274</ele>
        <time>2018-08-06T09:56:58Z</time>
      </trkpt>
      <trkpt lat="45.97804" lon="4.85234">
        <ele>274</ele>
        <time>2018-08-06T09:56:59Z</time>
      </trkpt>
      <trkpt lat="45.97797" lon="4.85234">
        <ele>274</ele>
        <time>2018-08-06T09:57:01Z</time>
      </trkpt>
      <trkpt lat="45.97792" lon="4.85236">
        <ele>274</ele>
        <time>2018-08-06T09:57:02Z</time>
      </trkpt>
      <trkpt lat="45.97783" lon="4.85237">
        <ele>274</ele>
        <time>2018-08-06T09:57:04Z</time>
      </trkpt>
      <trkpt lat="45.97779" lon="4.85236">
        <ele>274</ele>
        <time>2018-08-06T09:57:05Z</time>
      </trkpt>
      <trkpt lat="45.97774" lon="4.85238">
        <ele>274</ele>
        <time>2018-08-06T09:57:06Z</time>
      </trkpt>
      <trkpt lat="45.97768" lon="4.85237">
        <ele>274</ele>
        <time>2018-08-06T09:57:07Z</time>
      </trkpt>
      <trkpt lat="45.97763" lon="4.85238">
        <ele>274</ele>
        <time>2018-08-06T09:57:08Z</time>
      </trkpt>
      <trkpt lat="45.97759" lon="4.85238">
        <ele>274</ele>
        <time>2018-08-06T09:57:09Z</time>
      </trkpt>
      <trkpt lat="45.97752" lon="4.85238">
        <ele>274</ele>
        <time>2018-08-06T09:57:10Z</time>
      </trkpt>
      <trkpt lat="45.97747" lon="4.85239">
        <ele>274</ele>
        <time>2018-08-06T09:57:11Z</time>
      </trkpt>
      <trkpt lat="45.97742" lon="4.85238">
        <ele>275</ele>
        <time>2018-08-06T09:57:12Z</time>
      </trkpt>
      <trkpt lat="45.97737" lon="4.8524">
        <ele>275</ele>
        <time>2018-08-06T09:57:13Z</time>
      </trkpt>
      <trkpt lat="45.97732" lon="4.8524">
        <ele>275</ele>
        <time>2018-08-06T09:57:14Z</time>
      </trkpt>
      <trkpt lat="45.97726" lon="4.85241">
        <ele>275</ele>
        <time>2018-08-06T09:57:15Z</time>
      </trkpt>
      <trkpt lat="45.97721" lon="4.85241">
        <ele>275</ele>
        <time>2018-08-06T09:57:16Z</time>
      </trkpt>
      <trkpt lat="45.97716" lon="4.85244">
        <ele>275</ele>
        <time>2018-08-06T09:57:17Z</time>
      </trkpt>
      <trkpt lat="45.9771" lon="4.85245">
        <ele>275</ele>
        <time>2018-08-06T09:57:18Z</time>
      </trkpt>
      <trkpt lat="45.97704" lon="4.85245">
        <ele>275</ele>
        <time>2018-08-06T09:57:19Z</time>
      </trkpt>
      <trkpt lat="45.97699" lon="4.85245">
        <ele>275</ele>
        <time>2018-08-06T09:57:20Z</time>
      </trkpt>
      <trkpt lat="45.97693" lon="4.85247">
        <ele>275</ele>
        <time>2018-08-06T09:57:21Z</time>
      </trkpt>
      <trkpt lat="45.97688" lon="4.85247">
        <ele>276</ele>
        <time>2018-08-06T09:57:22Z</time>
      </trkpt>
      <trkpt lat="45.97683" lon="4.85247">
        <ele>276</ele>
        <time>2018-08-06T09:57:23Z</time>
      </trkpt>
      <trkpt lat="45.97678" lon="4.85248">
        <ele>276</ele>
        <time>2018-08-06T09:57:24Z</time>
      </trkpt>
      <trkpt lat="45.97673" lon="4.85248">
        <ele>276</ele>
        <time>2018-08-06T09:57:25Z</time>
      </trkpt>
      <trkpt lat="45.97665" lon="4.85246">
        <ele>277</ele>
        <time>2018-08-06T09:57:27Z</time>
      </trkpt>
      <trkpt lat="45.9766" lon="4.85247">
        <ele>277</ele>
        <time>2018-08-06T09:57:28Z</time>
      </trkpt>
      <trkpt lat="45.97655" lon="4.85251">
        <ele>277</ele>
        <time>2018-08-06T09:57:32Z</time>
      </trkpt>
      <trkpt lat="45.97649" lon="4.85251">
        <ele>277</ele>
        <time>2018-08-06T09:57:33Z</time>
      </trkpt>
      <trkpt lat="45.9764" lon="4.85254">
        <ele>278</ele>
        <time>2018-08-06T09:57:35Z</time>
      </trkpt>
      <trkpt lat="45.97634" lon="4.85255">
        <ele>278</ele>
        <time>2018-08-06T09:57:36Z</time>
      </trkpt>
      <trkpt lat="45.97627" lon="4.85256">
        <ele>278</ele>
        <time>2018-08-06T09:57:38Z</time>
      </trkpt>
      <trkpt lat="45.97619" lon="4.85254">
        <ele>279</ele>
        <time>2018-08-06T09:57:39Z</time>
      </trkpt>
      <trkpt lat="45.97611" lon="4.85253">
        <ele>279</ele>
        <time>2018-08-06T09:57:43Z</time>
      </trkpt>
      <trkpt lat="45.97602" lon="4.85253">
        <ele>280</ele>
        <time>2018-08-06T09:57:44Z</time>
      </trkpt>
      <trkpt lat="45.9759" lon="4.85253">
        <ele>281</ele>
        <time>2018-08-06T09:57:45Z</time>
      </trkpt>
      <trkpt lat="45.97583" lon="4.85254">
        <ele>282</ele>
        <time>2018-08-06T09:57:46Z</time>
      </trkpt>
      <trkpt lat="45.97579" lon="4.85256">
        <ele>282</ele>
        <time>2018-08-06T09:57:47Z</time>
      </trkpt>
      <trkpt lat="45.97574" lon="4.85258">
        <ele>281</ele>
        <time>2018-08-06T09:57:48Z</time>
      </trkpt>
      <trkpt lat="45.97569" lon="4.8526">
        <ele>281</ele>
        <time>2018-08-06T09:57:49Z</time>
      </trkpt>
      <trkpt lat="45.97567" lon="4.85261">
        <ele>281</ele>
        <time>2018-08-06T09:57:50Z</time>
      </trkpt>
      <trkpt lat="45.97559" lon="4.85263">
        <ele>281</ele>
        <time>2018-08-06T09:57:51Z</time>
      </trkpt>
      <trkpt lat="45.97554" lon="4.85266">
        <ele>281</ele>
        <time>2018-08-06T09:57:52Z</time>
      </trkpt>
      <trkpt lat="45.97549" lon="4.85266">
        <ele>281</ele>
        <time>2018-08-06T09:57:53Z</time>
      </trkpt>
      <trkpt lat="45.97544" lon="4.85267">
        <ele>281</ele>
        <time>2018-08-06T09:57:54Z</time>
      </trkpt>
      <trkpt lat="45.9754" lon="4.85269">
        <ele>281</ele>
        <time>2018-08-06T09:57:55Z</time>
      </trkpt>
      <trkpt lat="45.97535" lon="4.85269">
        <ele>281</ele>
        <time>2018-08-06T09:57:56Z</time>
      </trkpt>
      <trkpt lat="45.97528" lon="4.85265">
        <ele>281</ele>
        <time>2018-08-06T09:57:57Z</time>
      </trkpt>
      <trkpt lat="45.97519" lon="4.85268">
        <ele>281</ele>
        <time>2018-08-06T09:57:59Z</time>
      </trkpt>
      <trkpt lat="45.97514" lon="4.85269">
        <ele>281</ele>
        <time>2018-08-06T09:58:00Z</time>
      </trkpt>
      <trkpt lat="45.97509" lon="4.85269">
        <ele>281</ele>
        <time>2018-08-06T09:58:01Z</time>
      </trkpt>
      <trkpt lat="45.97505" lon="4.85269">
        <ele>282</ele>
        <time>2018-08-06T09:58:02Z</time>
      </trkpt>
      <trkpt lat="45.97497" lon="4.85268">
        <ele>283</ele>
        <time>2018-08-06T09:58:04Z</time>
      </trkpt>
      <trkpt lat="45.97486" lon="4.85265">
        <ele>284</ele>
        <time>2018-08-06T09:58:05Z</time>
      </trkpt>
      <trkpt lat="45.97483" lon="4.85266">
        <ele>284</ele>
        <time>2018-08-06T09:58:06Z</time>
      </trkpt>
      <trkpt lat="45.97475" lon="4.85263">
        <ele>284</ele>
        <time>2018-08-06T09:58:07Z</time>
      </trkpt>
      <trkpt lat="45.9747" lon="4.85262">
        <ele>284</ele>
        <time>2018-08-06T09:58:08Z</time>
      </trkpt>
      <trkpt lat="45.97465" lon="4.8526">
        <ele>284</ele>
        <time>2018-08-06T09:58:09Z</time>
      </trkpt>
      <trkpt lat="45.97459" lon="4.8526">
        <ele>284</ele>
        <time>2018-08-06T09:58:10Z</time>
      </trkpt>
      <trkpt lat="45.97454" lon="4.85258">
        <ele>284</ele>
        <time>2018-08-06T09:58:11Z</time>
      </trkpt>
      <trkpt lat="45.97449" lon="4.85256">
        <ele>285</ele>
        <time>2018-08-06T09:58:12Z</time>
      </trkpt>
      <trkpt lat="45.97445" lon="4.85257">
        <ele>285</ele>
        <time>2018-08-06T09:58:13Z</time>
      </trkpt>
      <trkpt lat="45.97437" lon="4.85257">
        <ele>285</ele>
        <time>2018-08-06T09:58:17Z</time>
      </trkpt>
      <trkpt lat="45.97427" lon="4.85257">
        <ele>285</ele>
        <time>2018-08-06T09:58:18Z</time>
      </trkpt>
      <trkpt lat="45.97418" lon="4.85256">
        <ele>286</ele>
        <time>2018-08-06T09:58:20Z</time>
      </trkpt>
      <trkpt lat="45.97413" lon="4.85257">
        <ele>286</ele>
        <time>2018-08-06T09:58:21Z</time>
      </trkpt>
      <trkpt lat="45.97405" lon="4.85255">
        <ele>286</ele>
        <time>2018-08-06T09:58:24Z</time>
      </trkpt>
      <trkpt lat="45.97403" lon="4.85255">
        <ele>286</ele>
        <time>2018-08-06T09:58:25Z</time>
      </trkpt>
      <trkpt lat="45.97401" lon="4.85255">
        <ele>286</ele>
        <time>2018-08-06T09:58:26Z</time>
      </trkpt>
      <trkpt lat="45.97393" lon="4.85256">
        <ele>285</ele>
        <time>2018-08-06T09:58:27Z</time>
      </trkpt>
      <trkpt lat="45.97391" lon="4.85256">
        <ele>285</ele>
        <time>2018-08-06T09:58:28Z</time>
      </trkpt>
      <trkpt lat="45.97383" lon="4.85257">
        <ele>285</ele>
        <time>2018-08-06T09:58:29Z</time>
      </trkpt>
      <trkpt lat="45.97377" lon="4.85258">
        <ele>285</ele>
        <time>2018-08-06T09:58:30Z</time>
      </trkpt>
      <trkpt lat="45.97371" lon="4.85258">
        <ele>285</ele>
        <time>2018-08-06T09:58:31Z</time>
      </trkpt>
      <trkpt lat="45.97366" lon="4.85258">
        <ele>284</ele>
        <time>2018-08-06T09:58:32Z</time>
      </trkpt>
      <trkpt lat="45.97361" lon="4.85256">
        <ele>284</ele>
        <time>2018-08-06T09:58:33Z</time>
      </trkpt>
      <trkpt lat="45.97352" lon="4.85255">
        <ele>283</ele>
        <time>2018-08-06T09:58:35Z</time>
      </trkpt>
      <trkpt lat="45.97348" lon="4.85255">
        <ele>283</ele>
        <time>2018-08-06T09:58:36Z</time>
      </trkpt>
      <trkpt lat="45.97343" lon="4.85258">
        <ele>283</ele>
        <time>2018-08-06T09:58:37Z</time>
      </trkpt>
      <trkpt lat="45.97337" lon="4.85258">
        <ele>282</ele>
        <time>2018-08-06T09:58:38Z</time>
      </trkpt>
      <trkpt lat="45.97331" lon="4.85258">
        <ele>281</ele>
        <time>2018-08-06T09:58:39Z</time>
      </trkpt>
      <trkpt lat="45.97324" lon="4.85258">
        <ele>281</ele>
        <time>2018-08-06T09:58:40Z</time>
      </trkpt>
      <trkpt lat="45.97319" lon="4.85259">
        <ele>281</ele>
        <time>2018-08-06T09:58:41Z</time>
      </trkpt>
      <trkpt lat="45.97314" lon="4.85257">
        <ele>281</ele>
        <time>2018-08-06T09:58:42Z</time>
      </trkpt>
      <trkpt lat="45.97309" lon="4.85257">
        <ele>281</ele>
        <time>2018-08-06T09:58:43Z</time>
      </trkpt>
      <trkpt lat="45.97303" lon="4.85259">
        <ele>281</ele>
        <time>2018-08-06T09:58:44Z</time>
      </trkpt>
      <trkpt lat="45.97298" lon="4.85261">
        <ele>281</ele>
        <time>2018-08-06T09:58:45Z</time>
      </trkpt>
      <trkpt lat="45.97294" lon="4.85262">
        <ele>281</ele>
        <time>2018-08-06T09:58:46Z</time>
      </trkpt>
      <trkpt lat="45.97289" lon="4.85262">
        <ele>281</ele>
        <time>2018-08-06T09:58:47Z</time>
      </trkpt>
      <trkpt lat="45.97285" lon="4.85262">
        <ele>281</ele>
        <time>2018-08-06T09:58:48Z</time>
      </trkpt>
      <trkpt lat="45.97277" lon="4.85265">
        <ele>281</ele>
        <time>2018-08-06T09:58:50Z</time>
      </trkpt>
      <trkpt lat="45.97271" lon="4.85266">
        <ele>281</ele>
        <time>2018-08-06T09:58:51Z</time>
      </trkpt>
      <trkpt lat="45.97266" lon="4.85264">
        <ele>281</ele>
        <time>2018-08-06T09:58:52Z</time>
      </trkpt>
      <trkpt lat="45.97261" lon="4.85263">
        <ele>280</ele>
        <time>2018-08-06T09:58:53Z</time>
      </trkpt>
      <trkpt lat="45.97257" lon="4.85263">
        <ele>280</ele>
        <time>2018-08-06T09:58:54Z</time>
      </trkpt>
      <trkpt lat="45.97252" lon="4.85261">
        <ele>280</ele>
        <time>2018-08-06T09:58:55Z</time>
      </trkpt>
      <trkpt lat="45.97247" lon="4.8526">
        <ele>279</ele>
        <time>2018-08-06T09:58:56Z</time>
      </trkpt>
      <trkpt lat="45.97243" lon="4.85264">
        <ele>279</ele>
        <time>2018-08-06T09:58:57Z</time>
      </trkpt>
      <trkpt lat="45.97237" lon="4.85264">
        <ele>279</ele>
        <time>2018-08-06T09:58:58Z</time>
      </trkpt>
      <trkpt lat="45.97233" lon="4.85266">
        <ele>279</ele>
        <time>2018-08-06T09:58:59Z</time>
      </trkpt>
      <trkpt lat="45.97227" lon="4.85268">
        <ele>279</ele>
        <time>2018-08-06T09:59:00Z</time>
      </trkpt>
      <trkpt lat="45.97222" lon="4.85269">
        <ele>279</ele>
        <time>2018-08-06T09:59:01Z</time>
      </trkpt>
      <trkpt lat="45.97217" lon="4.85271">
        <ele>279</ele>
        <time>2018-08-06T09:59:02Z</time>
      </trkpt>
      <trkpt lat="45.97212" lon="4.85271">
        <ele>279</ele>
        <time>2018-08-06T09:59:03Z</time>
      </trkpt>
      <trkpt lat="45.97207" lon="4.85272">
        <ele>279</ele>
        <time>2018-08-06T09:59:04Z</time>
      </trkpt>
      <trkpt lat="45.97203" lon="4.85272">
        <ele>279</ele>
        <time>2018-08-06T09:59:05Z</time>
      </trkpt>
      <trkpt lat="45.97198" lon="4.85272">
        <ele>279</ele>
        <time>2018-08-06T09:59:06Z</time>
      </trkpt>
      <trkpt lat="45.97193" lon="4.85273">
        <ele>279</ele>
        <time>2018-08-06T09:59:07Z</time>
      </trkpt>
      <trkpt lat="45.97189" lon="4.85273">
        <ele>279</ele>
        <time>2018-08-06T09:59:08Z</time>
      </trkpt>
      <trkpt lat="45.97184" lon="4.85273">
        <ele>279</ele>
        <time>2018-08-06T09:59:09Z</time>
      </trkpt>
      <trkpt lat="45.97179" lon="4.85273">
        <ele>279</ele>
        <time>2018-08-06T09:59:10Z</time>
      </trkpt>
      <trkpt lat="45.97174" lon="4.85273">
        <ele>279</ele>
        <time>2018-08-06T09:59:11Z</time>
      </trkpt>
      <trkpt lat="45.97166" lon="4.85273">
        <ele>279</ele>
        <time>2018-08-06T09:59:13Z</time>
      </trkpt>
      <trkpt lat="45.97162" lon="4.85274">
        <ele>279</ele>
        <time>2018-08-06T09:59:14Z</time>
      </trkpt>
      <trkpt lat="45.97153" lon="4.85275">
        <ele>279</ele>
        <time>2018-08-06T09:59:17Z</time>
      </trkpt>
      <trkpt lat="45.97147" lon="4.85276">
        <ele>279</ele>
        <time>2018-08-06T09:59:18Z</time>
      </trkpt>
      <trkpt lat="45.97139" lon="4.85273">
        <ele>279</ele>
        <time>2018-08-06T09:59:20Z</time>
      </trkpt>
      <trkpt lat="45.97136" lon="4.85274">
        <ele>279</ele>
        <time>2018-08-06T09:59:21Z</time>
      </trkpt>
      <trkpt lat="45.97128" lon="4.85272">
        <ele>279</ele>
        <time>2018-08-06T09:59:23Z</time>
      </trkpt>
      <trkpt lat="45.97124" lon="4.85273">
        <ele>280</ele>
        <time>2018-08-06T09:59:24Z</time>
      </trkpt>
      <trkpt lat="45.97115" lon="4.85274">
        <ele>280</ele>
        <time>2018-08-06T09:59:26Z</time>
      </trkpt>
      <trkpt lat="45.9711" lon="4.85276">
        <ele>280</ele>
        <time>2018-08-06T09:59:27Z</time>
      </trkpt>
      <trkpt lat="45.97101" lon="4.85276">
        <ele>280</ele>
        <time>2018-08-06T09:59:29Z</time>
      </trkpt>
      <trkpt lat="45.97097" lon="4.85277">
        <ele>280</ele>
        <time>2018-08-06T09:59:30Z</time>
      </trkpt>
      <trkpt lat="45.97089" lon="4.85276">
        <ele>280</ele>
        <time>2018-08-06T09:59:32Z</time>
      </trkpt>
      <trkpt lat="45.97085" lon="4.85276">
        <ele>280</ele>
        <time>2018-08-06T09:59:33Z</time>
      </trkpt>
      <trkpt lat="45.97077" lon="4.85275">
        <ele>281</ele>
        <time>2018-08-06T09:59:35Z</time>
      </trkpt>
      <trkpt lat="45.97073" lon="4.85275">
        <ele>281</ele>
        <time>2018-08-06T09:59:36Z</time>
      </trkpt>
      <trkpt lat="45.97065" lon="4.85276">
        <ele>282</ele>
        <time>2018-08-06T09:59:38Z</time>
      </trkpt>
      <trkpt lat="45.97061" lon="4.85278">
        <ele>282</ele>
        <time>2018-08-06T09:59:39Z</time>
      </trkpt>
      <trkpt lat="45.97053" lon="4.85279">
        <ele>282</ele>
        <time>2018-08-06T09:59:42Z</time>
      </trkpt>
      <trkpt lat="45.97051" lon="4.85279">
        <ele>282</ele>
        <time>2018-08-06T09:59:43Z</time>
      </trkpt>
      <trkpt lat="45.97042" lon="4.8528">
        <ele>282</ele>
        <time>2018-08-06T09:59:46Z</time>
      </trkpt>
      <trkpt lat="45.97039" lon="4.85281">
        <ele>282</ele>
        <time>2018-08-06T09:59:47Z</time>
      </trkpt>
      <trkpt lat="45.97033" lon="4.85282">
        <ele>282</ele>
        <time>2018-08-06T09:59:49Z</time>
      </trkpt>
      <trkpt lat="45.97029" lon="4.85283">
        <ele>282</ele>
        <time>2018-08-06T09:59:50Z</time>
      </trkpt>
      <trkpt lat="45.97023" lon="4.85283">
        <ele>282</ele>
        <time>2018-08-06T09:59:52Z</time>
      </trkpt>
      <trkpt lat="45.97019" lon="4.85284">
        <ele>282</ele>
        <time>2018-08-06T09:59:53Z</time>
      </trkpt>
      <trkpt lat="45.97013" lon="4.85284">
        <ele>282</ele>
        <time>2018-08-06T09:59:55Z</time>
      </trkpt>
      <trkpt lat="45.9701" lon="4.85284">
        <ele>282</ele>
        <time>2018-08-06T09:59:56Z</time>
      </trkpt>
      <trkpt lat="45.97003" lon="4.85285">
        <ele>282</ele>
        <time>2018-08-06T09:59:58Z</time>
      </trkpt>
      <trkpt lat="45.97" lon="4.85285">
        <ele>282</ele>
        <time>2018-08-06T09:59:59Z</time>
      </trkpt>
      <trkpt lat="45.96994" lon="4.85287">
        <ele>284</ele>
        <time>2018-08-06T10:00:01Z</time>
      </trkpt>
      <trkpt lat="45.9699" lon="4.85287">
        <ele>284</ele>
        <time>2018-08-06T10:00:02Z</time>
      </trkpt>
      <trkpt lat="45.96984" lon="4.85288">
        <ele>284</ele>
        <time>2018-08-06T10:00:04Z</time>
      </trkpt>
      <trkpt lat="45.96981" lon="4.85289">
        <ele>284</ele>
        <time>2018-08-06T10:00:05Z</time>
      </trkpt>
      <trkpt lat="45.96975" lon="4.8529">
        <ele>284</ele>
        <time>2018-08-06T10:00:07Z</time>
      </trkpt>
      <trkpt lat="45.96965" lon="4.85292">
        <ele>284</ele>
        <time>2018-08-06T10:00:08Z</time>
      </trkpt>
      <trkpt lat="45.96958" lon="4.85293">
        <ele>284</ele>
        <time>2018-08-06T10:00:10Z</time>
      </trkpt>
      <trkpt lat="45.96954" lon="4.85293">
        <ele>284</ele>
        <time>2018-08-06T10:00:11Z</time>
      </trkpt>
      <trkpt lat="45.96946" lon="4.85294">
        <ele>284</ele>
        <time>2018-08-06T10:00:13Z</time>
      </trkpt>
      <trkpt lat="45.96942" lon="4.85295">
        <ele>284</ele>
        <time>2018-08-06T10:00:14Z</time>
      </trkpt>
      <trkpt lat="45.96934" lon="4.85297">
        <ele>284</ele>
        <time>2018-08-06T10:00:16Z</time>
      </trkpt>
      <trkpt lat="45.9693" lon="4.85298">
        <ele>284</ele>
        <time>2018-08-06T10:00:17Z</time>
      </trkpt>
      <trkpt lat="45.96922" lon="4.85301">
        <ele>284</ele>
        <time>2018-08-06T10:00:19Z</time>
      </trkpt>
      <trkpt lat="45.96917" lon="4.85302">
        <ele>285</ele>
        <time>2018-08-06T10:00:20Z</time>
      </trkpt>
      <trkpt lat="45.96912" lon="4.85302">
        <ele>284</ele>
        <time>2018-08-06T10:00:21Z</time>
      </trkpt>
      <trkpt lat="45.96908" lon="4.85303">
        <ele>284</ele>
        <time>2018-08-06T10:00:22Z</time>
      </trkpt>
      <trkpt lat="45.96902" lon="4.85305">
        <ele>284</ele>
        <time>2018-08-06T10:00:23Z</time>
      </trkpt>
      <trkpt lat="45.96896" lon="4.85307">
        <ele>283</ele>
        <time>2018-08-06T10:00:24Z</time>
      </trkpt>
      <trkpt lat="45.96892" lon="4.85308">
        <ele>283</ele>
        <time>2018-08-06T10:00:25Z</time>
      </trkpt>
      <trkpt lat="45.96882" lon="4.8531">
        <ele>283</ele>
        <time>2018-08-06T10:00:26Z</time>
      </trkpt>
      <trkpt lat="45.96875" lon="4.85311">
        <ele>283</ele>
        <time>2018-08-06T10:00:27Z</time>
      </trkpt>
      <trkpt lat="45.96868" lon="4.85312">
        <ele>282</ele>
        <time>2018-08-06T10:00:28Z</time>
      </trkpt>
      <trkpt lat="45.96863" lon="4.85314">
        <ele>282</ele>
        <time>2018-08-06T10:00:29Z</time>
      </trkpt>
      <trkpt lat="45.96855" lon="4.85317">
        <ele>282</ele>
        <time>2018-08-06T10:00:30Z</time>
      </trkpt>
      <trkpt lat="45.96847" lon="4.85319">
        <ele>281</ele>
        <time>2018-08-06T10:00:31Z</time>
      </trkpt>
      <trkpt lat="45.9684" lon="4.85322">
        <ele>281</ele>
        <time>2018-08-06T10:00:32Z</time>
      </trkpt>
      <trkpt lat="45.96833" lon="4.85325">
        <ele>279</ele>
        <time>2018-08-06T10:00:33Z</time>
      </trkpt>
      <trkpt lat="45.96826" lon="4.85328">
        <ele>279</ele>
        <time>2018-08-06T10:00:34Z</time>
      </trkpt>
      <trkpt lat="45.96818" lon="4.85331">
        <ele>279</ele>
        <time>2018-08-06T10:00:35Z</time>
      </trkpt>
      <trkpt lat="45.9681" lon="4.85335">
        <ele>279</ele>
        <time>2018-08-06T10:00:36Z</time>
      </trkpt>
      <trkpt lat="45.96805" lon="4.85338">
        <ele>279</ele>
        <time>2018-08-06T10:00:37Z</time>
      </trkpt>
      <trkpt lat="45.96797" lon="4.8534">
        <ele>279</ele>
        <time>2018-08-06T10:00:38Z</time>
      </trkpt>
      <trkpt lat="45.96791" lon="4.85346">
        <ele>278</ele>
        <time>2018-08-06T10:00:39Z</time>
      </trkpt>
      <trkpt lat="45.96785" lon="4.85349">
        <ele>278</ele>
        <time>2018-08-06T10:00:40Z</time>
      </trkpt>
      <trkpt lat="45.96778" lon="4.85353">
        <ele>278</ele>
        <time>2018-08-06T10:00:41Z</time>
      </trkpt>
      <trkpt lat="45.96774" lon="4.85358">
        <ele>278</ele>
        <time>2018-08-06T10:00:42Z</time>
      </trkpt>
      <trkpt lat="45.96769" lon="4.85362">
        <ele>278</ele>
        <time>2018-08-06T10:00:43Z</time>
      </trkpt>
      <trkpt lat="45.96762" lon="4.85367">
        <ele>278</ele>
        <time>2018-08-06T10:00:44Z</time>
      </trkpt>
      <trkpt lat="45.96758" lon="4.85372">
        <ele>278</ele>
        <time>2018-08-06T10:00:45Z</time>
      </trkpt>
      <trkpt lat="45.96751" lon="4.85377">
        <ele>278</ele>
        <time>2018-08-06T10:00:46Z</time>
      </trkpt>
      <trkpt lat="45.96748" lon="4.85381">
        <ele>277</ele>
        <time>2018-08-06T10:00:47Z</time>
      </trkpt>
      <trkpt lat="45.96739" lon="4.85382">
        <ele>277</ele>
        <time>2018-08-06T10:00:48Z</time>
      </trkpt>
      <trkpt lat="45.96734" lon="4.85388">
        <ele>276</ele>
        <time>2018-08-06T10:00:49Z</time>
      </trkpt>
      <trkpt lat="45.96725" lon="4.85395">
        <ele>276</ele>
        <time>2018-08-06T10:00:50Z</time>
      </trkpt>
      <trkpt lat="45.96721" lon="4.85396">
        <ele>276</ele>
        <time>2018-08-06T10:00:51Z</time>
      </trkpt>
      <trkpt lat="45.96715" lon="4.85402">
        <ele>276</ele>
        <time>2018-08-06T10:00:52Z</time>
      </trkpt>
      <trkpt lat="45.96705" lon="4.85406">
        <ele>276</ele>
        <time>2018-08-06T10:00:53Z</time>
      </trkpt>
      <trkpt lat="45.96698" lon="4.85411">
        <ele>276</ele>
        <time>2018-08-06T10:00:54Z</time>
      </trkpt>
      <trkpt lat="45.96692" lon="4.85413">
        <ele>276</ele>
        <time>2018-08-06T10:00:55Z</time>
      </trkpt>
      <trkpt lat="45.96686" lon="4.85417">
        <ele>276</ele>
        <time>2018-08-06T10:00:56Z</time>
      </trkpt>
      <trkpt lat="45.96679" lon="4.85419">
        <ele>276</ele>
        <time>2018-08-06T10:00:57Z</time>
      </trkpt>
      <trkpt lat="45.96673" lon="4.85422">
        <ele>276</ele>
        <time>2018-08-06T10:00:58Z</time>
      </trkpt>
      <trkpt lat="45.96667" lon="4.85423">
        <ele>276</ele>
        <time>2018-08-06T10:00:59Z</time>
      </trkpt>
      <trkpt lat="45.96661" lon="4.85425">
        <ele>276</ele>
        <time>2018-08-06T10:01:00Z</time>
      </trkpt>
      <trkpt lat="45.96655" lon="4.85426">
        <ele>276</ele>
        <time>2018-08-06T10:01:01Z</time>
      </trkpt>
      <trkpt lat="45.9665" lon="4.85429">
        <ele>276</ele>
        <time>2018-08-06T10:01:02Z</time>
      </trkpt>
      <trkpt lat="45.96644" lon="4.85431">
        <ele>276</ele>
        <time>2018-08-06T10:01:03Z</time>
      </trkpt>
      <trkpt lat="45.96638" lon="4.85433">
        <ele>276</ele>
        <time>2018-08-06T10:01:04Z</time>
      </trkpt>
      <trkpt lat="45.96633" lon="4.85435">
        <ele>276</ele>
        <time>2018-08-06T10:01:05Z</time>
      </trkpt>
      <trkpt lat="45.96628" lon="4.85436">
        <ele>276</ele>
        <time>2018-08-06T10:01:06Z</time>
      </trkpt>
      <trkpt lat="45.96623" lon="4.85438">
        <ele>276</ele>
        <time>2018-08-06T10:01:07Z</time>
      </trkpt>
      <trkpt lat="45.96617" lon="4.85441">
        <ele>276</ele>
        <time>2018-08-06T10:01:08Z</time>
      </trkpt>
      <trkpt lat="45.96612" lon="4.85443">
        <ele>276</ele>
        <time>2018-08-06T10:01:09Z</time>
      </trkpt>
      <trkpt lat="45.96605" lon="4.85446">
        <ele>276</ele>
        <time>2018-08-06T10:01:11Z</time>
      </trkpt>
      <trkpt lat="45.966" lon="4.85447">
        <ele>276</ele>
        <time>2018-08-06T10:01:12Z</time>
      </trkpt>
      <trkpt lat="45.96594" lon="4.85448">
        <ele>276</ele>
        <time>2018-08-06T10:01:13Z</time>
      </trkpt>
      <trkpt lat="45.96589" lon="4.85447">
        <ele>276</ele>
        <time>2018-08-06T10:01:14Z</time>
      </trkpt>
      <trkpt lat="45.96583" lon="4.85448">
        <ele>275</ele>
        <time>2018-08-06T10:01:16Z</time>
      </trkpt>
      <trkpt lat="45.96579" lon="4.85451">
        <ele>275</ele>
        <time>2018-08-06T10:01:17Z</time>
      </trkpt>
      <trkpt lat="45.96573" lon="4.85451">
        <ele>275</ele>
        <time>2018-08-06T10:01:18Z</time>
      </trkpt>
      <trkpt lat="45.96568" lon="4.8545">
        <ele>275</ele>
        <time>2018-08-06T10:01:19Z</time>
      </trkpt>
      <trkpt lat="45.96563" lon="4.85451">
        <ele>275</ele>
        <time>2018-08-06T10:01:20Z</time>
      </trkpt>
      <trkpt lat="45.96559" lon="4.85453">
        <ele>275</ele>
        <time>2018-08-06T10:01:21Z</time>
      </trkpt>
      <trkpt lat="45.9655" lon="4.85455">
        <ele>275</ele>
        <time>2018-08-06T10:01:23Z</time>
      </trkpt>
      <trkpt lat="45.96546" lon="4.85455">
        <ele>275</ele>
        <time>2018-08-06T10:01:24Z</time>
      </trkpt>
      <trkpt lat="45.9654" lon="4.85455">
        <ele>275</ele>
        <time>2018-08-06T10:01:25Z</time>
      </trkpt>
      <trkpt lat="45.96534" lon="4.85456">
        <ele>275</ele>
        <time>2018-08-06T10:01:26Z</time>
      </trkpt>
      <trkpt lat="45.96527" lon="4.85459">
        <ele>275</ele>
        <time>2018-08-06T10:01:27Z</time>
      </trkpt>
      <trkpt lat="45.96522" lon="4.85461">
        <ele>275</ele>
        <time>2018-08-06T10:01:28Z</time>
      </trkpt>
      <trkpt lat="45.9652" lon="4.85462">
        <ele>275</ele>
        <time>2018-08-06T10:01:29Z</time>
      </trkpt>
      <trkpt lat="45.96511" lon="4.85462">
        <ele>275</ele>
        <time>2018-08-06T10:01:30Z</time>
      </trkpt>
      <trkpt lat="45.96505" lon="4.85464">
        <ele>275</ele>
        <time>2018-08-06T10:01:31Z</time>
      </trkpt>
      <trkpt lat="45.96498" lon="4.85467">
        <ele>273</ele>
        <time>2018-08-06T10:01:32Z</time>
      </trkpt>
      <trkpt lat="45.96491" lon="4.85467">
        <ele>273</ele>
        <time>2018-08-06T10:01:33Z</time>
      </trkpt>
      <trkpt lat="45.96485" lon="4.85468">
        <ele>273</ele>
        <time>2018-08-06T10:01:34Z</time>
      </trkpt>
      <trkpt lat="45.96481" lon="4.85468">
        <ele>273</ele>
        <time>2018-08-06T10:01:35Z</time>
      </trkpt>
      <trkpt lat="45.96476" lon="4.85469">
        <ele>272</ele>
        <time>2018-08-06T10:01:36Z</time>
      </trkpt>
      <trkpt lat="45.96468" lon="4.8547">
        <ele>272</ele>
        <time>2018-08-06T10:01:40Z</time>
      </trkpt>
      <trkpt lat="45.96466" lon="4.85471">
        <ele>272</ele>
        <time>2018-08-06T10:01:41Z</time>
      </trkpt>
      <trkpt lat="45.96461" lon="4.85472">
        <ele>272</ele>
        <time>2018-08-06T10:01:43Z</time>
      </trkpt>
      <trkpt lat="45.96449" lon="4.85473">
        <ele>272</ele>
        <time>2018-08-06T10:01:44Z</time>
      </trkpt>
      <trkpt lat="45.96444" lon="4.85472">
        <ele>272</ele>
        <time>2018-08-06T10:01:45Z</time>
      </trkpt>
      <trkpt lat="45.96439" lon="4.85472">
        <ele>272</ele>
        <time>2018-08-06T10:01:46Z</time>
      </trkpt>
      <trkpt lat="45.96432" lon="4.85471">
        <ele>271</ele>
        <time>2018-08-06T10:01:48Z</time>
      </trkpt>
      <trkpt lat="45.96427" lon="4.85469">
        <ele>271</ele>
        <time>2018-08-06T10:01:49Z</time>
      </trkpt>
      <trkpt lat="45.96425" lon="4.85469">
        <ele>271</ele>
        <time>2018-08-06T10:01:51Z</time>
      </trkpt>
      <trkpt lat="45.96416" lon="4.85468">
        <ele>269</ele>
        <time>2018-08-06T10:01:52Z</time>
      </trkpt>
      <trkpt lat="45.96414" lon="4.85465">
        <ele>269</ele>
        <time>2018-08-06T10:01:54Z</time>
      </trkpt>
      <trkpt lat="45.96406" lon="4.85463">
        <ele>269</ele>
        <time>2018-08-06T10:01:55Z</time>
      </trkpt>
      <trkpt lat="45.964" lon="4.85463">
        <ele>269</ele>
        <time>2018-08-06T10:01:56Z</time>
      </trkpt>
      <trkpt lat="45.96396" lon="4.85463">
        <ele>269</ele>
        <time>2018-08-06T10:01:57Z</time>
      </trkpt>
      <trkpt lat="45.96385" lon="4.85464">
        <ele>268</ele>
        <time>2018-08-06T10:01:58Z</time>
      </trkpt>
      <trkpt lat="45.96374" lon="4.85463">
        <ele>268</ele>
        <time>2018-08-06T10:01:59Z</time>
      </trkpt>
      <trkpt lat="45.96361" lon="4.85463">
        <ele>268</ele>
        <time>2018-08-06T10:02:00Z</time>
      </trkpt>
      <trkpt lat="45.96352" lon="4.85462">
        <ele>268</ele>
        <time>2018-08-06T10:02:01Z</time>
      </trkpt>
      <trkpt lat="45.96342" lon="4.85461">
        <ele>268</ele>
        <time>2018-08-06T10:02:02Z</time>
      </trkpt>
      <trkpt lat="45.96331" lon="4.85457">
        <ele>265</ele>
        <time>2018-08-06T10:02:03Z</time>
      </trkpt>
      <trkpt lat="45.96327" lon="4.85457">
        <ele>265</ele>
        <time>2018-08-06T10:02:04Z</time>
      </trkpt>
      <trkpt lat="45.96319" lon="4.85455">
        <ele>265</ele>
        <time>2018-08-06T10:02:05Z</time>
      </trkpt>
      <trkpt lat="45.96311" lon="4.85454">
        <ele>265</ele>
        <time>2018-08-06T10:02:06Z</time>
      </trkpt>
      <trkpt lat="45.96304" lon="4.85451">
        <ele>265</ele>
        <time>2018-08-06T10:02:07Z</time>
      </trkpt>
      <trkpt lat="45.96296" lon="4.8545">
        <ele>265</ele>
        <time>2018-08-06T10:02:08Z</time>
      </trkpt>
      <trkpt lat="45.96289" lon="4.85451">
        <ele>265</ele>
        <time>2018-08-06T10:02:09Z</time>
      </trkpt>
      <trkpt lat="45.96281" lon="4.85449">
        <ele>264</ele>
        <time>2018-08-06T10:02:10Z</time>
      </trkpt>
      <trkpt lat="45.96273" lon="4.85448">
        <ele>264</ele>
        <time>2018-08-06T10:02:11Z</time>
      </trkpt>
      <trkpt lat="45.96265" lon="4.85447">
        <ele>264</ele>
        <time>2018-08-06T10:02:12Z</time>
      </trkpt>
      <trkpt lat="45.96256" lon="4.85444">
        <ele>264</ele>
        <time>2018-08-06T10:02:13Z</time>
      </trkpt>
      <trkpt lat="45.96248" lon="4.8544">
        <ele>261</ele>
        <time>2018-08-06T10:02:14Z</time>
      </trkpt>
      <trkpt lat="45.96239" lon="4.85437">
        <ele>261</ele>
        <time>2018-08-06T10:02:15Z</time>
      </trkpt>
      <trkpt lat="45.9623" lon="4.85433">
        <ele>261</ele>
        <time>2018-08-06T10:02:16Z</time>
      </trkpt>
      <trkpt lat="45.96222" lon="4.85429">
        <ele>261</ele>
        <time>2018-08-06T10:02:17Z</time>
      </trkpt>
      <trkpt lat="45.96215" lon="4.85426">
        <ele>261</ele>
        <time>2018-08-06T10:02:18Z</time>
      </trkpt>
      <trkpt lat="45.96207" lon="4.85419">
        <ele>260</ele>
        <time>2018-08-06T10:02:19Z</time>
      </trkpt>
      <trkpt lat="45.962" lon="4.85413">
        <ele>258</ele>
        <time>2018-08-06T10:02:20Z</time>
      </trkpt>
      <trkpt lat="45.96192" lon="4.85406">
        <ele>258</ele>
        <time>2018-08-06T10:02:21Z</time>
      </trkpt>
      <trkpt lat="45.96184" lon="4.85399">
        <ele>258</ele>
        <time>2018-08-06T10:02:22Z</time>
      </trkpt>
      <trkpt lat="45.96177" lon="4.85393">
        <ele>258</ele>
        <time>2018-08-06T10:02:23Z</time>
      </trkpt>
      <trkpt lat="45.96169" lon="4.85387">
        <ele>258</ele>
        <time>2018-08-06T10:02:24Z</time>
      </trkpt>
      <trkpt lat="45.96162" lon="4.85383">
        <ele>258</ele>
        <time>2018-08-06T10:02:25Z</time>
      </trkpt>
      <trkpt lat="45.96153" lon="4.8538">
        <ele>258</ele>
        <time>2018-08-06T10:02:26Z</time>
      </trkpt>
      <trkpt lat="45.96146" lon="4.85375">
        <ele>258</ele>
        <time>2018-08-06T10:02:27Z</time>
      </trkpt>
      <trkpt lat="45.96137" lon="4.85375">
        <ele>258</ele>
        <time>2018-08-06T10:02:28Z</time>
      </trkpt>
      <trkpt lat="45.96129" lon="4.85373">
        <ele>258</ele>
        <time>2018-08-06T10:02:29Z</time>
      </trkpt>
      <trkpt lat="45.96124" lon="4.85369">
        <ele>258</ele>
        <time>2018-08-06T10:02:30Z</time>
      </trkpt>
      <trkpt lat="45.96117" lon="4.85368">
        <ele>258</ele>
        <time>2018-08-06T10:02:31Z</time>
      </trkpt>
      <trkpt lat="45.96112" lon="4.85364">
        <ele>259</ele>
        <time>2018-08-06T10:02:32Z</time>
      </trkpt>
      <trkpt lat="45.96106" lon="4.8536">
        <ele>259</ele>
        <time>2018-08-06T10:02:33Z</time>
      </trkpt>
      <trkpt lat="45.96103" lon="4.85355">
        <ele>259</ele>
        <time>2018-08-06T10:02:34Z</time>
      </trkpt>
      <trkpt lat="45.96094" lon="4.85352">
        <ele>259</ele>
        <time>2018-08-06T10:02:36Z</time>
      </trkpt>
      <trkpt lat="45.9609" lon="4.85351">
        <ele>259</ele>
        <time>2018-08-06T10:02:37Z</time>
      </trkpt>
      <trkpt lat="45.96085" lon="4.8535">
        <ele>260</ele>
        <time>2018-08-06T10:02:38Z</time>
      </trkpt>
      <trkpt lat="45.96081" lon="4.85349">
        <ele>261</ele>
        <time>2018-08-06T10:02:39Z</time>
      </trkpt>
      <trkpt lat="45.96073" lon="4.85347">
        <ele>262</ele>
        <time>2018-08-06T10:02:41Z</time>
      </trkpt>
      <trkpt lat="45.96069" lon="4.85347">
        <ele>262</ele>
        <time>2018-08-06T10:02:42Z</time>
      </trkpt>
      <trkpt lat="45.96061" lon="4.85347">
        <ele>262</ele>
        <time>2018-08-06T10:02:44Z</time>
      </trkpt>
      <trkpt lat="45.96057" lon="4.85346">
        <ele>262</ele>
        <time>2018-08-06T10:02:45Z</time>
      </trkpt>
      <trkpt lat="45.96049" lon="4.85347">
        <ele>262</ele>
        <time>2018-08-06T10:02:47Z</time>
      </trkpt>
      <trkpt lat="45.96045" lon="4.85347">
        <ele>262</ele>
        <time>2018-08-06T10:02:48Z</time>
      </trkpt>
      <trkpt lat="45.96036" lon="4.85347">
        <ele>263</ele>
        <time>2018-08-06T10:02:51Z</time>
      </trkpt>
      <trkpt lat="45.96031" lon="4.85347">
        <ele>263</ele>
        <time>2018-08-06T10:02:52Z</time>
      </trkpt>
      <trkpt lat="45.96025" lon="4.85347">
        <ele>263</ele>
        <time>2018-08-06T10:02:54Z</time>
      </trkpt>
      <trkpt lat="45.96019" lon="4.85347">
        <ele>263</ele>
        <time>2018-08-06T10:02:55Z</time>
      </trkpt>
      <trkpt lat="45.96012" lon="4.85347">
        <ele>264</ele>
        <time>2018-08-06T10:02:58Z</time>
      </trkpt>
      <trkpt lat="45.96005" lon="4.85348">
        <ele>264</ele>
        <time>2018-08-06T10:02:59Z</time>
      </trkpt>
      <trkpt lat="45.95997" lon="4.8535">
        <ele>265</ele>
        <time>2018-08-06T10:03:02Z</time>
      </trkpt>
      <trkpt lat="45.95995" lon="4.85351">
        <ele>265</ele>
        <time>2018-08-06T10:03:03Z</time>
      </trkpt>
      <trkpt lat="45.95986" lon="4.85349">
        <ele>265</ele>
        <time>2018-08-06T10:03:07Z</time>
      </trkpt>
      <trkpt lat="45.95984" lon="4.85349">
        <ele>265</ele>
        <time>2018-08-06T10:03:08Z</time>
      </trkpt>
      <trkpt lat="45.95976" lon="4.85348">
        <ele>265</ele>
        <time>2018-08-06T10:03:11Z</time>
      </trkpt>
      <trkpt lat="45.95973" lon="4.85347">
        <ele>265</ele>
        <time>2018-08-06T10:03:12Z</time>
      </trkpt>
      <trkpt lat="45.95965" lon="4.85345">
        <ele>265</ele>
        <time>2018-08-06T10:03:15Z</time>
      </trkpt>
      <trkpt lat="45.95956" lon="4.85344">
        <ele>266</ele>
        <time>2018-08-06T10:03:16Z</time>
      </trkpt>
      <trkpt lat="45.95949" lon="4.85345">
        <ele>266</ele>
        <time>2018-08-06T10:03:20Z</time>
      </trkpt>
      <trkpt lat="45.95943" lon="4.85344">
        <ele>266</ele>
        <time>2018-08-06T10:03:21Z</time>
      </trkpt>
      <trkpt lat="45.95935" lon="4.85343">
        <ele>266</ele>
        <time>2018-08-06T10:03:25Z</time>
      </trkpt>
      <trkpt lat="45.95933" lon="4.85342">
        <ele>266</ele>
        <time>2018-08-06T10:03:26Z</time>
      </trkpt>
      <trkpt lat="45.95925" lon="4.85338">
        <ele>266</ele>
        <time>2018-08-06T10:03:29Z</time>
      </trkpt>
      <trkpt lat="45.95923" lon="4.85337">
        <ele>267</ele>
        <time>2018-08-06T10:03:30Z</time>
      </trkpt>
      <trkpt lat="45.95914" lon="4.85333">
        <ele>267</ele>
        <time>2018-08-06T10:03:33Z</time>
      </trkpt>
      <trkpt lat="45.95912" lon="4.85332">
        <ele>267</ele>
        <time>2018-08-06T10:03:34Z</time>
      </trkpt>
      <trkpt lat="45.95905" lon="4.85328">
        <ele>268</ele>
        <time>2018-08-06T10:03:36Z</time>
      </trkpt>
      <trkpt lat="45.95902" lon="4.85326">
        <ele>268</ele>
        <time>2018-08-06T10:03:37Z</time>
      </trkpt>
      <trkpt lat="45.959" lon="4.85324">
        <ele>268</ele>
        <time>2018-08-06T10:03:38Z</time>
      </trkpt>
      <trkpt lat="45.95891" lon="4.85316">
        <ele>269</ele>
        <time>2018-08-06T10:03:39Z</time>
      </trkpt>
      <trkpt lat="45.95885" lon="4.8531">
        <ele>269</ele>
        <time>2018-08-06T10:03:41Z</time>
      </trkpt>
      <trkpt lat="45.95883" lon="4.85309">
        <ele>269</ele>
        <time>2018-08-06T10:03:42Z</time>
      </trkpt>
      <trkpt lat="45.95877" lon="4.85302">
        <ele>269</ele>
        <time>2018-08-06T10:03:44Z</time>
      </trkpt>
      <trkpt lat="45.95876" lon="4.853">
        <ele>269</ele>
        <time>2018-08-06T10:03:45Z</time>
      </trkpt>
      <trkpt lat="45.9587" lon="4.85293">
        <ele>269</ele>
        <time>2018-08-06T10:03:48Z</time>
      </trkpt>
      <trkpt lat="45.95868" lon="4.8529">
        <ele>269</ele>
        <time>2018-08-06T10:03:49Z</time>
      </trkpt>
      <trkpt lat="45.95864" lon="4.85284">
        <ele>270</ele>
        <time>2018-08-06T10:03:51Z</time>
      </trkpt>
      <trkpt lat="45.95862" lon="4.85281">
        <ele>270</ele>
        <time>2018-08-06T10:03:52Z</time>
      </trkpt>
      <trkpt lat="45.95858" lon="4.85275">
        <ele>270</ele>
        <time>2018-08-06T10:03:54Z</time>
      </trkpt>
      <trkpt lat="45.95855" lon="4.85271">
        <ele>270</ele>
        <time>2018-08-06T10:03:55Z</time>
      </trkpt>
      <trkpt lat="45.95853" lon="4.85267">
        <ele>270</ele>
        <time>2018-08-06T10:03:56Z</time>
      </trkpt>
      <trkpt lat="45.95846" lon="4.85255">
        <ele>271</ele>
        <time>2018-08-06T10:03:57Z</time>
      </trkpt>
      <trkpt lat="45.95841" lon="4.85244">
        <ele>271</ele>
        <time>2018-08-06T10:04:00Z</time>
      </trkpt>
      <trkpt lat="45.95839" lon="4.85241">
        <ele>271</ele>
        <time>2018-08-06T10:04:01Z</time>
      </trkpt>
      <trkpt lat="45.95835" lon="4.85233">
        <ele>271</ele>
        <time>2018-08-06T10:04:04Z</time>
      </trkpt>
      <trkpt lat="45.95833" lon="4.8523">
        <ele>274</ele>
        <time>2018-08-06T10:04:05Z</time>
      </trkpt>
      <trkpt lat="45.95828" lon="4.8522">
        <ele>274</ele>
        <time>2018-08-06T10:04:08Z</time>
      </trkpt>
      <trkpt lat="45.95826" lon="4.85217">
        <ele>275</ele>
        <time>2018-08-06T10:04:09Z</time>
      </trkpt>
      <trkpt lat="45.95823" lon="4.85211">
        <ele>275</ele>
        <time>2018-08-06T10:04:11Z</time>
      </trkpt>
      <trkpt lat="45.95815" lon="4.85198">
        <ele>275</ele>
        <time>2018-08-06T10:04:12Z</time>
      </trkpt>
      <trkpt lat="45.95808" lon="4.85191">
        <ele>275</ele>
        <time>2018-08-06T10:04:15Z</time>
      </trkpt>
      <trkpt lat="45.95807" lon="4.85189">
        <ele>275</ele>
        <time>2018-08-06T10:04:16Z</time>
      </trkpt>
      <trkpt lat="45.95802" lon="4.85179">
        <ele>275</ele>
        <time>2018-08-06T10:04:22Z</time>
      </trkpt>
      <trkpt lat="45.95801" lon="4.85177">
        <ele>275</ele>
        <time>2018-08-06T10:04:23Z</time>
      </trkpt>
      <trkpt lat="45.95794" lon="4.85169">
        <ele>275</ele>
        <time>2018-08-06T10:04:28Z</time>
      </trkpt>
      <trkpt lat="45.95792" lon="4.85167">
        <ele>275</ele>
        <time>2018-08-06T10:04:29Z</time>
      </trkpt>
      <trkpt lat="45.95786" lon="4.85158">
        <ele>275</ele>
        <time>2018-08-06T10:04:32Z</time>
      </trkpt>
      <trkpt lat="45.95784" lon="4.85155">
        <ele>275</ele>
        <time>2018-08-06T10:04:33Z</time>
      </trkpt>
      <trkpt lat="45.9578" lon="4.85147">
        <ele>275</ele>
        <time>2018-08-06T10:04:35Z</time>
      </trkpt>
      <trkpt lat="45.95777" lon="4.85142">
        <ele>276</ele>
        <time>2018-08-06T10:04:36Z</time>
      </trkpt>
      <trkpt lat="45.95772" lon="4.85134">
        <ele>276</ele>
        <time>2018-08-06T10:04:38Z</time>
      </trkpt>
      <trkpt lat="45.9577" lon="4.8513">
        <ele>276</ele>
        <time>2018-08-06T10:04:39Z</time>
      </trkpt>
      <trkpt lat="45.95767" lon="4.85122">
        <ele>276</ele>
        <time>2018-08-06T10:04:41Z</time>
      </trkpt>
      <trkpt lat="45.95764" lon="4.85119">
        <ele>276</ele>
        <time>2018-08-06T10:04:42Z</time>
      </trkpt>
      <trkpt lat="45.95762" lon="4.85115">
        <ele>276</ele>
        <time>2018-08-06T10:04:43Z</time>
      </trkpt>
      <trkpt lat="45.95745" lon="4.85092">
        <ele>278</ele>
        <time>2018-08-06T10:04:44Z</time>
      </trkpt>
      <trkpt lat="45.95741" lon="4.85086">
        <ele>278</ele>
        <time>2018-08-06T10:04:45Z</time>
      </trkpt>
      <trkpt lat="45.95738" lon="4.85081">
        <ele>277</ele>
        <time>2018-08-06T10:04:46Z</time>
      </trkpt>
      <trkpt lat="45.95736" lon="4.85078">
        <ele>277</ele>
        <time>2018-08-06T10:04:47Z</time>
      </trkpt>
      <trkpt lat="45.95731" lon="4.8507">
        <ele>277</ele>
        <time>2018-08-06T10:04:48Z</time>
      </trkpt>
      <trkpt lat="45.95726" lon="4.85066">
        <ele>277</ele>
        <time>2018-08-06T10:04:49Z</time>
      </trkpt>
      <trkpt lat="45.95722" lon="4.85061">
        <ele>277</ele>
        <time>2018-08-06T10:04:50Z</time>
      </trkpt>
      <trkpt lat="45.95719" lon="4.85056">
        <ele>277</ele>
        <time>2018-08-06T10:04:51Z</time>
      </trkpt>
      <trkpt lat="45.95715" lon="4.85051">
        <ele>276</ele>
        <time>2018-08-06T10:04:52Z</time>
      </trkpt>
      <trkpt lat="45.95711" lon="4.85044">
        <ele>276</ele>
        <time>2018-08-06T10:04:53Z</time>
      </trkpt>
      <trkpt lat="45.95708" lon="4.85038">
        <ele>276</ele>
        <time>2018-08-06T10:04:54Z</time>
      </trkpt>
      <trkpt lat="45.95705" lon="4.85032">
        <ele>276</ele>
        <time>2018-08-06T10:04:55Z</time>
      </trkpt>
      <trkpt lat="45.95701" lon="4.85027">
        <ele>276</ele>
        <time>2018-08-06T10:04:56Z</time>
      </trkpt>
      <trkpt lat="45.95697" lon="4.85022">
        <ele>276</ele>
        <time>2018-08-06T10:04:57Z</time>
      </trkpt>
      <trkpt lat="45.95693" lon="4.85016">
        <ele>275</ele>
        <time>2018-08-06T10:04:58Z</time>
      </trkpt>
      <trkpt lat="45.95688" lon="4.8501">
        <ele>275</ele>
        <time>2018-08-06T10:04:59Z</time>
      </trkpt>
      <trkpt lat="45.95685" lon="4.85005">
        <ele>275</ele>
        <time>2018-08-06T10:05:00Z</time>
      </trkpt>
      <trkpt lat="45.9568" lon="4.84998">
        <ele>273</ele>
        <time>2018-08-06T10:05:01Z</time>
      </trkpt>
      <trkpt lat="45.95676" lon="4.84992">
        <ele>273</ele>
        <time>2018-08-06T10:05:02Z</time>
      </trkpt>
      <trkpt lat="45.95672" lon="4.84986">
        <ele>273</ele>
        <time>2018-08-06T10:05:03Z</time>
      </trkpt>
      <trkpt lat="45.95667" lon="4.84981">
        <ele>273</ele>
        <time>2018-08-06T10:05:04Z</time>
      </trkpt>
      <trkpt lat="45.95663" lon="4.84976">
        <ele>272</ele>
        <time>2018-08-06T10:05:05Z</time>
      </trkpt>
      <trkpt lat="45.95656" lon="4.84971">
        <ele>271</ele>
        <time>2018-08-06T10:05:06Z</time>
      </trkpt>
      <trkpt lat="45.95654" lon="4.84969">
        <ele>271</ele>
        <time>2018-08-06T10:05:07Z</time>
      </trkpt>
      <trkpt lat="45.95645" lon="4.84965">
        <ele>271</ele>
        <time>2018-08-06T10:05:08Z</time>
      </trkpt>
      <trkpt lat="45.95643" lon="4.84957">
        <ele>271</ele>
        <time>2018-08-06T10:05:09Z</time>
      </trkpt>
      <trkpt lat="45.9564" lon="4.84951">
        <ele>271</ele>
        <time>2018-08-06T10:05:10Z</time>
      </trkpt>
      <trkpt lat="45.95633" lon="4.84944">
        <ele>271</ele>
        <time>2018-08-06T10:05:12Z</time>
      </trkpt>
      <trkpt lat="45.95627" lon="4.84939">
        <ele>270</ele>
        <time>2018-08-06T10:05:13Z</time>
      </trkpt>
      <trkpt lat="45.95622" lon="4.84935">
        <ele>270</ele>
        <time>2018-08-06T10:05:14Z</time>
      </trkpt>
      <trkpt lat="45.95617" lon="4.84932">
        <ele>270</ele>
        <time>2018-08-06T10:05:15Z</time>
      </trkpt>
      <trkpt lat="45.95613" lon="4.84929">
        <ele>270</ele>
        <time>2018-08-06T10:05:16Z</time>
      </trkpt>
      <trkpt lat="45.95607" lon="4.84925">
        <ele>270</ele>
        <time>2018-08-06T10:05:17Z</time>
      </trkpt>
      <trkpt lat="45.95601" lon="4.84923">
        <ele>270</ele>
        <time>2018-08-06T10:05:18Z</time>
      </trkpt>
      <trkpt lat="45.95595" lon="4.84922">
        <ele>270</ele>
        <time>2018-08-06T10:05:19Z</time>
      </trkpt>
      <trkpt lat="45.95591" lon="4.84918">
        <ele>269</ele>
        <time>2018-08-06T10:05:20Z</time>
      </trkpt>
      <trkpt lat="45.95586" lon="4.84914">
        <ele>269</ele>
        <time>2018-08-06T10:05:21Z</time>
      </trkpt>
      <trkpt lat="45.95581" lon="4.84911">
        <ele>269</ele>
        <time>2018-08-06T10:05:22Z</time>
      </trkpt>
      <trkpt lat="45.95576" lon="4.84908">
        <ele>269</ele>
        <time>2018-08-06T10:05:23Z</time>
      </trkpt>
      <trkpt lat="45.95571" lon="4.84904">
        <ele>268</ele>
        <time>2018-08-06T10:05:24Z</time>
      </trkpt>
      <trkpt lat="45.95567" lon="4.849">
        <ele>268</ele>
        <time>2018-08-06T10:05:25Z</time>
      </trkpt>
      <trkpt lat="45.95562" lon="4.84895">
        <ele>268</ele>
        <time>2018-08-06T10:05:26Z</time>
      </trkpt>
      <trkpt lat="45.95557" lon="4.84891">
        <ele>268</ele>
        <time>2018-08-06T10:05:27Z</time>
      </trkpt>
      <trkpt lat="45.95552" lon="4.84886">
        <ele>268</ele>
        <time>2018-08-06T10:05:28Z</time>
      </trkpt>
      <trkpt lat="45.95547" lon="4.84882">
        <ele>268</ele>
        <time>2018-08-06T10:05:29Z</time>
      </trkpt>
      <trkpt lat="45.95542" lon="4.84877">
        <ele>268</ele>
        <time>2018-08-06T10:05:30Z</time>
      </trkpt>
      <trkpt lat="45.95536" lon="4.84873">
        <ele>268</ele>
        <time>2018-08-06T10:05:31Z</time>
      </trkpt>
      <trkpt lat="45.95531" lon="4.84868">
        <ele>268</ele>
        <time>2018-08-06T10:05:32Z</time>
      </trkpt>
      <trkpt lat="45.95526" lon="4.84864">
        <ele>268</ele>
        <time>2018-08-06T10:05:33Z</time>
      </trkpt>
      <trkpt lat="45.95521" lon="4.84859">
        <ele>268</ele>
        <time>2018-08-06T10:05:34Z</time>
      </trkpt>
      <trkpt lat="45.95517" lon="4.84854">
        <ele>268</ele>
        <time>2018-08-06T10:05:35Z</time>
      </trkpt>
      <trkpt lat="45.95512" lon="4.84849">
        <ele>268</ele>
        <time>2018-08-06T10:05:36Z</time>
      </trkpt>
      <trkpt lat="45.95508" lon="4.84844">
        <ele>267</ele>
        <time>2018-08-06T10:05:37Z</time>
      </trkpt>
      <trkpt lat="45.95503" lon="4.8484">
        <ele>267</ele>
        <time>2018-08-06T10:05:38Z</time>
      </trkpt>
      <trkpt lat="45.955" lon="4.84834">
        <ele>267</ele>
        <time>2018-08-06T10:05:39Z</time>
      </trkpt>
      <trkpt lat="45.95495" lon="4.84829">
        <ele>267</ele>
        <time>2018-08-06T10:05:40Z</time>
      </trkpt>
      <trkpt lat="45.95491" lon="4.84824">
        <ele>267</ele>
        <time>2018-08-06T10:05:41Z</time>
      </trkpt>
      <trkpt lat="45.95486" lon="4.8482">
        <ele>267</ele>
        <time>2018-08-06T10:05:42Z</time>
      </trkpt>
      <trkpt lat="45.95482" lon="4.84816">
        <ele>267</ele>
        <time>2018-08-06T10:05:43Z</time>
      </trkpt>
      <trkpt lat="45.95478" lon="4.8481">
        <ele>267</ele>
        <time>2018-08-06T10:05:44Z</time>
      </trkpt>
      <trkpt lat="45.95474" lon="4.84806">
        <ele>267</ele>
        <time>2018-08-06T10:05:45Z</time>
      </trkpt>
      <trkpt lat="45.95468" lon="4.84799">
        <ele>267</ele>
        <time>2018-08-06T10:05:47Z</time>
      </trkpt>
      <trkpt lat="45.95462" lon="4.84795">
        <ele>267</ele>
        <time>2018-08-06T10:05:48Z</time>
      </trkpt>
      <trkpt lat="45.95457" lon="4.84787">
        <ele>267</ele>
        <time>2018-08-06T10:05:50Z</time>
      </trkpt>
      <trkpt lat="45.95454" lon="4.84784">
        <ele>267</ele>
        <time>2018-08-06T10:05:51Z</time>
      </trkpt>
      <trkpt lat="45.9545" lon="4.84779">
        <ele>267</ele>
        <time>2018-08-06T10:05:52Z</time>
      </trkpt>
      <trkpt lat="45.95446" lon="4.84773">
        <ele>267</ele>
        <time>2018-08-06T10:05:53Z</time>
      </trkpt>
      <trkpt lat="45.95442" lon="4.84768">
        <ele>267</ele>
        <time>2018-08-06T10:05:54Z</time>
      </trkpt>
      <trkpt lat="45.95437" lon="4.84762">
        <ele>267</ele>
        <time>2018-08-06T10:05:55Z</time>
      </trkpt>
      <trkpt lat="45.95432" lon="4.84757">
        <ele>267</ele>
        <time>2018-08-06T10:05:56Z</time>
      </trkpt>
      <trkpt lat="45.95427" lon="4.84752">
        <ele>267</ele>
        <time>2018-08-06T10:05:57Z</time>
      </trkpt>
      <trkpt lat="45.95421" lon="4.84747">
        <ele>267</ele>
        <time>2018-08-06T10:05:58Z</time>
      </trkpt>
      <trkpt lat="45.95417" lon="4.84742">
        <ele>267</ele>
        <time>2018-08-06T10:05:59Z</time>
      </trkpt>
      <trkpt lat="45.95412" lon="4.84737">
        <ele>267</ele>
        <time>2018-08-06T10:06:00Z</time>
      </trkpt>
      <trkpt lat="45.95408" lon="4.84733">
        <ele>266</ele>
        <time>2018-08-06T10:06:01Z</time>
      </trkpt>
      <trkpt lat="45.95402" lon="4.84727">
        <ele>266</ele>
        <time>2018-08-06T10:06:02Z</time>
      </trkpt>
      <trkpt lat="45.95397" lon="4.84723">
        <ele>266</ele>
        <time>2018-08-06T10:06:03Z</time>
      </trkpt>
      <trkpt lat="45.95391" lon="4.84719">
        <ele>266</ele>
        <time>2018-08-06T10:06:04Z</time>
      </trkpt>
      <trkpt lat="45.95386" lon="4.84714">
        <ele>266</ele>
        <time>2018-08-06T10:06:05Z</time>
      </trkpt>
      <trkpt lat="45.95381" lon="4.8471">
        <ele>266</ele>
        <time>2018-08-06T10:06:06Z</time>
      </trkpt>
      <trkpt lat="45.95376" lon="4.84704">
        <ele>266</ele>
        <time>2018-08-06T10:06:07Z</time>
      </trkpt>
      <trkpt lat="45.95371" lon="4.84701">
        <ele>266</ele>
        <time>2018-08-06T10:06:08Z</time>
      </trkpt>
      <trkpt lat="45.95366" lon="4.84698">
        <ele>266</ele>
        <time>2018-08-06T10:06:09Z</time>
      </trkpt>
      <trkpt lat="45.9536" lon="4.84693">
        <ele>266</ele>
        <time>2018-08-06T10:06:10Z</time>
      </trkpt>
      <trkpt lat="45.95356" lon="4.84688">
        <ele>266</ele>
        <time>2018-08-06T10:06:11Z</time>
      </trkpt>
      <trkpt lat="45.95348" lon="4.84685">
        <ele>266</ele>
        <time>2018-08-06T10:06:12Z</time>
      </trkpt>
      <trkpt lat="45.95343" lon="4.8468">
        <ele>265</ele>
        <time>2018-08-06T10:06:13Z</time>
      </trkpt>
      <trkpt lat="45.95339" lon="4.84674">
        <ele>265</ele>
        <time>2018-08-06T10:06:14Z</time>
      </trkpt>
      <trkpt lat="45.95335" lon="4.8467">
        <ele>265</ele>
        <time>2018-08-06T10:06:15Z</time>
      </trkpt>
      <trkpt lat="45.95329" lon="4.84667">
        <ele>265</ele>
        <time>2018-08-06T10:06:16Z</time>
      </trkpt>
      <trkpt lat="45.95325" lon="4.8466">
        <ele>265</ele>
        <time>2018-08-06T10:06:17Z</time>
      </trkpt>
      <trkpt lat="45.9532" lon="4.84655">
        <ele>265</ele>
        <time>2018-08-06T10:06:18Z</time>
      </trkpt>
      <trkpt lat="45.95315" lon="4.84651">
        <ele>265</ele>
        <time>2018-08-06T10:06:19Z</time>
      </trkpt>
      <trkpt lat="45.95309" lon="4.84647">
        <ele>264</ele>
        <time>2018-08-06T10:06:20Z</time>
      </trkpt>
      <trkpt lat="45.95305" lon="4.84642">
        <ele>264</ele>
        <time>2018-08-06T10:06:21Z</time>
      </trkpt>
      <trkpt lat="45.953" lon="4.84638">
        <ele>264</ele>
        <time>2018-08-06T10:06:22Z</time>
      </trkpt>
      <trkpt lat="45.95293" lon="4.84633">
        <ele>264</ele>
        <time>2018-08-06T10:06:23Z</time>
      </trkpt>
      <trkpt lat="45.95288" lon="4.84629">
        <ele>264</ele>
        <time>2018-08-06T10:06:24Z</time>
      </trkpt>
      <trkpt lat="45.95283" lon="4.84627">
        <ele>264</ele>
        <time>2018-08-06T10:06:25Z</time>
      </trkpt>
      <trkpt lat="45.95279" lon="4.84622">
        <ele>264</ele>
        <time>2018-08-06T10:06:26Z</time>
      </trkpt>
      <trkpt lat="45.95275" lon="4.84617">
        <ele>264</ele>
        <time>2018-08-06T10:06:27Z</time>
      </trkpt>
      <trkpt lat="45.95271" lon="4.84612">
        <ele>264</ele>
        <time>2018-08-06T10:06:28Z</time>
      </trkpt>
      <trkpt lat="45.95267" lon="4.84608">
        <ele>264</ele>
        <time>2018-08-06T10:06:29Z</time>
      </trkpt>
      <trkpt lat="45.95263" lon="4.84604">
        <ele>264</ele>
        <time>2018-08-06T10:06:30Z</time>
      </trkpt>
      <trkpt lat="45.95258" lon="4.84598">
        <ele>264</ele>
        <time>2018-08-06T10:06:31Z</time>
      </trkpt>
      <trkpt lat="45.95253" lon="4.84593">
        <ele>264</ele>
        <time>2018-08-06T10:06:32Z</time>
      </trkpt>
      <trkpt lat="45.95248" lon="4.84588">
        <ele>264</ele>
        <time>2018-08-06T10:06:33Z</time>
      </trkpt>
      <trkpt lat="45.95245" lon="4.84582">
        <ele>264</ele>
        <time>2018-08-06T10:06:34Z</time>
      </trkpt>
      <trkpt lat="45.9524" lon="4.84577">
        <ele>264</ele>
        <time>2018-08-06T10:06:35Z</time>
      </trkpt>
      <trkpt lat="45.95236" lon="4.84572">
        <ele>264</ele>
        <time>2018-08-06T10:06:36Z</time>
      </trkpt>
      <trkpt lat="45.95233" lon="4.84567">
        <ele>264</ele>
        <time>2018-08-06T10:06:37Z</time>
      </trkpt>
      <trkpt lat="45.95228" lon="4.84562">
        <ele>264</ele>
        <time>2018-08-06T10:06:38Z</time>
      </trkpt>
      <trkpt lat="45.95225" lon="4.84557">
        <ele>264</ele>
        <time>2018-08-06T10:06:39Z</time>
      </trkpt>
      <trkpt lat="45.95221" lon="4.84552">
        <ele>264</ele>
        <time>2018-08-06T10:06:40Z</time>
      </trkpt>
      <trkpt lat="45.95217" lon="4.84548">
        <ele>264</ele>
        <time>2018-08-06T10:06:41Z</time>
      </trkpt>
      <trkpt lat="45.95213" lon="4.84544">
        <ele>264</ele>
        <time>2018-08-06T10:06:42Z</time>
      </trkpt>
      <trkpt lat="45.95209" lon="4.84539">
        <ele>265</ele>
        <time>2018-08-06T10:06:43Z</time>
      </trkpt>
      <trkpt lat="45.95205" lon="4.84533">
        <ele>265</ele>
        <time>2018-08-06T10:06:44Z</time>
      </trkpt>
      <trkpt lat="45.95202" lon="4.84527">
        <ele>265</ele>
        <time>2018-08-06T10:06:45Z</time>
      </trkpt>
      <trkpt lat="45.95197" lon="4.84522">
        <ele>265</ele>
        <time>2018-08-06T10:06:46Z</time>
      </trkpt>
      <trkpt lat="45.95193" lon="4.84515">
        <ele>265</ele>
        <time>2018-08-06T10:06:47Z</time>
      </trkpt>
      <trkpt lat="45.95188" lon="4.8451">
        <ele>265</ele>
        <time>2018-08-06T10:06:48Z</time>
      </trkpt>
      <trkpt lat="45.95185" lon="4.84505">
        <ele>265</ele>
        <time>2018-08-06T10:06:49Z</time>
      </trkpt>
      <trkpt lat="45.95181" lon="4.845">
        <ele>266</ele>
        <time>2018-08-06T10:06:50Z</time>
      </trkpt>
      <trkpt lat="45.95177" lon="4.84494">
        <ele>266</ele>
        <time>2018-08-06T10:06:51Z</time>
      </trkpt>
      <trkpt lat="45.95173" lon="4.8449">
        <ele>266</ele>
        <time>2018-08-06T10:06:52Z</time>
      </trkpt>
      <trkpt lat="45.95169" lon="4.84486">
        <ele>266</ele>
        <time>2018-08-06T10:06:53Z</time>
      </trkpt>
      <trkpt lat="45.95162" lon="4.84479">
        <ele>266</ele>
        <time>2018-08-06T10:06:55Z</time>
      </trkpt>
      <trkpt lat="45.95158" lon="4.84474">
        <ele>266</ele>
        <time>2018-08-06T10:06:56Z</time>
      </trkpt>
      <trkpt lat="45.95154" lon="4.8447">
        <ele>266</ele>
        <time>2018-08-06T10:06:57Z</time>
      </trkpt>
      <trkpt lat="45.9515" lon="4.84465">
        <ele>266</ele>
        <time>2018-08-06T10:06:58Z</time>
      </trkpt>
      <trkpt lat="45.95146" lon="4.8446">
        <ele>266</ele>
        <time>2018-08-06T10:06:59Z</time>
      </trkpt>
      <trkpt lat="45.95142" lon="4.84455">
        <ele>267</ele>
        <time>2018-08-06T10:07:00Z</time>
      </trkpt>
      <trkpt lat="45.95138" lon="4.84451">
        <ele>267</ele>
        <time>2018-08-06T10:07:01Z</time>
      </trkpt>
      <trkpt lat="45.95135" lon="4.84447">
        <ele>267</ele>
        <time>2018-08-06T10:07:02Z</time>
      </trkpt>
      <trkpt lat="45.95131" lon="4.84443">
        <ele>267</ele>
        <time>2018-08-06T10:07:03Z</time>
      </trkpt>
      <trkpt lat="45.95127" lon="4.84439">
        <ele>267</ele>
        <time>2018-08-06T10:07:04Z</time>
      </trkpt>
      <trkpt lat="45.95121" lon="4.84433">
        <ele>267</ele>
        <time>2018-08-06T10:07:06Z</time>
      </trkpt>
      <trkpt lat="45.95115" lon="4.84428">
        <ele>267</ele>
        <time>2018-08-06T10:07:07Z</time>
      </trkpt>
      <trkpt lat="45.95111" lon="4.84423">
        <ele>267</ele>
        <time>2018-08-06T10:07:08Z</time>
      </trkpt>
      <trkpt lat="45.95108" lon="4.8442">
        <ele>267</ele>
        <time>2018-08-06T10:07:09Z</time>
      </trkpt>
      <trkpt lat="45.95104" lon="4.84416">
        <ele>267</ele>
        <time>2018-08-06T10:07:10Z</time>
      </trkpt>
      <trkpt lat="45.95099" lon="4.8441">
        <ele>267</ele>
        <time>2018-08-06T10:07:11Z</time>
      </trkpt>
      <trkpt lat="45.95095" lon="4.84406">
        <ele>267</ele>
        <time>2018-08-06T10:07:12Z</time>
      </trkpt>
      <trkpt lat="45.9509" lon="4.84402">
        <ele>267</ele>
        <time>2018-08-06T10:07:13Z</time>
      </trkpt>
      <trkpt lat="45.95086" lon="4.84398">
        <ele>267</ele>
        <time>2018-08-06T10:07:14Z</time>
      </trkpt>
      <trkpt lat="45.95081" lon="4.84393">
        <ele>267</ele>
        <time>2018-08-06T10:07:15Z</time>
      </trkpt>
      <trkpt lat="45.95077" lon="4.84388">
        <ele>267</ele>
        <time>2018-08-06T10:07:16Z</time>
      </trkpt>
      <trkpt lat="45.95072" lon="4.84383">
        <ele>267</ele>
        <time>2018-08-06T10:07:17Z</time>
      </trkpt>
      <trkpt lat="45.95069" lon="4.84378">
        <ele>267</ele>
        <time>2018-08-06T10:07:18Z</time>
      </trkpt>
      <trkpt lat="45.95065" lon="4.84372">
        <ele>267</ele>
        <time>2018-08-06T10:07:19Z</time>
      </trkpt>
      <trkpt lat="45.95061" lon="4.84368">
        <ele>267</ele>
        <time>2018-08-06T10:07:20Z</time>
      </trkpt>
      <trkpt lat="45.95057" lon="4.84362">
        <ele>267</ele>
        <time>2018-08-06T10:07:21Z</time>
      </trkpt>
      <trkpt lat="45.95053" lon="4.84357">
        <ele>267</ele>
        <time>2018-08-06T10:07:22Z</time>
      </trkpt>
      <trkpt lat="45.9505" lon="4.84352">
        <ele>267</ele>
        <time>2018-08-06T10:07:23Z</time>
      </trkpt>
      <trkpt lat="45.95047" lon="4.84346">
        <ele>267</ele>
        <time>2018-08-06T10:07:24Z</time>
      </trkpt>
      <trkpt lat="45.95043" lon="4.84341">
        <ele>267</ele>
        <time>2018-08-06T10:07:25Z</time>
      </trkpt>
      <trkpt lat="45.9504" lon="4.84337">
        <ele>267</ele>
        <time>2018-08-06T10:07:26Z</time>
      </trkpt>
      <trkpt lat="45.95036" lon="4.84333">
        <ele>267</ele>
        <time>2018-08-06T10:07:27Z</time>
      </trkpt>
      <trkpt lat="45.9503" lon="4.84324">
        <ele>267</ele>
        <time>2018-08-06T10:07:29Z</time>
      </trkpt>
      <trkpt lat="45.95028" lon="4.84319">
        <ele>267</ele>
        <time>2018-08-06T10:07:30Z</time>
      </trkpt>
      <trkpt lat="45.95026" lon="4.84314">
        <ele>267</ele>
        <time>2018-08-06T10:07:31Z</time>
      </trkpt>
      <trkpt lat="45.95021" lon="4.84309">
        <ele>267</ele>
        <time>2018-08-06T10:07:32Z</time>
      </trkpt>
      <trkpt lat="45.95017" lon="4.84303">
        <ele>267</ele>
        <time>2018-08-06T10:07:33Z</time>
      </trkpt>
      <trkpt lat="45.95016" lon="4.84297">
        <ele>267</ele>
        <time>2018-08-06T10:07:34Z</time>
      </trkpt>
      <trkpt lat="45.95012" lon="4.84292">
        <ele>267</ele>
        <time>2018-08-06T10:07:35Z</time>
      </trkpt>
      <trkpt lat="45.95009" lon="4.84286">
        <ele>267</ele>
        <time>2018-08-06T10:07:36Z</time>
      </trkpt>
      <trkpt lat="45.95006" lon="4.8428">
        <ele>267</ele>
        <time>2018-08-06T10:07:37Z</time>
      </trkpt>
      <trkpt lat="45.95002" lon="4.84273">
        <ele>267</ele>
        <time>2018-08-06T10:07:38Z</time>
      </trkpt>
      <trkpt lat="45.94999" lon="4.84268">
        <ele>267</ele>
        <time>2018-08-06T10:07:39Z</time>
      </trkpt>
      <trkpt lat="45.94995" lon="4.84262">
        <ele>267</ele>
        <time>2018-08-06T10:07:40Z</time>
      </trkpt>
      <trkpt lat="45.94992" lon="4.8425">
        <ele>267</ele>
        <time>2018-08-06T10:07:42Z</time>
      </trkpt>
      <trkpt lat="45.94986" lon="4.84246">
        <ele>267</ele>
        <time>2018-08-06T10:07:43Z</time>
      </trkpt>
      <trkpt lat="45.94983" lon="4.84241">
        <ele>267</ele>
        <time>2018-08-06T10:07:44Z</time>
      </trkpt>
      <trkpt lat="45.9498" lon="4.84235">
        <ele>267</ele>
        <time>2018-08-06T10:07:45Z</time>
      </trkpt>
      <trkpt lat="45.94976" lon="4.8423">
        <ele>267</ele>
        <time>2018-08-06T10:07:46Z</time>
      </trkpt>
      <trkpt lat="45.94972" lon="4.84225">
        <ele>267</ele>
        <time>2018-08-06T10:07:47Z</time>
      </trkpt>
      <trkpt lat="45.94968" lon="4.84219">
        <ele>267</ele>
        <time>2018-08-06T10:07:48Z</time>
      </trkpt>
      <trkpt lat="45.94964" lon="4.84213">
        <ele>267</ele>
        <time>2018-08-06T10:07:49Z</time>
      </trkpt>
      <trkpt lat="45.94962" lon="4.84208">
        <ele>267</ele>
        <time>2018-08-06T10:07:50Z</time>
      </trkpt>
      <trkpt lat="45.94957" lon="4.84202">
        <ele>267</ele>
        <time>2018-08-06T10:07:51Z</time>
      </trkpt>
      <trkpt lat="45.94953" lon="4.84197">
        <ele>267</ele>
        <time>2018-08-06T10:07:52Z</time>
      </trkpt>
      <trkpt lat="45.94949" lon="4.84191">
        <ele>267</ele>
        <time>2018-08-06T10:07:53Z</time>
      </trkpt>
      <trkpt lat="45.94945" lon="4.84185">
        <ele>267</ele>
        <time>2018-08-06T10:07:54Z</time>
      </trkpt>
      <trkpt lat="45.94939" lon="4.8418">
        <ele>267</ele>
        <time>2018-08-06T10:07:55Z</time>
      </trkpt>
      <trkpt lat="45.94936" lon="4.84168">
        <ele>267</ele>
        <time>2018-08-06T10:07:57Z</time>
      </trkpt>
      <trkpt lat="45.94932" lon="4.84163">
        <ele>268</ele>
        <time>2018-08-06T10:07:58Z</time>
      </trkpt>
      <trkpt lat="45.94927" lon="4.84157">
        <ele>268</ele>
        <time>2018-08-06T10:07:59Z</time>
      </trkpt>
      <trkpt lat="45.94925" lon="4.84151">
        <ele>268</ele>
        <time>2018-08-06T10:08:00Z</time>
      </trkpt>
      <trkpt lat="45.9492" lon="4.84145">
        <ele>268</ele>
        <time>2018-08-06T10:08:01Z</time>
      </trkpt>
      <trkpt lat="45.94917" lon="4.84139">
        <ele>268</ele>
        <time>2018-08-06T10:08:02Z</time>
      </trkpt>
      <trkpt lat="45.9491" lon="4.84132">
        <ele>268</ele>
        <time>2018-08-06T10:08:03Z</time>
      </trkpt>
      <trkpt lat="45.94905" lon="4.84127">
        <ele>267</ele>
        <time>2018-08-06T10:08:04Z</time>
      </trkpt>
      <trkpt lat="45.94902" lon="4.84121">
        <ele>267</ele>
        <time>2018-08-06T10:08:05Z</time>
      </trkpt>
      <trkpt lat="45.949" lon="4.84114">
        <ele>267</ele>
        <time>2018-08-06T10:08:06Z</time>
      </trkpt>
      <trkpt lat="45.94898" lon="4.84106">
        <ele>267</ele>
        <time>2018-08-06T10:08:07Z</time>
      </trkpt>
      <trkpt lat="45.94895" lon="4.84099">
        <ele>267</ele>
        <time>2018-08-06T10:08:08Z</time>
      </trkpt>
      <trkpt lat="45.94891" lon="4.84092">
        <ele>267</ele>
        <time>2018-08-06T10:08:09Z</time>
      </trkpt>
      <trkpt lat="45.94888" lon="4.84085">
        <ele>267</ele>
        <time>2018-08-06T10:08:10Z</time>
      </trkpt>
      <trkpt lat="45.94885" lon="4.84077">
        <ele>267</ele>
        <time>2018-08-06T10:08:11Z</time>
      </trkpt>
      <trkpt lat="45.94882" lon="4.8407">
        <ele>267</ele>
        <time>2018-08-06T10:08:12Z</time>
      </trkpt>
      <trkpt lat="45.94879" lon="4.84063">
        <ele>267</ele>
        <time>2018-08-06T10:08:13Z</time>
      </trkpt>
      <trkpt lat="45.94877" lon="4.84057">
        <ele>267</ele>
        <time>2018-08-06T10:08:14Z</time>
      </trkpt>
      <trkpt lat="45.94876" lon="4.8405">
        <ele>267</ele>
        <time>2018-08-06T10:08:15Z</time>
      </trkpt>
      <trkpt lat="45.94873" lon="4.84043">
        <ele>266</ele>
        <time>2018-08-06T10:08:16Z</time>
      </trkpt>
      <trkpt lat="45.9487" lon="4.84037">
        <ele>266</ele>
        <time>2018-08-06T10:08:17Z</time>
      </trkpt>
      <trkpt lat="45.94867" lon="4.84031">
        <ele>266</ele>
        <time>2018-08-06T10:08:18Z</time>
      </trkpt>
      <trkpt lat="45.94865" lon="4.84025">
        <ele>266</ele>
        <time>2018-08-06T10:08:19Z</time>
      </trkpt>
      <trkpt lat="45.94863" lon="4.84018">
        <ele>266</ele>
        <time>2018-08-06T10:08:20Z</time>
      </trkpt>
      <trkpt lat="45.9486" lon="4.84013">
        <ele>266</ele>
        <time>2018-08-06T10:08:21Z</time>
      </trkpt>
      <trkpt lat="45.94858" lon="4.84006">
        <ele>266</ele>
        <time>2018-08-06T10:08:22Z</time>
      </trkpt>
      <trkpt lat="45.94856" lon="4.84">
        <ele>265</ele>
        <time>2018-08-06T10:08:23Z</time>
      </trkpt>
      <trkpt lat="45.94853" lon="4.83993">
        <ele>265</ele>
        <time>2018-08-06T10:08:24Z</time>
      </trkpt>
      <trkpt lat="45.9485" lon="4.83986">
        <ele>265</ele>
        <time>2018-08-06T10:08:25Z</time>
      </trkpt>
      <trkpt lat="45.94847" lon="4.8398">
        <ele>265</ele>
        <time>2018-08-06T10:08:26Z</time>
      </trkpt>
      <trkpt lat="45.94845" lon="4.83973">
        <ele>265</ele>
        <time>2018-08-06T10:08:27Z</time>
      </trkpt>
      <trkpt lat="45.94842" lon="4.83966">
        <ele>265</ele>
        <time>2018-08-06T10:08:28Z</time>
      </trkpt>
      <trkpt lat="45.94838" lon="4.83959">
        <ele>265</ele>
        <time>2018-08-06T10:08:29Z</time>
      </trkpt>
      <trkpt lat="45.94834" lon="4.83952">
        <ele>265</ele>
        <time>2018-08-06T10:08:30Z</time>
      </trkpt>
      <trkpt lat="45.9483" lon="4.83945">
        <ele>266</ele>
        <time>2018-08-06T10:08:31Z</time>
      </trkpt>
      <trkpt lat="45.94827" lon="4.83938">
        <ele>266</ele>
        <time>2018-08-06T10:08:32Z</time>
      </trkpt>
      <trkpt lat="45.94825" lon="4.8393">
        <ele>266</ele>
        <time>2018-08-06T10:08:33Z</time>
      </trkpt>
      <trkpt lat="45.94821" lon="4.83923">
        <ele>266</ele>
        <time>2018-08-06T10:08:34Z</time>
      </trkpt>
      <trkpt lat="45.94817" lon="4.83915">
        <ele>265</ele>
        <time>2018-08-06T10:08:35Z</time>
      </trkpt>
      <trkpt lat="45.94813" lon="4.83907">
        <ele>265</ele>
        <time>2018-08-06T10:08:36Z</time>
      </trkpt>
      <trkpt lat="45.94808" lon="4.83898">
        <ele>265</ele>
        <time>2018-08-06T10:08:37Z</time>
      </trkpt>
      <trkpt lat="45.94804" lon="4.83891">
        <ele>265</ele>
        <time>2018-08-06T10:08:38Z</time>
      </trkpt>
      <trkpt lat="45.94799" lon="4.83886">
        <ele>265</ele>
        <time>2018-08-06T10:08:39Z</time>
      </trkpt>
      <trkpt lat="45.94798" lon="4.83879">
        <ele>265</ele>
        <time>2018-08-06T10:08:40Z</time>
      </trkpt>
      <trkpt lat="45.94793" lon="4.83873">
        <ele>265</ele>
        <time>2018-08-06T10:08:41Z</time>
      </trkpt>
      <trkpt lat="45.94788" lon="4.83867">
        <ele>265</ele>
        <time>2018-08-06T10:08:42Z</time>
      </trkpt>
      <trkpt lat="45.94784" lon="4.8386">
        <ele>265</ele>
        <time>2018-08-06T10:08:43Z</time>
      </trkpt>
      <trkpt lat="45.94783" lon="4.83854">
        <ele>265</ele>
        <time>2018-08-06T10:08:44Z</time>
      </trkpt>
      <trkpt lat="45.94779" lon="4.83848">
        <ele>265</ele>
        <time>2018-08-06T10:08:45Z</time>
      </trkpt>
      <trkpt lat="45.94775" lon="4.8384">
        <ele>265</ele>
        <time>2018-08-06T10:08:46Z</time>
      </trkpt>
      <trkpt lat="45.9477" lon="4.83833">
        <ele>264</ele>
        <time>2018-08-06T10:08:47Z</time>
      </trkpt>
      <trkpt lat="45.94765" lon="4.83827">
        <ele>264</ele>
        <time>2018-08-06T10:08:48Z</time>
      </trkpt>
      <trkpt lat="45.94761" lon="4.8382">
        <ele>264</ele>
        <time>2018-08-06T10:08:49Z</time>
      </trkpt>
      <trkpt lat="45.94756" lon="4.83814">
        <ele>264</ele>
        <time>2018-08-06T10:08:50Z</time>
      </trkpt>
      <trkpt lat="45.94751" lon="4.83808">
        <ele>264</ele>
        <time>2018-08-06T10:08:51Z</time>
      </trkpt>
      <trkpt lat="45.94745" lon="4.83802">
        <ele>264</ele>
        <time>2018-08-06T10:08:52Z</time>
      </trkpt>
      <trkpt lat="45.94738" lon="4.83797">
        <ele>264</ele>
        <time>2018-08-06T10:08:53Z</time>
      </trkpt>
      <trkpt lat="45.94735" lon="4.83789">
        <ele>263</ele>
        <time>2018-08-06T10:08:54Z</time>
      </trkpt>
      <trkpt lat="45.94731" lon="4.83781">
        <ele>263</ele>
        <time>2018-08-06T10:08:55Z</time>
      </trkpt>
      <trkpt lat="45.94727" lon="4.83774">
        <ele>263</ele>
        <time>2018-08-06T10:08:56Z</time>
      </trkpt>
      <trkpt lat="45.94721" lon="4.83768">
        <ele>263</ele>
        <time>2018-08-06T10:08:57Z</time>
      </trkpt>
      <trkpt lat="45.94716" lon="4.83761">
        <ele>263</ele>
        <time>2018-08-06T10:08:58Z</time>
      </trkpt>
      <trkpt lat="45.94709" lon="4.83754">
        <ele>263</ele>
        <time>2018-08-06T10:08:59Z</time>
      </trkpt>
      <trkpt lat="45.94702" lon="4.83748">
        <ele>262</ele>
        <time>2018-08-06T10:09:00Z</time>
      </trkpt>
      <trkpt lat="45.94696" lon="4.83741">
        <ele>262</ele>
        <time>2018-08-06T10:09:01Z</time>
      </trkpt>
      <trkpt lat="45.9469" lon="4.83735">
        <ele>261</ele>
        <time>2018-08-06T10:09:02Z</time>
      </trkpt>
      <trkpt lat="45.94684" lon="4.83729">
        <ele>261</ele>
        <time>2018-08-06T10:09:03Z</time>
      </trkpt>
      <trkpt lat="45.94678" lon="4.83722">
        <ele>261</ele>
        <time>2018-08-06T10:09:04Z</time>
      </trkpt>
      <trkpt lat="45.94671" lon="4.83717">
        <ele>261</ele>
        <time>2018-08-06T10:09:05Z</time>
      </trkpt>
      <trkpt lat="45.94666" lon="4.83711">
        <ele>261</ele>
        <time>2018-08-06T10:09:06Z</time>
      </trkpt>
      <trkpt lat="45.94659" lon="4.83706">
        <ele>261</ele>
        <time>2018-08-06T10:09:07Z</time>
      </trkpt>
      <trkpt lat="45.94654" lon="4.837">
        <ele>261</ele>
        <time>2018-08-06T10:09:08Z</time>
      </trkpt>
      <trkpt lat="45.94648" lon="4.83695">
        <ele>261</ele>
        <time>2018-08-06T10:09:09Z</time>
      </trkpt>
      <trkpt lat="45.94643" lon="4.83688">
        <ele>261</ele>
        <time>2018-08-06T10:09:10Z</time>
      </trkpt>
      <trkpt lat="45.94639" lon="4.83682">
        <ele>261</ele>
        <time>2018-08-06T10:09:11Z</time>
      </trkpt>
      <trkpt lat="45.94633" lon="4.83676">
        <ele>261</ele>
        <time>2018-08-06T10:09:12Z</time>
      </trkpt>
      <trkpt lat="45.94627" lon="4.83672">
        <ele>261</ele>
        <time>2018-08-06T10:09:13Z</time>
      </trkpt>
      <trkpt lat="45.94623" lon="4.83668">
        <ele>261</ele>
        <time>2018-08-06T10:09:14Z</time>
      </trkpt>
      <trkpt lat="45.94618" lon="4.83663">
        <ele>260</ele>
        <time>2018-08-06T10:09:15Z</time>
      </trkpt>
      <trkpt lat="45.94611" lon="4.83659">
        <ele>260</ele>
        <time>2018-08-06T10:09:16Z</time>
      </trkpt>
      <trkpt lat="45.94608" lon="4.83656">
        <ele>260</ele>
        <time>2018-08-06T10:09:17Z</time>
      </trkpt>
      <trkpt lat="45.94603" lon="4.83652">
        <ele>260</ele>
        <time>2018-08-06T10:09:18Z</time>
      </trkpt>
      <trkpt lat="45.946" lon="4.83648">
        <ele>260</ele>
        <time>2018-08-06T10:09:19Z</time>
      </trkpt>
      <trkpt lat="45.94595" lon="4.83643">
        <ele>260</ele>
        <time>2018-08-06T10:09:20Z</time>
      </trkpt>
      <trkpt lat="45.94592" lon="4.83637">
        <ele>260</ele>
        <time>2018-08-06T10:09:21Z</time>
      </trkpt>
      <trkpt lat="45.94589" lon="4.83633">
        <ele>260</ele>
        <time>2018-08-06T10:09:22Z</time>
      </trkpt>
      <trkpt lat="45.94586" lon="4.8363">
        <ele>260</ele>
        <time>2018-08-06T10:09:23Z</time>
      </trkpt>
      <trkpt lat="45.94582" lon="4.83625">
        <ele>261</ele>
        <time>2018-08-06T10:09:24Z</time>
      </trkpt>
      <trkpt lat="45.9458" lon="4.83623">
        <ele>261</ele>
        <time>2018-08-06T10:09:25Z</time>
      </trkpt>
      <trkpt lat="45.94572" lon="4.83618">
        <ele>261</ele>
        <time>2018-08-06T10:09:26Z</time>
      </trkpt>
      <trkpt lat="45.94568" lon="4.83608">
        <ele>261</ele>
        <time>2018-08-06T10:09:27Z</time>
      </trkpt>
      <trkpt lat="45.94564" lon="4.83605">
        <ele>261</ele>
        <time>2018-08-06T10:09:28Z</time>
      </trkpt>
      <trkpt lat="45.94559" lon="4.83601">
        <ele>261</ele>
        <time>2018-08-06T10:09:29Z</time>
      </trkpt>
      <trkpt lat="45.94554" lon="4.83594">
        <ele>261</ele>
        <time>2018-08-06T10:09:30Z</time>
      </trkpt>
      <trkpt lat="45.9455" lon="4.8359">
        <ele>261</ele>
        <time>2018-08-06T10:09:31Z</time>
      </trkpt>
      <trkpt lat="45.94546" lon="4.83585">
        <ele>261</ele>
        <time>2018-08-06T10:09:32Z</time>
      </trkpt>
      <trkpt lat="45.94541" lon="4.83581">
        <ele>261</ele>
        <time>2018-08-06T10:09:33Z</time>
      </trkpt>
      <trkpt lat="45.94538" lon="4.83575">
        <ele>261</ele>
        <time>2018-08-06T10:09:34Z</time>
      </trkpt>
      <trkpt lat="45.94532" lon="4.83568">
        <ele>261</ele>
        <time>2018-08-06T10:09:35Z</time>
      </trkpt>
      <trkpt lat="45.94527" lon="4.83564">
        <ele>261</ele>
        <time>2018-08-06T10:09:36Z</time>
      </trkpt>
      <trkpt lat="45.94525" lon="4.83559">
        <ele>261</ele>
        <time>2018-08-06T10:09:37Z</time>
      </trkpt>
      <trkpt lat="45.94522" lon="4.83553">
        <ele>261</ele>
        <time>2018-08-06T10:09:38Z</time>
      </trkpt>
      <trkpt lat="45.94519" lon="4.83546">
        <ele>261</ele>
        <time>2018-08-06T10:09:39Z</time>
      </trkpt>
      <trkpt lat="45.94515" lon="4.83541">
        <ele>261</ele>
        <time>2018-08-06T10:09:40Z</time>
      </trkpt>
      <trkpt lat="45.94511" lon="4.83536">
        <ele>262</ele>
        <time>2018-08-06T10:09:41Z</time>
      </trkpt>
      <trkpt lat="45.94508" lon="4.83531">
        <ele>262</ele>
        <time>2018-08-06T10:09:42Z</time>
      </trkpt>
      <trkpt lat="45.94504" lon="4.83525">
        <ele>262</ele>
        <time>2018-08-06T10:09:43Z</time>
      </trkpt>
      <trkpt lat="45.94499" lon="4.8352">
        <ele>262</ele>
        <time>2018-08-06T10:09:44Z</time>
      </trkpt>
      <trkpt lat="45.94495" lon="4.83515">
        <ele>262</ele>
        <time>2018-08-06T10:09:45Z</time>
      </trkpt>
      <trkpt lat="45.94491" lon="4.8351">
        <ele>262</ele>
        <time>2018-08-06T10:09:46Z</time>
      </trkpt>
      <trkpt lat="45.94488" lon="4.83505">
        <ele>262</ele>
        <time>2018-08-06T10:09:47Z</time>
      </trkpt>
      <trkpt lat="45.94486" lon="4.83498">
        <ele>263</ele>
        <time>2018-08-06T10:09:48Z</time>
      </trkpt>
      <trkpt lat="45.94482" lon="4.83492">
        <ele>263</ele>
        <time>2018-08-06T10:09:49Z</time>
      </trkpt>
      <trkpt lat="45.94478" lon="4.83486">
        <ele>263</ele>
        <time>2018-08-06T10:09:50Z</time>
      </trkpt>
      <trkpt lat="45.94475" lon="4.8348">
        <ele>263</ele>
        <time>2018-08-06T10:09:51Z</time>
      </trkpt>
      <trkpt lat="45.94471" lon="4.83474">
        <ele>263</ele>
        <time>2018-08-06T10:09:52Z</time>
      </trkpt>
      <trkpt lat="45.94472" lon="4.83464">
        <ele>263</ele>
        <time>2018-08-06T10:09:53Z</time>
      </trkpt>
      <trkpt lat="45.9447" lon="4.83459">
        <ele>263</ele>
        <time>2018-08-06T10:09:54Z</time>
      </trkpt>
      <trkpt lat="45.94466" lon="4.83453">
        <ele>263</ele>
        <time>2018-08-06T10:09:55Z</time>
      </trkpt>
      <trkpt lat="45.9446" lon="4.8345">
        <ele>263</ele>
        <time>2018-08-06T10:09:56Z</time>
      </trkpt>
      <trkpt lat="45.94458" lon="4.83443">
        <ele>263</ele>
        <time>2018-08-06T10:09:57Z</time>
      </trkpt>
      <trkpt lat="45.94457" lon="4.83434">
        <ele>263</ele>
        <time>2018-08-06T10:09:58Z</time>
      </trkpt>
      <trkpt lat="45.94454" lon="4.83428">
        <ele>263</ele>
        <time>2018-08-06T10:09:59Z</time>
      </trkpt>
      <trkpt lat="45.94452" lon="4.83423">
        <ele>264</ele>
        <time>2018-08-06T10:10:00Z</time>
      </trkpt>
      <trkpt lat="45.94447" lon="4.8342">
        <ele>264</ele>
        <time>2018-08-06T10:10:01Z</time>
      </trkpt>
      <trkpt lat="45.94443" lon="4.83415">
        <ele>264</ele>
        <time>2018-08-06T10:10:02Z</time>
      </trkpt>
      <trkpt lat="45.94437" lon="4.83409">
        <ele>264</ele>
        <time>2018-08-06T10:10:03Z</time>
      </trkpt>
      <trkpt lat="45.94434" lon="4.83399">
        <ele>264</ele>
        <time>2018-08-06T10:10:04Z</time>
      </trkpt>
      <trkpt lat="45.94429" lon="4.83388">
        <ele>264</ele>
        <time>2018-08-06T10:10:06Z</time>
      </trkpt>
      <trkpt lat="45.94429" lon="4.83384">
        <ele>264</ele>
        <time>2018-08-06T10:10:07Z</time>
      </trkpt>
      <trkpt lat="45.94427" lon="4.83378">
        <ele>264</ele>
        <time>2018-08-06T10:10:08Z</time>
      </trkpt>
      <trkpt lat="45.94423" lon="4.83371">
        <ele>264</ele>
        <time>2018-08-06T10:10:09Z</time>
      </trkpt>
      <trkpt lat="45.94421" lon="4.83363">
        <ele>264</ele>
        <time>2018-08-06T10:10:10Z</time>
      </trkpt>
      <trkpt lat="45.94418" lon="4.83356">
        <ele>263</ele>
        <time>2018-08-06T10:10:11Z</time>
      </trkpt>
      <trkpt lat="45.94417" lon="4.8335">
        <ele>263</ele>
        <time>2018-08-06T10:10:12Z</time>
      </trkpt>
      <trkpt lat="45.94413" lon="4.83343">
        <ele>263</ele>
        <time>2018-08-06T10:10:13Z</time>
      </trkpt>
      <trkpt lat="45.94409" lon="4.83337">
        <ele>263</ele>
        <time>2018-08-06T10:10:14Z</time>
      </trkpt>
      <trkpt lat="45.94406" lon="4.8333">
        <ele>263</ele>
        <time>2018-08-06T10:10:15Z</time>
      </trkpt>
      <trkpt lat="45.94404" lon="4.83324">
        <ele>264</ele>
        <time>2018-08-06T10:10:16Z</time>
      </trkpt>
      <trkpt lat="45.94402" lon="4.83316">
        <ele>264</ele>
        <time>2018-08-06T10:10:17Z</time>
      </trkpt>
      <trkpt lat="45.94399" lon="4.83311">
        <ele>264</ele>
        <time>2018-08-06T10:10:18Z</time>
      </trkpt>
      <trkpt lat="45.94395" lon="4.83304">
        <ele>264</ele>
        <time>2018-08-06T10:10:19Z</time>
      </trkpt>
      <trkpt lat="45.94394" lon="4.83298">
        <ele>264</ele>
        <time>2018-08-06T10:10:20Z</time>
      </trkpt>
      <trkpt lat="45.94391" lon="4.8329">
        <ele>264</ele>
        <time>2018-08-06T10:10:21Z</time>
      </trkpt>
      <trkpt lat="45.94388" lon="4.83285">
        <ele>264</ele>
        <time>2018-08-06T10:10:22Z</time>
      </trkpt>
      <trkpt lat="45.94385" lon="4.8328">
        <ele>264</ele>
        <time>2018-08-06T10:10:23Z</time>
      </trkpt>
      <trkpt lat="45.94383" lon="4.83273">
        <ele>264</ele>
        <time>2018-08-06T10:10:24Z</time>
      </trkpt>
      <trkpt lat="45.9438" lon="4.83267">
        <ele>264</ele>
        <time>2018-08-06T10:10:25Z</time>
      </trkpt>
      <trkpt lat="45.94377" lon="4.8326">
        <ele>264</ele>
        <time>2018-08-06T10:10:26Z</time>
      </trkpt>
      <trkpt lat="45.94374" lon="4.83253">
        <ele>265</ele>
        <time>2018-08-06T10:10:27Z</time>
      </trkpt>
      <trkpt lat="45.94372" lon="4.83248">
        <ele>265</ele>
        <time>2018-08-06T10:10:28Z</time>
      </trkpt>
      <trkpt lat="45.94371" lon="4.83241">
        <ele>265</ele>
        <time>2018-08-06T10:10:29Z</time>
      </trkpt>
      <trkpt lat="45.94368" lon="4.83237">
        <ele>266</ele>
        <time>2018-08-06T10:10:30Z</time>
      </trkpt>
      <trkpt lat="45.94367" lon="4.8323">
        <ele>266</ele>
        <time>2018-08-06T10:10:31Z</time>
      </trkpt>
      <trkpt lat="45.94363" lon="4.8322">
        <ele>266</ele>
        <time>2018-08-06T10:10:33Z</time>
      </trkpt>
      <trkpt lat="45.94361" lon="4.83215">
        <ele>266</ele>
        <time>2018-08-06T10:10:34Z</time>
      </trkpt>
      <trkpt lat="45.94358" lon="4.83208">
        <ele>266</ele>
        <time>2018-08-06T10:10:35Z</time>
      </trkpt>
      <trkpt lat="45.94356" lon="4.83203">
        <ele>266</ele>
        <time>2018-08-06T10:10:36Z</time>
      </trkpt>
      <trkpt lat="45.94355" lon="4.83198">
        <ele>266</ele>
        <time>2018-08-06T10:10:37Z</time>
      </trkpt>
      <trkpt lat="45.94352" lon="4.83191">
        <ele>266</ele>
        <time>2018-08-06T10:10:38Z</time>
      </trkpt>
      <trkpt lat="45.9435" lon="4.83184">
        <ele>266</ele>
        <time>2018-08-06T10:10:39Z</time>
      </trkpt>
      <trkpt lat="45.94349" lon="4.83177">
        <ele>266</ele>
        <time>2018-08-06T10:10:40Z</time>
      </trkpt>
      <trkpt lat="45.94347" lon="4.83171">
        <ele>266</ele>
        <time>2018-08-06T10:10:41Z</time>
      </trkpt>
      <trkpt lat="45.94347" lon="4.83164">
        <ele>266</ele>
        <time>2018-08-06T10:10:42Z</time>
      </trkpt>
      <trkpt lat="45.94345" lon="4.83159">
        <ele>266</ele>
        <time>2018-08-06T10:10:43Z</time>
      </trkpt>
      <trkpt lat="45.94342" lon="4.83153">
        <ele>266</ele>
        <time>2018-08-06T10:10:44Z</time>
      </trkpt>
      <trkpt lat="45.94339" lon="4.83146">
        <ele>266</ele>
        <time>2018-08-06T10:10:45Z</time>
      </trkpt>
      <trkpt lat="45.94338" lon="4.8314">
        <ele>266</ele>
        <time>2018-08-06T10:10:46Z</time>
      </trkpt>
      <trkpt lat="45.94334" lon="4.83129">
        <ele>266</ele>
        <time>2018-08-06T10:10:48Z</time>
      </trkpt>
      <trkpt lat="45.94332" lon="4.83124">
        <ele>266</ele>
        <time>2018-08-06T10:10:49Z</time>
      </trkpt>
      <trkpt lat="45.94327" lon="4.83114">
        <ele>266</ele>
        <time>2018-08-06T10:10:51Z</time>
      </trkpt>
      <trkpt lat="45.94325" lon="4.83108">
        <ele>266</ele>
        <time>2018-08-06T10:10:52Z</time>
      </trkpt>
      <trkpt lat="45.94323" lon="4.83096">
        <ele>266</ele>
        <time>2018-08-06T10:10:54Z</time>
      </trkpt>
      <trkpt lat="45.94321" lon="4.8309">
        <ele>266</ele>
        <time>2018-08-06T10:10:55Z</time>
      </trkpt>
      <trkpt lat="45.94319" lon="4.83083">
        <ele>266</ele>
        <time>2018-08-06T10:10:56Z</time>
      </trkpt>
      <trkpt lat="45.94317" lon="4.83077">
        <ele>266</ele>
        <time>2018-08-06T10:10:57Z</time>
      </trkpt>
      <trkpt lat="45.94314" lon="4.8307">
        <ele>266</ele>
        <time>2018-08-06T10:10:58Z</time>
      </trkpt>
      <trkpt lat="45.94312" lon="4.83064">
        <ele>266</ele>
        <time>2018-08-06T10:10:59Z</time>
      </trkpt>
      <trkpt lat="45.9431" lon="4.83053">
        <ele>266</ele>
        <time>2018-08-06T10:11:01Z</time>
      </trkpt>
      <trkpt lat="45.94309" lon="4.83048">
        <ele>266</ele>
        <time>2018-08-06T10:11:02Z</time>
      </trkpt>
      <trkpt lat="45.94308" lon="4.8304">
        <ele>266</ele>
        <time>2018-08-06T10:11:03Z</time>
      </trkpt>
      <trkpt lat="45.94306" lon="4.83035">
        <ele>266</ele>
        <time>2018-08-06T10:11:04Z</time>
      </trkpt>
      <trkpt lat="45.94304" lon="4.83025">
        <ele>266</ele>
        <time>2018-08-06T10:11:06Z</time>
      </trkpt>
      <trkpt lat="45.94303" lon="4.8302">
        <ele>266</ele>
        <time>2018-08-06T10:11:07Z</time>
      </trkpt>
      <trkpt lat="45.943" lon="4.83011">
        <ele>266</ele>
        <time>2018-08-06T10:11:09Z</time>
      </trkpt>
      <trkpt lat="45.94299" lon="4.83004">
        <ele>266</ele>
        <time>2018-08-06T10:11:10Z</time>
      </trkpt>
      <trkpt lat="45.94298" lon="4.82998">
        <ele>265</ele>
        <time>2018-08-06T10:11:11Z</time>
      </trkpt>
      <trkpt lat="45.94296" lon="4.8299">
        <ele>265</ele>
        <time>2018-08-06T10:11:12Z</time>
      </trkpt>
      <trkpt lat="45.94294" lon="4.82984">
        <ele>265</ele>
        <time>2018-08-06T10:11:13Z</time>
      </trkpt>
      <trkpt lat="45.94292" lon="4.82978">
        <ele>265</ele>
        <time>2018-08-06T10:11:14Z</time>
      </trkpt>
      <trkpt lat="45.9429" lon="4.82972">
        <ele>265</ele>
        <time>2018-08-06T10:11:15Z</time>
      </trkpt>
      <trkpt lat="45.94288" lon="4.82965">
        <ele>265</ele>
        <time>2018-08-06T10:11:16Z</time>
      </trkpt>
      <trkpt lat="45.94285" lon="4.82952">
        <ele>265</ele>
        <time>2018-08-06T10:11:18Z</time>
      </trkpt>
      <trkpt lat="45.94285" lon="4.82945">
        <ele>265</ele>
        <time>2018-08-06T10:11:19Z</time>
      </trkpt>
      <trkpt lat="45.94285" lon="4.82939">
        <ele>265</ele>
        <time>2018-08-06T10:11:20Z</time>
      </trkpt>
      <trkpt lat="45.94286" lon="4.82931">
        <ele>265</ele>
        <time>2018-08-06T10:11:21Z</time>
      </trkpt>
      <trkpt lat="45.94288" lon="4.82924">
        <ele>265</ele>
        <time>2018-08-06T10:11:22Z</time>
      </trkpt>
      <trkpt lat="45.94289" lon="4.82916">
        <ele>265</ele>
        <time>2018-08-06T10:11:23Z</time>
      </trkpt>
      <trkpt lat="45.9429" lon="4.82909">
        <ele>265</ele>
        <time>2018-08-06T10:11:24Z</time>
      </trkpt>
      <trkpt lat="45.94291" lon="4.82901">
        <ele>265</ele>
        <time>2018-08-06T10:11:25Z</time>
      </trkpt>
      <trkpt lat="45.94292" lon="4.82891">
        <ele>265</ele>
        <time>2018-08-06T10:11:26Z</time>
      </trkpt>
      <trkpt lat="45.94293" lon="4.82883">
        <ele>265</ele>
        <time>2018-08-06T10:11:27Z</time>
      </trkpt>
      <trkpt lat="45.94294" lon="4.82876">
        <ele>265</ele>
        <time>2018-08-06T10:11:28Z</time>
      </trkpt>
      <trkpt lat="45.94294" lon="4.82869">
        <ele>265</ele>
        <time>2018-08-06T10:11:29Z</time>
      </trkpt>
      <trkpt lat="45.94293" lon="4.82863">
        <ele>265</ele>
        <time>2018-08-06T10:11:30Z</time>
      </trkpt>
      <trkpt lat="45.94294" lon="4.82855">
        <ele>265</ele>
        <time>2018-08-06T10:11:31Z</time>
      </trkpt>
      <trkpt lat="45.94293" lon="4.82848">
        <ele>265</ele>
        <time>2018-08-06T10:11:32Z</time>
      </trkpt>
      <trkpt lat="45.94294" lon="4.82839">
        <ele>265</ele>
        <time>2018-08-06T10:11:33Z</time>
      </trkpt>
      <trkpt lat="45.94293" lon="4.82833">
        <ele>265</ele>
        <time>2018-08-06T10:11:34Z</time>
      </trkpt>
      <trkpt lat="45.94294" lon="4.82824">
        <ele>265</ele>
        <time>2018-08-06T10:11:35Z</time>
      </trkpt>
      <trkpt lat="45.94294" lon="4.82817">
        <ele>265</ele>
        <time>2018-08-06T10:11:36Z</time>
      </trkpt>
      <trkpt lat="45.94294" lon="4.82809">
        <ele>265</ele>
        <time>2018-08-06T10:11:37Z</time>
      </trkpt>
      <trkpt lat="45.94294" lon="4.82802">
        <ele>265</ele>
        <time>2018-08-06T10:11:38Z</time>
      </trkpt>
      <trkpt lat="45.94294" lon="4.82794">
        <ele>265</ele>
        <time>2018-08-06T10:11:39Z</time>
      </trkpt>
      <trkpt lat="45.94294" lon="4.82788">
        <ele>265</ele>
        <time>2018-08-06T10:11:40Z</time>
      </trkpt>
      <trkpt lat="45.94293" lon="4.82779">
        <ele>265</ele>
        <time>2018-08-06T10:11:41Z</time>
      </trkpt>
      <trkpt lat="45.94294" lon="4.82773">
        <ele>265</ele>
        <time>2018-08-06T10:11:42Z</time>
      </trkpt>
      <trkpt lat="45.94295" lon="4.82766">
        <ele>265</ele>
        <time>2018-08-06T10:11:43Z</time>
      </trkpt>
      <trkpt lat="45.94295" lon="4.82759">
        <ele>265</ele>
        <time>2018-08-06T10:11:44Z</time>
      </trkpt>
      <trkpt lat="45.94295" lon="4.82752">
        <ele>265</ele>
        <time>2018-08-06T10:11:45Z</time>
      </trkpt>
      <trkpt lat="45.94295" lon="4.82745">
        <ele>265</ele>
        <time>2018-08-06T10:11:46Z</time>
      </trkpt>
      <trkpt lat="45.94295" lon="4.82737">
        <ele>265</ele>
        <time>2018-08-06T10:11:47Z</time>
      </trkpt>
      <trkpt lat="45.94295" lon="4.82729">
        <ele>265</ele>
        <time>2018-08-06T10:11:48Z</time>
      </trkpt>
      <trkpt lat="45.94295" lon="4.82721">
        <ele>265</ele>
        <time>2018-08-06T10:11:49Z</time>
      </trkpt>
      <trkpt lat="45.94295" lon="4.82712">
        <ele>265</ele>
        <time>2018-08-06T10:11:50Z</time>
      </trkpt>
      <trkpt lat="45.94295" lon="4.82702">
        <ele>265</ele>
        <time>2018-08-06T10:11:51Z</time>
      </trkpt>
      <trkpt lat="45.94296" lon="4.82692">
        <ele>265</ele>
        <time>2018-08-06T10:11:52Z</time>
      </trkpt>
      <trkpt lat="45.94295" lon="4.82684">
        <ele>265</ele>
        <time>2018-08-06T10:11:53Z</time>
      </trkpt>
      <trkpt lat="45.94296" lon="4.82675">
        <ele>265</ele>
        <time>2018-08-06T10:11:54Z</time>
      </trkpt>
      <trkpt lat="45.94296" lon="4.82665">
        <ele>265</ele>
        <time>2018-08-06T10:11:55Z</time>
      </trkpt>
      <trkpt lat="45.94296" lon="4.82656">
        <ele>265</ele>
        <time>2018-08-06T10:11:56Z</time>
      </trkpt>
      <trkpt lat="45.94296" lon="4.82647">
        <ele>265</ele>
        <time>2018-08-06T10:11:57Z</time>
      </trkpt>
      <trkpt lat="45.94296" lon="4.82639">
        <ele>265</ele>
        <time>2018-08-06T10:11:58Z</time>
      </trkpt>
      <trkpt lat="45.94295" lon="4.82631">
        <ele>265</ele>
        <time>2018-08-06T10:11:59Z</time>
      </trkpt>
      <trkpt lat="45.94296" lon="4.82622">
        <ele>265</ele>
        <time>2018-08-06T10:12:00Z</time>
      </trkpt>
      <trkpt lat="45.94296" lon="4.82614">
        <ele>265</ele>
        <time>2018-08-06T10:12:01Z</time>
      </trkpt>
      <trkpt lat="45.94297" lon="4.82606">
        <ele>265</ele>
        <time>2018-08-06T10:12:02Z</time>
      </trkpt>
      <trkpt lat="45.94296" lon="4.82598">
        <ele>265</ele>
        <time>2018-08-06T10:12:03Z</time>
      </trkpt>
      <trkpt lat="45.94296" lon="4.82591">
        <ele>265</ele>
        <time>2018-08-06T10:12:04Z</time>
      </trkpt>
      <trkpt lat="45.94296" lon="4.82583">
        <ele>264</ele>
        <time>2018-08-06T10:12:05Z</time>
      </trkpt>
      <trkpt lat="45.94297" lon="4.82575">
        <ele>264</ele>
        <time>2018-08-06T10:12:06Z</time>
      </trkpt>
      <trkpt lat="45.94297" lon="4.82566">
        <ele>264</ele>
        <time>2018-08-06T10:12:07Z</time>
      </trkpt>
      <trkpt lat="45.94297" lon="4.82558">
        <ele>264</ele>
        <time>2018-08-06T10:12:08Z</time>
      </trkpt>
      <trkpt lat="45.94298" lon="4.82547">
        <ele>264</ele>
        <time>2018-08-06T10:12:09Z</time>
      </trkpt>
      <trkpt lat="45.94298" lon="4.82539">
        <ele>264</ele>
        <time>2018-08-06T10:12:10Z</time>
      </trkpt>
      <trkpt lat="45.94298" lon="4.8253">
        <ele>264</ele>
        <time>2018-08-06T10:12:11Z</time>
      </trkpt>
      <trkpt lat="45.94298" lon="4.82521">
        <ele>264</ele>
        <time>2018-08-06T10:12:12Z</time>
      </trkpt>
      <trkpt lat="45.94298" lon="4.82511">
        <ele>264</ele>
        <time>2018-08-06T10:12:13Z</time>
      </trkpt>
      <trkpt lat="45.94298" lon="4.82502">
        <ele>264</ele>
        <time>2018-08-06T10:12:14Z</time>
      </trkpt>
      <trkpt lat="45.94297" lon="4.82493">
        <ele>264</ele>
        <time>2018-08-06T10:12:15Z</time>
      </trkpt>
      <trkpt lat="45.94297" lon="4.82485">
        <ele>264</ele>
        <time>2018-08-06T10:12:16Z</time>
      </trkpt>
      <trkpt lat="45.94296" lon="4.82477">
        <ele>264</ele>
        <time>2018-08-06T10:12:17Z</time>
      </trkpt>
      <trkpt lat="45.94296" lon="4.82468">
        <ele>264</ele>
        <time>2018-08-06T10:12:18Z</time>
      </trkpt>
      <trkpt lat="45.94296" lon="4.82459">
        <ele>264</ele>
        <time>2018-08-06T10:12:19Z</time>
      </trkpt>
      <trkpt lat="45.94296" lon="4.82451">
        <ele>264</ele>
        <time>2018-08-06T10:12:20Z</time>
      </trkpt>
      <trkpt lat="45.94295" lon="4.82443">
        <ele>264</ele>
        <time>2018-08-06T10:12:21Z</time>
      </trkpt>
      <trkpt lat="45.94295" lon="4.82435">
        <ele>264</ele>
        <time>2018-08-06T10:12:22Z</time>
      </trkpt>
      <trkpt lat="45.94295" lon="4.82426">
        <ele>264</ele>
        <time>2018-08-06T10:12:23Z</time>
      </trkpt>
      <trkpt lat="45.94296" lon="4.82415">
        <ele>264</ele>
        <time>2018-08-06T10:12:24Z</time>
      </trkpt>
      <trkpt lat="45.94296" lon="4.82406">
        <ele>264</ele>
        <time>2018-08-06T10:12:25Z</time>
      </trkpt>
      <trkpt lat="45.94295" lon="4.82397">
        <ele>264</ele>
        <time>2018-08-06T10:12:26Z</time>
      </trkpt>
      <trkpt lat="45.94294" lon="4.82387">
        <ele>264</ele>
        <time>2018-08-06T10:12:27Z</time>
      </trkpt>
      <trkpt lat="45.94294" lon="4.82378">
        <ele>264</ele>
        <time>2018-08-06T10:12:28Z</time>
      </trkpt>
      <trkpt lat="45.94294" lon="4.82367">
        <ele>264</ele>
        <time>2018-08-06T10:12:29Z</time>
      </trkpt>
      <trkpt lat="45.94294" lon="4.82359">
        <ele>264</ele>
        <time>2018-08-06T10:12:30Z</time>
      </trkpt>
      <trkpt lat="45.94294" lon="4.8235">
        <ele>264</ele>
        <time>2018-08-06T10:12:31Z</time>
      </trkpt>
      <trkpt lat="45.94293" lon="4.82341">
        <ele>264</ele>
        <time>2018-08-06T10:12:32Z</time>
      </trkpt>
      <trkpt lat="45.94293" lon="4.82333">
        <ele>265</ele>
        <time>2018-08-06T10:12:33Z</time>
      </trkpt>
      <trkpt lat="45.94292" lon="4.82325">
        <ele>265</ele>
        <time>2018-08-06T10:12:34Z</time>
      </trkpt>
      <trkpt lat="45.94291" lon="4.82316">
        <ele>265</ele>
        <time>2018-08-06T10:12:35Z</time>
      </trkpt>
      <trkpt lat="45.9429" lon="4.82308">
        <ele>265</ele>
        <time>2018-08-06T10:12:36Z</time>
      </trkpt>
      <trkpt lat="45.9429" lon="4.82299">
        <ele>265</ele>
        <time>2018-08-06T10:12:37Z</time>
      </trkpt>
      <trkpt lat="45.9429" lon="4.82291">
        <ele>265</ele>
        <time>2018-08-06T10:12:38Z</time>
      </trkpt>
      <trkpt lat="45.94289" lon="4.82283">
        <ele>265</ele>
        <time>2018-08-06T10:12:39Z</time>
      </trkpt>
      <trkpt lat="45.94288" lon="4.82275">
        <ele>265</ele>
        <time>2018-08-06T10:12:40Z</time>
      </trkpt>
      <trkpt lat="45.94288" lon="4.82267">
        <ele>265</ele>
        <time>2018-08-06T10:12:41Z</time>
      </trkpt>
      <trkpt lat="45.94288" lon="4.82259">
        <ele>265</ele>
        <time>2018-08-06T10:12:42Z</time>
      </trkpt>
      <trkpt lat="45.94287" lon="4.82251">
        <ele>265</ele>
        <time>2018-08-06T10:12:43Z</time>
      </trkpt>
      <trkpt lat="45.94286" lon="4.82243">
        <ele>264</ele>
        <time>2018-08-06T10:12:44Z</time>
      </trkpt>
      <trkpt lat="45.94286" lon="4.82234">
        <ele>264</ele>
        <time>2018-08-06T10:12:45Z</time>
      </trkpt>
      <trkpt lat="45.94286" lon="4.82225">
        <ele>264</ele>
        <time>2018-08-06T10:12:46Z</time>
      </trkpt>
      <trkpt lat="45.94284" lon="4.82216">
        <ele>264</ele>
        <time>2018-08-06T10:12:47Z</time>
      </trkpt>
      <trkpt lat="45.94285" lon="4.82204">
        <ele>264</ele>
        <time>2018-08-06T10:12:48Z</time>
      </trkpt>
      <trkpt lat="45.94285" lon="4.82194">
        <ele>264</ele>
        <time>2018-08-06T10:12:49Z</time>
      </trkpt>
      <trkpt lat="45.94283" lon="4.82185">
        <ele>264</ele>
        <time>2018-08-06T10:12:50Z</time>
      </trkpt>
      <trkpt lat="45.94281" lon="4.82175">
        <ele>264</ele>
        <time>2018-08-06T10:12:51Z</time>
      </trkpt>
      <trkpt lat="45.94279" lon="4.82167">
        <ele>264</ele>
        <time>2018-08-06T10:12:52Z</time>
      </trkpt>
      <trkpt lat="45.94279" lon="4.82159">
        <ele>263</ele>
        <time>2018-08-06T10:12:53Z</time>
      </trkpt>
      <trkpt lat="45.94277" lon="4.8215">
        <ele>263</ele>
        <time>2018-08-06T10:12:54Z</time>
      </trkpt>
      <trkpt lat="45.94275" lon="4.82143">
        <ele>263</ele>
        <time>2018-08-06T10:12:55Z</time>
      </trkpt>
      <trkpt lat="45.94273" lon="4.82135">
        <ele>263</ele>
        <time>2018-08-06T10:12:56Z</time>
      </trkpt>
      <trkpt lat="45.94272" lon="4.82126">
        <ele>263</ele>
        <time>2018-08-06T10:12:57Z</time>
      </trkpt>
      <trkpt lat="45.94271" lon="4.82118">
        <ele>263</ele>
        <time>2018-08-06T10:12:58Z</time>
      </trkpt>
      <trkpt lat="45.94269" lon="4.8211">
        <ele>263</ele>
        <time>2018-08-06T10:12:59Z</time>
      </trkpt>
      <trkpt lat="45.94268" lon="4.82101">
        <ele>263</ele>
        <time>2018-08-06T10:13:00Z</time>
      </trkpt>
      <trkpt lat="45.94266" lon="4.82095">
        <ele>262</ele>
        <time>2018-08-06T10:13:01Z</time>
      </trkpt>
      <trkpt lat="45.94265" lon="4.82085">
        <ele>262</ele>
        <time>2018-08-06T10:13:02Z</time>
      </trkpt>
      <trkpt lat="45.94263" lon="4.82077">
        <ele>262</ele>
        <time>2018-08-06T10:13:03Z</time>
      </trkpt>
      <trkpt lat="45.9426" lon="4.82067">
        <ele>262</ele>
        <time>2018-08-06T10:13:04Z</time>
      </trkpt>
      <trkpt lat="45.94255" lon="4.82058">
        <ele>262</ele>
        <time>2018-08-06T10:13:05Z</time>
      </trkpt>
      <trkpt lat="45.94255" lon="4.82048">
        <ele>262</ele>
        <time>2018-08-06T10:13:06Z</time>
      </trkpt>
      <trkpt lat="45.94253" lon="4.82042">
        <ele>262</ele>
        <time>2018-08-06T10:13:07Z</time>
      </trkpt>
      <trkpt lat="45.94251" lon="4.82033">
        <ele>262</ele>
        <time>2018-08-06T10:13:08Z</time>
      </trkpt>
      <trkpt lat="45.9425" lon="4.82024">
        <ele>262</ele>
        <time>2018-08-06T10:13:09Z</time>
      </trkpt>
      <trkpt lat="45.94248" lon="4.82016">
        <ele>263</ele>
        <time>2018-08-06T10:13:10Z</time>
      </trkpt>
      <trkpt lat="45.94247" lon="4.82007">
        <ele>262</ele>
        <time>2018-08-06T10:13:11Z</time>
      </trkpt>
      <trkpt lat="45.94246" lon="4.81999">
        <ele>262</ele>
        <time>2018-08-06T10:13:12Z</time>
      </trkpt>
      <trkpt lat="45.94244" lon="4.81991">
        <ele>263</ele>
        <time>2018-08-06T10:13:13Z</time>
      </trkpt>
      <trkpt lat="45.94242" lon="4.81983">
        <ele>263</ele>
        <time>2018-08-06T10:13:14Z</time>
      </trkpt>
      <trkpt lat="45.94241" lon="4.81975">
        <ele>263</ele>
        <time>2018-08-06T10:13:15Z</time>
      </trkpt>
      <trkpt lat="45.9424" lon="4.81968">
        <ele>263</ele>
        <time>2018-08-06T10:13:16Z</time>
      </trkpt>
      <trkpt lat="45.94238" lon="4.81962">
        <ele>264</ele>
        <time>2018-08-06T10:13:17Z</time>
      </trkpt>
      <trkpt lat="45.94236" lon="4.81955">
        <ele>264</ele>
        <time>2018-08-06T10:13:18Z</time>
      </trkpt>
      <trkpt lat="45.94234" lon="4.81948">
        <ele>264</ele>
        <time>2018-08-06T10:13:19Z</time>
      </trkpt>
      <trkpt lat="45.94232" lon="4.81942">
        <ele>264</ele>
        <time>2018-08-06T10:13:20Z</time>
      </trkpt>
      <trkpt lat="45.94231" lon="4.81936">
        <ele>264</ele>
        <time>2018-08-06T10:13:21Z</time>
      </trkpt>
      <trkpt lat="45.94229" lon="4.81928">
        <ele>263</ele>
        <time>2018-08-06T10:13:22Z</time>
      </trkpt>
      <trkpt lat="45.94228" lon="4.81919">
        <ele>263</ele>
        <time>2018-08-06T10:13:23Z</time>
      </trkpt>
      <trkpt lat="45.94226" lon="4.81911">
        <ele>264</ele>
        <time>2018-08-06T10:13:24Z</time>
      </trkpt>
      <trkpt lat="45.94224" lon="4.81903">
        <ele>264</ele>
        <time>2018-08-06T10:13:25Z</time>
      </trkpt>
      <trkpt lat="45.94222" lon="4.81896">
        <ele>265</ele>
        <time>2018-08-06T10:13:26Z</time>
      </trkpt>
      <trkpt lat="45.94219" lon="4.81887">
        <ele>265</ele>
        <time>2018-08-06T10:13:27Z</time>
      </trkpt>
      <trkpt lat="45.94217" lon="4.81879">
        <ele>265</ele>
        <time>2018-08-06T10:13:28Z</time>
      </trkpt>
      <trkpt lat="45.94215" lon="4.81871">
        <ele>265</ele>
        <time>2018-08-06T10:13:29Z</time>
      </trkpt>
      <trkpt lat="45.94214" lon="4.81864">
        <ele>265</ele>
        <time>2018-08-06T10:13:30Z</time>
      </trkpt>
      <trkpt lat="45.94212" lon="4.81856">
        <ele>265</ele>
        <time>2018-08-06T10:13:31Z</time>
      </trkpt>
      <trkpt lat="45.94211" lon="4.81847">
        <ele>265</ele>
        <time>2018-08-06T10:13:32Z</time>
      </trkpt>
      <trkpt lat="45.94209" lon="4.8184">
        <ele>265</ele>
        <time>2018-08-06T10:13:33Z</time>
      </trkpt>
      <trkpt lat="45.94209" lon="4.81832">
        <ele>266</ele>
        <time>2018-08-06T10:13:34Z</time>
      </trkpt>
      <trkpt lat="45.94209" lon="4.81821">
        <ele>266</ele>
        <time>2018-08-06T10:13:35Z</time>
      </trkpt>
      <trkpt lat="45.94207" lon="4.81812">
        <ele>266</ele>
        <time>2018-08-06T10:13:36Z</time>
      </trkpt>
      <trkpt lat="45.94207" lon="4.81805">
        <ele>266</ele>
        <time>2018-08-06T10:13:37Z</time>
      </trkpt>
      <trkpt lat="45.94207" lon="4.81797">
        <ele>266</ele>
        <time>2018-08-06T10:13:38Z</time>
      </trkpt>
      <trkpt lat="45.94208" lon="4.81789">
        <ele>266</ele>
        <time>2018-08-06T10:13:39Z</time>
      </trkpt>
      <trkpt lat="45.94209" lon="4.81781">
        <ele>265</ele>
        <time>2018-08-06T10:13:40Z</time>
      </trkpt>
      <trkpt lat="45.9421" lon="4.81776">
        <ele>265</ele>
        <time>2018-08-06T10:13:41Z</time>
      </trkpt>
      <trkpt lat="45.94212" lon="4.81769">
        <ele>265</ele>
        <time>2018-08-06T10:13:42Z</time>
      </trkpt>
      <trkpt lat="45.94214" lon="4.81762">
        <ele>265</ele>
        <time>2018-08-06T10:13:43Z</time>
      </trkpt>
      <trkpt lat="45.94219" lon="4.81754">
        <ele>265</ele>
        <time>2018-08-06T10:13:45Z</time>
      </trkpt>
      <trkpt lat="45.94221" lon="4.8175">
        <ele>265</ele>
        <time>2018-08-06T10:13:46Z</time>
      </trkpt>
      <trkpt lat="45.94221" lon="4.81744">
        <ele>265</ele>
        <time>2018-08-06T10:13:47Z</time>
      </trkpt>
      <trkpt lat="45.94223" lon="4.81736">
        <ele>265</ele>
        <time>2018-08-06T10:13:48Z</time>
      </trkpt>
      <trkpt lat="45.94222" lon="4.81733">
        <ele>265</ele>
        <time>2018-08-06T10:13:49Z</time>
      </trkpt>
      <trkpt lat="45.9422" lon="4.81721">
        <ele>266</ele>
        <time>2018-08-06T10:13:50Z</time>
      </trkpt>
      <trkpt lat="45.94219" lon="4.81711">
        <ele>266</ele>
        <time>2018-08-06T10:13:51Z</time>
      </trkpt>
      <trkpt lat="45.94217" lon="4.81706">
        <ele>266</ele>
        <time>2018-08-06T10:13:52Z</time>
      </trkpt>
      <trkpt lat="45.94216" lon="4.81705">
        <ele>266</ele>
        <time>2018-08-06T10:13:53Z</time>
      </trkpt>
      <trkpt lat="45.94207" lon="4.81702">
        <ele>266</ele>
        <time>2018-08-06T10:13:54Z</time>
      </trkpt>
      <trkpt lat="45.94201" lon="4.81694">
        <ele>267</ele>
        <time>2018-08-06T10:13:56Z</time>
      </trkpt>
      <trkpt lat="45.94197" lon="4.8169">
        <ele>267</ele>
        <time>2018-08-06T10:13:57Z</time>
      </trkpt>
      <trkpt lat="45.94193" lon="4.81684">
        <ele>267</ele>
        <time>2018-08-06T10:13:58Z</time>
      </trkpt>
      <trkpt lat="45.94188" lon="4.81677">
        <ele>267</ele>
        <time>2018-08-06T10:13:59Z</time>
      </trkpt>
      <trkpt lat="45.94187" lon="4.81671">
        <ele>267</ele>
        <time>2018-08-06T10:14:00Z</time>
      </trkpt>
      <trkpt lat="45.94183" lon="4.81663">
        <ele>268</ele>
        <time>2018-08-06T10:14:01Z</time>
      </trkpt>
      <trkpt lat="45.94182" lon="4.81656">
        <ele>268</ele>
        <time>2018-08-06T10:14:02Z</time>
      </trkpt>
      <trkpt lat="45.94178" lon="4.81645">
        <ele>268</ele>
        <time>2018-08-06T10:14:03Z</time>
      </trkpt>
      <trkpt lat="45.94178" lon="4.81637">
        <ele>268</ele>
        <time>2018-08-06T10:14:04Z</time>
      </trkpt>
      <trkpt lat="45.94173" lon="4.81627">
        <ele>267</ele>
        <time>2018-08-06T10:14:05Z</time>
      </trkpt>
      <trkpt lat="45.94173" lon="4.81617">
        <ele>267</ele>
        <time>2018-08-06T10:14:06Z</time>
      </trkpt>
      <trkpt lat="45.94169" lon="4.81605">
        <ele>267</ele>
        <time>2018-08-06T10:14:07Z</time>
      </trkpt>
      <trkpt lat="45.94168" lon="4.81595">
        <ele>267</ele>
        <time>2018-08-06T10:14:08Z</time>
      </trkpt>
      <trkpt lat="45.94165" lon="4.81584">
        <ele>267</ele>
        <time>2018-08-06T10:14:09Z</time>
      </trkpt>
      <trkpt lat="45.94163" lon="4.81572">
        <ele>266</ele>
        <time>2018-08-06T10:14:10Z</time>
      </trkpt>
      <trkpt lat="45.94157" lon="4.81562">
        <ele>265</ele>
        <time>2018-08-06T10:14:11Z</time>
      </trkpt>
      <trkpt lat="45.94155" lon="4.81552">
        <ele>264</ele>
        <time>2018-08-06T10:14:12Z</time>
      </trkpt>
      <trkpt lat="45.94154" lon="4.81542">
        <ele>264</ele>
        <time>2018-08-06T10:14:13Z</time>
      </trkpt>
      <trkpt lat="45.94153" lon="4.81531">
        <ele>264</ele>
        <time>2018-08-06T10:14:14Z</time>
      </trkpt>
      <trkpt lat="45.94154" lon="4.81522">
        <ele>263</ele>
        <time>2018-08-06T10:14:15Z</time>
      </trkpt>
      <trkpt lat="45.94153" lon="4.81509">
        <ele>263</ele>
        <time>2018-08-06T10:14:16Z</time>
      </trkpt>
      <trkpt lat="45.94157" lon="4.81499">
        <ele>261</ele>
        <time>2018-08-06T10:14:17Z</time>
      </trkpt>
      <trkpt lat="45.94158" lon="4.81476">
        <ele>259</ele>
        <time>2018-08-06T10:14:18Z</time>
      </trkpt>
      <trkpt lat="45.94159" lon="4.81459">
        <ele>257</ele>
        <time>2018-08-06T10:14:19Z</time>
      </trkpt>
      <trkpt lat="45.94163" lon="4.81444">
        <ele>256</ele>
        <time>2018-08-06T10:14:20Z</time>
      </trkpt>
      <trkpt lat="45.94165" lon="4.81432">
        <ele>256</ele>
        <time>2018-08-06T10:14:21Z</time>
      </trkpt>
      <trkpt lat="45.94167" lon="4.8142">
        <ele>257</ele>
        <time>2018-08-06T10:14:22Z</time>
      </trkpt>
      <trkpt lat="45.9417" lon="4.81406">
        <ele>257</ele>
        <time>2018-08-06T10:14:23Z</time>
      </trkpt>
      <trkpt lat="45.9417" lon="4.81388">
        <ele>258</ele>
        <time>2018-08-06T10:14:24Z</time>
      </trkpt>
      <trkpt lat="45.94172" lon="4.81375">
        <ele>258</ele>
        <time>2018-08-06T10:14:25Z</time>
      </trkpt>
      <trkpt lat="45.94174" lon="4.8136">
        <ele>257</ele>
        <time>2018-08-06T10:14:26Z</time>
      </trkpt>
      <trkpt lat="45.94176" lon="4.81348">
        <ele>256</ele>
        <time>2018-08-06T10:14:27Z</time>
      </trkpt>
      <trkpt lat="45.94178" lon="4.81334">
        <ele>255</ele>
        <time>2018-08-06T10:14:28Z</time>
      </trkpt>
      <trkpt lat="45.9418" lon="4.8132">
        <ele>255</ele>
        <time>2018-08-06T10:14:29Z</time>
      </trkpt>
      <trkpt lat="45.94179" lon="4.81306">
        <ele>256</ele>
        <time>2018-08-06T10:14:30Z</time>
      </trkpt>
      <trkpt lat="45.94175" lon="4.81291">
        <ele>256</ele>
        <time>2018-08-06T10:14:31Z</time>
      </trkpt>
      <trkpt lat="45.94174" lon="4.81278">
        <ele>255</ele>
        <time>2018-08-06T10:14:32Z</time>
      </trkpt>
      <trkpt lat="45.94173" lon="4.8126">
        <ele>253</ele>
        <time>2018-08-06T10:14:33Z</time>
      </trkpt>
      <trkpt lat="45.94171" lon="4.81246">
        <ele>251</ele>
        <time>2018-08-06T10:14:34Z</time>
      </trkpt>
      <trkpt lat="45.94168" lon="4.81227">
        <ele>253</ele>
        <time>2018-08-06T10:14:35Z</time>
      </trkpt>
      <trkpt lat="45.94163" lon="4.81214">
        <ele>245</ele>
        <time>2018-08-06T10:14:36Z</time>
      </trkpt>
      <trkpt lat="45.94162" lon="4.81198">
        <ele>245</ele>
        <time>2018-08-06T10:14:37Z</time>
      </trkpt>
      <trkpt lat="45.94157" lon="4.81183">
        <ele>245</ele>
        <time>2018-08-06T10:14:38Z</time>
      </trkpt>
      <trkpt lat="45.94154" lon="4.81167">
        <ele>246</ele>
        <time>2018-08-06T10:14:39Z</time>
      </trkpt>
      <trkpt lat="45.94148" lon="4.81152">
        <ele>245</ele>
        <time>2018-08-06T10:14:40Z</time>
      </trkpt>
      <trkpt lat="45.94142" lon="4.81138">
        <ele>244</ele>
        <time>2018-08-06T10:14:41Z</time>
      </trkpt>
      <trkpt lat="45.94134" lon="4.81126">
        <ele>244</ele>
        <time>2018-08-06T10:14:42Z</time>
      </trkpt>
      <trkpt lat="45.94129" lon="4.81114">
        <ele>244</ele>
        <time>2018-08-06T10:14:43Z</time>
      </trkpt>
      <trkpt lat="45.94123" lon="4.81103">
        <ele>243</ele>
        <time>2018-08-06T10:14:44Z</time>
      </trkpt>
      <trkpt lat="45.94113" lon="4.81096">
        <ele>242</ele>
        <time>2018-08-06T10:14:45Z</time>
      </trkpt>
      <trkpt lat="45.94107" lon="4.81076">
        <ele>243</ele>
        <time>2018-08-06T10:14:46Z</time>
      </trkpt>
      <trkpt lat="45.94101" lon="4.81065">
        <ele>243</ele>
        <time>2018-08-06T10:14:47Z</time>
      </trkpt>
      <trkpt lat="45.94093" lon="4.81052">
        <ele>243</ele>
        <time>2018-08-06T10:14:48Z</time>
      </trkpt>
      <trkpt lat="45.94089" lon="4.81039">
        <ele>244</ele>
        <time>2018-08-06T10:14:49Z</time>
      </trkpt>
      <trkpt lat="45.94085" lon="4.81026">
        <ele>243</ele>
        <time>2018-08-06T10:14:50Z</time>
      </trkpt>
      <trkpt lat="45.9408" lon="4.8101">
        <ele>237</ele>
        <time>2018-08-06T10:14:51Z</time>
      </trkpt>
      <trkpt lat="45.94077" lon="4.80995">
        <ele>237</ele>
        <time>2018-08-06T10:14:52Z</time>
      </trkpt>
      <trkpt lat="45.94074" lon="4.80978">
        <ele>234</ele>
        <time>2018-08-06T10:14:53Z</time>
      </trkpt>
      <trkpt lat="45.94072" lon="4.80962">
        <ele>233</ele>
        <time>2018-08-06T10:14:54Z</time>
      </trkpt>
      <trkpt lat="45.94071" lon="4.80946">
        <ele>233</ele>
        <time>2018-08-06T10:14:55Z</time>
      </trkpt>
      <trkpt lat="45.94067" lon="4.8093">
        <ele>234</ele>
        <time>2018-08-06T10:14:56Z</time>
      </trkpt>
      <trkpt lat="45.94063" lon="4.80914">
        <ele>233</ele>
        <time>2018-08-06T10:14:57Z</time>
      </trkpt>
      <trkpt lat="45.94065" lon="4.80894">
        <ele>232</ele>
        <time>2018-08-06T10:14:58Z</time>
      </trkpt>
      <trkpt lat="45.94061" lon="4.80878">
        <ele>231</ele>
        <time>2018-08-06T10:14:59Z</time>
      </trkpt>
      <trkpt lat="45.94059" lon="4.80861">
        <ele>231</ele>
        <time>2018-08-06T10:15:00Z</time>
      </trkpt>
      <trkpt lat="45.94054" lon="4.80848">
        <ele>231</ele>
        <time>2018-08-06T10:15:01Z</time>
      </trkpt>
      <trkpt lat="45.94052" lon="4.80832">
        <ele>230</ele>
        <time>2018-08-06T10:15:02Z</time>
      </trkpt>
      <trkpt lat="45.94051" lon="4.80815">
        <ele>230</ele>
        <time>2018-08-06T10:15:03Z</time>
      </trkpt>
      <trkpt lat="45.9405" lon="4.80795">
        <ele>229</ele>
        <time>2018-08-06T10:15:04Z</time>
      </trkpt>
      <trkpt lat="45.94048" lon="4.80778">
        <ele>229</ele>
        <time>2018-08-06T10:15:05Z</time>
      </trkpt>
      <trkpt lat="45.94046" lon="4.80762">
        <ele>229</ele>
        <time>2018-08-06T10:15:06Z</time>
      </trkpt>
      <trkpt lat="45.94046" lon="4.80745">
        <ele>228</ele>
        <time>2018-08-06T10:15:07Z</time>
      </trkpt>
      <trkpt lat="45.94044" lon="4.80729">
        <ele>227</ele>
        <time>2018-08-06T10:15:08Z</time>
      </trkpt>
      <trkpt lat="45.94042" lon="4.80712">
        <ele>227</ele>
        <time>2018-08-06T10:15:09Z</time>
      </trkpt>
      <trkpt lat="45.94039" lon="4.80698">
        <ele>226</ele>
        <time>2018-08-06T10:15:10Z</time>
      </trkpt>
      <trkpt lat="45.94037" lon="4.80685">
        <ele>226</ele>
        <time>2018-08-06T10:15:11Z</time>
      </trkpt>
      <trkpt lat="45.94034" lon="4.80672">
        <ele>225</ele>
        <time>2018-08-06T10:15:12Z</time>
      </trkpt>
      <trkpt lat="45.94032" lon="4.80657">
        <ele>225</ele>
        <time>2018-08-06T10:15:13Z</time>
      </trkpt>
      <trkpt lat="45.94029" lon="4.80643">
        <ele>225</ele>
        <time>2018-08-06T10:15:14Z</time>
      </trkpt>
      <trkpt lat="45.94028" lon="4.80626">
        <ele>225</ele>
        <time>2018-08-06T10:15:15Z</time>
      </trkpt>
      <trkpt lat="45.94027" lon="4.8061">
        <ele>225</ele>
        <time>2018-08-06T10:15:16Z</time>
      </trkpt>
      <trkpt lat="45.94027" lon="4.80595">
        <ele>224</ele>
        <time>2018-08-06T10:15:17Z</time>
      </trkpt>
      <trkpt lat="45.94027" lon="4.8058">
        <ele>224</ele>
        <time>2018-08-06T10:15:18Z</time>
      </trkpt>
      <trkpt lat="45.94024" lon="4.80568">
        <ele>224</ele>
        <time>2018-08-06T10:15:19Z</time>
      </trkpt>
      <trkpt lat="45.94026" lon="4.80544">
        <ele>225</ele>
        <time>2018-08-06T10:15:20Z</time>
      </trkpt>
      <trkpt lat="45.94026" lon="4.80527">
        <ele>225</ele>
        <time>2018-08-06T10:15:21Z</time>
      </trkpt>
      <trkpt lat="45.94028" lon="4.80503">
        <ele>225</ele>
        <time>2018-08-06T10:15:22Z</time>
      </trkpt>
      <trkpt lat="45.94032" lon="4.80481">
        <ele>224</ele>
        <time>2018-08-06T10:15:23Z</time>
      </trkpt>
      <trkpt lat="45.94031" lon="4.80467">
        <ele>224</ele>
        <time>2018-08-06T10:15:24Z</time>
      </trkpt>
      <trkpt lat="45.94031" lon="4.8045">
        <ele>224</ele>
        <time>2018-08-06T10:15:25Z</time>
      </trkpt>
      <trkpt lat="45.94033" lon="4.80435">
        <ele>224</ele>
        <time>2018-08-06T10:15:26Z</time>
      </trkpt>
      <trkpt lat="45.94031" lon="4.80425">
        <ele>223</ele>
        <time>2018-08-06T10:15:27Z</time>
      </trkpt>
      <trkpt lat="45.94028" lon="4.80411">
        <ele>219</ele>
        <time>2018-08-06T10:15:28Z</time>
      </trkpt>
      <trkpt lat="45.94025" lon="4.80397">
        <ele>218</ele>
        <time>2018-08-06T10:15:29Z</time>
      </trkpt>
      <trkpt lat="45.94019" lon="4.80385">
        <ele>217</ele>
        <time>2018-08-06T10:15:30Z</time>
      </trkpt>
      <trkpt lat="45.94015" lon="4.80372">
        <ele>216</ele>
        <time>2018-08-06T10:15:31Z</time>
      </trkpt>
      <trkpt lat="45.94006" lon="4.8035">
        <ele>212</ele>
        <time>2018-08-06T10:15:32Z</time>
      </trkpt>
      <trkpt lat="45.94" lon="4.80334">
        <ele>206</ele>
        <time>2018-08-06T10:15:33Z</time>
      </trkpt>
      <trkpt lat="45.93993" lon="4.80316">
        <ele>204</ele>
        <time>2018-08-06T10:15:34Z</time>
      </trkpt>
      <trkpt lat="45.93988" lon="4.80301">
        <ele>203</ele>
        <time>2018-08-06T10:15:35Z</time>
      </trkpt>
      <trkpt lat="45.93984" lon="4.80286">
        <ele>203</ele>
        <time>2018-08-06T10:15:36Z</time>
      </trkpt>
      <trkpt lat="45.93979" lon="4.8027">
        <ele>203</ele>
        <time>2018-08-06T10:15:37Z</time>
      </trkpt>
      <trkpt lat="45.93976" lon="4.80255">
        <ele>203</ele>
        <time>2018-08-06T10:15:38Z</time>
      </trkpt>
      <trkpt lat="45.93971" lon="4.80241">
        <ele>205</ele>
        <time>2018-08-06T10:15:39Z</time>
      </trkpt>
      <trkpt lat="45.93967" lon="4.80228">
        <ele>205</ele>
        <time>2018-08-06T10:15:40Z</time>
      </trkpt>
      <trkpt lat="45.93964" lon="4.80215">
        <ele>205</ele>
        <time>2018-08-06T10:15:41Z</time>
      </trkpt>
      <trkpt lat="45.9396" lon="4.80201">
        <ele>206</ele>
        <time>2018-08-06T10:15:42Z</time>
      </trkpt>
      <trkpt lat="45.93957" lon="4.80189">
        <ele>206</ele>
        <time>2018-08-06T10:15:43Z</time>
      </trkpt>
      <trkpt lat="45.93955" lon="4.80176">
        <ele>206</ele>
        <time>2018-08-06T10:15:44Z</time>
      </trkpt>
      <trkpt lat="45.93952" lon="4.80165">
        <ele>209</ele>
        <time>2018-08-06T10:15:45Z</time>
      </trkpt>
      <trkpt lat="45.93951" lon="4.80152">
        <ele>209</ele>
        <time>2018-08-06T10:15:46Z</time>
      </trkpt>
      <trkpt lat="45.93949" lon="4.80143">
        <ele>209</ele>
        <time>2018-08-06T10:15:47Z</time>
      </trkpt>
      <trkpt lat="45.93948" lon="4.80132">
        <ele>209</ele>
        <time>2018-08-06T10:15:48Z</time>
      </trkpt>
      <trkpt lat="45.93946" lon="4.80119">
        <ele>209</ele>
        <time>2018-08-06T10:15:49Z</time>
      </trkpt>
      <trkpt lat="45.93946" lon="4.8011">
        <ele>209</ele>
        <time>2018-08-06T10:15:50Z</time>
      </trkpt>
      <trkpt lat="45.93945" lon="4.801">
        <ele>209</ele>
        <time>2018-08-06T10:15:51Z</time>
      </trkpt>
      <trkpt lat="45.93944" lon="4.80089">
        <ele>208</ele>
        <time>2018-08-06T10:15:52Z</time>
      </trkpt>
      <trkpt lat="45.93945" lon="4.8008">
        <ele>208</ele>
        <time>2018-08-06T10:15:53Z</time>
      </trkpt>
      <trkpt lat="45.93946" lon="4.80072">
        <ele>208</ele>
        <time>2018-08-06T10:15:54Z</time>
      </trkpt>
      <trkpt lat="45.93945" lon="4.80062">
        <ele>208</ele>
        <time>2018-08-06T10:15:55Z</time>
      </trkpt>
      <trkpt lat="45.93945" lon="4.80054">
        <ele>208</ele>
        <time>2018-08-06T10:15:56Z</time>
      </trkpt>
      <trkpt lat="45.93944" lon="4.80046">
        <ele>207</ele>
        <time>2018-08-06T10:15:57Z</time>
      </trkpt>
      <trkpt lat="45.93945" lon="4.80038">
        <ele>207</ele>
        <time>2018-08-06T10:15:58Z</time>
      </trkpt>
      <trkpt lat="45.93946" lon="4.8003">
        <ele>207</ele>
        <time>2018-08-06T10:15:59Z</time>
      </trkpt>
      <trkpt lat="45.93947" lon="4.80019">
        <ele>207</ele>
        <time>2018-08-06T10:16:00Z</time>
      </trkpt>
      <trkpt lat="45.9395" lon="4.80009">
        <ele>207</ele>
        <time>2018-08-06T10:16:01Z</time>
      </trkpt>
      <trkpt lat="45.93951" lon="4.8">
        <ele>205</ele>
        <time>2018-08-06T10:16:02Z</time>
      </trkpt>
      <trkpt lat="45.93954" lon="4.79987">
        <ele>205</ele>
        <time>2018-08-06T10:16:03Z</time>
      </trkpt>
      <trkpt lat="45.93955" lon="4.79978">
        <ele>205</ele>
        <time>2018-08-06T10:16:04Z</time>
      </trkpt>
      <trkpt lat="45.93957" lon="4.79967">
        <ele>205</ele>
        <time>2018-08-06T10:16:05Z</time>
      </trkpt>
      <trkpt lat="45.93959" lon="4.79957">
        <ele>206</ele>
        <time>2018-08-06T10:16:06Z</time>
      </trkpt>
      <trkpt lat="45.9396" lon="4.79949">
        <ele>206</ele>
        <time>2018-08-06T10:16:07Z</time>
      </trkpt>
      <trkpt lat="45.93962" lon="4.79937">
        <ele>206</ele>
        <time>2018-08-06T10:16:08Z</time>
      </trkpt>
      <trkpt lat="45.93963" lon="4.79928">
        <ele>206</ele>
        <time>2018-08-06T10:16:09Z</time>
      </trkpt>
      <trkpt lat="45.93964" lon="4.79919">
        <ele>206</ele>
        <time>2018-08-06T10:16:10Z</time>
      </trkpt>
      <trkpt lat="45.93966" lon="4.79909">
        <ele>206</ele>
        <time>2018-08-06T10:16:11Z</time>
      </trkpt>
      <trkpt lat="45.93968" lon="4.79901">
        <ele>206</ele>
        <time>2018-08-06T10:16:12Z</time>
      </trkpt>
      <trkpt lat="45.93968" lon="4.79891">
        <ele>206</ele>
        <time>2018-08-06T10:16:13Z</time>
      </trkpt>
      <trkpt lat="45.9397" lon="4.7988">
        <ele>206</ele>
        <time>2018-08-06T10:16:14Z</time>
      </trkpt>
      <trkpt lat="45.93971" lon="4.79874">
        <ele>206</ele>
        <time>2018-08-06T10:16:15Z</time>
      </trkpt>
      <trkpt lat="45.93973" lon="4.79863">
        <ele>206</ele>
        <time>2018-08-06T10:16:16Z</time>
      </trkpt>
      <trkpt lat="45.93975" lon="4.79854">
        <ele>207</ele>
        <time>2018-08-06T10:16:17Z</time>
      </trkpt>
      <trkpt lat="45.93976" lon="4.79845">
        <ele>207</ele>
        <time>2018-08-06T10:16:18Z</time>
      </trkpt>
      <trkpt lat="45.93975" lon="4.79837">
        <ele>207</ele>
        <time>2018-08-06T10:16:19Z</time>
      </trkpt>
      <trkpt lat="45.93977" lon="4.79826">
        <ele>207</ele>
        <time>2018-08-06T10:16:20Z</time>
      </trkpt>
      <trkpt lat="45.93979" lon="4.79814">
        <ele>207</ele>
        <time>2018-08-06T10:16:21Z</time>
      </trkpt>
      <trkpt lat="45.9398" lon="4.79805">
        <ele>207</ele>
        <time>2018-08-06T10:16:22Z</time>
      </trkpt>
      <trkpt lat="45.93982" lon="4.79796">
        <ele>207</ele>
        <time>2018-08-06T10:16:23Z</time>
      </trkpt>
      <trkpt lat="45.93983" lon="4.79786">
        <ele>207</ele>
        <time>2018-08-06T10:16:24Z</time>
      </trkpt>
      <trkpt lat="45.93983" lon="4.79777">
        <ele>207</ele>
        <time>2018-08-06T10:16:25Z</time>
      </trkpt>
      <trkpt lat="45.93983" lon="4.79767">
        <ele>207</ele>
        <time>2018-08-06T10:16:26Z</time>
      </trkpt>
      <trkpt lat="45.93982" lon="4.79759">
        <ele>207</ele>
        <time>2018-08-06T10:16:27Z</time>
      </trkpt>
      <trkpt lat="45.9398" lon="4.79751">
        <ele>207</ele>
        <time>2018-08-06T10:16:28Z</time>
      </trkpt>
      <trkpt lat="45.9398" lon="4.79744">
        <ele>207</ele>
        <time>2018-08-06T10:16:29Z</time>
      </trkpt>
      <trkpt lat="45.93978" lon="4.79737">
        <ele>207</ele>
        <time>2018-08-06T10:16:30Z</time>
      </trkpt>
      <trkpt lat="45.93977" lon="4.79729">
        <ele>207</ele>
        <time>2018-08-06T10:16:31Z</time>
      </trkpt>
      <trkpt lat="45.93976" lon="4.79719">
        <ele>207</ele>
        <time>2018-08-06T10:16:32Z</time>
      </trkpt>
      <trkpt lat="45.93973" lon="4.79708">
        <ele>207</ele>
        <time>2018-08-06T10:16:33Z</time>
      </trkpt>
      <trkpt lat="45.93972" lon="4.79698">
        <ele>207</ele>
        <time>2018-08-06T10:16:34Z</time>
      </trkpt>
      <trkpt lat="45.93973" lon="4.79688">
        <ele>207</ele>
        <time>2018-08-06T10:16:35Z</time>
      </trkpt>
      <trkpt lat="45.93973" lon="4.7968">
        <ele>208</ele>
        <time>2018-08-06T10:16:36Z</time>
      </trkpt>
      <trkpt lat="45.93972" lon="4.79671">
        <ele>208</ele>
        <time>2018-08-06T10:16:37Z</time>
      </trkpt>
      <trkpt lat="45.93971" lon="4.79663">
        <ele>208</ele>
        <time>2018-08-06T10:16:38Z</time>
      </trkpt>
      <trkpt lat="45.93971" lon="4.79654">
        <ele>208</ele>
        <time>2018-08-06T10:16:39Z</time>
      </trkpt>
      <trkpt lat="45.9397" lon="4.79645">
        <ele>208</ele>
        <time>2018-08-06T10:16:40Z</time>
      </trkpt>
      <trkpt lat="45.93971" lon="4.79636">
        <ele>208</ele>
        <time>2018-08-06T10:16:41Z</time>
      </trkpt>
      <trkpt lat="45.93971" lon="4.79626">
        <ele>208</ele>
        <time>2018-08-06T10:16:42Z</time>
      </trkpt>
      <trkpt lat="45.9397" lon="4.79617">
        <ele>208</ele>
        <time>2018-08-06T10:16:43Z</time>
      </trkpt>
      <trkpt lat="45.93969" lon="4.79606">
        <ele>207</ele>
        <time>2018-08-06T10:16:44Z</time>
      </trkpt>
      <trkpt lat="45.93968" lon="4.79597">
        <ele>208</ele>
        <time>2018-08-06T10:16:45Z</time>
      </trkpt>
      <trkpt lat="45.93966" lon="4.79587">
        <ele>207</ele>
        <time>2018-08-06T10:16:46Z</time>
      </trkpt>
      <trkpt lat="45.93964" lon="4.79579">
        <ele>206</ele>
        <time>2018-08-06T10:16:47Z</time>
      </trkpt>
      <trkpt lat="45.93962" lon="4.7957">
        <ele>206</ele>
        <time>2018-08-06T10:16:48Z</time>
      </trkpt>
      <trkpt lat="45.93961" lon="4.7956">
        <ele>206</ele>
        <time>2018-08-06T10:16:49Z</time>
      </trkpt>
      <trkpt lat="45.93959" lon="4.79552">
        <ele>205</ele>
        <time>2018-08-06T10:16:50Z</time>
      </trkpt>
      <trkpt lat="45.93959" lon="4.79542">
        <ele>205</ele>
        <time>2018-08-06T10:16:51Z</time>
      </trkpt>
      <trkpt lat="45.93959" lon="4.79531">
        <ele>205</ele>
        <time>2018-08-06T10:16:52Z</time>
      </trkpt>
      <trkpt lat="45.93959" lon="4.7952">
        <ele>205</ele>
        <time>2018-08-06T10:16:53Z</time>
      </trkpt>
      <trkpt lat="45.93958" lon="4.79508">
        <ele>204</ele>
        <time>2018-08-06T10:16:54Z</time>
      </trkpt>
      <trkpt lat="45.93957" lon="4.79498">
        <ele>203</ele>
        <time>2018-08-06T10:16:55Z</time>
      </trkpt>
      <trkpt lat="45.93957" lon="4.79487">
        <ele>203</ele>
        <time>2018-08-06T10:16:56Z</time>
      </trkpt>
      <trkpt lat="45.93958" lon="4.79475">
        <ele>203</ele>
        <time>2018-08-06T10:16:57Z</time>
      </trkpt>
      <trkpt lat="45.93958" lon="4.79465">
        <ele>203</ele>
        <time>2018-08-06T10:16:58Z</time>
      </trkpt>
      <trkpt lat="45.93957" lon="4.79452">
        <ele>203</ele>
        <time>2018-08-06T10:16:59Z</time>
      </trkpt>
      <trkpt lat="45.93957" lon="4.79441">
        <ele>203</ele>
        <time>2018-08-06T10:17:00Z</time>
      </trkpt>
      <trkpt lat="45.93956" lon="4.79431">
        <ele>203</ele>
        <time>2018-08-06T10:17:01Z</time>
      </trkpt>
      <trkpt lat="45.93957" lon="4.7942">
        <ele>203</ele>
        <time>2018-08-06T10:17:02Z</time>
      </trkpt>
      <trkpt lat="45.93958" lon="4.7941">
        <ele>202</ele>
        <time>2018-08-06T10:17:03Z</time>
      </trkpt>
      <trkpt lat="45.93958" lon="4.79401">
        <ele>202</ele>
        <time>2018-08-06T10:17:04Z</time>
      </trkpt>
      <trkpt lat="45.93957" lon="4.79389">
        <ele>201</ele>
        <time>2018-08-06T10:17:05Z</time>
      </trkpt>
      <trkpt lat="45.93958" lon="4.79381">
        <ele>201</ele>
        <time>2018-08-06T10:17:06Z</time>
      </trkpt>
      <trkpt lat="45.93958" lon="4.79369">
        <ele>201</ele>
        <time>2018-08-06T10:17:07Z</time>
      </trkpt>
      <trkpt lat="45.93957" lon="4.79359">
        <ele>201</ele>
        <time>2018-08-06T10:17:08Z</time>
      </trkpt>
      <trkpt lat="45.93958" lon="4.79348">
        <ele>201</ele>
        <time>2018-08-06T10:17:09Z</time>
      </trkpt>
      <trkpt lat="45.93959" lon="4.79336">
        <ele>201</ele>
        <time>2018-08-06T10:17:10Z</time>
      </trkpt>
      <trkpt lat="45.93959" lon="4.79325">
        <ele>199</ele>
        <time>2018-08-06T10:17:11Z</time>
      </trkpt>
      <trkpt lat="45.93958" lon="4.79314">
        <ele>199</ele>
        <time>2018-08-06T10:17:12Z</time>
      </trkpt>
      <trkpt lat="45.93958" lon="4.79303">
        <ele>199</ele>
        <time>2018-08-06T10:17:13Z</time>
      </trkpt>
      <trkpt lat="45.93958" lon="4.79291">
        <ele>199</ele>
        <time>2018-08-06T10:17:14Z</time>
      </trkpt>
      <trkpt lat="45.93958" lon="4.7928">
        <ele>199</ele>
        <time>2018-08-06T10:17:15Z</time>
      </trkpt>
      <trkpt lat="45.93957" lon="4.7927">
        <ele>198</ele>
        <time>2018-08-06T10:17:16Z</time>
      </trkpt>
      <trkpt lat="45.93958" lon="4.79256">
        <ele>198</ele>
        <time>2018-08-06T10:17:17Z</time>
      </trkpt>
      <trkpt lat="45.93957" lon="4.79243">
        <ele>197</ele>
        <time>2018-08-06T10:17:18Z</time>
      </trkpt>
      <trkpt lat="45.93957" lon="4.79233">
        <ele>197</ele>
        <time>2018-08-06T10:17:19Z</time>
      </trkpt>
      <trkpt lat="45.93957" lon="4.79222">
        <ele>197</ele>
        <time>2018-08-06T10:17:20Z</time>
      </trkpt>
      <trkpt lat="45.93957" lon="4.79212">
        <ele>197</ele>
        <time>2018-08-06T10:17:21Z</time>
      </trkpt>
      <trkpt lat="45.93956" lon="4.79202">
        <ele>197</ele>
        <time>2018-08-06T10:17:22Z</time>
      </trkpt>
      <trkpt lat="45.93956" lon="4.79191">
        <ele>197</ele>
        <time>2018-08-06T10:17:23Z</time>
      </trkpt>
      <trkpt lat="45.93956" lon="4.7918">
        <ele>197</ele>
        <time>2018-08-06T10:17:24Z</time>
      </trkpt>
      <trkpt lat="45.93956" lon="4.7917">
        <ele>197</ele>
        <time>2018-08-06T10:17:25Z</time>
      </trkpt>
      <trkpt lat="45.93956" lon="4.7916">
        <ele>197</ele>
        <time>2018-08-06T10:17:26Z</time>
      </trkpt>
      <trkpt lat="45.93955" lon="4.7915">
        <ele>197</ele>
        <time>2018-08-06T10:17:27Z</time>
      </trkpt>
      <trkpt lat="45.93956" lon="4.79139">
        <ele>197</ele>
        <time>2018-08-06T10:17:28Z</time>
      </trkpt>
      <trkpt lat="45.93956" lon="4.79129">
        <ele>197</ele>
        <time>2018-08-06T10:17:29Z</time>
      </trkpt>
      <trkpt lat="45.93956" lon="4.7912">
        <ele>197</ele>
        <time>2018-08-06T10:17:30Z</time>
      </trkpt>
      <trkpt lat="45.93955" lon="4.7911">
        <ele>197</ele>
        <time>2018-08-06T10:17:31Z</time>
      </trkpt>
      <trkpt lat="45.93955" lon="4.79099">
        <ele>197</ele>
        <time>2018-08-06T10:17:32Z</time>
      </trkpt>
      <trkpt lat="45.93954" lon="4.79088">
        <ele>197</ele>
        <time>2018-08-06T10:17:33Z</time>
      </trkpt>
      <trkpt lat="45.93955" lon="4.79077">
        <ele>196</ele>
        <time>2018-08-06T10:17:34Z</time>
      </trkpt>
      <trkpt lat="45.93954" lon="4.79068">
        <ele>196</ele>
        <time>2018-08-06T10:17:35Z</time>
      </trkpt>
      <trkpt lat="45.93955" lon="4.79057">
        <ele>196</ele>
        <time>2018-08-06T10:17:36Z</time>
      </trkpt>
      <trkpt lat="45.93954" lon="4.79049">
        <ele>196</ele>
        <time>2018-08-06T10:17:37Z</time>
      </trkpt>
      <trkpt lat="45.93953" lon="4.79041">
        <ele>196</ele>
        <time>2018-08-06T10:17:38Z</time>
      </trkpt>
      <trkpt lat="45.93953" lon="4.79032">
        <ele>196</ele>
        <time>2018-08-06T10:17:39Z</time>
      </trkpt>
      <trkpt lat="45.93952" lon="4.79022">
        <ele>196</ele>
        <time>2018-08-06T10:17:40Z</time>
      </trkpt>
      <trkpt lat="45.93952" lon="4.79012">
        <ele>195</ele>
        <time>2018-08-06T10:17:41Z</time>
      </trkpt>
      <trkpt lat="45.93951" lon="4.79004">
        <ele>195</ele>
        <time>2018-08-06T10:17:42Z</time>
      </trkpt>
      <trkpt lat="45.93951" lon="4.78996">
        <ele>194</ele>
        <time>2018-08-06T10:17:43Z</time>
      </trkpt>
      <trkpt lat="45.9395" lon="4.78988">
        <ele>194</ele>
        <time>2018-08-06T10:17:44Z</time>
      </trkpt>
      <trkpt lat="45.93948" lon="4.78982">
        <ele>194</ele>
        <time>2018-08-06T10:17:45Z</time>
      </trkpt>
      <trkpt lat="45.93947" lon="4.78974">
        <ele>194</ele>
        <time>2018-08-06T10:17:46Z</time>
      </trkpt>
      <trkpt lat="45.93948" lon="4.7896">
        <ele>194</ele>
        <time>2018-08-06T10:17:47Z</time>
      </trkpt>
      <trkpt lat="45.93949" lon="4.78951">
        <ele>194</ele>
        <time>2018-08-06T10:17:48Z</time>
      </trkpt>
      <trkpt lat="45.93947" lon="4.78941">
        <ele>194</ele>
        <time>2018-08-06T10:17:49Z</time>
      </trkpt>
      <trkpt lat="45.93947" lon="4.78932">
        <ele>194</ele>
        <time>2018-08-06T10:17:50Z</time>
      </trkpt>
      <trkpt lat="45.93946" lon="4.78923">
        <ele>194</ele>
        <time>2018-08-06T10:17:51Z</time>
      </trkpt>
      <trkpt lat="45.93946" lon="4.78911">
        <ele>193</ele>
        <time>2018-08-06T10:17:52Z</time>
      </trkpt>
      <trkpt lat="45.93946" lon="4.78901">
        <ele>194</ele>
        <time>2018-08-06T10:17:53Z</time>
      </trkpt>
      <trkpt lat="45.93945" lon="4.78892">
        <ele>194</ele>
        <time>2018-08-06T10:17:54Z</time>
      </trkpt>
      <trkpt lat="45.93944" lon="4.78885">
        <ele>194</ele>
        <time>2018-08-06T10:17:55Z</time>
      </trkpt>
      <trkpt lat="45.93944" lon="4.78875">
        <ele>194</ele>
        <time>2018-08-06T10:17:56Z</time>
      </trkpt>
      <trkpt lat="45.93944" lon="4.78865">
        <ele>194</ele>
        <time>2018-08-06T10:17:57Z</time>
      </trkpt>
      <trkpt lat="45.93945" lon="4.78855">
        <ele>194</ele>
        <time>2018-08-06T10:17:58Z</time>
      </trkpt>
      <trkpt lat="45.93945" lon="4.78845">
        <ele>194</ele>
        <time>2018-08-06T10:17:59Z</time>
      </trkpt>
      <trkpt lat="45.93944" lon="4.78837">
        <ele>194</ele>
        <time>2018-08-06T10:18:00Z</time>
      </trkpt>
      <trkpt lat="45.93943" lon="4.78829">
        <ele>194</ele>
        <time>2018-08-06T10:18:01Z</time>
      </trkpt>
      <trkpt lat="45.93942" lon="4.78822">
        <ele>194</ele>
        <time>2018-08-06T10:18:02Z</time>
      </trkpt>
      <trkpt lat="45.93942" lon="4.78814">
        <ele>194</ele>
        <time>2018-08-06T10:18:03Z</time>
      </trkpt>
      <trkpt lat="45.93942" lon="4.78807">
        <ele>194</ele>
        <time>2018-08-06T10:18:04Z</time>
      </trkpt>
      <trkpt lat="45.93942" lon="4.78797">
        <ele>194</ele>
        <time>2018-08-06T10:18:05Z</time>
      </trkpt>
      <trkpt lat="45.93944" lon="4.78785">
        <ele>194</ele>
        <time>2018-08-06T10:18:06Z</time>
      </trkpt>
      <trkpt lat="45.93943" lon="4.78776">
        <ele>194</ele>
        <time>2018-08-06T10:18:07Z</time>
      </trkpt>
      <trkpt lat="45.93945" lon="4.78764">
        <ele>194</ele>
        <time>2018-08-06T10:18:08Z</time>
      </trkpt>
      <trkpt lat="45.93943" lon="4.78757">
        <ele>194</ele>
        <time>2018-08-06T10:18:09Z</time>
      </trkpt>
      <trkpt lat="45.93944" lon="4.7875">
        <ele>194</ele>
        <time>2018-08-06T10:18:10Z</time>
      </trkpt>
      <trkpt lat="45.93945" lon="4.78739">
        <ele>194</ele>
        <time>2018-08-06T10:18:11Z</time>
      </trkpt>
      <trkpt lat="45.93945" lon="4.7873">
        <ele>194</ele>
        <time>2018-08-06T10:18:12Z</time>
      </trkpt>
      <trkpt lat="45.93946" lon="4.78722">
        <ele>194</ele>
        <time>2018-08-06T10:18:13Z</time>
      </trkpt>
      <trkpt lat="45.93946" lon="4.78715">
        <ele>194</ele>
        <time>2018-08-06T10:18:14Z</time>
      </trkpt>
      <trkpt lat="45.93946" lon="4.78706">
        <ele>195</ele>
        <time>2018-08-06T10:18:15Z</time>
      </trkpt>
      <trkpt lat="45.93945" lon="4.787">
        <ele>194</ele>
        <time>2018-08-06T10:18:16Z</time>
      </trkpt>
      <trkpt lat="45.93945" lon="4.78694">
        <ele>194</ele>
        <time>2018-08-06T10:18:17Z</time>
      </trkpt>
      <trkpt lat="45.93945" lon="4.78685">
        <ele>194</ele>
        <time>2018-08-06T10:18:18Z</time>
      </trkpt>
      <trkpt lat="45.93944" lon="4.78675">
        <ele>194</ele>
        <time>2018-08-06T10:18:19Z</time>
      </trkpt>
      <trkpt lat="45.93944" lon="4.78668">
        <ele>194</ele>
        <time>2018-08-06T10:18:20Z</time>
      </trkpt>
      <trkpt lat="45.93943" lon="4.7866">
        <ele>195</ele>
        <time>2018-08-06T10:18:21Z</time>
      </trkpt>
      <trkpt lat="45.93944" lon="4.78649">
        <ele>195</ele>
        <time>2018-08-06T10:18:22Z</time>
      </trkpt>
      <trkpt lat="45.93944" lon="4.78643">
        <ele>195</ele>
        <time>2018-08-06T10:18:23Z</time>
      </trkpt>
      <trkpt lat="45.93944" lon="4.78635">
        <ele>196</ele>
        <time>2018-08-06T10:18:24Z</time>
      </trkpt>
      <trkpt lat="45.93946" lon="4.78626">
        <ele>196</ele>
        <time>2018-08-06T10:18:25Z</time>
      </trkpt>
      <trkpt lat="45.93946" lon="4.78613">
        <ele>196</ele>
        <time>2018-08-06T10:18:26Z</time>
      </trkpt>
      <trkpt lat="45.93946" lon="4.78604">
        <ele>196</ele>
        <time>2018-08-06T10:18:27Z</time>
      </trkpt>
      <trkpt lat="45.93946" lon="4.78595">
        <ele>196</ele>
        <time>2018-08-06T10:18:28Z</time>
      </trkpt>
      <trkpt lat="45.93945" lon="4.7859">
        <ele>196</ele>
        <time>2018-08-06T10:18:29Z</time>
      </trkpt>
      <trkpt lat="45.93945" lon="4.78582">
        <ele>197</ele>
        <time>2018-08-06T10:18:30Z</time>
      </trkpt>
      <trkpt lat="45.93945" lon="4.78575">
        <ele>197</ele>
        <time>2018-08-06T10:18:31Z</time>
      </trkpt>
      <trkpt lat="45.93946" lon="4.78567">
        <ele>197</ele>
        <time>2018-08-06T10:18:32Z</time>
      </trkpt>
      <trkpt lat="45.93943" lon="4.78559">
        <ele>197</ele>
        <time>2018-08-06T10:18:34Z</time>
      </trkpt>
      <trkpt lat="45.93941" lon="4.7855">
        <ele>197</ele>
        <time>2018-08-06T10:18:35Z</time>
      </trkpt>
      <trkpt lat="45.93941" lon="4.78548">
        <ele>197</ele>
        <time>2018-08-06T10:18:36Z</time>
      </trkpt>
      <trkpt lat="45.93942" lon="4.78537">
        <ele>197</ele>
        <time>2018-08-06T10:18:37Z</time>
      </trkpt>
      <trkpt lat="45.9394" lon="4.78525">
        <ele>197</ele>
        <time>2018-08-06T10:18:39Z</time>
      </trkpt>
      <trkpt lat="45.93939" lon="4.78518">
        <ele>197</ele>
        <time>2018-08-06T10:18:40Z</time>
      </trkpt>
      <trkpt lat="45.93942" lon="4.7851">
        <ele>197</ele>
        <time>2018-08-06T10:18:41Z</time>
      </trkpt>
      <trkpt lat="45.93942" lon="4.78504">
        <ele>197</ele>
        <time>2018-08-06T10:18:42Z</time>
      </trkpt>
      <trkpt lat="45.93943" lon="4.78493">
        <ele>197</ele>
        <time>2018-08-06T10:18:44Z</time>
      </trkpt>
      <trkpt lat="45.93943" lon="4.7849">
        <ele>197</ele>
        <time>2018-08-06T10:18:45Z</time>
      </trkpt>
      <trkpt lat="45.93946" lon="4.78483">
        <ele>197</ele>
        <time>2018-08-06T10:18:46Z</time>
      </trkpt>
      <trkpt lat="45.93946" lon="4.78477">
        <ele>197</ele>
        <time>2018-08-06T10:18:47Z</time>
      </trkpt>
      <trkpt lat="45.93947" lon="4.7847">
        <ele>197</ele>
        <time>2018-08-06T10:18:48Z</time>
      </trkpt>
      <trkpt lat="45.93949" lon="4.78463">
        <ele>198</ele>
        <time>2018-08-06T10:18:49Z</time>
      </trkpt>
      <trkpt lat="45.93949" lon="4.78457">
        <ele>197</ele>
        <time>2018-08-06T10:18:50Z</time>
      </trkpt>
      <trkpt lat="45.9395" lon="4.78449">
        <ele>197</ele>
        <time>2018-08-06T10:18:51Z</time>
      </trkpt>
      <trkpt lat="45.93952" lon="4.78439">
        <ele>197</ele>
        <time>2018-08-06T10:18:52Z</time>
      </trkpt>
      <trkpt lat="45.93953" lon="4.78432">
        <ele>197</ele>
        <time>2018-08-06T10:18:53Z</time>
      </trkpt>
      <trkpt lat="45.93955" lon="4.78422">
        <ele>198</ele>
        <time>2018-08-06T10:18:54Z</time>
      </trkpt>
      <trkpt lat="45.93956" lon="4.78415">
        <ele>197</ele>
        <time>2018-08-06T10:18:55Z</time>
      </trkpt>
      <trkpt lat="45.93956" lon="4.78403">
        <ele>197</ele>
        <time>2018-08-06T10:18:57Z</time>
      </trkpt>
      <trkpt lat="45.93957" lon="4.78397">
        <ele>197</ele>
        <time>2018-08-06T10:18:58Z</time>
      </trkpt>
      <trkpt lat="45.93958" lon="4.78387">
        <ele>197</ele>
        <time>2018-08-06T10:18:59Z</time>
      </trkpt>
      <trkpt lat="45.93961" lon="4.78378">
        <ele>197</ele>
        <time>2018-08-06T10:19:00Z</time>
      </trkpt>
      <trkpt lat="45.93961" lon="4.7837">
        <ele>197</ele>
        <time>2018-08-06T10:19:01Z</time>
      </trkpt>
      <trkpt lat="45.93962" lon="4.78362">
        <ele>197</ele>
        <time>2018-08-06T10:19:02Z</time>
      </trkpt>
      <trkpt lat="45.93962" lon="4.78354">
        <ele>197</ele>
        <time>2018-08-06T10:19:03Z</time>
      </trkpt>
      <trkpt lat="45.93963" lon="4.78347">
        <ele>197</ele>
        <time>2018-08-06T10:19:04Z</time>
      </trkpt>
      <trkpt lat="45.93964" lon="4.7834">
        <ele>197</ele>
        <time>2018-08-06T10:19:05Z</time>
      </trkpt>
      <trkpt lat="45.93965" lon="4.78334">
        <ele>197</ele>
        <time>2018-08-06T10:19:06Z</time>
      </trkpt>
      <trkpt lat="45.93966" lon="4.78325">
        <ele>196</ele>
        <time>2018-08-06T10:19:08Z</time>
      </trkpt>
      <trkpt lat="45.93968" lon="4.78316">
        <ele>196</ele>
        <time>2018-08-06T10:19:09Z</time>
      </trkpt>
      <trkpt lat="45.93968" lon="4.78315">
        <ele>196</ele>
        <time>2018-08-06T10:19:10Z</time>
      </trkpt>
      <trkpt lat="45.9397" lon="4.78304">
        <ele>196</ele>
        <time>2018-08-06T10:19:11Z</time>
      </trkpt>
      <trkpt lat="45.93972" lon="4.78297">
        <ele>196</ele>
        <time>2018-08-06T10:19:12Z</time>
      </trkpt>
      <trkpt lat="45.93973" lon="4.78289">
        <ele>196</ele>
        <time>2018-08-06T10:19:13Z</time>
      </trkpt>
      <trkpt lat="45.93974" lon="4.78282">
        <ele>196</ele>
        <time>2018-08-06T10:19:14Z</time>
      </trkpt>
      <trkpt lat="45.93974" lon="4.78274">
        <ele>196</ele>
        <time>2018-08-06T10:19:15Z</time>
      </trkpt>
      <trkpt lat="45.93975" lon="4.78268">
        <ele>196</ele>
        <time>2018-08-06T10:19:16Z</time>
      </trkpt>
      <trkpt lat="45.93979" lon="4.78257">
        <ele>196</ele>
        <time>2018-08-06T10:19:17Z</time>
      </trkpt>
      <trkpt lat="45.93979" lon="4.7825">
        <ele>197</ele>
        <time>2018-08-06T10:19:18Z</time>
      </trkpt>
      <trkpt lat="45.93979" lon="4.78243">
        <ele>197</ele>
        <time>2018-08-06T10:19:19Z</time>
      </trkpt>
      <trkpt lat="45.93979" lon="4.7823">
        <ele>197</ele>
        <time>2018-08-06T10:19:21Z</time>
      </trkpt>
      <trkpt lat="45.9398" lon="4.78223">
        <ele>197</ele>
        <time>2018-08-06T10:19:22Z</time>
      </trkpt>
      <trkpt lat="45.93983" lon="4.78211">
        <ele>197</ele>
        <time>2018-08-06T10:19:24Z</time>
      </trkpt>
      <trkpt lat="45.93985" lon="4.78205">
        <ele>197</ele>
        <time>2018-08-06T10:19:25Z</time>
      </trkpt>
      <trkpt lat="45.93986" lon="4.78195">
        <ele>197</ele>
        <time>2018-08-06T10:19:28Z</time>
      </trkpt>
      <trkpt lat="45.93986" lon="4.78192">
        <ele>198</ele>
        <time>2018-08-06T10:19:29Z</time>
      </trkpt>
      <trkpt lat="45.93988" lon="4.78183">
        <ele>198</ele>
        <time>2018-08-06T10:19:32Z</time>
      </trkpt>
      <trkpt lat="45.9399" lon="4.78172">
        <ele>199</ele>
        <time>2018-08-06T10:19:33Z</time>
      </trkpt>
      <trkpt lat="45.93994" lon="4.78162">
        <ele>200</ele>
        <time>2018-08-06T10:19:37Z</time>
      </trkpt>
      <trkpt lat="45.93995" lon="4.78159">
        <ele>199</ele>
        <time>2018-08-06T10:19:38Z</time>
      </trkpt>
      <trkpt lat="45.93996" lon="4.78151">
        <ele>199</ele>
        <time>2018-08-06T10:19:40Z</time>
      </trkpt>
      <trkpt lat="45.93999" lon="4.78138">
        <ele>198</ele>
        <time>2018-08-06T10:19:41Z</time>
      </trkpt>
      <trkpt lat="45.93999" lon="4.78128">
        <ele>197</ele>
        <time>2018-08-06T10:19:42Z</time>
      </trkpt>
      <trkpt lat="45.93999" lon="4.78122">
        <ele>197</ele>
        <time>2018-08-06T10:19:43Z</time>
      </trkpt>
      <trkpt lat="45.94001" lon="4.78116">
        <ele>203</ele>
        <time>2018-08-06T10:19:44Z</time>
      </trkpt>
      <trkpt lat="45.94004" lon="4.78104">
        <ele>202</ele>
        <time>2018-08-06T10:19:45Z</time>
      </trkpt>
      <trkpt lat="45.94006" lon="4.78097">
        <ele>201</ele>
        <time>2018-08-06T10:19:46Z</time>
      </trkpt>
      <trkpt lat="45.94008" lon="4.78091">
        <ele>201</ele>
        <time>2018-08-06T10:19:47Z</time>
      </trkpt>
      <trkpt lat="45.94008" lon="4.78083">
        <ele>200</ele>
        <time>2018-08-06T10:19:49Z</time>
      </trkpt>
      <trkpt lat="45.9401" lon="4.78074">
        <ele>201</ele>
        <time>2018-08-06T10:19:50Z</time>
      </trkpt>
      <trkpt lat="45.94011" lon="4.78067">
        <ele>201</ele>
        <time>2018-08-06T10:19:51Z</time>
      </trkpt>
      <trkpt lat="45.94013" lon="4.78059">
        <ele>201</ele>
        <time>2018-08-06T10:19:52Z</time>
      </trkpt>
      <trkpt lat="45.94015" lon="4.78052">
        <ele>202</ele>
        <time>2018-08-06T10:19:53Z</time>
      </trkpt>
      <trkpt lat="45.94016" lon="4.78045">
        <ele>202</ele>
        <time>2018-08-06T10:19:54Z</time>
      </trkpt>
      <trkpt lat="45.94018" lon="4.78038">
        <ele>201</ele>
        <time>2018-08-06T10:19:55Z</time>
      </trkpt>
      <trkpt lat="45.94018" lon="4.78031">
        <ele>201</ele>
        <time>2018-08-06T10:19:56Z</time>
      </trkpt>
      <trkpt lat="45.94019" lon="4.78023">
        <ele>201</ele>
        <time>2018-08-06T10:19:57Z</time>
      </trkpt>
      <trkpt lat="45.9402" lon="4.78016">
        <ele>201</ele>
        <time>2018-08-06T10:19:58Z</time>
      </trkpt>
      <trkpt lat="45.9402" lon="4.7801">
        <ele>200</ele>
        <time>2018-08-06T10:19:59Z</time>
      </trkpt>
      <trkpt lat="45.9402" lon="4.78003">
        <ele>200</ele>
        <time>2018-08-06T10:20:00Z</time>
      </trkpt>
      <trkpt lat="45.94022" lon="4.77995">
        <ele>200</ele>
        <time>2018-08-06T10:20:01Z</time>
      </trkpt>
      <trkpt lat="45.94024" lon="4.77983">
        <ele>200</ele>
        <time>2018-08-06T10:20:02Z</time>
      </trkpt>
      <trkpt lat="45.94025" lon="4.77976">
        <ele>200</ele>
        <time>2018-08-06T10:20:03Z</time>
      </trkpt>
      <trkpt lat="45.94027" lon="4.77968">
        <ele>200</ele>
        <time>2018-08-06T10:20:04Z</time>
      </trkpt>
      <trkpt lat="45.94028" lon="4.77957">
        <ele>200</ele>
        <time>2018-08-06T10:20:06Z</time>
      </trkpt>
      <trkpt lat="45.94031" lon="4.77949">
        <ele>201</ele>
        <time>2018-08-06T10:20:07Z</time>
      </trkpt>
      <trkpt lat="45.94031" lon="4.77937">
        <ele>200</ele>
        <time>2018-08-06T10:20:09Z</time>
      </trkpt>
      <trkpt lat="45.94032" lon="4.77929">
        <ele>200</ele>
        <time>2018-08-06T10:20:10Z</time>
      </trkpt>
      <trkpt lat="45.94026" lon="4.77921">
        <ele>199</ele>
        <time>2018-08-06T10:20:13Z</time>
      </trkpt>
      <trkpt lat="45.94018" lon="4.77921">
        <ele>198</ele>
        <time>2018-08-06T10:20:14Z</time>
      </trkpt>
      <trkpt lat="45.94006" lon="4.77919">
        <ele>196</ele>
        <time>2018-08-06T10:20:15Z</time>
      </trkpt>
      <trkpt lat="45.94001" lon="4.77921">
        <ele>195</ele>
        <time>2018-08-06T10:20:16Z</time>
      </trkpt>
      <trkpt lat="45.93993" lon="4.77925">
        <ele>193</ele>
        <time>2018-08-06T10:20:17Z</time>
      </trkpt>
      <trkpt lat="45.93986" lon="4.77928">
        <ele>192</ele>
        <time>2018-08-06T10:20:18Z</time>
      </trkpt>
      <trkpt lat="45.93979" lon="4.77934">
        <ele>191</ele>
        <time>2018-08-06T10:20:19Z</time>
      </trkpt>
      <trkpt lat="45.93973" lon="4.77941">
        <ele>191</ele>
        <time>2018-08-06T10:20:20Z</time>
      </trkpt>
      <trkpt lat="45.93966" lon="4.77947">
        <ele>190</ele>
        <time>2018-08-06T10:20:21Z</time>
      </trkpt>
      <trkpt lat="45.9396" lon="4.77953">
        <ele>190</ele>
        <time>2018-08-06T10:20:22Z</time>
      </trkpt>
      <trkpt lat="45.93954" lon="4.77958">
        <ele>190</ele>
        <time>2018-08-06T10:20:23Z</time>
      </trkpt>
      <trkpt lat="45.93947" lon="4.77963">
        <ele>189</ele>
        <time>2018-08-06T10:20:24Z</time>
      </trkpt>
      <trkpt lat="45.93939" lon="4.7797">
        <ele>189</ele>
        <time>2018-08-06T10:20:25Z</time>
      </trkpt>
      <trkpt lat="45.9393" lon="4.77973">
        <ele>189</ele>
        <time>2018-08-06T10:20:26Z</time>
      </trkpt>
      <trkpt lat="45.93926" lon="4.77976">
        <ele>188</ele>
        <time>2018-08-06T10:20:27Z</time>
      </trkpt>
      <trkpt lat="45.93913" lon="4.77979">
        <ele>182</ele>
        <time>2018-08-06T10:20:28Z</time>
      </trkpt>
      <trkpt lat="45.93906" lon="4.77985">
        <ele>182</ele>
        <time>2018-08-06T10:20:29Z</time>
      </trkpt>
      <trkpt lat="45.93899" lon="4.77989">
        <ele>182</ele>
        <time>2018-08-06T10:20:30Z</time>
      </trkpt>
      <trkpt lat="45.93893" lon="4.77993">
        <ele>182</ele>
        <time>2018-08-06T10:20:31Z</time>
      </trkpt>
      <trkpt lat="45.93891" lon="4.78001">
        <ele>184</ele>
        <time>2018-08-06T10:20:32Z</time>
      </trkpt>
      <trkpt lat="45.93884" lon="4.78007">
        <ele>184</ele>
        <time>2018-08-06T10:20:34Z</time>
      </trkpt>
      <trkpt lat="45.93879" lon="4.78007">
        <ele>184</ele>
        <time>2018-08-06T10:20:35Z</time>
      </trkpt>
      <trkpt lat="45.93875" lon="4.78002">
        <ele>183</ele>
        <time>2018-08-06T10:20:37Z</time>
      </trkpt>
      <trkpt lat="45.9387" lon="4.77998">
        <ele>180</ele>
        <time>2018-08-06T10:20:38Z</time>
      </trkpt>
      <trkpt lat="45.93866" lon="4.77994">
        <ele>180</ele>
        <time>2018-08-06T10:20:39Z</time>
      </trkpt>
      <trkpt lat="45.9386" lon="4.77991">
        <ele>179</ele>
        <time>2018-08-06T10:20:40Z</time>
      </trkpt>
      <trkpt lat="45.93856" lon="4.77986">
        <ele>179</ele>
        <time>2018-08-06T10:20:41Z</time>
      </trkpt>
      <trkpt lat="45.93851" lon="4.77984">
        <ele>179</ele>
        <time>2018-08-06T10:20:42Z</time>
      </trkpt>
      <trkpt lat="45.93847" lon="4.77978">
        <ele>178</ele>
        <time>2018-08-06T10:20:43Z</time>
      </trkpt>
      <trkpt lat="45.93842" lon="4.77972">
        <ele>178</ele>
        <time>2018-08-06T10:20:44Z</time>
      </trkpt>
      <trkpt lat="45.9384" lon="4.77965">
        <ele>177</ele>
        <time>2018-08-06T10:20:45Z</time>
      </trkpt>
      <trkpt lat="45.93835" lon="4.77959">
        <ele>176</ele>
        <time>2018-08-06T10:20:46Z</time>
      </trkpt>
      <trkpt lat="45.9383" lon="4.77954">
        <ele>170</ele>
        <time>2018-08-06T10:20:47Z</time>
      </trkpt>
      <trkpt lat="45.93826" lon="4.77949">
        <ele>169</ele>
        <time>2018-08-06T10:20:48Z</time>
      </trkpt>
      <trkpt lat="45.93819" lon="4.77942">
        <ele>169</ele>
        <time>2018-08-06T10:20:49Z</time>
      </trkpt>
      <trkpt lat="45.93817" lon="4.77938">
        <ele>169</ele>
        <time>2018-08-06T10:20:50Z</time>
      </trkpt>
      <trkpt lat="45.93812" lon="4.77934">
        <ele>168</ele>
        <time>2018-08-06T10:20:51Z</time>
      </trkpt>
      <trkpt lat="45.93807" lon="4.77928">
        <ele>168</ele>
        <time>2018-08-06T10:20:52Z</time>
      </trkpt>
      <trkpt lat="45.93802" lon="4.77924">
        <ele>168</ele>
        <time>2018-08-06T10:20:54Z</time>
      </trkpt>
      <trkpt lat="45.93799" lon="4.77921">
        <ele>168</ele>
        <time>2018-08-06T10:20:55Z</time>
      </trkpt>
      <trkpt lat="45.93796" lon="4.77915">
        <ele>166</ele>
        <time>2018-08-06T10:20:56Z</time>
      </trkpt>
      <trkpt lat="45.93791" lon="4.77911">
        <ele>166</ele>
        <time>2018-08-06T10:20:57Z</time>
      </trkpt>
      <trkpt lat="45.93786" lon="4.77902">
        <ele>166</ele>
        <time>2018-08-06T10:20:59Z</time>
      </trkpt>
      <trkpt lat="45.93782" lon="4.77897">
        <ele>166</ele>
        <time>2018-08-06T10:21:00Z</time>
      </trkpt>
      <trkpt lat="45.93776" lon="4.77889">
        <ele>166</ele>
        <time>2018-08-06T10:21:02Z</time>
      </trkpt>
      <trkpt lat="45.93773" lon="4.77883">
        <ele>166</ele>
        <time>2018-08-06T10:21:03Z</time>
      </trkpt>
      <trkpt lat="45.93765" lon="4.77877">
        <ele>166</ele>
        <time>2018-08-06T10:21:04Z</time>
      </trkpt>
      <trkpt lat="45.93761" lon="4.77871">
        <ele>166</ele>
        <time>2018-08-06T10:21:05Z</time>
      </trkpt>
      <trkpt lat="45.93756" lon="4.77867">
        <ele>166</ele>
        <time>2018-08-06T10:21:06Z</time>
      </trkpt>
      <trkpt lat="45.93751" lon="4.77861">
        <ele>166</ele>
        <time>2018-08-06T10:21:07Z</time>
      </trkpt>
      <trkpt lat="45.93747" lon="4.77855">
        <ele>167</ele>
        <time>2018-08-06T10:21:08Z</time>
      </trkpt>
      <trkpt lat="45.93743" lon="4.7785">
        <ele>167</ele>
        <time>2018-08-06T10:21:09Z</time>
      </trkpt>
      <trkpt lat="45.93739" lon="4.77844">
        <ele>167</ele>
        <time>2018-08-06T10:21:10Z</time>
      </trkpt>
      <trkpt lat="45.93736" lon="4.77839">
        <ele>167</ele>
        <time>2018-08-06T10:21:11Z</time>
      </trkpt>
      <trkpt lat="45.93732" lon="4.77834">
        <ele>167</ele>
        <time>2018-08-06T10:21:12Z</time>
      </trkpt>
      <trkpt lat="45.93728" lon="4.77829">
        <ele>168</ele>
        <time>2018-08-06T10:21:13Z</time>
      </trkpt>
      <trkpt lat="45.93725" lon="4.77823">
        <ele>168</ele>
        <time>2018-08-06T10:21:14Z</time>
      </trkpt>
      <trkpt lat="45.9372" lon="4.77817">
        <ele>169</ele>
        <time>2018-08-06T10:21:15Z</time>
      </trkpt>
      <trkpt lat="45.93716" lon="4.77812">
        <ele>169</ele>
        <time>2018-08-06T10:21:16Z</time>
      </trkpt>
      <trkpt lat="45.93711" lon="4.77804">
        <ele>169</ele>
        <time>2018-08-06T10:21:17Z</time>
      </trkpt>
      <trkpt lat="45.93707" lon="4.77798">
        <ele>169</ele>
        <time>2018-08-06T10:21:18Z</time>
      </trkpt>
      <trkpt lat="45.93702" lon="4.77792">
        <ele>169</ele>
        <time>2018-08-06T10:21:19Z</time>
      </trkpt>
      <trkpt lat="45.93698" lon="4.77784">
        <ele>170</ele>
        <time>2018-08-06T10:21:20Z</time>
      </trkpt>
      <trkpt lat="45.93692" lon="4.77777">
        <ele>170</ele>
        <time>2018-08-06T10:21:21Z</time>
      </trkpt>
      <trkpt lat="45.93688" lon="4.7777">
        <ele>170</ele>
        <time>2018-08-06T10:21:22Z</time>
      </trkpt>
      <trkpt lat="45.93682" lon="4.77764">
        <ele>170</ele>
        <time>2018-08-06T10:21:23Z</time>
      </trkpt>
      <trkpt lat="45.93678" lon="4.77757">
        <ele>170</ele>
        <time>2018-08-06T10:21:24Z</time>
      </trkpt>
      <trkpt lat="45.93673" lon="4.77748">
        <ele>171</ele>
        <time>2018-08-06T10:21:25Z</time>
      </trkpt>
      <trkpt lat="45.93667" lon="4.7774">
        <ele>171</ele>
        <time>2018-08-06T10:21:26Z</time>
      </trkpt>
      <trkpt lat="45.93661" lon="4.77732">
        <ele>170</ele>
        <time>2018-08-06T10:21:27Z</time>
      </trkpt>
      <trkpt lat="45.93656" lon="4.77724">
        <ele>170</ele>
        <time>2018-08-06T10:21:28Z</time>
      </trkpt>
      <trkpt lat="45.9365" lon="4.77712">
        <ele>170</ele>
        <time>2018-08-06T10:21:29Z</time>
      </trkpt>
      <trkpt lat="45.93645" lon="4.77703">
        <ele>170</ele>
        <time>2018-08-06T10:21:30Z</time>
      </trkpt>
      <trkpt lat="45.93641" lon="4.77695">
        <ele>169</ele>
        <time>2018-08-06T10:21:31Z</time>
      </trkpt>
      <trkpt lat="45.93636" lon="4.77683">
        <ele>169</ele>
        <time>2018-08-06T10:21:32Z</time>
      </trkpt>
      <trkpt lat="45.93631" lon="4.77674">
        <ele>169</ele>
        <time>2018-08-06T10:21:33Z</time>
      </trkpt>
      <trkpt lat="45.93626" lon="4.77664">
        <ele>169</ele>
        <time>2018-08-06T10:21:34Z</time>
      </trkpt>
      <trkpt lat="45.93621" lon="4.77654">
        <ele>169</ele>
        <time>2018-08-06T10:21:35Z</time>
      </trkpt>
      <trkpt lat="45.93616" lon="4.77643">
        <ele>169</ele>
        <time>2018-08-06T10:21:36Z</time>
      </trkpt>
      <trkpt lat="45.93611" lon="4.77633">
        <ele>169</ele>
        <time>2018-08-06T10:21:37Z</time>
      </trkpt>
      <trkpt lat="45.93606" lon="4.77622">
        <ele>170</ele>
        <time>2018-08-06T10:21:38Z</time>
      </trkpt>
      <trkpt lat="45.93603" lon="4.77613">
        <ele>170</ele>
        <time>2018-08-06T10:21:39Z</time>
      </trkpt>
      <trkpt lat="45.93599" lon="4.77603">
        <ele>170</ele>
        <time>2018-08-06T10:21:40Z</time>
      </trkpt>
      <trkpt lat="45.93596" lon="4.77593">
        <ele>170</ele>
        <time>2018-08-06T10:21:41Z</time>
      </trkpt>
      <trkpt lat="45.93593" lon="4.77584">
        <ele>170</ele>
        <time>2018-08-06T10:21:42Z</time>
      </trkpt>
      <trkpt lat="45.9359" lon="4.77574">
        <ele>170</ele>
        <time>2018-08-06T10:21:43Z</time>
      </trkpt>
      <trkpt lat="45.93586" lon="4.77563">
        <ele>170</ele>
        <time>2018-08-06T10:21:44Z</time>
      </trkpt>
      <trkpt lat="45.93585" lon="4.77555">
        <ele>170</ele>
        <time>2018-08-06T10:21:45Z</time>
      </trkpt>
      <trkpt lat="45.93583" lon="4.77546">
        <ele>169</ele>
        <time>2018-08-06T10:21:46Z</time>
      </trkpt>
      <trkpt lat="45.93581" lon="4.77536">
        <ele>169</ele>
        <time>2018-08-06T10:21:47Z</time>
      </trkpt>
      <trkpt lat="45.93578" lon="4.77528">
        <ele>169</ele>
        <time>2018-08-06T10:21:48Z</time>
      </trkpt>
      <trkpt lat="45.93576" lon="4.77519">
        <ele>169</ele>
        <time>2018-08-06T10:21:49Z</time>
      </trkpt>
      <trkpt lat="45.93575" lon="4.7751">
        <ele>169</ele>
        <time>2018-08-06T10:21:50Z</time>
      </trkpt>
      <trkpt lat="45.93572" lon="4.77502">
        <ele>169</ele>
        <time>2018-08-06T10:21:51Z</time>
      </trkpt>
      <trkpt lat="45.9357" lon="4.77493">
        <ele>169</ele>
        <time>2018-08-06T10:21:52Z</time>
      </trkpt>
      <trkpt lat="45.93568" lon="4.77486">
        <ele>169</ele>
        <time>2018-08-06T10:21:53Z</time>
      </trkpt>
      <trkpt lat="45.93567" lon="4.77478">
        <ele>169</ele>
        <time>2018-08-06T10:21:54Z</time>
      </trkpt>
      <trkpt lat="45.93567" lon="4.77469">
        <ele>169</ele>
        <time>2018-08-06T10:21:55Z</time>
      </trkpt>
      <trkpt lat="45.93565" lon="4.77462">
        <ele>169</ele>
        <time>2018-08-06T10:21:56Z</time>
      </trkpt>
      <trkpt lat="45.93564" lon="4.77455">
        <ele>169</ele>
        <time>2018-08-06T10:21:57Z</time>
      </trkpt>
      <trkpt lat="45.93562" lon="4.77445">
        <ele>169</ele>
        <time>2018-08-06T10:21:58Z</time>
      </trkpt>
      <trkpt lat="45.9356" lon="4.77439">
        <ele>169</ele>
        <time>2018-08-06T10:21:59Z</time>
      </trkpt>
      <trkpt lat="45.93557" lon="4.77428">
        <ele>170</ele>
        <time>2018-08-06T10:22:00Z</time>
      </trkpt>
      <trkpt lat="45.93553" lon="4.7742">
        <ele>170</ele>
        <time>2018-08-06T10:22:01Z</time>
      </trkpt>
      <trkpt lat="45.9355" lon="4.77409">
        <ele>170</ele>
        <time>2018-08-06T10:22:02Z</time>
      </trkpt>
      <trkpt lat="45.93549" lon="4.77398">
        <ele>170</ele>
        <time>2018-08-06T10:22:03Z</time>
      </trkpt>
      <trkpt lat="45.93546" lon="4.77391">
        <ele>170</ele>
        <time>2018-08-06T10:22:04Z</time>
      </trkpt>
      <trkpt lat="45.93545" lon="4.77383">
        <ele>170</ele>
        <time>2018-08-06T10:22:05Z</time>
      </trkpt>
      <trkpt lat="45.93543" lon="4.77372">
        <ele>170</ele>
        <time>2018-08-06T10:22:06Z</time>
      </trkpt>
      <trkpt lat="45.9354" lon="4.77364">
        <ele>170</ele>
        <time>2018-08-06T10:22:07Z</time>
      </trkpt>
      <trkpt lat="45.93538" lon="4.77354">
        <ele>170</ele>
        <time>2018-08-06T10:22:08Z</time>
      </trkpt>
      <trkpt lat="45.93536" lon="4.77346">
        <ele>170</ele>
        <time>2018-08-06T10:22:09Z</time>
      </trkpt>
      <trkpt lat="45.93534" lon="4.77339">
        <ele>170</ele>
        <time>2018-08-06T10:22:10Z</time>
      </trkpt>
      <trkpt lat="45.93531" lon="4.77331">
        <ele>170</ele>
        <time>2018-08-06T10:22:11Z</time>
      </trkpt>
      <trkpt lat="45.93529" lon="4.77322">
        <ele>170</ele>
        <time>2018-08-06T10:22:12Z</time>
      </trkpt>
      <trkpt lat="45.93527" lon="4.77314">
        <ele>170</ele>
        <time>2018-08-06T10:22:13Z</time>
      </trkpt>
      <trkpt lat="45.93525" lon="4.77306">
        <ele>170</ele>
        <time>2018-08-06T10:22:14Z</time>
      </trkpt>
      <trkpt lat="45.93526" lon="4.77299">
        <ele>170</ele>
        <time>2018-08-06T10:22:15Z</time>
      </trkpt>
      <trkpt lat="45.93524" lon="4.77293">
        <ele>170</ele>
        <time>2018-08-06T10:22:16Z</time>
      </trkpt>
      <trkpt lat="45.93526" lon="4.77286">
        <ele>170</ele>
        <time>2018-08-06T10:22:17Z</time>
      </trkpt>
      <trkpt lat="45.93523" lon="4.77278">
        <ele>170</ele>
        <time>2018-08-06T10:22:18Z</time>
      </trkpt>
      <trkpt lat="45.93519" lon="4.77269">
        <ele>170</ele>
        <time>2018-08-06T10:22:19Z</time>
      </trkpt>
      <trkpt lat="45.93519" lon="4.77261">
        <ele>170</ele>
        <time>2018-08-06T10:22:20Z</time>
      </trkpt>
      <trkpt lat="45.93518" lon="4.77253">
        <ele>170</ele>
        <time>2018-08-06T10:22:21Z</time>
      </trkpt>
      <trkpt lat="45.93516" lon="4.77245">
        <ele>169</ele>
        <time>2018-08-06T10:22:22Z</time>
      </trkpt>
      <trkpt lat="45.93515" lon="4.77239">
        <ele>169</ele>
        <time>2018-08-06T10:22:23Z</time>
      </trkpt>
      <trkpt lat="45.93514" lon="4.77229">
        <ele>169</ele>
        <time>2018-08-06T10:22:24Z</time>
      </trkpt>
      <trkpt lat="45.93512" lon="4.77223">
        <ele>169</ele>
        <time>2018-08-06T10:22:25Z</time>
      </trkpt>
      <trkpt lat="45.93509" lon="4.77215">
        <ele>169</ele>
        <time>2018-08-06T10:22:26Z</time>
      </trkpt>
      <trkpt lat="45.93506" lon="4.77205">
        <ele>169</ele>
        <time>2018-08-06T10:22:27Z</time>
      </trkpt>
      <trkpt lat="45.93503" lon="4.77197">
        <ele>169</ele>
        <time>2018-08-06T10:22:28Z</time>
      </trkpt>
      <trkpt lat="45.93501" lon="4.77189">
        <ele>169</ele>
        <time>2018-08-06T10:22:29Z</time>
      </trkpt>
      <trkpt lat="45.93499" lon="4.77181">
        <ele>169</ele>
        <time>2018-08-06T10:22:30Z</time>
      </trkpt>
      <trkpt lat="45.93497" lon="4.77175">
        <ele>169</ele>
        <time>2018-08-06T10:22:31Z</time>
      </trkpt>
      <trkpt lat="45.93497" lon="4.77167">
        <ele>169</ele>
        <time>2018-08-06T10:22:32Z</time>
      </trkpt>
      <trkpt lat="45.93496" lon="4.77159">
        <ele>169</ele>
        <time>2018-08-06T10:22:33Z</time>
      </trkpt>
      <trkpt lat="45.93496" lon="4.77152">
        <ele>169</ele>
        <time>2018-08-06T10:22:34Z</time>
      </trkpt>
      <trkpt lat="45.93497" lon="4.77145">
        <ele>169</ele>
        <time>2018-08-06T10:22:35Z</time>
      </trkpt>
      <trkpt lat="45.93492" lon="4.77137">
        <ele>169</ele>
        <time>2018-08-06T10:22:36Z</time>
      </trkpt>
      <trkpt lat="45.93496" lon="4.77131">
        <ele>169</ele>
        <time>2018-08-06T10:22:37Z</time>
      </trkpt>
      <trkpt lat="45.93492" lon="4.77125">
        <ele>169</ele>
        <time>2018-08-06T10:22:38Z</time>
      </trkpt>
      <trkpt lat="45.93488" lon="4.77118">
        <ele>169</ele>
        <time>2018-08-06T10:22:39Z</time>
      </trkpt>
      <trkpt lat="45.93488" lon="4.77106">
        <ele>169</ele>
        <time>2018-08-06T10:22:41Z</time>
      </trkpt>
      <trkpt lat="45.93486" lon="4.77099">
        <ele>169</ele>
        <time>2018-08-06T10:22:42Z</time>
      </trkpt>
      <trkpt lat="45.93484" lon="4.77091">
        <ele>169</ele>
        <time>2018-08-06T10:22:43Z</time>
      </trkpt>
      <trkpt lat="45.93485" lon="4.77083">
        <ele>170</ele>
        <time>2018-08-06T10:22:44Z</time>
      </trkpt>
      <trkpt lat="45.93486" lon="4.77076">
        <ele>170</ele>
        <time>2018-08-06T10:22:45Z</time>
      </trkpt>
      <trkpt lat="45.93483" lon="4.77068">
        <ele>170</ele>
        <time>2018-08-06T10:22:46Z</time>
      </trkpt>
      <trkpt lat="45.93481" lon="4.77061">
        <ele>170</ele>
        <time>2018-08-06T10:22:47Z</time>
      </trkpt>
      <trkpt lat="45.9348" lon="4.7705">
        <ele>170</ele>
        <time>2018-08-06T10:22:48Z</time>
      </trkpt>
      <trkpt lat="45.93478" lon="4.77042">
        <ele>170</ele>
        <time>2018-08-06T10:22:49Z</time>
      </trkpt>
      <trkpt lat="45.93476" lon="4.77033">
        <ele>170</ele>
        <time>2018-08-06T10:22:50Z</time>
      </trkpt>
      <trkpt lat="45.93474" lon="4.77025">
        <ele>170</ele>
        <time>2018-08-06T10:22:51Z</time>
      </trkpt>
      <trkpt lat="45.93472" lon="4.77017">
        <ele>170</ele>
        <time>2018-08-06T10:22:52Z</time>
      </trkpt>
      <trkpt lat="45.93471" lon="4.77009">
        <ele>170</ele>
        <time>2018-08-06T10:22:53Z</time>
      </trkpt>
      <trkpt lat="45.9347" lon="4.77">
        <ele>170</ele>
        <time>2018-08-06T10:22:54Z</time>
      </trkpt>
      <trkpt lat="45.93468" lon="4.76991">
        <ele>170</ele>
        <time>2018-08-06T10:22:55Z</time>
      </trkpt>
      <trkpt lat="45.93467" lon="4.76983">
        <ele>170</ele>
        <time>2018-08-06T10:22:56Z</time>
      </trkpt>
      <trkpt lat="45.93465" lon="4.76974">
        <ele>170</ele>
        <time>2018-08-06T10:22:57Z</time>
      </trkpt>
      <trkpt lat="45.93464" lon="4.76966">
        <ele>170</ele>
        <time>2018-08-06T10:22:58Z</time>
      </trkpt>
      <trkpt lat="45.93463" lon="4.76957">
        <ele>170</ele>
        <time>2018-08-06T10:22:59Z</time>
      </trkpt>
      <trkpt lat="45.93463" lon="4.76949">
        <ele>170</ele>
        <time>2018-08-06T10:23:00Z</time>
      </trkpt>
      <trkpt lat="45.9346" lon="4.76943">
        <ele>170</ele>
        <time>2018-08-06T10:23:01Z</time>
      </trkpt>
      <trkpt lat="45.93459" lon="4.76934">
        <ele>170</ele>
        <time>2018-08-06T10:23:02Z</time>
      </trkpt>
      <trkpt lat="45.93458" lon="4.76925">
        <ele>170</ele>
        <time>2018-08-06T10:23:03Z</time>
      </trkpt>
      <trkpt lat="45.93457" lon="4.76917">
        <ele>170</ele>
        <time>2018-08-06T10:23:04Z</time>
      </trkpt>
      <trkpt lat="45.93454" lon="4.7691">
        <ele>170</ele>
        <time>2018-08-06T10:23:05Z</time>
      </trkpt>
      <trkpt lat="45.93451" lon="4.76902">
        <ele>170</ele>
        <time>2018-08-06T10:23:06Z</time>
      </trkpt>
      <trkpt lat="45.93448" lon="4.76894">
        <ele>170</ele>
        <time>2018-08-06T10:23:07Z</time>
      </trkpt>
      <trkpt lat="45.93444" lon="4.76886">
        <ele>170</ele>
        <time>2018-08-06T10:23:08Z</time>
      </trkpt>
      <trkpt lat="45.93444" lon="4.76878">
        <ele>170</ele>
        <time>2018-08-06T10:23:09Z</time>
      </trkpt>
      <trkpt lat="45.93442" lon="4.76871">
        <ele>171</ele>
        <time>2018-08-06T10:23:10Z</time>
      </trkpt>
      <trkpt lat="45.9344" lon="4.76859">
        <ele>171</ele>
        <time>2018-08-06T10:23:12Z</time>
      </trkpt>
      <trkpt lat="45.93435" lon="4.76851">
        <ele>171</ele>
        <time>2018-08-06T10:23:13Z</time>
      </trkpt>
      <trkpt lat="45.93432" lon="4.76845">
        <ele>171</ele>
        <time>2018-08-06T10:23:14Z</time>
      </trkpt>
      <trkpt lat="45.93428" lon="4.76837">
        <ele>171</ele>
        <time>2018-08-06T10:23:15Z</time>
      </trkpt>
      <trkpt lat="45.93423" lon="4.76829">
        <ele>172</ele>
        <time>2018-08-06T10:23:16Z</time>
      </trkpt>
      <trkpt lat="45.9342" lon="4.7682">
        <ele>171</ele>
        <time>2018-08-06T10:23:17Z</time>
      </trkpt>
      <trkpt lat="45.93417" lon="4.76813">
        <ele>171</ele>
        <time>2018-08-06T10:23:18Z</time>
      </trkpt>
      <trkpt lat="45.93413" lon="4.76807">
        <ele>172</ele>
        <time>2018-08-06T10:23:19Z</time>
      </trkpt>
      <trkpt lat="45.9341" lon="4.768">
        <ele>172</ele>
        <time>2018-08-06T10:23:20Z</time>
      </trkpt>
      <trkpt lat="45.93406" lon="4.76794">
        <ele>172</ele>
        <time>2018-08-06T10:23:21Z</time>
      </trkpt>
      <trkpt lat="45.934" lon="4.76789">
        <ele>172</ele>
        <time>2018-08-06T10:23:22Z</time>
      </trkpt>
      <trkpt lat="45.93393" lon="4.76785">
        <ele>172</ele>
        <time>2018-08-06T10:23:23Z</time>
      </trkpt>
      <trkpt lat="45.93389" lon="4.76778">
        <ele>172</ele>
        <time>2018-08-06T10:23:24Z</time>
      </trkpt>
      <trkpt lat="45.93386" lon="4.76775">
        <ele>172</ele>
        <time>2018-08-06T10:23:25Z</time>
      </trkpt>
      <trkpt lat="45.93382" lon="4.7677">
        <ele>172</ele>
        <time>2018-08-06T10:23:26Z</time>
      </trkpt>
      <trkpt lat="45.93378" lon="4.76766">
        <ele>172</ele>
        <time>2018-08-06T10:23:27Z</time>
      </trkpt>
      <trkpt lat="45.93373" lon="4.76761">
        <ele>172</ele>
        <time>2018-08-06T10:23:28Z</time>
      </trkpt>
      <trkpt lat="45.93368" lon="4.76758">
        <ele>172</ele>
        <time>2018-08-06T10:23:29Z</time>
      </trkpt>
      <trkpt lat="45.93363" lon="4.76754">
        <ele>172</ele>
        <time>2018-08-06T10:23:30Z</time>
      </trkpt>
      <trkpt lat="45.9336" lon="4.76749">
        <ele>172</ele>
        <time>2018-08-06T10:23:31Z</time>
      </trkpt>
      <trkpt lat="45.93354" lon="4.76746">
        <ele>172</ele>
        <time>2018-08-06T10:23:32Z</time>
      </trkpt>
      <trkpt lat="45.93349" lon="4.7674">
        <ele>172</ele>
        <time>2018-08-06T10:23:33Z</time>
      </trkpt>
      <trkpt lat="45.93341" lon="4.76735">
        <ele>172</ele>
        <time>2018-08-06T10:23:34Z</time>
      </trkpt>
      <trkpt lat="45.93337" lon="4.7673">
        <ele>172</ele>
        <time>2018-08-06T10:23:35Z</time>
      </trkpt>
      <trkpt lat="45.93332" lon="4.76726">
        <ele>172</ele>
        <time>2018-08-06T10:23:36Z</time>
      </trkpt>
      <trkpt lat="45.93329" lon="4.7672">
        <ele>172</ele>
        <time>2018-08-06T10:23:37Z</time>
      </trkpt>
      <trkpt lat="45.93324" lon="4.7671">
        <ele>172</ele>
        <time>2018-08-06T10:23:39Z</time>
      </trkpt>
      <trkpt lat="45.9332" lon="4.76705">
        <ele>172</ele>
        <time>2018-08-06T10:23:40Z</time>
      </trkpt>
      <trkpt lat="45.93316" lon="4.767">
        <ele>172</ele>
        <time>2018-08-06T10:23:41Z</time>
      </trkpt>
      <trkpt lat="45.93312" lon="4.76696">
        <ele>172</ele>
        <time>2018-08-06T10:23:42Z</time>
      </trkpt>
      <trkpt lat="45.93306" lon="4.76691">
        <ele>172</ele>
        <time>2018-08-06T10:23:43Z</time>
      </trkpt>
      <trkpt lat="45.93304" lon="4.7669">
        <ele>172</ele>
        <time>2018-08-06T10:23:44Z</time>
      </trkpt>
      <trkpt lat="45.93298" lon="4.76685">
        <ele>172</ele>
        <time>2018-08-06T10:23:45Z</time>
      </trkpt>
      <trkpt lat="45.93294" lon="4.76681">
        <ele>172</ele>
        <time>2018-08-06T10:23:46Z</time>
      </trkpt>
      <trkpt lat="45.9329" lon="4.76676">
        <ele>172</ele>
        <time>2018-08-06T10:23:47Z</time>
      </trkpt>
      <trkpt lat="45.93285" lon="4.76672">
        <ele>172</ele>
        <time>2018-08-06T10:23:48Z</time>
      </trkpt>
      <trkpt lat="45.93279" lon="4.76666">
        <ele>170</ele>
        <time>2018-08-06T10:23:49Z</time>
      </trkpt>
      <trkpt lat="45.93275" lon="4.76662">
        <ele>170</ele>
        <time>2018-08-06T10:23:50Z</time>
      </trkpt>
      <trkpt lat="45.93272" lon="4.76658">
        <ele>171</ele>
        <time>2018-08-06T10:23:51Z</time>
      </trkpt>
      <trkpt lat="45.93265" lon="4.76654">
        <ele>171</ele>
        <time>2018-08-06T10:23:52Z</time>
      </trkpt>
      <trkpt lat="45.93259" lon="4.7665">
        <ele>171</ele>
        <time>2018-08-06T10:23:53Z</time>
      </trkpt>
      <trkpt lat="45.93256" lon="4.76645">
        <ele>170</ele>
        <time>2018-08-06T10:23:54Z</time>
      </trkpt>
      <trkpt lat="45.9325" lon="4.76635">
        <ele>170</ele>
        <time>2018-08-06T10:23:56Z</time>
      </trkpt>
      <trkpt lat="45.93242" lon="4.76629">
        <ele>170</ele>
        <time>2018-08-06T10:23:57Z</time>
      </trkpt>
      <trkpt lat="45.93235" lon="4.76622">
        <ele>170</ele>
        <time>2018-08-06T10:23:58Z</time>
      </trkpt>
      <trkpt lat="45.9323" lon="4.76618">
        <ele>170</ele>
        <time>2018-08-06T10:23:59Z</time>
      </trkpt>
      <trkpt lat="45.93223" lon="4.7661">
        <ele>170</ele>
        <time>2018-08-06T10:24:01Z</time>
      </trkpt>
      <trkpt lat="45.93218" lon="4.76607">
        <ele>170</ele>
        <time>2018-08-06T10:24:02Z</time>
      </trkpt>
      <trkpt lat="45.9321" lon="4.76602">
        <ele>170</ele>
        <time>2018-08-06T10:24:03Z</time>
      </trkpt>
      <trkpt lat="45.93203" lon="4.76597">
        <ele>170</ele>
        <time>2018-08-06T10:24:04Z</time>
      </trkpt>
      <trkpt lat="45.93199" lon="4.76592">
        <ele>170</ele>
        <time>2018-08-06T10:24:05Z</time>
      </trkpt>
      <trkpt lat="45.93194" lon="4.76587">
        <ele>170</ele>
        <time>2018-08-06T10:24:06Z</time>
      </trkpt>
      <trkpt lat="45.93187" lon="4.76579">
        <ele>170</ele>
        <time>2018-08-06T10:24:08Z</time>
      </trkpt>
      <trkpt lat="45.93185" lon="4.76578">
        <ele>170</ele>
        <time>2018-08-06T10:24:09Z</time>
      </trkpt>
      <trkpt lat="45.9318" lon="4.76571">
        <ele>170</ele>
        <time>2018-08-06T10:24:10Z</time>
      </trkpt>
      <trkpt lat="45.93177" lon="4.76565">
        <ele>170</ele>
        <time>2018-08-06T10:24:11Z</time>
      </trkpt>
      <trkpt lat="45.9317" lon="4.76556">
        <ele>170</ele>
        <time>2018-08-06T10:24:13Z</time>
      </trkpt>
      <trkpt lat="45.93165" lon="4.7655">
        <ele>170</ele>
        <time>2018-08-06T10:24:14Z</time>
      </trkpt>
      <trkpt lat="45.93159" lon="4.76542">
        <ele>170</ele>
        <time>2018-08-06T10:24:16Z</time>
      </trkpt>
      <trkpt lat="45.93154" lon="4.76538">
        <ele>170</ele>
        <time>2018-08-06T10:24:17Z</time>
      </trkpt>
      <trkpt lat="45.93149" lon="4.76534">
        <ele>170</ele>
        <time>2018-08-06T10:24:18Z</time>
      </trkpt>
      <trkpt lat="45.93143" lon="4.76527">
        <ele>170</ele>
        <time>2018-08-06T10:24:19Z</time>
      </trkpt>
      <trkpt lat="45.93134" lon="4.76522">
        <ele>170</ele>
        <time>2018-08-06T10:24:20Z</time>
      </trkpt>
      <trkpt lat="45.93127" lon="4.76519">
        <ele>170</ele>
        <time>2018-08-06T10:24:21Z</time>
      </trkpt>
      <trkpt lat="45.93123" lon="4.76514">
        <ele>170</ele>
        <time>2018-08-06T10:24:22Z</time>
      </trkpt>
      <trkpt lat="45.93119" lon="4.76511">
        <ele>170</ele>
        <time>2018-08-06T10:24:23Z</time>
      </trkpt>
      <trkpt lat="45.93113" lon="4.76504">
        <ele>170</ele>
        <time>2018-08-06T10:24:24Z</time>
      </trkpt>
      <trkpt lat="45.93108" lon="4.76496">
        <ele>169</ele>
        <time>2018-08-06T10:24:25Z</time>
      </trkpt>
      <trkpt lat="45.93105" lon="4.76492">
        <ele>169</ele>
        <time>2018-08-06T10:24:26Z</time>
      </trkpt>
      <trkpt lat="45.93102" lon="4.76487">
        <ele>169</ele>
        <time>2018-08-06T10:24:27Z</time>
      </trkpt>
      <trkpt lat="45.93097" lon="4.76484">
        <ele>169</ele>
        <time>2018-08-06T10:24:28Z</time>
      </trkpt>
      <trkpt lat="45.9309" lon="4.76477">
        <ele>169</ele>
        <time>2018-08-06T10:24:30Z</time>
      </trkpt>
      <trkpt lat="45.93088" lon="4.76476">
        <ele>169</ele>
        <time>2018-08-06T10:24:31Z</time>
      </trkpt>
      <trkpt lat="45.93081" lon="4.7647">
        <ele>169</ele>
        <time>2018-08-06T10:24:32Z</time>
      </trkpt>
      <trkpt lat="45.93073" lon="4.76465">
        <ele>169</ele>
        <time>2018-08-06T10:24:33Z</time>
      </trkpt>
      <trkpt lat="45.93067" lon="4.76459">
        <ele>169</ele>
        <time>2018-08-06T10:24:34Z</time>
      </trkpt>
      <trkpt lat="45.93062" lon="4.76453">
        <ele>169</ele>
        <time>2018-08-06T10:24:35Z</time>
      </trkpt>
      <trkpt lat="45.93057" lon="4.76447">
        <ele>169</ele>
        <time>2018-08-06T10:24:36Z</time>
      </trkpt>
      <trkpt lat="45.93055" lon="4.76445">
        <ele>169</ele>
        <time>2018-08-06T10:24:37Z</time>
      </trkpt>
      <trkpt lat="45.93048" lon="4.76439">
        <ele>169</ele>
        <time>2018-08-06T10:24:38Z</time>
      </trkpt>
      <trkpt lat="45.93043" lon="4.76436">
        <ele>169</ele>
        <time>2018-08-06T10:24:39Z</time>
      </trkpt>
      <trkpt lat="45.93037" lon="4.76426">
        <ele>169</ele>
        <time>2018-08-06T10:24:41Z</time>
      </trkpt>
      <trkpt lat="45.93035" lon="4.76424">
        <ele>169</ele>
        <time>2018-08-06T10:24:42Z</time>
      </trkpt>
      <trkpt lat="45.93028" lon="4.76421">
        <ele>169</ele>
        <time>2018-08-06T10:24:43Z</time>
      </trkpt>
      <trkpt lat="45.93026" lon="4.76419">
        <ele>169</ele>
        <time>2018-08-06T10:24:44Z</time>
      </trkpt>
      <trkpt lat="45.93019" lon="4.76411">
        <ele>169</ele>
        <time>2018-08-06T10:24:45Z</time>
      </trkpt>
      <trkpt lat="45.93013" lon="4.76406">
        <ele>169</ele>
        <time>2018-08-06T10:24:46Z</time>
      </trkpt>
      <trkpt lat="45.93008" lon="4.76401">
        <ele>169</ele>
        <time>2018-08-06T10:24:47Z</time>
      </trkpt>
      <trkpt lat="45.93005" lon="4.76396">
        <ele>169</ele>
        <time>2018-08-06T10:24:48Z</time>
      </trkpt>
      <trkpt lat="45.93001" lon="4.76391">
        <ele>169</ele>
        <time>2018-08-06T10:24:49Z</time>
      </trkpt>
      <trkpt lat="45.92996" lon="4.76385">
        <ele>169</ele>
        <time>2018-08-06T10:24:50Z</time>
      </trkpt>
      <trkpt lat="45.92991" lon="4.76382">
        <ele>169</ele>
        <time>2018-08-06T10:24:51Z</time>
      </trkpt>
      <trkpt lat="45.92987" lon="4.76377">
        <ele>169</ele>
        <time>2018-08-06T10:24:52Z</time>
      </trkpt>
      <trkpt lat="45.92985" lon="4.76371">
        <ele>169</ele>
        <time>2018-08-06T10:24:53Z</time>
      </trkpt>
      <trkpt lat="45.92978" lon="4.76365">
        <ele>169</ele>
        <time>2018-08-06T10:24:54Z</time>
      </trkpt>
      <trkpt lat="45.92972" lon="4.76357">
        <ele>169</ele>
        <time>2018-08-06T10:24:55Z</time>
      </trkpt>
      <trkpt lat="45.92966" lon="4.76353">
        <ele>169</ele>
        <time>2018-08-06T10:24:56Z</time>
      </trkpt>
      <trkpt lat="45.92961" lon="4.76349">
        <ele>169</ele>
        <time>2018-08-06T10:24:57Z</time>
      </trkpt>
      <trkpt lat="45.92953" lon="4.76345">
        <ele>169</ele>
        <time>2018-08-06T10:24:58Z</time>
      </trkpt>
      <trkpt lat="45.92947" lon="4.76337">
        <ele>169</ele>
        <time>2018-08-06T10:25:00Z</time>
      </trkpt>
      <trkpt lat="45.92943" lon="4.76333">
        <ele>169</ele>
        <time>2018-08-06T10:25:01Z</time>
      </trkpt>
      <trkpt lat="45.92939" lon="4.76326">
        <ele>169</ele>
        <time>2018-08-06T10:25:03Z</time>
      </trkpt>
      <trkpt lat="45.92932" lon="4.76321">
        <ele>169</ele>
        <time>2018-08-06T10:25:04Z</time>
      </trkpt>
      <trkpt lat="45.92927" lon="4.76317">
        <ele>169</ele>
        <time>2018-08-06T10:25:05Z</time>
      </trkpt>
      <trkpt lat="45.92922" lon="4.76311">
        <ele>169</ele>
        <time>2018-08-06T10:25:06Z</time>
      </trkpt>
      <trkpt lat="45.92917" lon="4.763">
        <ele>168</ele>
        <time>2018-08-06T10:25:08Z</time>
      </trkpt>
      <trkpt lat="45.92916" lon="4.76297">
        <ele>169</ele>
        <time>2018-08-06T10:25:09Z</time>
      </trkpt>
      <trkpt lat="45.92909" lon="4.7629">
        <ele>169</ele>
        <time>2018-08-06T10:25:10Z</time>
      </trkpt>
      <trkpt lat="45.92905" lon="4.76286">
        <ele>169</ele>
        <time>2018-08-06T10:25:11Z</time>
      </trkpt>
      <trkpt lat="45.929" lon="4.76283">
        <ele>169</ele>
        <time>2018-08-06T10:25:12Z</time>
      </trkpt>
      <trkpt lat="45.92895" lon="4.76279">
        <ele>169</ele>
        <time>2018-08-06T10:25:13Z</time>
      </trkpt>
      <trkpt lat="45.9289" lon="4.76276">
        <ele>169</ele>
        <time>2018-08-06T10:25:14Z</time>
      </trkpt>
      <trkpt lat="45.92886" lon="4.7627">
        <ele>169</ele>
        <time>2018-08-06T10:25:15Z</time>
      </trkpt>
      <trkpt lat="45.92882" lon="4.76265">
        <ele>169</ele>
        <time>2018-08-06T10:25:16Z</time>
      </trkpt>
      <trkpt lat="45.92878" lon="4.76261">
        <ele>169</ele>
        <time>2018-08-06T10:25:17Z</time>
      </trkpt>
      <trkpt lat="45.92873" lon="4.76255">
        <ele>169</ele>
        <time>2018-08-06T10:25:18Z</time>
      </trkpt>
      <trkpt lat="45.92867" lon="4.76249">
        <ele>168</ele>
        <time>2018-08-06T10:25:19Z</time>
      </trkpt>
      <trkpt lat="45.92863" lon="4.76244">
        <ele>168</ele>
        <time>2018-08-06T10:25:20Z</time>
      </trkpt>
      <trkpt lat="45.9286" lon="4.7624">
        <ele>168</ele>
        <time>2018-08-06T10:25:21Z</time>
      </trkpt>
      <trkpt lat="45.92856" lon="4.76235">
        <ele>168</ele>
        <time>2018-08-06T10:25:22Z</time>
      </trkpt>
      <trkpt lat="45.92851" lon="4.76233">
        <ele>168</ele>
        <time>2018-08-06T10:25:23Z</time>
      </trkpt>
      <trkpt lat="45.92846" lon="4.76226">
        <ele>168</ele>
        <time>2018-08-06T10:25:24Z</time>
      </trkpt>
      <trkpt lat="45.92844" lon="4.76224">
        <ele>168</ele>
        <time>2018-08-06T10:25:25Z</time>
      </trkpt>
      <trkpt lat="45.92833" lon="4.76218">
        <ele>168</ele>
        <time>2018-08-06T10:25:26Z</time>
      </trkpt>
      <trkpt lat="45.92827" lon="4.76213">
        <ele>168</ele>
        <time>2018-08-06T10:25:27Z</time>
      </trkpt>
      <trkpt lat="45.92824" lon="4.76208">
        <ele>168</ele>
        <time>2018-08-06T10:25:28Z</time>
      </trkpt>
      <trkpt lat="45.92819" lon="4.76203">
        <ele>168</ele>
        <time>2018-08-06T10:25:29Z</time>
      </trkpt>
      <trkpt lat="45.92815" lon="4.76199">
        <ele>168</ele>
        <time>2018-08-06T10:25:30Z</time>
      </trkpt>
      <trkpt lat="45.92813" lon="4.76195">
        <ele>168</ele>
        <time>2018-08-06T10:25:32Z</time>
      </trkpt>
      <trkpt lat="45.92806" lon="4.76189">
        <ele>168</ele>
        <time>2018-08-06T10:25:33Z</time>
      </trkpt>
      <trkpt lat="45.928" lon="4.76183">
        <ele>168</ele>
        <time>2018-08-06T10:25:34Z</time>
      </trkpt>
      <trkpt lat="45.92794" lon="4.76178">
        <ele>168</ele>
        <time>2018-08-06T10:25:35Z</time>
      </trkpt>
      <trkpt lat="45.92787" lon="4.76173">
        <ele>167</ele>
        <time>2018-08-06T10:25:36Z</time>
      </trkpt>
      <trkpt lat="45.92784" lon="4.76169">
        <ele>167</ele>
        <time>2018-08-06T10:25:37Z</time>
      </trkpt>
      <trkpt lat="45.92775" lon="4.76164">
        <ele>167</ele>
        <time>2018-08-06T10:25:38Z</time>
      </trkpt>
      <trkpt lat="45.92768" lon="4.76159">
        <ele>167</ele>
        <time>2018-08-06T10:25:39Z</time>
      </trkpt>
      <trkpt lat="45.92763" lon="4.76155">
        <ele>167</ele>
        <time>2018-08-06T10:25:40Z</time>
      </trkpt>
      <trkpt lat="45.92761" lon="4.76151">
        <ele>167</ele>
        <time>2018-08-06T10:25:41Z</time>
      </trkpt>
      <trkpt lat="45.92755" lon="4.76146">
        <ele>167</ele>
        <time>2018-08-06T10:25:42Z</time>
      </trkpt>
      <trkpt lat="45.92753" lon="4.76143">
        <ele>167</ele>
        <time>2018-08-06T10:25:43Z</time>
      </trkpt>
      <trkpt lat="45.92747" lon="4.7614">
        <ele>168</ele>
        <time>2018-08-06T10:25:44Z</time>
      </trkpt>
      <trkpt lat="45.92739" lon="4.76136">
        <ele>168</ele>
        <time>2018-08-06T10:25:45Z</time>
      </trkpt>
      <trkpt lat="45.92732" lon="4.76133">
        <ele>168</ele>
        <time>2018-08-06T10:25:46Z</time>
      </trkpt>
      <trkpt lat="45.92729" lon="4.7613">
        <ele>168</ele>
        <time>2018-08-06T10:25:47Z</time>
      </trkpt>
      <trkpt lat="45.92723" lon="4.76125">
        <ele>168</ele>
        <time>2018-08-06T10:25:48Z</time>
      </trkpt>
      <trkpt lat="45.92718" lon="4.76122">
        <ele>168</ele>
        <time>2018-08-06T10:25:49Z</time>
      </trkpt>
      <trkpt lat="45.9271" lon="4.76119">
        <ele>168</ele>
        <time>2018-08-06T10:25:50Z</time>
      </trkpt>
      <trkpt lat="45.92702" lon="4.76114">
        <ele>169</ele>
        <time>2018-08-06T10:25:51Z</time>
      </trkpt>
      <trkpt lat="45.92698" lon="4.76109">
        <ele>169</ele>
        <time>2018-08-06T10:25:52Z</time>
      </trkpt>
      <trkpt lat="45.92694" lon="4.76106">
        <ele>169</ele>
        <time>2018-08-06T10:25:53Z</time>
      </trkpt>
      <trkpt lat="45.92688" lon="4.76102">
        <ele>169</ele>
        <time>2018-08-06T10:25:54Z</time>
      </trkpt>
      <trkpt lat="45.92684" lon="4.76098">
        <ele>169</ele>
        <time>2018-08-06T10:25:55Z</time>
      </trkpt>
      <trkpt lat="45.92678" lon="4.76093">
        <ele>169</ele>
        <time>2018-08-06T10:25:56Z</time>
      </trkpt>
      <trkpt lat="45.92671" lon="4.76087">
        <ele>170</ele>
        <time>2018-08-06T10:25:58Z</time>
      </trkpt>
      <trkpt lat="45.92667" lon="4.76084">
        <ele>170</ele>
        <time>2018-08-06T10:25:59Z</time>
      </trkpt>
      <trkpt lat="45.92662" lon="4.76082">
        <ele>170</ele>
        <time>2018-08-06T10:26:00Z</time>
      </trkpt>
      <trkpt lat="45.92656" lon="4.76077">
        <ele>170</ele>
        <time>2018-08-06T10:26:01Z</time>
      </trkpt>
      <trkpt lat="45.92649" lon="4.7607">
        <ele>170</ele>
        <time>2018-08-06T10:26:03Z</time>
      </trkpt>
      <trkpt lat="45.92643" lon="4.76066">
        <ele>170</ele>
        <time>2018-08-06T10:26:04Z</time>
      </trkpt>
      <trkpt lat="45.92637" lon="4.76062">
        <ele>170</ele>
        <time>2018-08-06T10:26:05Z</time>
      </trkpt>
      <trkpt lat="45.92634" lon="4.76059">
        <ele>170</ele>
        <time>2018-08-06T10:26:06Z</time>
      </trkpt>
      <trkpt lat="45.92628" lon="4.76057">
        <ele>170</ele>
        <time>2018-08-06T10:26:07Z</time>
      </trkpt>
      <trkpt lat="45.92624" lon="4.76054">
        <ele>171</ele>
        <time>2018-08-06T10:26:08Z</time>
      </trkpt>
      <trkpt lat="45.92621" lon="4.7605">
        <ele>171</ele>
        <time>2018-08-06T10:26:10Z</time>
      </trkpt>
      <trkpt lat="45.92615" lon="4.76045">
        <ele>171</ele>
        <time>2018-08-06T10:26:11Z</time>
      </trkpt>
      <trkpt lat="45.92612" lon="4.76041">
        <ele>171</ele>
        <time>2018-08-06T10:26:12Z</time>
      </trkpt>
      <trkpt lat="45.92608" lon="4.76038">
        <ele>171</ele>
        <time>2018-08-06T10:26:13Z</time>
      </trkpt>
      <trkpt lat="45.92603" lon="4.76035">
        <ele>171</ele>
        <time>2018-08-06T10:26:14Z</time>
      </trkpt>
      <trkpt lat="45.92598" lon="4.7603">
        <ele>171</ele>
        <time>2018-08-06T10:26:15Z</time>
      </trkpt>
      <trkpt lat="45.9259" lon="4.76024">
        <ele>171</ele>
        <time>2018-08-06T10:26:17Z</time>
      </trkpt>
      <trkpt lat="45.92585" lon="4.76021">
        <ele>171</ele>
        <time>2018-08-06T10:26:18Z</time>
      </trkpt>
      <trkpt lat="45.92582" lon="4.76017">
        <ele>172</ele>
        <time>2018-08-06T10:26:19Z</time>
      </trkpt>
      <trkpt lat="45.92573" lon="4.76014">
        <ele>172</ele>
        <time>2018-08-06T10:26:20Z</time>
      </trkpt>
      <trkpt lat="45.92567" lon="4.76011">
        <ele>172</ele>
        <time>2018-08-06T10:26:21Z</time>
      </trkpt>
      <trkpt lat="45.92562" lon="4.76008">
        <ele>172</ele>
        <time>2018-08-06T10:26:22Z</time>
      </trkpt>
      <trkpt lat="45.92557" lon="4.76006">
        <ele>172</ele>
        <time>2018-08-06T10:26:23Z</time>
      </trkpt>
      <trkpt lat="45.92552" lon="4.76002">
        <ele>172</ele>
        <time>2018-08-06T10:26:24Z</time>
      </trkpt>
      <trkpt lat="45.92547" lon="4.75998">
        <ele>172</ele>
        <time>2018-08-06T10:26:25Z</time>
      </trkpt>
      <trkpt lat="45.92542" lon="4.75994">
        <ele>172</ele>
        <time>2018-08-06T10:26:26Z</time>
      </trkpt>
      <trkpt lat="45.92534" lon="4.75991">
        <ele>172</ele>
        <time>2018-08-06T10:26:27Z</time>
      </trkpt>
      <trkpt lat="45.92528" lon="4.75987">
        <ele>172</ele>
        <time>2018-08-06T10:26:28Z</time>
      </trkpt>
      <trkpt lat="45.92523" lon="4.75983">
        <ele>172</ele>
        <time>2018-08-06T10:26:29Z</time>
      </trkpt>
      <trkpt lat="45.92518" lon="4.75979">
        <ele>172</ele>
        <time>2018-08-06T10:26:30Z</time>
      </trkpt>
      <trkpt lat="45.92513" lon="4.75976">
        <ele>172</ele>
        <time>2018-08-06T10:26:31Z</time>
      </trkpt>
      <trkpt lat="45.92508" lon="4.75973">
        <ele>172</ele>
        <time>2018-08-06T10:26:32Z</time>
      </trkpt>
      <trkpt lat="45.92502" lon="4.75969">
        <ele>172</ele>
        <time>2018-08-06T10:26:33Z</time>
      </trkpt>
      <trkpt lat="45.92497" lon="4.75966">
        <ele>172</ele>
        <time>2018-08-06T10:26:34Z</time>
      </trkpt>
      <trkpt lat="45.92491" lon="4.75962">
        <ele>172</ele>
        <time>2018-08-06T10:26:35Z</time>
      </trkpt>
      <trkpt lat="45.92486" lon="4.75958">
        <ele>172</ele>
        <time>2018-08-06T10:26:36Z</time>
      </trkpt>
      <trkpt lat="45.92481" lon="4.75955">
        <ele>172</ele>
        <time>2018-08-06T10:26:37Z</time>
      </trkpt>
      <trkpt lat="45.92476" lon="4.75952">
        <ele>172</ele>
        <time>2018-08-06T10:26:38Z</time>
      </trkpt>
      <trkpt lat="45.92471" lon="4.75948">
        <ele>172</ele>
        <time>2018-08-06T10:26:39Z</time>
      </trkpt>
      <trkpt lat="45.92466" lon="4.75945">
        <ele>172</ele>
        <time>2018-08-06T10:26:40Z</time>
      </trkpt>
      <trkpt lat="45.92461" lon="4.75941">
        <ele>172</ele>
        <time>2018-08-06T10:26:41Z</time>
      </trkpt>
      <trkpt lat="45.92454" lon="4.75937">
        <ele>172</ele>
        <time>2018-08-06T10:26:42Z</time>
      </trkpt>
      <trkpt lat="45.92449" lon="4.75934">
        <ele>172</ele>
        <time>2018-08-06T10:26:43Z</time>
      </trkpt>
      <trkpt lat="45.92443" lon="4.7593">
        <ele>172</ele>
        <time>2018-08-06T10:26:44Z</time>
      </trkpt>
      <trkpt lat="45.92437" lon="4.75925">
        <ele>172</ele>
        <time>2018-08-06T10:26:45Z</time>
      </trkpt>
      <trkpt lat="45.92431" lon="4.75922">
        <ele>172</ele>
        <time>2018-08-06T10:26:46Z</time>
      </trkpt>
      <trkpt lat="45.92425" lon="4.75917">
        <ele>172</ele>
        <time>2018-08-06T10:26:47Z</time>
      </trkpt>
      <trkpt lat="45.92419" lon="4.75912">
        <ele>172</ele>
        <time>2018-08-06T10:26:48Z</time>
      </trkpt>
      <trkpt lat="45.9241" lon="4.75907">
        <ele>172</ele>
        <time>2018-08-06T10:26:49Z</time>
      </trkpt>
      <trkpt lat="45.92404" lon="4.75902">
        <ele>173</ele>
        <time>2018-08-06T10:26:50Z</time>
      </trkpt>
      <trkpt lat="45.92399" lon="4.75898">
        <ele>173</ele>
        <time>2018-08-06T10:26:51Z</time>
      </trkpt>
      <trkpt lat="45.92394" lon="4.75894">
        <ele>173</ele>
        <time>2018-08-06T10:26:52Z</time>
      </trkpt>
      <trkpt lat="45.92387" lon="4.75889">
        <ele>173</ele>
        <time>2018-08-06T10:26:53Z</time>
      </trkpt>
      <trkpt lat="45.92383" lon="4.75886">
        <ele>173</ele>
        <time>2018-08-06T10:26:54Z</time>
      </trkpt>
      <trkpt lat="45.92377" lon="4.75881">
        <ele>173</ele>
        <time>2018-08-06T10:26:55Z</time>
      </trkpt>
      <trkpt lat="45.92371" lon="4.75877">
        <ele>173</ele>
        <time>2018-08-06T10:26:56Z</time>
      </trkpt>
      <trkpt lat="45.92365" lon="4.75873">
        <ele>173</ele>
        <time>2018-08-06T10:26:57Z</time>
      </trkpt>
      <trkpt lat="45.92359" lon="4.7587">
        <ele>173</ele>
        <time>2018-08-06T10:26:58Z</time>
      </trkpt>
      <trkpt lat="45.92354" lon="4.75867">
        <ele>173</ele>
        <time>2018-08-06T10:26:59Z</time>
      </trkpt>
      <trkpt lat="45.92351" lon="4.75865">
        <ele>173</ele>
        <time>2018-08-06T10:27:00Z</time>
      </trkpt>
      <trkpt lat="45.92346" lon="4.75861">
        <ele>173</ele>
        <time>2018-08-06T10:27:01Z</time>
      </trkpt>
      <trkpt lat="45.92342" lon="4.75858">
        <ele>173</ele>
        <time>2018-08-06T10:27:02Z</time>
      </trkpt>
      <trkpt lat="45.92337" lon="4.75855">
        <ele>173</ele>
        <time>2018-08-06T10:27:03Z</time>
      </trkpt>
      <trkpt lat="45.92333" lon="4.75852">
        <ele>174</ele>
        <time>2018-08-06T10:27:04Z</time>
      </trkpt>
      <trkpt lat="45.92324" lon="4.75847">
        <ele>174</ele>
        <time>2018-08-06T10:27:06Z</time>
      </trkpt>
      <trkpt lat="45.92319" lon="4.75842">
        <ele>174</ele>
        <time>2018-08-06T10:27:07Z</time>
      </trkpt>
      <trkpt lat="45.92317" lon="4.75839">
        <ele>174</ele>
        <time>2018-08-06T10:27:08Z</time>
      </trkpt>
      <trkpt lat="45.92312" lon="4.75834">
        <ele>174</ele>
        <time>2018-08-06T10:27:09Z</time>
      </trkpt>
      <trkpt lat="45.92305" lon="4.75829">
        <ele>174</ele>
        <time>2018-08-06T10:27:11Z</time>
      </trkpt>
      <trkpt lat="45.92299" lon="4.75826">
        <ele>174</ele>
        <time>2018-08-06T10:27:12Z</time>
      </trkpt>
      <trkpt lat="45.92292" lon="4.75822">
        <ele>174</ele>
        <time>2018-08-06T10:27:13Z</time>
      </trkpt>
      <trkpt lat="45.92288" lon="4.7582">
        <ele>174</ele>
        <time>2018-08-06T10:27:14Z</time>
      </trkpt>
      <trkpt lat="45.92281" lon="4.75816">
        <ele>174</ele>
        <time>2018-08-06T10:27:15Z</time>
      </trkpt>
      <trkpt lat="45.92277" lon="4.75811">
        <ele>174</ele>
        <time>2018-08-06T10:27:16Z</time>
      </trkpt>
      <trkpt lat="45.92272" lon="4.75806">
        <ele>174</ele>
        <time>2018-08-06T10:27:17Z</time>
      </trkpt>
      <trkpt lat="45.92269" lon="4.75799">
        <ele>174</ele>
        <time>2018-08-06T10:27:18Z</time>
      </trkpt>
      <trkpt lat="45.92266" lon="4.75792">
        <ele>174</ele>
        <time>2018-08-06T10:27:19Z</time>
      </trkpt>
      <trkpt lat="45.92265" lon="4.75786">
        <ele>174</ele>
        <time>2018-08-06T10:27:20Z</time>
      </trkpt>
      <trkpt lat="45.92263" lon="4.75778">
        <ele>174</ele>
        <time>2018-08-06T10:27:21Z</time>
      </trkpt>
      <trkpt lat="45.92262" lon="4.75772">
        <ele>174</ele>
        <time>2018-08-06T10:27:22Z</time>
      </trkpt>
      <trkpt lat="45.92262" lon="4.75766">
        <ele>174</ele>
        <time>2018-08-06T10:27:23Z</time>
      </trkpt>
      <trkpt lat="45.92259" lon="4.75759">
        <ele>174</ele>
        <time>2018-08-06T10:27:24Z</time>
      </trkpt>
      <trkpt lat="45.92258" lon="4.7575">
        <ele>174</ele>
        <time>2018-08-06T10:27:25Z</time>
      </trkpt>
      <trkpt lat="45.92256" lon="4.75745">
        <ele>174</ele>
        <time>2018-08-06T10:27:26Z</time>
      </trkpt>
      <trkpt lat="45.92256" lon="4.75737">
        <ele>174</ele>
        <time>2018-08-06T10:27:27Z</time>
      </trkpt>
      <trkpt lat="45.92254" lon="4.75731">
        <ele>174</ele>
        <time>2018-08-06T10:27:28Z</time>
      </trkpt>
      <trkpt lat="45.92251" lon="4.75725">
        <ele>174</ele>
        <time>2018-08-06T10:27:29Z</time>
      </trkpt>
      <trkpt lat="45.9225" lon="4.75716">
        <ele>174</ele>
        <time>2018-08-06T10:27:30Z</time>
      </trkpt>
      <trkpt lat="45.92247" lon="4.7571">
        <ele>174</ele>
        <time>2018-08-06T10:27:31Z</time>
      </trkpt>
      <trkpt lat="45.92245" lon="4.75704">
        <ele>174</ele>
        <time>2018-08-06T10:27:32Z</time>
      </trkpt>
      <trkpt lat="45.9224" lon="4.75698">
        <ele>174</ele>
        <time>2018-08-06T10:27:33Z</time>
      </trkpt>
      <trkpt lat="45.92236" lon="4.75694">
        <ele>174</ele>
        <time>2018-08-06T10:27:34Z</time>
      </trkpt>
      <trkpt lat="45.92232" lon="4.75688">
        <ele>174</ele>
        <time>2018-08-06T10:27:35Z</time>
      </trkpt>
      <trkpt lat="45.92228" lon="4.75684">
        <ele>174</ele>
        <time>2018-08-06T10:27:36Z</time>
      </trkpt>
      <trkpt lat="45.92222" lon="4.75678">
        <ele>174</ele>
        <time>2018-08-06T10:27:37Z</time>
      </trkpt>
      <trkpt lat="45.92216" lon="4.75674">
        <ele>174</ele>
        <time>2018-08-06T10:27:38Z</time>
      </trkpt>
      <trkpt lat="45.9221" lon="4.75669">
        <ele>174</ele>
        <time>2018-08-06T10:27:39Z</time>
      </trkpt>
      <trkpt lat="45.92203" lon="4.75665">
        <ele>174</ele>
        <time>2018-08-06T10:27:40Z</time>
      </trkpt>
      <trkpt lat="45.92196" lon="4.75657">
        <ele>174</ele>
        <time>2018-08-06T10:27:41Z</time>
      </trkpt>
      <trkpt lat="45.9219" lon="4.75648">
        <ele>174</ele>
        <time>2018-08-06T10:27:43Z</time>
      </trkpt>
      <trkpt lat="45.92185" lon="4.75644">
        <ele>174</ele>
        <time>2018-08-06T10:27:44Z</time>
      </trkpt>
      <trkpt lat="45.92178" lon="4.75639">
        <ele>174</ele>
        <time>2018-08-06T10:27:45Z</time>
      </trkpt>
      <trkpt lat="45.92173" lon="4.75634">
        <ele>174</ele>
        <time>2018-08-06T10:27:46Z</time>
      </trkpt>
      <trkpt lat="45.92165" lon="4.75628">
        <ele>174</ele>
        <time>2018-08-06T10:27:48Z</time>
      </trkpt>
      <trkpt lat="45.9216" lon="4.75622">
        <ele>174</ele>
        <time>2018-08-06T10:27:49Z</time>
      </trkpt>
      <trkpt lat="45.92156" lon="4.75617">
        <ele>174</ele>
        <time>2018-08-06T10:27:50Z</time>
      </trkpt>
      <trkpt lat="45.92153" lon="4.75612">
        <ele>174</ele>
        <time>2018-08-06T10:27:51Z</time>
      </trkpt>
      <trkpt lat="45.92147" lon="4.75603">
        <ele>174</ele>
        <time>2018-08-06T10:27:53Z</time>
      </trkpt>
      <trkpt lat="45.92143" lon="4.75599">
        <ele>174</ele>
        <time>2018-08-06T10:27:54Z</time>
      </trkpt>
      <trkpt lat="45.92141" lon="4.75597">
        <ele>174</ele>
        <time>2018-08-06T10:27:55Z</time>
      </trkpt>
      <trkpt lat="45.92134" lon="4.7559">
        <ele>174</ele>
        <time>2018-08-06T10:27:56Z</time>
      </trkpt>
      <trkpt lat="45.92129" lon="4.75587">
        <ele>174</ele>
        <time>2018-08-06T10:27:57Z</time>
      </trkpt>
      <trkpt lat="45.92126" lon="4.75582">
        <ele>174</ele>
        <time>2018-08-06T10:27:58Z</time>
      </trkpt>
      <trkpt lat="45.92125" lon="4.75576">
        <ele>174</ele>
        <time>2018-08-06T10:28:00Z</time>
      </trkpt>
      <trkpt lat="45.92123" lon="4.75567">
        <ele>174</ele>
        <time>2018-08-06T10:28:01Z</time>
      </trkpt>
      <trkpt lat="45.92124" lon="4.75558">
        <ele>174</ele>
        <time>2018-08-06T10:28:03Z</time>
      </trkpt>
      <trkpt lat="45.92126" lon="4.75553">
        <ele>174</ele>
        <time>2018-08-06T10:28:04Z</time>
      </trkpt>
      <trkpt lat="45.9213" lon="4.75545">
        <ele>174</ele>
        <time>2018-08-06T10:28:06Z</time>
      </trkpt>
      <trkpt lat="45.92133" lon="4.75541">
        <ele>174</ele>
        <time>2018-08-06T10:28:07Z</time>
      </trkpt>
      <trkpt lat="45.92137" lon="4.75532">
        <ele>174</ele>
        <time>2018-08-06T10:28:09Z</time>
      </trkpt>
      <trkpt lat="45.92142" lon="4.75522">
        <ele>174</ele>
        <time>2018-08-06T10:28:10Z</time>
      </trkpt>
      <trkpt lat="45.92146" lon="4.75513">
        <ele>175</ele>
        <time>2018-08-06T10:28:12Z</time>
      </trkpt>
      <trkpt lat="45.92148" lon="4.75506">
        <ele>175</ele>
        <time>2018-08-06T10:28:13Z</time>
      </trkpt>
      <trkpt lat="45.92152" lon="4.75495">
        <ele>175</ele>
        <time>2018-08-06T10:28:14Z</time>
      </trkpt>
      <trkpt lat="45.92153" lon="4.75489">
        <ele>175</ele>
        <time>2018-08-06T10:28:15Z</time>
      </trkpt>
      <trkpt lat="45.92157" lon="4.75481">
        <ele>176</ele>
        <time>2018-08-06T10:28:16Z</time>
      </trkpt>
      <trkpt lat="45.92161" lon="4.75474">
        <ele>176</ele>
        <time>2018-08-06T10:28:17Z</time>
      </trkpt>
      <trkpt lat="45.92164" lon="4.75466">
        <ele>176</ele>
        <time>2018-08-06T10:28:18Z</time>
      </trkpt>
      <trkpt lat="45.92167" lon="4.75458">
        <ele>176</ele>
        <time>2018-08-06T10:28:19Z</time>
      </trkpt>
      <trkpt lat="45.92171" lon="4.75449">
        <ele>176</ele>
        <time>2018-08-06T10:28:20Z</time>
      </trkpt>
      <trkpt lat="45.92173" lon="4.75441">
        <ele>177</ele>
        <time>2018-08-06T10:28:21Z</time>
      </trkpt>
      <trkpt lat="45.92176" lon="4.75435">
        <ele>177</ele>
        <time>2018-08-06T10:28:22Z</time>
      </trkpt>
      <trkpt lat="45.92178" lon="4.75429">
        <ele>177</ele>
        <time>2018-08-06T10:28:23Z</time>
      </trkpt>
      <trkpt lat="45.9218" lon="4.75423">
        <ele>177</ele>
        <time>2018-08-06T10:28:24Z</time>
      </trkpt>
      <trkpt lat="45.92183" lon="4.75417">
        <ele>177</ele>
        <time>2018-08-06T10:28:25Z</time>
      </trkpt>
      <trkpt lat="45.92185" lon="4.75412">
        <ele>177</ele>
        <time>2018-08-06T10:28:26Z</time>
      </trkpt>
      <trkpt lat="45.92187" lon="4.75404">
        <ele>177</ele>
        <time>2018-08-06T10:28:27Z</time>
      </trkpt>
      <trkpt lat="45.9219" lon="4.75396">
        <ele>177</ele>
        <time>2018-08-06T10:28:28Z</time>
      </trkpt>
      <trkpt lat="45.92192" lon="4.75389">
        <ele>177</ele>
        <time>2018-08-06T10:28:29Z</time>
      </trkpt>
      <trkpt lat="45.92197" lon="4.7538">
        <ele>177</ele>
        <time>2018-08-06T10:28:31Z</time>
      </trkpt>
      <trkpt lat="45.92199" lon="4.75376">
        <ele>177</ele>
        <time>2018-08-06T10:28:32Z</time>
      </trkpt>
      <trkpt lat="45.92202" lon="4.75369">
        <ele>177</ele>
        <time>2018-08-06T10:28:33Z</time>
      </trkpt>
      <trkpt lat="45.92205" lon="4.75362">
        <ele>177</ele>
        <time>2018-08-06T10:28:34Z</time>
      </trkpt>
      <trkpt lat="45.92207" lon="4.75353">
        <ele>177</ele>
        <time>2018-08-06T10:28:35Z</time>
      </trkpt>
      <trkpt lat="45.92208" lon="4.75347">
        <ele>177</ele>
        <time>2018-08-06T10:28:36Z</time>
      </trkpt>
      <trkpt lat="45.9221" lon="4.75339">
        <ele>177</ele>
        <time>2018-08-06T10:28:37Z</time>
      </trkpt>
      <trkpt lat="45.9221" lon="4.75331">
        <ele>176</ele>
        <time>2018-08-06T10:28:38Z</time>
      </trkpt>
      <trkpt lat="45.92211" lon="4.75322">
        <ele>176</ele>
        <time>2018-08-06T10:28:39Z</time>
      </trkpt>
      <trkpt lat="45.92212" lon="4.75313">
        <ele>176</ele>
        <time>2018-08-06T10:28:40Z</time>
      </trkpt>
      <trkpt lat="45.92212" lon="4.75305">
        <ele>176</ele>
        <time>2018-08-06T10:28:41Z</time>
      </trkpt>
      <trkpt lat="45.92212" lon="4.75296">
        <ele>176</ele>
        <time>2018-08-06T10:28:42Z</time>
      </trkpt>
      <trkpt lat="45.92212" lon="4.75288">
        <ele>176</ele>
        <time>2018-08-06T10:28:43Z</time>
      </trkpt>
      <trkpt lat="45.92213" lon="4.75278">
        <ele>176</ele>
        <time>2018-08-06T10:28:44Z</time>
      </trkpt>
      <trkpt lat="45.92213" lon="4.75272">
        <ele>176</ele>
        <time>2018-08-06T10:28:45Z</time>
      </trkpt>
      <trkpt lat="45.92213" lon="4.7526">
        <ele>176</ele>
        <time>2018-08-06T10:28:46Z</time>
      </trkpt>
      <trkpt lat="45.92214" lon="4.75249">
        <ele>175</ele>
        <time>2018-08-06T10:28:47Z</time>
      </trkpt>
      <trkpt lat="45.92214" lon="4.7524">
        <ele>175</ele>
        <time>2018-08-06T10:28:48Z</time>
      </trkpt>
      <trkpt lat="45.92215" lon="4.75229">
        <ele>175</ele>
        <time>2018-08-06T10:28:49Z</time>
      </trkpt>
      <trkpt lat="45.92215" lon="4.75219">
        <ele>175</ele>
        <time>2018-08-06T10:28:50Z</time>
      </trkpt>
      <trkpt lat="45.92217" lon="4.7521">
        <ele>175</ele>
        <time>2018-08-06T10:28:51Z</time>
      </trkpt>
      <trkpt lat="45.92219" lon="4.75202">
        <ele>175</ele>
        <time>2018-08-06T10:28:52Z</time>
      </trkpt>
      <trkpt lat="45.92221" lon="4.75195">
        <ele>175</ele>
        <time>2018-08-06T10:28:53Z</time>
      </trkpt>
      <trkpt lat="45.92224" lon="4.75187">
        <ele>175</ele>
        <time>2018-08-06T10:28:54Z</time>
      </trkpt>
      <trkpt lat="45.92227" lon="4.75179">
        <ele>175</ele>
        <time>2018-08-06T10:28:55Z</time>
      </trkpt>
      <trkpt lat="45.92229" lon="4.75172">
        <ele>175</ele>
        <time>2018-08-06T10:28:56Z</time>
      </trkpt>
      <trkpt lat="45.92232" lon="4.75165">
        <ele>174</ele>
        <time>2018-08-06T10:28:57Z</time>
      </trkpt>
      <trkpt lat="45.92236" lon="4.75158">
        <ele>174</ele>
        <time>2018-08-06T10:28:58Z</time>
      </trkpt>
      <trkpt lat="45.92239" lon="4.75151">
        <ele>174</ele>
        <time>2018-08-06T10:28:59Z</time>
      </trkpt>
      <trkpt lat="45.92243" lon="4.75144">
        <ele>174</ele>
        <time>2018-08-06T10:29:00Z</time>
      </trkpt>
      <trkpt lat="45.92247" lon="4.75138">
        <ele>174</ele>
        <time>2018-08-06T10:29:01Z</time>
      </trkpt>
      <trkpt lat="45.92251" lon="4.75132">
        <ele>174</ele>
        <time>2018-08-06T10:29:02Z</time>
      </trkpt>
      <trkpt lat="45.92258" lon="4.75124">
        <ele>174</ele>
        <time>2018-08-06T10:29:04Z</time>
      </trkpt>
      <trkpt lat="45.92263" lon="4.7512">
        <ele>174</ele>
        <time>2018-08-06T10:29:05Z</time>
      </trkpt>
      <trkpt lat="45.92268" lon="4.75113">
        <ele>174</ele>
        <time>2018-08-06T10:29:06Z</time>
      </trkpt>
      <trkpt lat="45.92273" lon="4.75106">
        <ele>174</ele>
        <time>2018-08-06T10:29:07Z</time>
      </trkpt>
      <trkpt lat="45.92278" lon="4.75102">
        <ele>173</ele>
        <time>2018-08-06T10:29:08Z</time>
      </trkpt>
      <trkpt lat="45.92283" lon="4.75096">
        <ele>173</ele>
        <time>2018-08-06T10:29:09Z</time>
      </trkpt>
      <trkpt lat="45.92288" lon="4.75091">
        <ele>173</ele>
        <time>2018-08-06T10:29:10Z</time>
      </trkpt>
      <trkpt lat="45.92291" lon="4.75088">
        <ele>173</ele>
        <time>2018-08-06T10:29:11Z</time>
      </trkpt>
      <trkpt lat="45.92296" lon="4.7508">
        <ele>172</ele>
        <time>2018-08-06T10:29:12Z</time>
      </trkpt>
      <trkpt lat="45.92301" lon="4.75075">
        <ele>172</ele>
        <time>2018-08-06T10:29:13Z</time>
      </trkpt>
      <trkpt lat="45.92306" lon="4.75069">
        <ele>172</ele>
        <time>2018-08-06T10:29:14Z</time>
      </trkpt>
      <trkpt lat="45.92311" lon="4.75063">
        <ele>172</ele>
        <time>2018-08-06T10:29:15Z</time>
      </trkpt>
      <trkpt lat="45.92316" lon="4.75057">
        <ele>172</ele>
        <time>2018-08-06T10:29:16Z</time>
      </trkpt>
      <trkpt lat="45.92319" lon="4.75051">
        <ele>172</ele>
        <time>2018-08-06T10:29:17Z</time>
      </trkpt>
      <trkpt lat="45.92322" lon="4.75044">
        <ele>172</ele>
        <time>2018-08-06T10:29:18Z</time>
      </trkpt>
      <trkpt lat="45.92327" lon="4.75038">
        <ele>171</ele>
        <time>2018-08-06T10:29:19Z</time>
      </trkpt>
      <trkpt lat="45.92331" lon="4.75031">
        <ele>171</ele>
        <time>2018-08-06T10:29:20Z</time>
      </trkpt>
      <trkpt lat="45.92334" lon="4.75025">
        <ele>170</ele>
        <time>2018-08-06T10:29:21Z</time>
      </trkpt>
      <trkpt lat="45.92336" lon="4.75021">
        <ele>170</ele>
        <time>2018-08-06T10:29:22Z</time>
      </trkpt>
      <trkpt lat="45.9234" lon="4.75011">
        <ele>170</ele>
        <time>2018-08-06T10:29:23Z</time>
      </trkpt>
      <trkpt lat="45.92344" lon="4.75004">
        <ele>170</ele>
        <time>2018-08-06T10:29:24Z</time>
      </trkpt>
      <trkpt lat="45.92347" lon="4.74995">
        <ele>170</ele>
        <time>2018-08-06T10:29:25Z</time>
      </trkpt>
      <trkpt lat="45.92349" lon="4.7499">
        <ele>170</ele>
        <time>2018-08-06T10:29:26Z</time>
      </trkpt>
      <trkpt lat="45.92354" lon="4.74978">
        <ele>170</ele>
        <time>2018-08-06T10:29:27Z</time>
      </trkpt>
      <trkpt lat="45.92357" lon="4.7497">
        <ele>170</ele>
        <time>2018-08-06T10:29:28Z</time>
      </trkpt>
      <trkpt lat="45.9236" lon="4.74963">
        <ele>170</ele>
        <time>2018-08-06T10:29:29Z</time>
      </trkpt>
      <trkpt lat="45.92364" lon="4.74955">
        <ele>170</ele>
        <time>2018-08-06T10:29:30Z</time>
      </trkpt>
      <trkpt lat="45.92367" lon="4.74947">
        <ele>170</ele>
        <time>2018-08-06T10:29:31Z</time>
      </trkpt>
      <trkpt lat="45.9237" lon="4.7494">
        <ele>170</ele>
        <time>2018-08-06T10:29:32Z</time>
      </trkpt>
      <trkpt lat="45.92372" lon="4.74933">
        <ele>170</ele>
        <time>2018-08-06T10:29:33Z</time>
      </trkpt>
      <trkpt lat="45.92375" lon="4.74926">
        <ele>170</ele>
        <time>2018-08-06T10:29:34Z</time>
      </trkpt>
      <trkpt lat="45.92377" lon="4.74919">
        <ele>170</ele>
        <time>2018-08-06T10:29:35Z</time>
      </trkpt>
      <trkpt lat="45.9238" lon="4.74911">
        <ele>171</ele>
        <time>2018-08-06T10:29:36Z</time>
      </trkpt>
      <trkpt lat="45.92383" lon="4.74904">
        <ele>171</ele>
        <time>2018-08-06T10:29:37Z</time>
      </trkpt>
      <trkpt lat="45.92386" lon="4.74892">
        <ele>171</ele>
        <time>2018-08-06T10:29:38Z</time>
      </trkpt>
      <trkpt lat="45.92389" lon="4.74884">
        <ele>171</ele>
        <time>2018-08-06T10:29:39Z</time>
      </trkpt>
      <trkpt lat="45.92391" lon="4.74878">
        <ele>171</ele>
        <time>2018-08-06T10:29:40Z</time>
      </trkpt>
      <trkpt lat="45.92393" lon="4.7487">
        <ele>171</ele>
        <time>2018-08-06T10:29:41Z</time>
      </trkpt>
      <trkpt lat="45.92396" lon="4.74862">
        <ele>171</ele>
        <time>2018-08-06T10:29:42Z</time>
      </trkpt>
      <trkpt lat="45.92399" lon="4.74855">
        <ele>171</ele>
        <time>2018-08-06T10:29:43Z</time>
      </trkpt>
      <trkpt lat="45.92402" lon="4.74845">
        <ele>171</ele>
        <time>2018-08-06T10:29:44Z</time>
      </trkpt>
      <trkpt lat="45.92404" lon="4.74837">
        <ele>171</ele>
        <time>2018-08-06T10:29:45Z</time>
      </trkpt>
      <trkpt lat="45.92406" lon="4.74825">
        <ele>171</ele>
        <time>2018-08-06T10:29:47Z</time>
      </trkpt>
      <trkpt lat="45.92408" lon="4.74818">
        <ele>171</ele>
        <time>2018-08-06T10:29:48Z</time>
      </trkpt>
      <trkpt lat="45.9241" lon="4.74809">
        <ele>171</ele>
        <time>2018-08-06T10:29:49Z</time>
      </trkpt>
      <trkpt lat="45.92412" lon="4.74801">
        <ele>171</ele>
        <time>2018-08-06T10:29:50Z</time>
      </trkpt>
      <trkpt lat="45.92414" lon="4.74792">
        <ele>171</ele>
        <time>2018-08-06T10:29:51Z</time>
      </trkpt>
      <trkpt lat="45.92416" lon="4.74784">
        <ele>171</ele>
        <time>2018-08-06T10:29:52Z</time>
      </trkpt>
      <trkpt lat="45.92418" lon="4.74771">
        <ele>171</ele>
        <time>2018-08-06T10:29:54Z</time>
      </trkpt>
      <trkpt lat="45.9242" lon="4.74763">
        <ele>171</ele>
        <time>2018-08-06T10:29:55Z</time>
      </trkpt>
      <trkpt lat="45.92423" lon="4.74753">
        <ele>172</ele>
        <time>2018-08-06T10:29:56Z</time>
      </trkpt>
      <trkpt lat="45.92426" lon="4.74746">
        <ele>172</ele>
        <time>2018-08-06T10:29:57Z</time>
      </trkpt>
      <trkpt lat="45.92428" lon="4.74737">
        <ele>171</ele>
        <time>2018-08-06T10:29:58Z</time>
      </trkpt>
      <trkpt lat="45.92431" lon="4.74728">
        <ele>171</ele>
        <time>2018-08-06T10:29:59Z</time>
      </trkpt>
      <trkpt lat="45.92433" lon="4.74721">
        <ele>171</ele>
        <time>2018-08-06T10:30:00Z</time>
      </trkpt>
      <trkpt lat="45.92435" lon="4.74714">
        <ele>171</ele>
        <time>2018-08-06T10:30:01Z</time>
      </trkpt>
      <trkpt lat="45.92438" lon="4.74707">
        <ele>171</ele>
        <time>2018-08-06T10:30:02Z</time>
      </trkpt>
      <trkpt lat="45.92442" lon="4.74699">
        <ele>171</ele>
        <time>2018-08-06T10:30:03Z</time>
      </trkpt>
      <trkpt lat="45.92446" lon="4.74688">
        <ele>171</ele>
        <time>2018-08-06T10:30:05Z</time>
      </trkpt>
      <trkpt lat="45.9245" lon="4.7468">
        <ele>171</ele>
        <time>2018-08-06T10:30:06Z</time>
      </trkpt>
      <trkpt lat="45.92452" lon="4.74673">
        <ele>171</ele>
        <time>2018-08-06T10:30:07Z</time>
      </trkpt>
      <trkpt lat="45.92456" lon="4.74665">
        <ele>171</ele>
        <time>2018-08-06T10:30:08Z</time>
      </trkpt>
      <trkpt lat="45.9246" lon="4.7466">
        <ele>171</ele>
        <time>2018-08-06T10:30:09Z</time>
      </trkpt>
      <trkpt lat="45.92464" lon="4.74653">
        <ele>171</ele>
        <time>2018-08-06T10:30:10Z</time>
      </trkpt>
      <trkpt lat="45.92469" lon="4.74639">
        <ele>171</ele>
        <time>2018-08-06T10:30:11Z</time>
      </trkpt>
      <trkpt lat="45.92473" lon="4.74632">
        <ele>171</ele>
        <time>2018-08-06T10:30:12Z</time>
      </trkpt>
      <trkpt lat="45.92479" lon="4.74628">
        <ele>171</ele>
        <time>2018-08-06T10:30:13Z</time>
      </trkpt>
      <trkpt lat="45.92482" lon="4.74622">
        <ele>171</ele>
        <time>2018-08-06T10:30:14Z</time>
      </trkpt>
      <trkpt lat="45.92487" lon="4.74616">
        <ele>171</ele>
        <time>2018-08-06T10:30:15Z</time>
      </trkpt>
      <trkpt lat="45.92491" lon="4.74611">
        <ele>171</ele>
        <time>2018-08-06T10:30:16Z</time>
      </trkpt>
      <trkpt lat="45.92496" lon="4.74606">
        <ele>171</ele>
        <time>2018-08-06T10:30:17Z</time>
      </trkpt>
      <trkpt lat="45.92501" lon="4.746">
        <ele>171</ele>
        <time>2018-08-06T10:30:18Z</time>
      </trkpt>
      <trkpt lat="45.92505" lon="4.74595">
        <ele>171</ele>
        <time>2018-08-06T10:30:19Z</time>
      </trkpt>
      <trkpt lat="45.9251" lon="4.74591">
        <ele>171</ele>
        <time>2018-08-06T10:30:20Z</time>
      </trkpt>
      <trkpt lat="45.92514" lon="4.74586">
        <ele>171</ele>
        <time>2018-08-06T10:30:21Z</time>
      </trkpt>
      <trkpt lat="45.92518" lon="4.74582">
        <ele>171</ele>
        <time>2018-08-06T10:30:22Z</time>
      </trkpt>
      <trkpt lat="45.92522" lon="4.74577">
        <ele>171</ele>
        <time>2018-08-06T10:30:23Z</time>
      </trkpt>
      <trkpt lat="45.92526" lon="4.74572">
        <ele>171</ele>
        <time>2018-08-06T10:30:24Z</time>
      </trkpt>
      <trkpt lat="45.92531" lon="4.74566">
        <ele>171</ele>
        <time>2018-08-06T10:30:25Z</time>
      </trkpt>
      <trkpt lat="45.92535" lon="4.7456">
        <ele>171</ele>
        <time>2018-08-06T10:30:26Z</time>
      </trkpt>
      <trkpt lat="45.9254" lon="4.74553">
        <ele>171</ele>
        <time>2018-08-06T10:30:27Z</time>
      </trkpt>
      <trkpt lat="45.92545" lon="4.74545">
        <ele>170</ele>
        <time>2018-08-06T10:30:28Z</time>
      </trkpt>
      <trkpt lat="45.92548" lon="4.7454">
        <ele>170</ele>
        <time>2018-08-06T10:30:29Z</time>
      </trkpt>
      <trkpt lat="45.92552" lon="4.74533">
        <ele>170</ele>
        <time>2018-08-06T10:30:30Z</time>
      </trkpt>
      <trkpt lat="45.92556" lon="4.74524">
        <ele>170</ele>
        <time>2018-08-06T10:30:31Z</time>
      </trkpt>
      <trkpt lat="45.9256" lon="4.74517">
        <ele>170</ele>
        <time>2018-08-06T10:30:32Z</time>
      </trkpt>
      <trkpt lat="45.92565" lon="4.74509">
        <ele>170</ele>
        <time>2018-08-06T10:30:33Z</time>
      </trkpt>
      <trkpt lat="45.92568" lon="4.74502">
        <ele>170</ele>
        <time>2018-08-06T10:30:34Z</time>
      </trkpt>
      <trkpt lat="45.92572" lon="4.74495">
        <ele>170</ele>
        <time>2018-08-06T10:30:35Z</time>
      </trkpt>
      <trkpt lat="45.92575" lon="4.7449">
        <ele>170</ele>
        <time>2018-08-06T10:30:36Z</time>
      </trkpt>
      <trkpt lat="45.92579" lon="4.74483">
        <ele>170</ele>
        <time>2018-08-06T10:30:37Z</time>
      </trkpt>
      <trkpt lat="45.92581" lon="4.74479">
        <ele>170</ele>
        <time>2018-08-06T10:30:38Z</time>
      </trkpt>
      <trkpt lat="45.92586" lon="4.74471">
        <ele>170</ele>
        <time>2018-08-06T10:30:39Z</time>
      </trkpt>
      <trkpt lat="45.92592" lon="4.74459">
        <ele>170</ele>
        <time>2018-08-06T10:30:40Z</time>
      </trkpt>
      <trkpt lat="45.92597" lon="4.74451">
        <ele>170</ele>
        <time>2018-08-06T10:30:41Z</time>
      </trkpt>
      <trkpt lat="45.926" lon="4.74444">
        <ele>170</ele>
        <time>2018-08-06T10:30:42Z</time>
      </trkpt>
      <trkpt lat="45.92604" lon="4.74437">
        <ele>170</ele>
        <time>2018-08-06T10:30:43Z</time>
      </trkpt>
      <trkpt lat="45.92607" lon="4.74432">
        <ele>170</ele>
        <time>2018-08-06T10:30:44Z</time>
      </trkpt>
      <trkpt lat="45.92611" lon="4.74424">
        <ele>170</ele>
        <time>2018-08-06T10:30:45Z</time>
      </trkpt>
      <trkpt lat="45.92615" lon="4.74416">
        <ele>170</ele>
        <time>2018-08-06T10:30:46Z</time>
      </trkpt>
      <trkpt lat="45.92619" lon="4.74408">
        <ele>170</ele>
        <time>2018-08-06T10:30:47Z</time>
      </trkpt>
      <trkpt lat="45.92622" lon="4.74402">
        <ele>170</ele>
        <time>2018-08-06T10:30:48Z</time>
      </trkpt>
      <trkpt lat="45.92626" lon="4.74397">
        <ele>170</ele>
        <time>2018-08-06T10:30:49Z</time>
      </trkpt>
      <trkpt lat="45.92629" lon="4.74392">
        <ele>170</ele>
        <time>2018-08-06T10:30:50Z</time>
      </trkpt>
      <trkpt lat="45.92633" lon="4.74385">
        <ele>170</ele>
        <time>2018-08-06T10:30:51Z</time>
      </trkpt>
      <trkpt lat="45.92636" lon="4.74379">
        <ele>170</ele>
        <time>2018-08-06T10:30:52Z</time>
      </trkpt>
      <trkpt lat="45.92639" lon="4.74373">
        <ele>171</ele>
        <time>2018-08-06T10:30:53Z</time>
      </trkpt>
      <trkpt lat="45.92643" lon="4.74366">
        <ele>171</ele>
        <time>2018-08-06T10:30:54Z</time>
      </trkpt>
      <trkpt lat="45.92647" lon="4.74359">
        <ele>171</ele>
        <time>2018-08-06T10:30:55Z</time>
      </trkpt>
      <trkpt lat="45.9265" lon="4.74353">
        <ele>171</ele>
        <time>2018-08-06T10:30:56Z</time>
      </trkpt>
      <trkpt lat="45.92654" lon="4.74346">
        <ele>171</ele>
        <time>2018-08-06T10:30:57Z</time>
      </trkpt>
      <trkpt lat="45.92658" lon="4.74338">
        <ele>171</ele>
        <time>2018-08-06T10:30:58Z</time>
      </trkpt>
      <trkpt lat="45.92663" lon="4.7433">
        <ele>171</ele>
        <time>2018-08-06T10:30:59Z</time>
      </trkpt>
      <trkpt lat="45.92666" lon="4.74323">
        <ele>171</ele>
        <time>2018-08-06T10:31:00Z</time>
      </trkpt>
      <trkpt lat="45.92669" lon="4.74318">
        <ele>171</ele>
        <time>2018-08-06T10:31:01Z</time>
      </trkpt>
      <trkpt lat="45.92672" lon="4.74313">
        <ele>171</ele>
        <time>2018-08-06T10:31:02Z</time>
      </trkpt>
      <trkpt lat="45.92676" lon="4.74306">
        <ele>171</ele>
        <time>2018-08-06T10:31:03Z</time>
      </trkpt>
      <trkpt lat="45.9268" lon="4.74299">
        <ele>171</ele>
        <time>2018-08-06T10:31:04Z</time>
      </trkpt>
      <trkpt lat="45.92684" lon="4.74293">
        <ele>171</ele>
        <time>2018-08-06T10:31:05Z</time>
      </trkpt>
      <trkpt lat="45.92687" lon="4.74287">
        <ele>171</ele>
        <time>2018-08-06T10:31:06Z</time>
      </trkpt>
      <trkpt lat="45.9269" lon="4.7428">
        <ele>171</ele>
        <time>2018-08-06T10:31:07Z</time>
      </trkpt>
      <trkpt lat="45.92693" lon="4.74273">
        <ele>171</ele>
        <time>2018-08-06T10:31:08Z</time>
      </trkpt>
      <trkpt lat="45.92697" lon="4.74267">
        <ele>171</ele>
        <time>2018-08-06T10:31:09Z</time>
      </trkpt>
      <trkpt lat="45.92701" lon="4.74261">
        <ele>171</ele>
        <time>2018-08-06T10:31:10Z</time>
      </trkpt>
      <trkpt lat="45.92705" lon="4.74254">
        <ele>171</ele>
        <time>2018-08-06T10:31:11Z</time>
      </trkpt>
      <trkpt lat="45.92708" lon="4.74249">
        <ele>171</ele>
        <time>2018-08-06T10:31:12Z</time>
      </trkpt>
      <trkpt lat="45.92712" lon="4.74242">
        <ele>171</ele>
        <time>2018-08-06T10:31:13Z</time>
      </trkpt>
      <trkpt lat="45.92717" lon="4.74235">
        <ele>171</ele>
        <time>2018-08-06T10:31:14Z</time>
      </trkpt>
      <trkpt lat="45.92721" lon="4.74228">
        <ele>171</ele>
        <time>2018-08-06T10:31:15Z</time>
      </trkpt>
      <trkpt lat="45.92725" lon="4.74223">
        <ele>171</ele>
        <time>2018-08-06T10:31:16Z</time>
      </trkpt>
      <trkpt lat="45.9273" lon="4.74217">
        <ele>171</ele>
        <time>2018-08-06T10:31:17Z</time>
      </trkpt>
      <trkpt lat="45.92734" lon="4.74212">
        <ele>171</ele>
        <time>2018-08-06T10:31:18Z</time>
      </trkpt>
      <trkpt lat="45.92737" lon="4.74208">
        <ele>171</ele>
        <time>2018-08-06T10:31:19Z</time>
      </trkpt>
      <trkpt lat="45.92742" lon="4.742">
        <ele>171</ele>
        <time>2018-08-06T10:31:20Z</time>
      </trkpt>
      <trkpt lat="45.92747" lon="4.74194">
        <ele>171</ele>
        <time>2018-08-06T10:31:21Z</time>
      </trkpt>
      <trkpt lat="45.92751" lon="4.7419">
        <ele>172</ele>
        <time>2018-08-06T10:31:22Z</time>
      </trkpt>
      <trkpt lat="45.92756" lon="4.74185">
        <ele>172</ele>
        <time>2018-08-06T10:31:23Z</time>
      </trkpt>
      <trkpt lat="45.92762" lon="4.74178">
        <ele>172</ele>
        <time>2018-08-06T10:31:24Z</time>
      </trkpt>
      <trkpt lat="45.92766" lon="4.74172">
        <ele>172</ele>
        <time>2018-08-06T10:31:25Z</time>
      </trkpt>
      <trkpt lat="45.92771" lon="4.74168">
        <ele>172</ele>
        <time>2018-08-06T10:31:26Z</time>
      </trkpt>
      <trkpt lat="45.92776" lon="4.74163">
        <ele>172</ele>
        <time>2018-08-06T10:31:27Z</time>
      </trkpt>
      <trkpt lat="45.92781" lon="4.74158">
        <ele>172</ele>
        <time>2018-08-06T10:31:28Z</time>
      </trkpt>
      <trkpt lat="45.92787" lon="4.74152">
        <ele>172</ele>
        <time>2018-08-06T10:31:29Z</time>
      </trkpt>
      <trkpt lat="45.92793" lon="4.74145">
        <ele>172</ele>
        <time>2018-08-06T10:31:30Z</time>
      </trkpt>
      <trkpt lat="45.92798" lon="4.74139">
        <ele>172</ele>
        <time>2018-08-06T10:31:31Z</time>
      </trkpt>
      <trkpt lat="45.92804" lon="4.74134">
        <ele>172</ele>
        <time>2018-08-06T10:31:32Z</time>
      </trkpt>
      <trkpt lat="45.92809" lon="4.74127">
        <ele>172</ele>
        <time>2018-08-06T10:31:33Z</time>
      </trkpt>
      <trkpt lat="45.92814" lon="4.74121">
        <ele>172</ele>
        <time>2018-08-06T10:31:34Z</time>
      </trkpt>
      <trkpt lat="45.92819" lon="4.74115">
        <ele>172</ele>
        <time>2018-08-06T10:31:35Z</time>
      </trkpt>
      <trkpt lat="45.92824" lon="4.7411">
        <ele>171</ele>
        <time>2018-08-06T10:31:36Z</time>
      </trkpt>
      <trkpt lat="45.92829" lon="4.74104">
        <ele>171</ele>
        <time>2018-08-06T10:31:37Z</time>
      </trkpt>
      <trkpt lat="45.92833" lon="4.74099">
        <ele>171</ele>
        <time>2018-08-06T10:31:38Z</time>
      </trkpt>
      <trkpt lat="45.92837" lon="4.74094">
        <ele>171</ele>
        <time>2018-08-06T10:31:39Z</time>
      </trkpt>
      <trkpt lat="45.92841" lon="4.74089">
        <ele>171</ele>
        <time>2018-08-06T10:31:40Z</time>
      </trkpt>
      <trkpt lat="45.92845" lon="4.74085">
        <ele>171</ele>
        <time>2018-08-06T10:31:41Z</time>
      </trkpt>
      <trkpt lat="45.92849" lon="4.7408">
        <ele>172</ele>
        <time>2018-08-06T10:31:42Z</time>
      </trkpt>
      <trkpt lat="45.92852" lon="4.74076">
        <ele>172</ele>
        <time>2018-08-06T10:31:43Z</time>
      </trkpt>
      <trkpt lat="45.92858" lon="4.74069">
        <ele>172</ele>
        <time>2018-08-06T10:31:44Z</time>
      </trkpt>
      <trkpt lat="45.92863" lon="4.74063">
        <ele>172</ele>
        <time>2018-08-06T10:31:45Z</time>
      </trkpt>
      <trkpt lat="45.92867" lon="4.74058">
        <ele>172</ele>
        <time>2018-08-06T10:31:46Z</time>
      </trkpt>
      <trkpt lat="45.92873" lon="4.74052">
        <ele>172</ele>
        <time>2018-08-06T10:31:47Z</time>
      </trkpt>
      <trkpt lat="45.92878" lon="4.7405">
        <ele>172</ele>
        <time>2018-08-06T10:31:48Z</time>
      </trkpt>
      <trkpt lat="45.92883" lon="4.7405">
        <ele>172</ele>
        <time>2018-08-06T10:31:49Z</time>
      </trkpt>
      <trkpt lat="45.92888" lon="4.74051">
        <ele>172</ele>
        <time>2018-08-06T10:31:50Z</time>
      </trkpt>
      <trkpt lat="45.92894" lon="4.74051">
        <ele>172</ele>
        <time>2018-08-06T10:31:51Z</time>
      </trkpt>
      <trkpt lat="45.92898" lon="4.74052">
        <ele>172</ele>
        <time>2018-08-06T10:31:52Z</time>
      </trkpt>
      <trkpt lat="45.92906" lon="4.74049">
        <ele>172</ele>
        <time>2018-08-06T10:31:54Z</time>
      </trkpt>
      <trkpt lat="45.92911" lon="4.74045">
        <ele>172</ele>
        <time>2018-08-06T10:31:55Z</time>
      </trkpt>
      <trkpt lat="45.92914" lon="4.7404">
        <ele>172</ele>
        <time>2018-08-06T10:31:56Z</time>
      </trkpt>
      <trkpt lat="45.92916" lon="4.74033">
        <ele>172</ele>
        <time>2018-08-06T10:31:57Z</time>
      </trkpt>
      <trkpt lat="45.92919" lon="4.74023">
        <ele>172</ele>
        <time>2018-08-06T10:31:58Z</time>
      </trkpt>
      <trkpt lat="45.92919" lon="4.74015">
        <ele>172</ele>
        <time>2018-08-06T10:31:59Z</time>
      </trkpt>
      <trkpt lat="45.92919" lon="4.74007">
        <ele>172</ele>
        <time>2018-08-06T10:32:00Z</time>
      </trkpt>
      <trkpt lat="45.92916" lon="4.73998">
        <ele>172</ele>
        <time>2018-08-06T10:32:01Z</time>
      </trkpt>
      <trkpt lat="45.92914" lon="4.73991">
        <ele>172</ele>
        <time>2018-08-06T10:32:02Z</time>
      </trkpt>
      <trkpt lat="45.9291" lon="4.73986">
        <ele>172</ele>
        <time>2018-08-06T10:32:03Z</time>
      </trkpt>
      <trkpt lat="45.92905" lon="4.73982">
        <ele>172</ele>
        <time>2018-08-06T10:32:04Z</time>
      </trkpt>
      <trkpt lat="45.929" lon="4.73977">
        <ele>172</ele>
        <time>2018-08-06T10:32:05Z</time>
      </trkpt>
      <trkpt lat="45.92896" lon="4.73971">
        <ele>172</ele>
        <time>2018-08-06T10:32:06Z</time>
      </trkpt>
      <trkpt lat="45.92893" lon="4.73965">
        <ele>172</ele>
        <time>2018-08-06T10:32:07Z</time>
      </trkpt>
      <trkpt lat="45.92892" lon="4.73957">
        <ele>172</ele>
        <time>2018-08-06T10:32:08Z</time>
      </trkpt>
      <trkpt lat="45.9289" lon="4.73947">
        <ele>172</ele>
        <time>2018-08-06T10:32:09Z</time>
      </trkpt>
      <trkpt lat="45.92888" lon="4.73937">
        <ele>172</ele>
        <time>2018-08-06T10:32:10Z</time>
      </trkpt>
      <trkpt lat="45.92888" lon="4.73926">
        <ele>172</ele>
        <time>2018-08-06T10:32:11Z</time>
      </trkpt>
      <trkpt lat="45.92885" lon="4.73916">
        <ele>173</ele>
        <time>2018-08-06T10:32:12Z</time>
      </trkpt>
      <trkpt lat="45.92884" lon="4.73905">
        <ele>173</ele>
        <time>2018-08-06T10:32:13Z</time>
      </trkpt>
      <trkpt lat="45.92882" lon="4.73896">
        <ele>173</ele>
        <time>2018-08-06T10:32:14Z</time>
      </trkpt>
      <trkpt lat="45.92881" lon="4.73886">
        <ele>173</ele>
        <time>2018-08-06T10:32:15Z</time>
      </trkpt>
      <trkpt lat="45.9288" lon="4.73876">
        <ele>173</ele>
        <time>2018-08-06T10:32:16Z</time>
      </trkpt>
      <trkpt lat="45.92879" lon="4.73865">
        <ele>173</ele>
        <time>2018-08-06T10:32:17Z</time>
      </trkpt>
      <trkpt lat="45.92875" lon="4.73855">
        <ele>173</ele>
        <time>2018-08-06T10:32:18Z</time>
      </trkpt>
      <trkpt lat="45.92873" lon="4.73843">
        <ele>173</ele>
        <time>2018-08-06T10:32:19Z</time>
      </trkpt>
      <trkpt lat="45.9287" lon="4.73834">
        <ele>173</ele>
        <time>2018-08-06T10:32:20Z</time>
      </trkpt>
      <trkpt lat="45.92869" lon="4.73825">
        <ele>173</ele>
        <time>2018-08-06T10:32:21Z</time>
      </trkpt>
      <trkpt lat="45.92867" lon="4.73818">
        <ele>173</ele>
        <time>2018-08-06T10:32:22Z</time>
      </trkpt>
      <trkpt lat="45.92864" lon="4.73811">
        <ele>173</ele>
        <time>2018-08-06T10:32:23Z</time>
      </trkpt>
      <trkpt lat="45.92867" lon="4.73804">
        <ele>173</ele>
        <time>2018-08-06T10:32:24Z</time>
      </trkpt>
      <trkpt lat="45.92863" lon="4.73796">
        <ele>173</ele>
        <time>2018-08-06T10:32:25Z</time>
      </trkpt>
      <trkpt lat="45.92859" lon="4.73789">
        <ele>173</ele>
        <time>2018-08-06T10:32:26Z</time>
      </trkpt>
      <trkpt lat="45.92856" lon="4.73785">
        <ele>173</ele>
        <time>2018-08-06T10:32:27Z</time>
      </trkpt>
      <trkpt lat="45.92852" lon="4.73782">
        <ele>173</ele>
        <time>2018-08-06T10:32:28Z</time>
      </trkpt>
      <trkpt lat="45.92847" lon="4.73779">
        <ele>172</ele>
        <time>2018-08-06T10:32:29Z</time>
      </trkpt>
      <trkpt lat="45.9284" lon="4.73772">
        <ele>172</ele>
        <time>2018-08-06T10:32:32Z</time>
      </trkpt>
      <trkpt lat="45.92832" lon="4.73767">
        <ele>172</ele>
        <time>2018-08-06T10:32:33Z</time>
      </trkpt>
      <trkpt lat="45.92826" lon="4.73764">
        <ele>172</ele>
        <time>2018-08-06T10:32:34Z</time>
      </trkpt>
      <trkpt lat="45.92821" lon="4.73758">
        <ele>172</ele>
        <time>2018-08-06T10:32:35Z</time>
      </trkpt>
      <trkpt lat="45.92815" lon="4.73758">
        <ele>172</ele>
        <time>2018-08-06T10:32:36Z</time>
      </trkpt>
      <trkpt lat="45.92807" lon="4.73755">
        <ele>173</ele>
        <time>2018-08-06T10:32:37Z</time>
      </trkpt>
      <trkpt lat="45.928" lon="4.73754">
        <ele>173</ele>
        <time>2018-08-06T10:32:38Z</time>
      </trkpt>
      <trkpt lat="45.92793" lon="4.7375">
        <ele>172</ele>
        <time>2018-08-06T10:32:39Z</time>
      </trkpt>
      <trkpt lat="45.92788" lon="4.73741">
        <ele>172</ele>
        <time>2018-08-06T10:32:41Z</time>
      </trkpt>
      <trkpt lat="45.92785" lon="4.73733">
        <ele>172</ele>
        <time>2018-08-06T10:32:42Z</time>
      </trkpt>
      <trkpt lat="45.92782" lon="4.73728">
        <ele>172</ele>
        <time>2018-08-06T10:32:43Z</time>
      </trkpt>
      <trkpt lat="45.92778" lon="4.73724">
        <ele>172</ele>
        <time>2018-08-06T10:32:44Z</time>
      </trkpt>
      <trkpt lat="45.92771" lon="4.73722">
        <ele>172</ele>
        <time>2018-08-06T10:32:45Z</time>
      </trkpt>
      <trkpt lat="45.92765" lon="4.73719">
        <ele>172</ele>
        <time>2018-08-06T10:32:46Z</time>
      </trkpt>
      <trkpt lat="45.92758" lon="4.73715">
        <ele>172</ele>
        <time>2018-08-06T10:32:47Z</time>
      </trkpt>
      <trkpt lat="45.92752" lon="4.73714">
        <ele>172</ele>
        <time>2018-08-06T10:32:48Z</time>
      </trkpt>
      <trkpt lat="45.92747" lon="4.73713">
        <ele>173</ele>
        <time>2018-08-06T10:32:49Z</time>
      </trkpt>
      <trkpt lat="45.92742" lon="4.73712">
        <ele>173</ele>
        <time>2018-08-06T10:32:50Z</time>
      </trkpt>
      <trkpt lat="45.92735" lon="4.73708">
        <ele>173</ele>
        <time>2018-08-06T10:32:51Z</time>
      </trkpt>
      <trkpt lat="45.9273" lon="4.73708">
        <ele>173</ele>
        <time>2018-08-06T10:32:52Z</time>
      </trkpt>
      <trkpt lat="45.92721" lon="4.73707">
        <ele>173</ele>
        <time>2018-08-06T10:32:53Z</time>
      </trkpt>
      <trkpt lat="45.92718" lon="4.73705">
        <ele>173</ele>
        <time>2018-08-06T10:32:54Z</time>
      </trkpt>
      <trkpt lat="45.9271" lon="4.73705">
        <ele>173</ele>
        <time>2018-08-06T10:32:56Z</time>
      </trkpt>
      <trkpt lat="45.92704" lon="4.73704">
        <ele>173</ele>
        <time>2018-08-06T10:32:57Z</time>
      </trkpt>
      <trkpt lat="45.92699" lon="4.73702">
        <ele>173</ele>
        <time>2018-08-06T10:32:58Z</time>
      </trkpt>
      <trkpt lat="45.92693" lon="4.73703">
        <ele>173</ele>
        <time>2018-08-06T10:32:59Z</time>
      </trkpt>
      <trkpt lat="45.92687" lon="4.73703">
        <ele>173</ele>
        <time>2018-08-06T10:33:00Z</time>
      </trkpt>
      <trkpt lat="45.92682" lon="4.73698">
        <ele>173</ele>
        <time>2018-08-06T10:33:01Z</time>
      </trkpt>
      <trkpt lat="45.92676" lon="4.73695">
        <ele>174</ele>
        <time>2018-08-06T10:33:02Z</time>
      </trkpt>
      <trkpt lat="45.92672" lon="4.73692">
        <ele>174</ele>
        <time>2018-08-06T10:33:03Z</time>
      </trkpt>
      <trkpt lat="45.92664" lon="4.73687">
        <ele>173</ele>
        <time>2018-08-06T10:33:08Z</time>
      </trkpt>
      <trkpt lat="45.92654" lon="4.73678">
        <ele>173</ele>
        <time>2018-08-06T10:33:09Z</time>
      </trkpt>
      <trkpt lat="45.9265" lon="4.73675">
        <ele>173</ele>
        <time>2018-08-06T10:33:10Z</time>
      </trkpt>
      <trkpt lat="45.92645" lon="4.7367">
        <ele>173</ele>
        <time>2018-08-06T10:33:11Z</time>
      </trkpt>
      <trkpt lat="45.92643" lon="4.73661">
        <ele>173</ele>
        <time>2018-08-06T10:33:12Z</time>
      </trkpt>
      <trkpt lat="45.92639" lon="4.73658">
        <ele>173</ele>
        <time>2018-08-06T10:33:13Z</time>
      </trkpt>
      <trkpt lat="45.92635" lon="4.73652">
        <ele>173</ele>
        <time>2018-08-06T10:33:14Z</time>
      </trkpt>
      <trkpt lat="45.92632" lon="4.73646">
        <ele>173</ele>
        <time>2018-08-06T10:33:15Z</time>
      </trkpt>
      <trkpt lat="45.92627" lon="4.73637">
        <ele>173</ele>
        <time>2018-08-06T10:33:17Z</time>
      </trkpt>
      <trkpt lat="45.92623" lon="4.73628">
        <ele>173</ele>
        <time>2018-08-06T10:33:18Z</time>
      </trkpt>
      <trkpt lat="45.92617" lon="4.73619">
        <ele>173</ele>
        <time>2018-08-06T10:33:21Z</time>
      </trkpt>
      <trkpt lat="45.92615" lon="4.73617">
        <ele>173</ele>
        <time>2018-08-06T10:33:22Z</time>
      </trkpt>
      <trkpt lat="45.92606" lon="4.73615">
        <ele>173</ele>
        <time>2018-08-06T10:33:23Z</time>
      </trkpt>
      <trkpt lat="45.92605" lon="4.73616">
        <ele>173</ele>
        <time>2018-08-06T10:33:24Z</time>
      </trkpt>
      <trkpt lat="45.92603" lon="4.73616">
        <ele>173</ele>
        <time>2018-08-06T10:33:25Z</time>
      </trkpt>
      <trkpt lat="45.92594" lon="4.73618">
        <ele>173</ele>
        <time>2018-08-06T10:33:26Z</time>
      </trkpt>
      <trkpt lat="45.92585" lon="4.7362">
        <ele>173</ele>
        <time>2018-08-06T10:33:27Z</time>
      </trkpt>
      <trkpt lat="45.92574" lon="4.73623">
        <ele>173</ele>
        <time>2018-08-06T10:33:28Z</time>
      </trkpt>
      <trkpt lat="45.92566" lon="4.73623">
        <ele>173</ele>
        <time>2018-08-06T10:33:29Z</time>
      </trkpt>
      <trkpt lat="45.92562" lon="4.73628">
        <ele>173</ele>
        <time>2018-08-06T10:33:30Z</time>
      </trkpt>
      <trkpt lat="45.92555" lon="4.73627">
        <ele>173</ele>
        <time>2018-08-06T10:33:31Z</time>
      </trkpt>
      <trkpt lat="45.9255" lon="4.73628">
        <ele>173</ele>
        <time>2018-08-06T10:33:32Z</time>
      </trkpt>
      <trkpt lat="45.92545" lon="4.73628">
        <ele>173</ele>
        <time>2018-08-06T10:33:33Z</time>
      </trkpt>
      <trkpt lat="45.9254" lon="4.73628">
        <ele>173</ele>
        <time>2018-08-06T10:33:34Z</time>
      </trkpt>
      <trkpt lat="45.92532" lon="4.73632">
        <ele>173</ele>
        <time>2018-08-06T10:33:36Z</time>
      </trkpt>
      <trkpt lat="45.92528" lon="4.73633">
        <ele>173</ele>
        <time>2018-08-06T10:33:37Z</time>
      </trkpt>
      <trkpt lat="45.92523" lon="4.73634">
        <ele>173</ele>
        <time>2018-08-06T10:33:38Z</time>
      </trkpt>
      <trkpt lat="45.92518" lon="4.73633">
        <ele>173</ele>
        <time>2018-08-06T10:33:39Z</time>
      </trkpt>
      <trkpt lat="45.9251" lon="4.73633">
        <ele>173</ele>
        <time>2018-08-06T10:33:41Z</time>
      </trkpt>
      <trkpt lat="45.92505" lon="4.73632">
        <ele>173</ele>
        <time>2018-08-06T10:33:42Z</time>
      </trkpt>
      <trkpt lat="45.92497" lon="4.73632">
        <ele>174</ele>
        <time>2018-08-06T10:33:46Z</time>
      </trkpt>
      <trkpt lat="45.92494" lon="4.73632">
        <ele>174</ele>
        <time>2018-08-06T10:33:47Z</time>
      </trkpt>
      <trkpt lat="45.92486" lon="4.73634">
        <ele>174</ele>
        <time>2018-08-06T10:33:49Z</time>
      </trkpt>
      <trkpt lat="45.92483" lon="4.73635">
        <ele>174</ele>
        <time>2018-08-06T10:33:50Z</time>
      </trkpt>
      <trkpt lat="45.9248" lon="4.73636">
        <ele>174</ele>
        <time>2018-08-06T10:33:51Z</time>
      </trkpt>
      <trkpt lat="45.92471" lon="4.73642">
        <ele>174</ele>
        <time>2018-08-06T10:33:52Z</time>
      </trkpt>
      <trkpt lat="45.92467" lon="4.73651">
        <ele>174</ele>
        <time>2018-08-06T10:33:55Z</time>
      </trkpt>
      <trkpt lat="45.92466" lon="4.73654">
        <ele>174</ele>
        <time>2018-08-06T10:33:56Z</time>
      </trkpt>
      <trkpt lat="45.92464" lon="4.73665">
        <ele>174</ele>
        <time>2018-08-06T10:33:57Z</time>
      </trkpt>
      <trkpt lat="45.92463" lon="4.73671">
        <ele>174</ele>
        <time>2018-08-06T10:33:58Z</time>
      </trkpt>
      <trkpt lat="45.92464" lon="4.73683">
        <ele>174</ele>
        <time>2018-08-06T10:34:02Z</time>
      </trkpt>
      <trkpt lat="45.92464" lon="4.73687">
        <ele>174</ele>
        <time>2018-08-06T10:34:03Z</time>
      </trkpt>
      <trkpt lat="45.92465" lon="4.73699">
        <ele>174</ele>
        <time>2018-08-06T10:34:09Z</time>
      </trkpt>
      <trkpt lat="45.92465" lon="4.737">
        <ele>174</ele>
        <time>2018-08-06T10:34:10Z</time>
      </trkpt>
      <trkpt lat="45.92465" lon="4.737">
        <ele>174</ele>
        <time>2018-08-06T10:34:11Z</time>
      </trkpt>
      <trkpt lat="45.92465" lon="4.73701">
        <ele>174</ele>
        <time>2018-08-06T10:34:12Z</time>
      </trkpt>
      <trkpt lat="45.92464" lon="4.73701">
        <ele>174</ele>
        <time>2018-08-06T10:34:13Z</time>
      </trkpt>
      <trkpt lat="45.92461" lon="4.73704">
        <ele>174</ele>
        <time>2018-08-06T10:34:22Z</time>
      </trkpt>
      <trkpt lat="45.92461" lon="4.73704">
        <ele>174</ele>
        <time>2018-08-06T10:34:23Z</time>
      </trkpt>
      <trkpt lat="45.9246" lon="4.73705">
        <ele>174</ele>
        <time>2018-08-06T10:34:25Z</time>
      </trkpt>
      <trkpt lat="45.9246" lon="4.73705">
        <ele>174</ele>
        <time>2018-08-06T10:34:26Z</time>
      </trkpt>
      <trkpt lat="45.9246" lon="4.73706">
        <ele>174</ele>
        <time>2018-08-06T10:34:27Z</time>
      </trkpt>
      <trkpt lat="45.92459" lon="4.7371">
        <ele>174</ele>
        <time>2018-08-06T10:34:33.905Z</time>
      </trkpt>
    </trkseg>
  </trk>
</gpx>